<?xml version="1.0" encoding="UTF-8" standalone="no" ?>
<gpx xmlns="http://www.topografix.com/GPX/1/1" xmlns:xsi="http://www.w3.org/2001/XMLSchema-instance" xsi:schemaLocation="http://www.topografix.com/GPX/1/1 http://www.topografix.com/GPX/1/1/gpx.xsd" version="1.1" creator="VisuGPX - https://www.visugpx.com">
  <metadata>
    <name>2022-10-01_bernezzo</name>
  </metadata>
  <trk>
    <name><![CDATA[2022-10-01_bernezzo]]></name>
    <extensions>
      <line xmlns="http://www.topografix.com/GPX/gpx_style/0/2">
        <width>4</width>
      </line>
    </extensions>
    <trkseg>
      <trkpt lat="44.36269" lon="7.47325">
        <ele>626.5</ele>
        <time>2022-10-01T13:46:59.000Z</time>
      </trkpt>
      <trkpt lat="44.36269" lon="7.47325">
        <ele>626.5</ele>
        <time>2022-10-01T13:47:04.000Z</time>
      </trkpt>
      <trkpt lat="44.36661" lon="7.47719">
        <ele>626.5</ele>
        <time>2022-10-01T13:47:09.000Z</time>
      </trkpt>
      <trkpt lat="44.36277" lon="7.47312">
        <ele>626.5</ele>
        <time>2022-10-01T13:47:13.000Z</time>
      </trkpt>
      <trkpt lat="44.36285" lon="7.47303">
        <ele>626.5</ele>
        <time>2022-10-01T13:47:17.000Z</time>
      </trkpt>
      <trkpt lat="44.36283" lon="7.47289">
        <ele>626.5</ele>
        <time>2022-10-01T13:47:20.000Z</time>
      </trkpt>
      <trkpt lat="44.36285" lon="7.47296">
        <ele>626.5</ele>
        <time>2022-10-01T13:47:32.000Z</time>
      </trkpt>
      <trkpt lat="44.36285" lon="7.47297">
        <ele>626.5</ele>
        <time>2022-10-01T13:47:34.000Z</time>
      </trkpt>
      <trkpt lat="44.36286" lon="7.47299">
        <ele>626.5</ele>
        <time>2022-10-01T13:47:37.000Z</time>
      </trkpt>
      <trkpt lat="44.36286" lon="7.473">
        <ele>626.5</ele>
        <time>2022-10-01T13:47:40.000Z</time>
      </trkpt>
      <trkpt lat="44.36287" lon="7.473">
        <ele>626.5</ele>
        <time>2022-10-01T13:47:43.000Z</time>
      </trkpt>
      <trkpt lat="44.36285" lon="7.47301">
        <ele>626.5</ele>
        <time>2022-10-01T13:47:52.000Z</time>
      </trkpt>
      <trkpt lat="44.36286" lon="7.47301">
        <ele>626.5</ele>
        <time>2022-10-01T13:47:53.000Z</time>
      </trkpt>
      <trkpt lat="44.36285" lon="7.47301">
        <ele>626.5</ele>
        <time>2022-10-01T13:47:54.000Z</time>
      </trkpt>
      <trkpt lat="44.36277" lon="7.47305">
        <ele>626.5</ele>
        <time>2022-10-01T13:48:02.000Z</time>
      </trkpt>
      <trkpt lat="44.36277" lon="7.47305">
        <ele>626.5</ele>
        <time>2022-10-01T13:48:02.000Z</time>
      </trkpt>
      <trkpt lat="44.36277" lon="7.47305">
        <ele>626.5</ele>
        <time>2022-10-01T13:48:05.000Z</time>
      </trkpt>
      <trkpt lat="44.3628" lon="7.47308">
        <ele>626.5</ele>
        <time>2022-10-01T13:48:12.000Z</time>
      </trkpt>
      <trkpt lat="44.3628" lon="7.47308">
        <ele>626.5</ele>
        <time>2022-10-01T13:48:15.000Z</time>
      </trkpt>
      <trkpt lat="44.3628" lon="7.47309">
        <ele>626.5</ele>
        <time>2022-10-01T13:48:18.000Z</time>
      </trkpt>
      <trkpt lat="44.3628" lon="7.47309">
        <ele>626.5</ele>
        <time>2022-10-01T13:48:19.000Z</time>
      </trkpt>
      <trkpt lat="44.3628" lon="7.4731">
        <ele>626.5</ele>
        <time>2022-10-01T13:48:22.000Z</time>
      </trkpt>
      <trkpt lat="44.3628" lon="7.4731">
        <ele>626.5</ele>
        <time>2022-10-01T13:48:26.000Z</time>
      </trkpt>
      <trkpt lat="44.36283" lon="7.4731">
        <ele>626.5</ele>
        <time>2022-10-01T13:48:32.000Z</time>
      </trkpt>
      <trkpt lat="44.36283" lon="7.4731">
        <ele>605</ele>
        <time>2022-10-01T13:48:47.000Z</time>
      </trkpt>
      <trkpt lat="44.36284" lon="7.4731">
        <ele>605.5</ele>
        <time>2022-10-01T13:48:47.000Z</time>
      </trkpt>
      <trkpt lat="44.36283" lon="7.47309">
        <ele>605.5</ele>
        <time>2022-10-01T13:48:49.000Z</time>
      </trkpt>
      <trkpt lat="44.36282" lon="7.47309">
        <ele>606.5</ele>
        <time>2022-10-01T13:48:53.000Z</time>
      </trkpt>
      <trkpt lat="44.36281" lon="7.47308">
        <ele>606.5</ele>
        <time>2022-10-01T13:48:54.000Z</time>
      </trkpt>
      <trkpt lat="44.36278" lon="7.47307">
        <ele>606.5</ele>
        <time>2022-10-01T13:48:57.000Z</time>
      </trkpt>
      <trkpt lat="44.36278" lon="7.47307">
        <ele>607.3</ele>
        <time>2022-10-01T13:49:02.000Z</time>
      </trkpt>
      <trkpt lat="44.36277" lon="7.47307">
        <ele>607.5</ele>
        <time>2022-10-01T13:49:06.000Z</time>
      </trkpt>
      <trkpt lat="44.36277" lon="7.47307">
        <ele>609.8</ele>
        <time>2022-10-01T13:49:09.000Z</time>
      </trkpt>
      <trkpt lat="44.3628" lon="7.47306">
        <ele>612.5</ele>
        <time>2022-10-01T13:49:14.000Z</time>
      </trkpt>
      <trkpt lat="44.36279" lon="7.47307">
        <ele>612.5</ele>
        <time>2022-10-01T13:49:34.000Z</time>
      </trkpt>
      <trkpt lat="44.3628" lon="7.47308">
        <ele>611.6</ele>
        <time>2022-10-01T13:49:38.000Z</time>
      </trkpt>
      <trkpt lat="44.36281" lon="7.47307">
        <ele>610.8</ele>
        <time>2022-10-01T13:49:40.000Z</time>
      </trkpt>
      <trkpt lat="44.3628" lon="7.47307">
        <ele>610.5</ele>
        <time>2022-10-01T13:49:46.000Z</time>
      </trkpt>
      <trkpt lat="44.36281" lon="7.47307">
        <ele>611.3</ele>
        <time>2022-10-01T13:49:47.000Z</time>
      </trkpt>
      <trkpt lat="44.36277" lon="7.47311">
        <ele>611.5</ele>
        <time>2022-10-01T13:50:01.000Z</time>
      </trkpt>
      <trkpt lat="44.36276" lon="7.47311">
        <ele>612.3</ele>
        <time>2022-10-01T13:50:03.000Z</time>
      </trkpt>
      <trkpt lat="44.36275" lon="7.47311">
        <ele>612.5</ele>
        <time>2022-10-01T13:50:07.000Z</time>
      </trkpt>
      <trkpt lat="44.36276" lon="7.47311">
        <ele>612.5</ele>
        <time>2022-10-01T13:50:16.000Z</time>
      </trkpt>
      <trkpt lat="44.36272" lon="7.47314">
        <ele>612.5</ele>
        <time>2022-10-01T13:50:22.000Z</time>
      </trkpt>
      <trkpt lat="44.36272" lon="7.47314">
        <ele>613.3</ele>
        <time>2022-10-01T13:50:27.000Z</time>
      </trkpt>
      <trkpt lat="44.36271" lon="7.47315">
        <ele>614.5</ele>
        <time>2022-10-01T13:50:31.000Z</time>
      </trkpt>
      <trkpt lat="44.36272" lon="7.47315">
        <ele>615.3</ele>
        <time>2022-10-01T13:50:35.000Z</time>
      </trkpt>
      <trkpt lat="44.36273" lon="7.47316">
        <ele>615.5</ele>
        <time>2022-10-01T13:50:40.000Z</time>
      </trkpt>
      <trkpt lat="44.36274" lon="7.47316">
        <ele>614.8</ele>
        <time>2022-10-01T13:50:42.000Z</time>
      </trkpt>
      <trkpt lat="44.36277" lon="7.47317">
        <ele>612.5</ele>
        <time>2022-10-01T13:50:52.000Z</time>
      </trkpt>
      <trkpt lat="44.36275" lon="7.47317">
        <ele>612.5</ele>
        <time>2022-10-01T13:51:03.000Z</time>
      </trkpt>
      <trkpt lat="44.36274" lon="7.47317">
        <ele>613.5</ele>
        <time>2022-10-01T13:51:03.000Z</time>
      </trkpt>
      <trkpt lat="44.36275" lon="7.47317">
        <ele>613.5</ele>
        <time>2022-10-01T13:51:06.000Z</time>
      </trkpt>
      <trkpt lat="44.36275" lon="7.47317">
        <ele>613.5</ele>
        <time>2022-10-01T13:51:08.000Z</time>
      </trkpt>
      <trkpt lat="44.36275" lon="7.47318">
        <ele>613.5</ele>
        <time>2022-10-01T13:51:26.000Z</time>
      </trkpt>
      <trkpt lat="44.36278" lon="7.47319">
        <ele>611.5</ele>
        <time>2022-10-01T13:51:33.000Z</time>
      </trkpt>
      <trkpt lat="44.36279" lon="7.47319">
        <ele>611.5</ele>
        <time>2022-10-01T13:51:39.000Z</time>
      </trkpt>
      <trkpt lat="44.36281" lon="7.4732">
        <ele>612.5</ele>
        <time>2022-10-01T13:51:42.000Z</time>
      </trkpt>
      <trkpt lat="44.36281" lon="7.4732">
        <ele>612.5</ele>
        <time>2022-10-01T13:51:43.000Z</time>
      </trkpt>
      <trkpt lat="44.3628" lon="7.4732">
        <ele>612.5</ele>
        <time>2022-10-01T13:51:43.000Z</time>
      </trkpt>
      <trkpt lat="44.36279" lon="7.47321">
        <ele>612.5</ele>
        <time>2022-10-01T13:52:01.000Z</time>
      </trkpt>
      <trkpt lat="44.36279" lon="7.4732">
        <ele>613.5</ele>
        <time>2022-10-01T13:52:07.000Z</time>
      </trkpt>
      <trkpt lat="44.3628" lon="7.4732">
        <ele>612.8</ele>
        <time>2022-10-01T13:52:08.000Z</time>
      </trkpt>
      <trkpt lat="44.36281" lon="7.4732">
        <ele>612.6</ele>
        <time>2022-10-01T13:52:08.000Z</time>
      </trkpt>
      <trkpt lat="44.36281" lon="7.4732">
        <ele>612.6</ele>
        <time>2022-10-01T13:52:08.000Z</time>
      </trkpt>
      <trkpt lat="44.36281" lon="7.4732">
        <ele>612.5</ele>
        <time>2022-10-01T13:52:10.000Z</time>
      </trkpt>
      <trkpt lat="44.36281" lon="7.4732">
        <ele>618.2</ele>
        <time>2022-10-01T13:52:19.000Z</time>
      </trkpt>
      <trkpt lat="44.36281" lon="7.4732">
        <ele>620</ele>
        <time>2022-10-01T13:52:22.000Z</time>
      </trkpt>
      <trkpt lat="44.36282" lon="7.47319">
        <ele>621.5</ele>
        <time>2022-10-01T13:52:23.000Z</time>
      </trkpt>
      <trkpt lat="44.36282" lon="7.47319">
        <ele>621.5</ele>
        <time>2022-10-01T13:52:26.000Z</time>
      </trkpt>
      <trkpt lat="44.36284" lon="7.4732">
        <ele>625.5</ele>
        <time>2022-10-01T13:52:34.000Z</time>
      </trkpt>
      <trkpt lat="44.36285" lon="7.47321">
        <ele>626.5</ele>
        <time>2022-10-01T13:52:40.000Z</time>
      </trkpt>
      <trkpt lat="44.36285" lon="7.47321">
        <ele>626.5</ele>
        <time>2022-10-01T13:52:41.000Z</time>
      </trkpt>
      <trkpt lat="44.36285" lon="7.47321">
        <ele>626.5</ele>
        <time>2022-10-01T13:52:51.000Z</time>
      </trkpt>
      <trkpt lat="44.36286" lon="7.47321">
        <ele>626.5</ele>
        <time>2022-10-01T13:52:53.000Z</time>
      </trkpt>
      <trkpt lat="44.36286" lon="7.4732">
        <ele>626.5</ele>
        <time>2022-10-01T13:53:03.000Z</time>
      </trkpt>
      <trkpt lat="44.36285" lon="7.4732">
        <ele>626.5</ele>
        <time>2022-10-01T13:53:04.000Z</time>
      </trkpt>
      <trkpt lat="44.36284" lon="7.4732">
        <ele>626.5</ele>
        <time>2022-10-01T13:53:06.000Z</time>
      </trkpt>
      <trkpt lat="44.36284" lon="7.4732">
        <ele>626.5</ele>
        <time>2022-10-01T13:53:08.000Z</time>
      </trkpt>
      <trkpt lat="44.36283" lon="7.47321">
        <ele>626.5</ele>
        <time>2022-10-01T13:53:09.000Z</time>
      </trkpt>
      <trkpt lat="44.36283" lon="7.47321">
        <ele>626.5</ele>
        <time>2022-10-01T13:53:12.000Z</time>
      </trkpt>
      <trkpt lat="44.36282" lon="7.4732">
        <ele>626.5</ele>
        <time>2022-10-01T13:53:16.000Z</time>
      </trkpt>
      <trkpt lat="44.36279" lon="7.47319">
        <ele>626.5</ele>
        <time>2022-10-01T13:53:21.000Z</time>
      </trkpt>
      <trkpt lat="44.36279" lon="7.47319">
        <ele>626.5</ele>
        <time>2022-10-01T13:53:23.000Z</time>
      </trkpt>
      <trkpt lat="44.36277" lon="7.4732">
        <ele>626.5</ele>
        <time>2022-10-01T13:53:27.000Z</time>
      </trkpt>
      <trkpt lat="44.36276" lon="7.47319">
        <ele>626.5</ele>
        <time>2022-10-01T13:53:41.000Z</time>
      </trkpt>
      <trkpt lat="44.36276" lon="7.47318">
        <ele>626.5</ele>
        <time>2022-10-01T13:53:45.000Z</time>
      </trkpt>
      <trkpt lat="44.36275" lon="7.47317">
        <ele>626.5</ele>
        <time>2022-10-01T13:53:54.000Z</time>
      </trkpt>
      <trkpt lat="44.36275" lon="7.47315">
        <ele>626.5</ele>
        <time>2022-10-01T13:53:58.000Z</time>
      </trkpt>
      <trkpt lat="44.36275" lon="7.47315">
        <ele>626.5</ele>
        <time>2022-10-01T13:54:04.000Z</time>
      </trkpt>
      <trkpt lat="44.3628" lon="7.47319">
        <ele>626.5</ele>
        <time>2022-10-01T13:54:11.000Z</time>
      </trkpt>
      <trkpt lat="44.3628" lon="7.47319">
        <ele>626.5</ele>
        <time>2022-10-01T13:54:16.000Z</time>
      </trkpt>
      <trkpt lat="44.36281" lon="7.4732">
        <ele>626.5</ele>
        <time>2022-10-01T13:54:17.000Z</time>
      </trkpt>
      <trkpt lat="44.36281" lon="7.47321">
        <ele>626.5</ele>
        <time>2022-10-01T13:54:18.000Z</time>
      </trkpt>
      <trkpt lat="44.36283" lon="7.47333">
        <ele>626.5</ele>
        <time>2022-10-01T13:54:23.000Z</time>
      </trkpt>
      <trkpt lat="44.36283" lon="7.47333">
        <ele>626.5</ele>
        <time>2022-10-01T13:54:25.000Z</time>
      </trkpt>
      <trkpt lat="44.36283" lon="7.47343">
        <ele>626.3</ele>
        <time>2022-10-01T13:54:36.000Z</time>
      </trkpt>
      <trkpt lat="44.36284" lon="7.47344">
        <ele>626</ele>
        <time>2022-10-01T13:55:13.000Z</time>
      </trkpt>
      <trkpt lat="44.36287" lon="7.47346">
        <ele>626</ele>
        <time>2022-10-01T13:55:15.000Z</time>
      </trkpt>
      <trkpt lat="44.36289" lon="7.47347">
        <ele>625.9</ele>
        <time>2022-10-01T13:55:17.000Z</time>
      </trkpt>
      <trkpt lat="44.36299" lon="7.47352">
        <ele>625.9</ele>
        <time>2022-10-01T13:55:20.000Z</time>
      </trkpt>
      <trkpt lat="44.36308" lon="7.47355">
        <ele>625.9</ele>
        <time>2022-10-01T13:55:23.000Z</time>
      </trkpt>
      <trkpt lat="44.3632" lon="7.47358">
        <ele>625.9</ele>
        <time>2022-10-01T13:55:26.000Z</time>
      </trkpt>
      <trkpt lat="44.36331" lon="7.47363">
        <ele>625.9</ele>
        <time>2022-10-01T13:55:29.000Z</time>
      </trkpt>
      <trkpt lat="44.36341" lon="7.47367">
        <ele>625.9</ele>
        <time>2022-10-01T13:55:32.000Z</time>
      </trkpt>
      <trkpt lat="44.3635" lon="7.4737">
        <ele>625.9</ele>
        <time>2022-10-01T13:55:34.000Z</time>
      </trkpt>
      <trkpt lat="44.36362" lon="7.47375">
        <ele>625.9</ele>
        <time>2022-10-01T13:55:37.000Z</time>
      </trkpt>
      <trkpt lat="44.36372" lon="7.47378">
        <ele>625.9</ele>
        <time>2022-10-01T13:55:40.000Z</time>
      </trkpt>
      <trkpt lat="44.36383" lon="7.47379">
        <ele>625.9</ele>
        <time>2022-10-01T13:55:42.000Z</time>
      </trkpt>
      <trkpt lat="44.36392" lon="7.4738">
        <ele>625.9</ele>
        <time>2022-10-01T13:55:44.000Z</time>
      </trkpt>
      <trkpt lat="44.36405" lon="7.47383">
        <ele>625.9</ele>
        <time>2022-10-01T13:55:47.000Z</time>
      </trkpt>
      <trkpt lat="44.36415" lon="7.47387">
        <ele>625.9</ele>
        <time>2022-10-01T13:55:49.000Z</time>
      </trkpt>
      <trkpt lat="44.36428" lon="7.47392">
        <ele>625.9</ele>
        <time>2022-10-01T13:55:52.000Z</time>
      </trkpt>
      <trkpt lat="44.36439" lon="7.47392">
        <ele>625.9</ele>
        <time>2022-10-01T13:55:54.000Z</time>
      </trkpt>
      <trkpt lat="44.36447" lon="7.47382">
        <ele>625.9</ele>
        <time>2022-10-01T13:55:57.000Z</time>
      </trkpt>
      <trkpt lat="44.36446" lon="7.47369">
        <ele>625.9</ele>
        <time>2022-10-01T13:55:59.000Z</time>
      </trkpt>
      <trkpt lat="44.36445" lon="7.47352">
        <ele>625.9</ele>
        <time>2022-10-01T13:56:02.000Z</time>
      </trkpt>
      <trkpt lat="44.36444" lon="7.47337">
        <ele>625.9</ele>
        <time>2022-10-01T13:56:05.000Z</time>
      </trkpt>
      <trkpt lat="44.36443" lon="7.47322">
        <ele>625.9</ele>
        <time>2022-10-01T13:56:08.000Z</time>
      </trkpt>
      <trkpt lat="44.36442" lon="7.47303">
        <ele>625.9</ele>
        <time>2022-10-01T13:56:11.000Z</time>
      </trkpt>
      <trkpt lat="44.36441" lon="7.47286">
        <ele>625.9</ele>
        <time>2022-10-01T13:56:14.000Z</time>
      </trkpt>
      <trkpt lat="44.36441" lon="7.47274">
        <ele>625.9</ele>
        <time>2022-10-01T13:56:16.000Z</time>
      </trkpt>
      <trkpt lat="44.3644" lon="7.47256">
        <ele>625.9</ele>
        <time>2022-10-01T13:56:19.000Z</time>
      </trkpt>
      <trkpt lat="44.3644" lon="7.47238">
        <ele>625.9</ele>
        <time>2022-10-01T13:56:22.000Z</time>
      </trkpt>
      <trkpt lat="44.36441" lon="7.47225">
        <ele>625.9</ele>
        <time>2022-10-01T13:56:24.000Z</time>
      </trkpt>
      <trkpt lat="44.36441" lon="7.47211">
        <ele>625.9</ele>
        <time>2022-10-01T13:56:26.000Z</time>
      </trkpt>
      <trkpt lat="44.3644" lon="7.47198">
        <ele>625.9</ele>
        <time>2022-10-01T13:56:28.000Z</time>
      </trkpt>
      <trkpt lat="44.36439" lon="7.47185">
        <ele>625.9</ele>
        <time>2022-10-01T13:56:30.000Z</time>
      </trkpt>
      <trkpt lat="44.36439" lon="7.47168">
        <ele>625.9</ele>
        <time>2022-10-01T13:56:33.000Z</time>
      </trkpt>
      <trkpt lat="44.36438" lon="7.47151">
        <ele>625.9</ele>
        <time>2022-10-01T13:56:36.000Z</time>
      </trkpt>
      <trkpt lat="44.36437" lon="7.47135">
        <ele>625.9</ele>
        <time>2022-10-01T13:56:39.000Z</time>
      </trkpt>
      <trkpt lat="44.36436" lon="7.47119">
        <ele>625.9</ele>
        <time>2022-10-01T13:56:42.000Z</time>
      </trkpt>
      <trkpt lat="44.36435" lon="7.47104">
        <ele>625.9</ele>
        <time>2022-10-01T13:56:45.000Z</time>
      </trkpt>
      <trkpt lat="44.36435" lon="7.47088">
        <ele>616.8</ele>
        <time>2022-10-01T13:56:49.000Z</time>
      </trkpt>
      <trkpt lat="44.36435" lon="7.47072">
        <ele>617.5</ele>
        <time>2022-10-01T13:56:53.000Z</time>
      </trkpt>
      <trkpt lat="44.36435" lon="7.47058">
        <ele>617.5</ele>
        <time>2022-10-01T13:56:57.000Z</time>
      </trkpt>
      <trkpt lat="44.36434" lon="7.47044">
        <ele>617.5</ele>
        <time>2022-10-01T13:57:01.000Z</time>
      </trkpt>
      <trkpt lat="44.36434" lon="7.4703">
        <ele>618.5</ele>
        <time>2022-10-01T13:57:05.000Z</time>
      </trkpt>
      <trkpt lat="44.36445" lon="7.47025">
        <ele>618.5</ele>
        <time>2022-10-01T13:57:09.000Z</time>
      </trkpt>
      <trkpt lat="44.36454" lon="7.47024">
        <ele>618.5</ele>
        <time>2022-10-01T13:57:11.000Z</time>
      </trkpt>
      <trkpt lat="44.36465" lon="7.47023">
        <ele>619.3</ele>
        <time>2022-10-01T13:57:14.000Z</time>
      </trkpt>
      <trkpt lat="44.36475" lon="7.47021">
        <ele>620.5</ele>
        <time>2022-10-01T13:57:16.000Z</time>
      </trkpt>
      <trkpt lat="44.36486" lon="7.47021">
        <ele>620.5</ele>
        <time>2022-10-01T13:57:18.000Z</time>
      </trkpt>
      <trkpt lat="44.36496" lon="7.47022">
        <ele>619.8</ele>
        <time>2022-10-01T13:57:20.000Z</time>
      </trkpt>
      <trkpt lat="44.36509" lon="7.47021">
        <ele>618.8</ele>
        <time>2022-10-01T13:57:23.000Z</time>
      </trkpt>
      <trkpt lat="44.3652" lon="7.47023">
        <ele>617.6</ele>
        <time>2022-10-01T13:57:25.000Z</time>
      </trkpt>
      <trkpt lat="44.3653" lon="7.47024">
        <ele>617.5</ele>
        <time>2022-10-01T13:57:27.000Z</time>
      </trkpt>
      <trkpt lat="44.3654" lon="7.47024">
        <ele>617.5</ele>
        <time>2022-10-01T13:57:29.000Z</time>
      </trkpt>
      <trkpt lat="44.3655" lon="7.47026">
        <ele>618.5</ele>
        <time>2022-10-01T13:57:31.000Z</time>
      </trkpt>
      <trkpt lat="44.36561" lon="7.47027">
        <ele>618.5</ele>
        <time>2022-10-01T13:57:33.000Z</time>
      </trkpt>
      <trkpt lat="44.3657" lon="7.47027">
        <ele>618.5</ele>
        <time>2022-10-01T13:57:35.000Z</time>
      </trkpt>
      <trkpt lat="44.3658" lon="7.47028">
        <ele>618.5</ele>
        <time>2022-10-01T13:57:37.000Z</time>
      </trkpt>
      <trkpt lat="44.36591" lon="7.4703">
        <ele>617.8</ele>
        <time>2022-10-01T13:57:39.000Z</time>
      </trkpt>
      <trkpt lat="44.36601" lon="7.4703">
        <ele>616.8</ele>
        <time>2022-10-01T13:57:41.000Z</time>
      </trkpt>
      <trkpt lat="44.36613" lon="7.47032">
        <ele>616.6</ele>
        <time>2022-10-01T13:57:43.000Z</time>
      </trkpt>
      <trkpt lat="44.36623" lon="7.47031">
        <ele>616.5</ele>
        <time>2022-10-01T13:57:45.000Z</time>
      </trkpt>
      <trkpt lat="44.36635" lon="7.47031">
        <ele>616.5</ele>
        <time>2022-10-01T13:57:48.000Z</time>
      </trkpt>
      <trkpt lat="44.36645" lon="7.4703">
        <ele>617.5</ele>
        <time>2022-10-01T13:57:51.000Z</time>
      </trkpt>
      <trkpt lat="44.36651" lon="7.47031">
        <ele>617.5</ele>
        <time>2022-10-01T13:57:52.000Z</time>
      </trkpt>
      <trkpt lat="44.36652" lon="7.47032">
        <ele>617.5</ele>
        <time>2022-10-01T13:57:53.000Z</time>
      </trkpt>
      <trkpt lat="44.36667" lon="7.47031">
        <ele>622.8</ele>
        <time>2022-10-01T13:57:57.000Z</time>
      </trkpt>
      <trkpt lat="44.36674" lon="7.4703">
        <ele>622.8</ele>
        <time>2022-10-01T13:57:57.000Z</time>
      </trkpt>
      <trkpt lat="44.36677" lon="7.47031">
        <ele>622.8</ele>
        <time>2022-10-01T13:57:58.000Z</time>
      </trkpt>
      <trkpt lat="44.36689" lon="7.47033">
        <ele>622.8</ele>
        <time>2022-10-01T13:58:01.000Z</time>
      </trkpt>
      <trkpt lat="44.36688" lon="7.47032">
        <ele>622.8</ele>
        <time>2022-10-01T13:58:02.000Z</time>
      </trkpt>
      <trkpt lat="44.36692" lon="7.47033">
        <ele>622.8</ele>
        <time>2022-10-01T13:58:03.000Z</time>
      </trkpt>
      <trkpt lat="44.36703" lon="7.47032">
        <ele>622.8</ele>
        <time>2022-10-01T13:58:05.000Z</time>
      </trkpt>
      <trkpt lat="44.36716" lon="7.4703">
        <ele>622.8</ele>
        <time>2022-10-01T13:58:09.000Z</time>
      </trkpt>
      <trkpt lat="44.36724" lon="7.47029">
        <ele>622.8</ele>
        <time>2022-10-01T13:58:10.000Z</time>
      </trkpt>
      <trkpt lat="44.36727" lon="7.47028">
        <ele>622.8</ele>
        <time>2022-10-01T13:58:11.000Z</time>
      </trkpt>
      <trkpt lat="44.36742" lon="7.47023">
        <ele>622.8</ele>
        <time>2022-10-01T13:58:15.000Z</time>
      </trkpt>
      <trkpt lat="44.36752" lon="7.47021">
        <ele>622.8</ele>
        <time>2022-10-01T13:58:17.000Z</time>
      </trkpt>
      <trkpt lat="44.36755" lon="7.4702">
        <ele>622.8</ele>
        <time>2022-10-01T13:58:19.000Z</time>
      </trkpt>
      <trkpt lat="44.36767" lon="7.47019">
        <ele>622.8</ele>
        <time>2022-10-01T13:58:22.000Z</time>
      </trkpt>
      <trkpt lat="44.36779" lon="7.47018">
        <ele>622.8</ele>
        <time>2022-10-01T13:58:25.000Z</time>
      </trkpt>
      <trkpt lat="44.36788" lon="7.47015">
        <ele>622.8</ele>
        <time>2022-10-01T13:58:28.000Z</time>
      </trkpt>
      <trkpt lat="44.36799" lon="7.47011">
        <ele>622.8</ele>
        <time>2022-10-01T13:58:30.000Z</time>
      </trkpt>
      <trkpt lat="44.36798" lon="7.47011">
        <ele>622.8</ele>
        <time>2022-10-01T13:58:31.000Z</time>
      </trkpt>
      <trkpt lat="44.36801" lon="7.4701">
        <ele>622.8</ele>
        <time>2022-10-01T13:58:31.000Z</time>
      </trkpt>
      <trkpt lat="44.36807" lon="7.47007">
        <ele>622.8</ele>
        <time>2022-10-01T13:58:32.000Z</time>
      </trkpt>
      <trkpt lat="44.36809" lon="7.47006">
        <ele>622.8</ele>
        <time>2022-10-01T13:58:34.000Z</time>
      </trkpt>
      <trkpt lat="44.36819" lon="7.47003">
        <ele>622.8</ele>
        <time>2022-10-01T13:58:36.000Z</time>
      </trkpt>
      <trkpt lat="44.36836" lon="7.46999">
        <ele>622.8</ele>
        <time>2022-10-01T13:58:41.000Z</time>
      </trkpt>
      <trkpt lat="44.36846" lon="7.46997">
        <ele>622.8</ele>
        <time>2022-10-01T13:58:44.000Z</time>
      </trkpt>
      <trkpt lat="44.36858" lon="7.46994">
        <ele>622.8</ele>
        <time>2022-10-01T13:58:46.000Z</time>
      </trkpt>
      <trkpt lat="44.36867" lon="7.46991">
        <ele>622.8</ele>
        <time>2022-10-01T13:58:47.000Z</time>
      </trkpt>
      <trkpt lat="44.36869" lon="7.46991">
        <ele>622.8</ele>
        <time>2022-10-01T13:58:48.000Z</time>
      </trkpt>
      <trkpt lat="44.36876" lon="7.46989">
        <ele>622.8</ele>
        <time>2022-10-01T13:58:51.000Z</time>
      </trkpt>
      <trkpt lat="44.36876" lon="7.46989">
        <ele>622.8</ele>
        <time>2022-10-01T13:58:52.000Z</time>
      </trkpt>
      <trkpt lat="44.36886" lon="7.46983">
        <ele>622.8</ele>
        <time>2022-10-01T13:58:59.000Z</time>
      </trkpt>
      <trkpt lat="44.36887" lon="7.46983">
        <ele>622.8</ele>
        <time>2022-10-01T13:58:59.000Z</time>
      </trkpt>
      <trkpt lat="44.36888" lon="7.46983">
        <ele>622.8</ele>
        <time>2022-10-01T13:59:00.000Z</time>
      </trkpt>
      <trkpt lat="44.36898" lon="7.46979">
        <ele>622.8</ele>
        <time>2022-10-01T13:59:06.000Z</time>
      </trkpt>
      <trkpt lat="44.36907" lon="7.46979">
        <ele>622.8</ele>
        <time>2022-10-01T13:59:10.000Z</time>
      </trkpt>
      <trkpt lat="44.36909" lon="7.46979">
        <ele>622.8</ele>
        <time>2022-10-01T13:59:12.000Z</time>
      </trkpt>
      <trkpt lat="44.3692" lon="7.46975">
        <ele>622.8</ele>
        <time>2022-10-01T13:59:16.000Z</time>
      </trkpt>
      <trkpt lat="44.3693" lon="7.46965">
        <ele>622.8</ele>
        <time>2022-10-01T13:59:21.000Z</time>
      </trkpt>
      <trkpt lat="44.36938" lon="7.46956">
        <ele>619.5</ele>
        <time>2022-10-01T13:59:26.000Z</time>
      </trkpt>
      <trkpt lat="44.3694" lon="7.46952">
        <ele>619.5</ele>
        <time>2022-10-01T13:59:26.000Z</time>
      </trkpt>
      <trkpt lat="44.36945" lon="7.46944">
        <ele>619.6</ele>
        <time>2022-10-01T13:59:29.000Z</time>
      </trkpt>
      <trkpt lat="44.36946" lon="7.46942">
        <ele>619.5</ele>
        <time>2022-10-01T13:59:30.000Z</time>
      </trkpt>
      <trkpt lat="44.36954" lon="7.46936">
        <ele>621.5</ele>
        <time>2022-10-01T13:59:35.000Z</time>
      </trkpt>
      <trkpt lat="44.36955" lon="7.46935">
        <ele>621.5</ele>
        <time>2022-10-01T13:59:36.000Z</time>
      </trkpt>
      <trkpt lat="44.36958" lon="7.46935">
        <ele>621.5</ele>
        <time>2022-10-01T13:59:37.000Z</time>
      </trkpt>
      <trkpt lat="44.36959" lon="7.46934">
        <ele>621.5</ele>
        <time>2022-10-01T13:59:39.000Z</time>
      </trkpt>
      <trkpt lat="44.36969" lon="7.46932">
        <ele>623.3</ele>
        <time>2022-10-01T13:59:45.000Z</time>
      </trkpt>
      <trkpt lat="44.36971" lon="7.4693">
        <ele>623.5</ele>
        <time>2022-10-01T13:59:46.000Z</time>
      </trkpt>
      <trkpt lat="44.36972" lon="7.4693">
        <ele>623.5</ele>
        <time>2022-10-01T13:59:48.000Z</time>
      </trkpt>
      <trkpt lat="44.36981" lon="7.46928">
        <ele>624.5</ele>
        <time>2022-10-01T13:59:54.000Z</time>
      </trkpt>
      <trkpt lat="44.36992" lon="7.46925">
        <ele>625.5</ele>
        <time>2022-10-01T13:59:59.000Z</time>
      </trkpt>
      <trkpt lat="44.37001" lon="7.46922">
        <ele>623.3</ele>
        <time>2022-10-01T14:00:06.000Z</time>
      </trkpt>
      <trkpt lat="44.3701" lon="7.46915">
        <ele>623.5</ele>
        <time>2022-10-01T14:00:11.000Z</time>
      </trkpt>
      <trkpt lat="44.37013" lon="7.46912">
        <ele>624.5</ele>
        <time>2022-10-01T14:00:12.000Z</time>
      </trkpt>
      <trkpt lat="44.37013" lon="7.46911">
        <ele>624.5</ele>
        <time>2022-10-01T14:00:13.000Z</time>
      </trkpt>
      <trkpt lat="44.37021" lon="7.46904">
        <ele>627.5</ele>
        <time>2022-10-01T14:00:18.000Z</time>
      </trkpt>
      <trkpt lat="44.37023" lon="7.46902">
        <ele>627.5</ele>
        <time>2022-10-01T14:00:19.000Z</time>
      </trkpt>
      <trkpt lat="44.37024" lon="7.46901">
        <ele>627.5</ele>
        <time>2022-10-01T14:00:21.000Z</time>
      </trkpt>
      <trkpt lat="44.3703" lon="7.46889">
        <ele>629.3</ele>
        <time>2022-10-01T14:00:27.000Z</time>
      </trkpt>
      <trkpt lat="44.37035" lon="7.46878">
        <ele>629.5</ele>
        <time>2022-10-01T14:00:33.000Z</time>
      </trkpt>
      <trkpt lat="44.3704" lon="7.46863">
        <ele>629.8</ele>
        <time>2022-10-01T14:00:40.000Z</time>
      </trkpt>
      <trkpt lat="44.37045" lon="7.46852">
        <ele>631.3</ele>
        <time>2022-10-01T14:00:46.000Z</time>
      </trkpt>
      <trkpt lat="44.37047" lon="7.46852">
        <ele>631.5</ele>
        <time>2022-10-01T14:00:47.000Z</time>
      </trkpt>
      <trkpt lat="44.37048" lon="7.46852">
        <ele>631.5</ele>
        <time>2022-10-01T14:00:48.000Z</time>
      </trkpt>
      <trkpt lat="44.37057" lon="7.46851">
        <ele>632.5</ele>
        <time>2022-10-01T14:00:54.000Z</time>
      </trkpt>
      <trkpt lat="44.37062" lon="7.46852">
        <ele>633.5</ele>
        <time>2022-10-01T14:00:56.000Z</time>
      </trkpt>
      <trkpt lat="44.37065" lon="7.46853">
        <ele>633.5</ele>
        <time>2022-10-01T14:00:57.000Z</time>
      </trkpt>
      <trkpt lat="44.37063" lon="7.46853">
        <ele>633.5</ele>
        <time>2022-10-01T14:00:58.000Z</time>
      </trkpt>
      <trkpt lat="44.37066" lon="7.46853">
        <ele>633.5</ele>
        <time>2022-10-01T14:00:58.000Z</time>
      </trkpt>
      <trkpt lat="44.37073" lon="7.46852">
        <ele>633.5</ele>
        <time>2022-10-01T14:01:02.000Z</time>
      </trkpt>
      <trkpt lat="44.37074" lon="7.46852">
        <ele>633.5</ele>
        <time>2022-10-01T14:01:03.000Z</time>
      </trkpt>
      <trkpt lat="44.37086" lon="7.46854">
        <ele>636.5</ele>
        <time>2022-10-01T14:01:10.000Z</time>
      </trkpt>
      <trkpt lat="44.37089" lon="7.46854">
        <ele>637.5</ele>
        <time>2022-10-01T14:01:12.000Z</time>
      </trkpt>
      <trkpt lat="44.37091" lon="7.46853">
        <ele>637.5</ele>
        <time>2022-10-01T14:01:13.000Z</time>
      </trkpt>
      <trkpt lat="44.37102" lon="7.46855">
        <ele>638.3</ele>
        <time>2022-10-01T14:01:20.000Z</time>
      </trkpt>
      <trkpt lat="44.37112" lon="7.46854">
        <ele>639.5</ele>
        <time>2022-10-01T14:01:27.000Z</time>
      </trkpt>
      <trkpt lat="44.37126" lon="7.46853">
        <ele>640.5</ele>
        <time>2022-10-01T14:01:31.000Z</time>
      </trkpt>
      <trkpt lat="44.37135" lon="7.46853">
        <ele>640.5</ele>
        <time>2022-10-01T14:01:34.000Z</time>
      </trkpt>
      <trkpt lat="44.37149" lon="7.46861">
        <ele>641.5</ele>
        <time>2022-10-01T14:01:37.000Z</time>
      </trkpt>
      <trkpt lat="44.37151" lon="7.46863">
        <ele>641.5</ele>
        <time>2022-10-01T14:01:37.000Z</time>
      </trkpt>
      <trkpt lat="44.37153" lon="7.46865">
        <ele>641.5</ele>
        <time>2022-10-01T14:01:38.000Z</time>
      </trkpt>
      <trkpt lat="44.37159" lon="7.46874">
        <ele>641.5</ele>
        <time>2022-10-01T14:01:40.000Z</time>
      </trkpt>
      <trkpt lat="44.37167" lon="7.46886">
        <ele>641.5</ele>
        <time>2022-10-01T14:01:44.000Z</time>
      </trkpt>
      <trkpt lat="44.37175" lon="7.46894">
        <ele>640.8</ele>
        <time>2022-10-01T14:01:47.000Z</time>
      </trkpt>
      <trkpt lat="44.37192" lon="7.46894">
        <ele>640.5</ele>
        <time>2022-10-01T14:01:50.000Z</time>
      </trkpt>
      <trkpt lat="44.372" lon="7.46892">
        <ele>640.5</ele>
        <time>2022-10-01T14:01:51.000Z</time>
      </trkpt>
      <trkpt lat="44.37203" lon="7.46892">
        <ele>640.5</ele>
        <time>2022-10-01T14:01:53.000Z</time>
      </trkpt>
      <trkpt lat="44.37213" lon="7.46892">
        <ele>641.5</ele>
        <time>2022-10-01T14:01:55.000Z</time>
      </trkpt>
      <trkpt lat="44.37217" lon="7.46892">
        <ele>640.6</ele>
        <time>2022-10-01T14:01:55.000Z</time>
      </trkpt>
      <trkpt lat="44.3722" lon="7.46892">
        <ele>641.3</ele>
        <time>2022-10-01T14:01:57.000Z</time>
      </trkpt>
      <trkpt lat="44.3723" lon="7.46892">
        <ele>641.5</ele>
        <time>2022-10-01T14:01:58.000Z</time>
      </trkpt>
      <trkpt lat="44.37232" lon="7.46893">
        <ele>641.5</ele>
        <time>2022-10-01T14:02:00.000Z</time>
      </trkpt>
      <trkpt lat="44.37238" lon="7.46893">
        <ele>641.5</ele>
        <time>2022-10-01T14:02:01.000Z</time>
      </trkpt>
      <trkpt lat="44.37241" lon="7.46893">
        <ele>641.5</ele>
        <time>2022-10-01T14:02:02.000Z</time>
      </trkpt>
      <trkpt lat="44.37248" lon="7.46898">
        <ele>640.6</ele>
        <time>2022-10-01T14:02:04.000Z</time>
      </trkpt>
      <trkpt lat="44.3725" lon="7.46901">
        <ele>640.6</ele>
        <time>2022-10-01T14:02:05.000Z</time>
      </trkpt>
      <trkpt lat="44.37259" lon="7.46913">
        <ele>640.5</ele>
        <time>2022-10-01T14:02:08.000Z</time>
      </trkpt>
      <trkpt lat="44.37265" lon="7.46928">
        <ele>638.8</ele>
        <time>2022-10-01T14:02:11.000Z</time>
      </trkpt>
      <trkpt lat="44.3727" lon="7.46944">
        <ele>636.9</ele>
        <time>2022-10-01T14:02:14.000Z</time>
      </trkpt>
      <trkpt lat="44.37274" lon="7.4696">
        <ele>635.8</ele>
        <time>2022-10-01T14:02:16.000Z</time>
      </trkpt>
      <trkpt lat="44.37277" lon="7.46975">
        <ele>634.8</ele>
        <time>2022-10-01T14:02:18.000Z</time>
      </trkpt>
      <trkpt lat="44.37279" lon="7.4699">
        <ele>633.8</ele>
        <time>2022-10-01T14:02:20.000Z</time>
      </trkpt>
      <trkpt lat="44.37279" lon="7.47008">
        <ele>632.6</ele>
        <time>2022-10-01T14:02:22.000Z</time>
      </trkpt>
      <trkpt lat="44.37281" lon="7.47025">
        <ele>631.6</ele>
        <time>2022-10-01T14:02:24.000Z</time>
      </trkpt>
      <trkpt lat="44.37285" lon="7.47043">
        <ele>630.6</ele>
        <time>2022-10-01T14:02:26.000Z</time>
      </trkpt>
      <trkpt lat="44.3729" lon="7.47058">
        <ele>629.8</ele>
        <time>2022-10-01T14:02:28.000Z</time>
      </trkpt>
      <trkpt lat="44.37297" lon="7.47072">
        <ele>629.6</ele>
        <time>2022-10-01T14:02:30.000Z</time>
      </trkpt>
      <trkpt lat="44.37306" lon="7.47086">
        <ele>628.6</ele>
        <time>2022-10-01T14:02:33.000Z</time>
      </trkpt>
      <trkpt lat="44.37317" lon="7.47091">
        <ele>628.5</ele>
        <time>2022-10-01T14:02:35.000Z</time>
      </trkpt>
      <trkpt lat="44.37332" lon="7.47088">
        <ele>628.5</ele>
        <time>2022-10-01T14:02:37.000Z</time>
      </trkpt>
      <trkpt lat="44.37346" lon="7.4708">
        <ele>627.8</ele>
        <time>2022-10-01T14:02:39.000Z</time>
      </trkpt>
      <trkpt lat="44.3736" lon="7.47072">
        <ele>627.6</ele>
        <time>2022-10-01T14:02:41.000Z</time>
      </trkpt>
      <trkpt lat="44.37373" lon="7.47067">
        <ele>626.8</ele>
        <time>2022-10-01T14:02:43.000Z</time>
      </trkpt>
      <trkpt lat="44.37387" lon="7.47064">
        <ele>626.6</ele>
        <time>2022-10-01T14:02:45.000Z</time>
      </trkpt>
      <trkpt lat="44.37399" lon="7.47064">
        <ele>625.6</ele>
        <time>2022-10-01T14:02:48.000Z</time>
      </trkpt>
      <trkpt lat="44.3741" lon="7.47069">
        <ele>625.7</ele>
        <time>2022-10-01T14:02:50.000Z</time>
      </trkpt>
      <trkpt lat="44.3742" lon="7.47074">
        <ele>625.6</ele>
        <time>2022-10-01T14:02:52.000Z</time>
      </trkpt>
      <trkpt lat="44.37431" lon="7.47078">
        <ele>624.6</ele>
        <time>2022-10-01T14:02:54.000Z</time>
      </trkpt>
      <trkpt lat="44.37444" lon="7.47082">
        <ele>623.6</ele>
        <time>2022-10-01T14:02:56.000Z</time>
      </trkpt>
      <trkpt lat="44.37455" lon="7.47086">
        <ele>623.5</ele>
        <time>2022-10-01T14:02:58.000Z</time>
      </trkpt>
      <trkpt lat="44.37466" lon="7.47085">
        <ele>622.6</ele>
        <time>2022-10-01T14:03:00.000Z</time>
      </trkpt>
      <trkpt lat="44.37479" lon="7.47076">
        <ele>622.5</ele>
        <time>2022-10-01T14:03:02.000Z</time>
      </trkpt>
      <trkpt lat="44.37492" lon="7.47068">
        <ele>622.5</ele>
        <time>2022-10-01T14:03:04.000Z</time>
      </trkpt>
      <trkpt lat="44.37501" lon="7.47063">
        <ele>622.5</ele>
        <time>2022-10-01T14:03:06.000Z</time>
      </trkpt>
      <trkpt lat="44.37515" lon="7.47066">
        <ele>621.6</ele>
        <time>2022-10-01T14:03:09.000Z</time>
      </trkpt>
      <trkpt lat="44.37528" lon="7.47078">
        <ele>620</ele>
        <time>2022-10-01T14:03:11.000Z</time>
      </trkpt>
      <trkpt lat="44.3754" lon="7.47086">
        <ele>618.6</ele>
        <time>2022-10-01T14:03:13.000Z</time>
      </trkpt>
      <trkpt lat="44.37551" lon="7.47093">
        <ele>616.7</ele>
        <time>2022-10-01T14:03:15.000Z</time>
      </trkpt>
      <trkpt lat="44.37563" lon="7.47098">
        <ele>615.8</ele>
        <time>2022-10-01T14:03:17.000Z</time>
      </trkpt>
      <trkpt lat="44.37576" lon="7.471">
        <ele>614.8</ele>
        <time>2022-10-01T14:03:19.000Z</time>
      </trkpt>
      <trkpt lat="44.37588" lon="7.471">
        <ele>613.8</ele>
        <time>2022-10-01T14:03:21.000Z</time>
      </trkpt>
      <trkpt lat="44.37599" lon="7.47101">
        <ele>612.8</ele>
        <time>2022-10-01T14:03:23.000Z</time>
      </trkpt>
      <trkpt lat="44.37609" lon="7.47102">
        <ele>612.6</ele>
        <time>2022-10-01T14:03:25.000Z</time>
      </trkpt>
      <trkpt lat="44.37618" lon="7.47097">
        <ele>612.5</ele>
        <time>2022-10-01T14:03:27.000Z</time>
      </trkpt>
      <trkpt lat="44.37627" lon="7.4709">
        <ele>612.5</ele>
        <time>2022-10-01T14:03:29.000Z</time>
      </trkpt>
      <trkpt lat="44.37635" lon="7.47083">
        <ele>611.8</ele>
        <time>2022-10-01T14:03:31.000Z</time>
      </trkpt>
      <trkpt lat="44.37644" lon="7.47075">
        <ele>611.6</ele>
        <time>2022-10-01T14:03:33.000Z</time>
      </trkpt>
      <trkpt lat="44.37654" lon="7.47069">
        <ele>611.5</ele>
        <time>2022-10-01T14:03:35.000Z</time>
      </trkpt>
      <trkpt lat="44.37666" lon="7.47063">
        <ele>609.9</ele>
        <time>2022-10-01T14:03:37.000Z</time>
      </trkpt>
      <trkpt lat="44.37679" lon="7.47058">
        <ele>608.6</ele>
        <time>2022-10-01T14:03:39.000Z</time>
      </trkpt>
      <trkpt lat="44.37692" lon="7.47056">
        <ele>607.6</ele>
        <time>2022-10-01T14:03:41.000Z</time>
      </trkpt>
      <trkpt lat="44.37704" lon="7.47053">
        <ele>606.8</ele>
        <time>2022-10-01T14:03:43.000Z</time>
      </trkpt>
      <trkpt lat="44.37717" lon="7.47048">
        <ele>605.8</ele>
        <time>2022-10-01T14:03:45.000Z</time>
      </trkpt>
      <trkpt lat="44.37731" lon="7.47043">
        <ele>605.6</ele>
        <time>2022-10-01T14:03:47.000Z</time>
      </trkpt>
      <trkpt lat="44.37744" lon="7.47036">
        <ele>605.5</ele>
        <time>2022-10-01T14:03:49.000Z</time>
      </trkpt>
      <trkpt lat="44.37758" lon="7.47027">
        <ele>604.6</ele>
        <time>2022-10-01T14:03:51.000Z</time>
      </trkpt>
      <trkpt lat="44.3777" lon="7.47017">
        <ele>602.9</ele>
        <time>2022-10-01T14:03:53.000Z</time>
      </trkpt>
      <trkpt lat="44.37783" lon="7.47008">
        <ele>601.6</ele>
        <time>2022-10-01T14:03:55.000Z</time>
      </trkpt>
      <trkpt lat="44.37796" lon="7.47">
        <ele>599.9</ele>
        <time>2022-10-01T14:03:57.000Z</time>
      </trkpt>
      <trkpt lat="44.3781" lon="7.4699">
        <ele>597.1</ele>
        <time>2022-10-01T14:03:59.000Z</time>
      </trkpt>
      <trkpt lat="44.37825" lon="7.46984">
        <ele>594.9</ele>
        <time>2022-10-01T14:04:01.000Z</time>
      </trkpt>
      <trkpt lat="44.37843" lon="7.46981">
        <ele>593.6</ele>
        <time>2022-10-01T14:04:03.000Z</time>
      </trkpt>
      <trkpt lat="44.37859" lon="7.46976">
        <ele>591.9</ele>
        <time>2022-10-01T14:04:05.000Z</time>
      </trkpt>
      <trkpt lat="44.37875" lon="7.46969">
        <ele>590.8</ele>
        <time>2022-10-01T14:04:07.000Z</time>
      </trkpt>
      <trkpt lat="44.3789" lon="7.46962">
        <ele>589.6</ele>
        <time>2022-10-01T14:04:09.000Z</time>
      </trkpt>
      <trkpt lat="44.37901" lon="7.46957">
        <ele>588.6</ele>
        <time>2022-10-01T14:04:11.000Z</time>
      </trkpt>
      <trkpt lat="44.37911" lon="7.4695">
        <ele>586.6</ele>
        <time>2022-10-01T14:04:15.000Z</time>
      </trkpt>
      <trkpt lat="44.37909" lon="7.46936">
        <ele>590</ele>
        <time>2022-10-01T14:04:17.000Z</time>
      </trkpt>
      <trkpt lat="44.37909" lon="7.46937">
        <ele>587.3</ele>
        <time>2022-10-01T14:04:18.000Z</time>
      </trkpt>
      <trkpt lat="44.37907" lon="7.46932">
        <ele>590.7</ele>
        <time>2022-10-01T14:04:19.000Z</time>
      </trkpt>
      <trkpt lat="44.379" lon="7.46922">
        <ele>590.9</ele>
        <time>2022-10-01T14:04:21.000Z</time>
      </trkpt>
      <trkpt lat="44.37892" lon="7.46911">
        <ele>590.9</ele>
        <time>2022-10-01T14:04:23.000Z</time>
      </trkpt>
      <trkpt lat="44.37886" lon="7.469">
        <ele>590.9</ele>
        <time>2022-10-01T14:04:25.000Z</time>
      </trkpt>
      <trkpt lat="44.3788" lon="7.46889">
        <ele>590.9</ele>
        <time>2022-10-01T14:04:27.000Z</time>
      </trkpt>
      <trkpt lat="44.37873" lon="7.46878">
        <ele>590.9</ele>
        <time>2022-10-01T14:04:29.000Z</time>
      </trkpt>
      <trkpt lat="44.37865" lon="7.46867">
        <ele>590.9</ele>
        <time>2022-10-01T14:04:31.000Z</time>
      </trkpt>
      <trkpt lat="44.37857" lon="7.46857">
        <ele>590.9</ele>
        <time>2022-10-01T14:04:33.000Z</time>
      </trkpt>
      <trkpt lat="44.3785" lon="7.46846">
        <ele>590.9</ele>
        <time>2022-10-01T14:04:35.000Z</time>
      </trkpt>
      <trkpt lat="44.37842" lon="7.46837">
        <ele>590.9</ele>
        <time>2022-10-01T14:04:37.000Z</time>
      </trkpt>
      <trkpt lat="44.37835" lon="7.46828">
        <ele>590.9</ele>
        <time>2022-10-01T14:04:39.000Z</time>
      </trkpt>
      <trkpt lat="44.37827" lon="7.46819">
        <ele>590.9</ele>
        <time>2022-10-01T14:04:41.000Z</time>
      </trkpt>
      <trkpt lat="44.3782" lon="7.46808">
        <ele>590.9</ele>
        <time>2022-10-01T14:04:43.000Z</time>
      </trkpt>
      <trkpt lat="44.37814" lon="7.46797">
        <ele>590.9</ele>
        <time>2022-10-01T14:04:45.000Z</time>
      </trkpt>
      <trkpt lat="44.37807" lon="7.46787">
        <ele>590.9</ele>
        <time>2022-10-01T14:04:47.000Z</time>
      </trkpt>
      <trkpt lat="44.37801" lon="7.46776">
        <ele>590.9</ele>
        <time>2022-10-01T14:04:49.000Z</time>
      </trkpt>
      <trkpt lat="44.37795" lon="7.46765">
        <ele>590.9</ele>
        <time>2022-10-01T14:04:51.000Z</time>
      </trkpt>
      <trkpt lat="44.37789" lon="7.46755">
        <ele>590.9</ele>
        <time>2022-10-01T14:04:53.000Z</time>
      </trkpt>
      <trkpt lat="44.37782" lon="7.46742">
        <ele>590.9</ele>
        <time>2022-10-01T14:04:56.000Z</time>
      </trkpt>
      <trkpt lat="44.37786" lon="7.46729">
        <ele>591.4</ele>
        <time>2022-10-01T14:04:59.000Z</time>
      </trkpt>
      <trkpt lat="44.37784" lon="7.46729">
        <ele>590.9</ele>
        <time>2022-10-01T14:05:00.000Z</time>
      </trkpt>
      <trkpt lat="44.3779" lon="7.46729">
        <ele>591.5</ele>
        <time>2022-10-01T14:05:01.000Z</time>
      </trkpt>
      <trkpt lat="44.37801" lon="7.4673">
        <ele>591.5</ele>
        <time>2022-10-01T14:05:03.000Z</time>
      </trkpt>
      <trkpt lat="44.37813" lon="7.46729">
        <ele>591.5</ele>
        <time>2022-10-01T14:05:05.000Z</time>
      </trkpt>
      <trkpt lat="44.37825" lon="7.46729">
        <ele>591.5</ele>
        <time>2022-10-01T14:05:07.000Z</time>
      </trkpt>
      <trkpt lat="44.37837" lon="7.46728">
        <ele>591.5</ele>
        <time>2022-10-01T14:05:09.000Z</time>
      </trkpt>
      <trkpt lat="44.37848" lon="7.46728">
        <ele>591.5</ele>
        <time>2022-10-01T14:05:11.000Z</time>
      </trkpt>
      <trkpt lat="44.3786" lon="7.46728">
        <ele>591.5</ele>
        <time>2022-10-01T14:05:13.000Z</time>
      </trkpt>
      <trkpt lat="44.37872" lon="7.46728">
        <ele>591.5</ele>
        <time>2022-10-01T14:05:15.000Z</time>
      </trkpt>
      <trkpt lat="44.37883" lon="7.46727">
        <ele>591.5</ele>
        <time>2022-10-01T14:05:17.000Z</time>
      </trkpt>
      <trkpt lat="44.37894" lon="7.46725">
        <ele>591.5</ele>
        <time>2022-10-01T14:05:19.000Z</time>
      </trkpt>
      <trkpt lat="44.37904" lon="7.46724">
        <ele>591.5</ele>
        <time>2022-10-01T14:05:21.000Z</time>
      </trkpt>
      <trkpt lat="44.37914" lon="7.46713">
        <ele>591.5</ele>
        <time>2022-10-01T14:05:24.000Z</time>
      </trkpt>
      <trkpt lat="44.37912" lon="7.46697">
        <ele>591.5</ele>
        <time>2022-10-01T14:05:27.000Z</time>
      </trkpt>
      <trkpt lat="44.3791" lon="7.4668">
        <ele>591.5</ele>
        <time>2022-10-01T14:05:30.000Z</time>
      </trkpt>
      <trkpt lat="44.3791" lon="7.46671">
        <ele>591.5</ele>
        <time>2022-10-01T14:05:30.000Z</time>
      </trkpt>
      <trkpt lat="44.3791" lon="7.46669">
        <ele>591.5</ele>
        <time>2022-10-01T14:05:31.000Z</time>
      </trkpt>
      <trkpt lat="44.37909" lon="7.46653">
        <ele>591.5</ele>
        <time>2022-10-01T14:05:34.000Z</time>
      </trkpt>
      <trkpt lat="44.37908" lon="7.46635">
        <ele>591.5</ele>
        <time>2022-10-01T14:05:36.000Z</time>
      </trkpt>
      <trkpt lat="44.37908" lon="7.46619">
        <ele>591.5</ele>
        <time>2022-10-01T14:05:39.000Z</time>
      </trkpt>
      <trkpt lat="44.37909" lon="7.46605">
        <ele>591.5</ele>
        <time>2022-10-01T14:05:41.000Z</time>
      </trkpt>
      <trkpt lat="44.37909" lon="7.46592">
        <ele>591.5</ele>
        <time>2022-10-01T14:05:43.000Z</time>
      </trkpt>
      <trkpt lat="44.3791" lon="7.46578">
        <ele>591.5</ele>
        <time>2022-10-01T14:05:46.000Z</time>
      </trkpt>
      <trkpt lat="44.3791" lon="7.46557">
        <ele>591.5</ele>
        <time>2022-10-01T14:05:48.000Z</time>
      </trkpt>
      <trkpt lat="44.3791" lon="7.46549">
        <ele>591.5</ele>
        <time>2022-10-01T14:05:49.000Z</time>
      </trkpt>
      <trkpt lat="44.37909" lon="7.46545">
        <ele>591.5</ele>
        <time>2022-10-01T14:05:51.000Z</time>
      </trkpt>
      <trkpt lat="44.37906" lon="7.46524">
        <ele>591.5</ele>
        <time>2022-10-01T14:05:54.000Z</time>
      </trkpt>
      <trkpt lat="44.37907" lon="7.4651">
        <ele>591.5</ele>
        <time>2022-10-01T14:05:58.000Z</time>
      </trkpt>
      <trkpt lat="44.37912" lon="7.4651">
        <ele>591.5</ele>
        <time>2022-10-01T14:05:59.000Z</time>
      </trkpt>
      <trkpt lat="44.37915" lon="7.46511">
        <ele>591.5</ele>
        <time>2022-10-01T14:06:00.000Z</time>
      </trkpt>
      <trkpt lat="44.37927" lon="7.46523">
        <ele>591.5</ele>
        <time>2022-10-01T14:06:03.000Z</time>
      </trkpt>
      <trkpt lat="44.37937" lon="7.46526">
        <ele>591.5</ele>
        <time>2022-10-01T14:06:05.000Z</time>
      </trkpt>
      <trkpt lat="44.37948" lon="7.46525">
        <ele>591.5</ele>
        <time>2022-10-01T14:06:07.000Z</time>
      </trkpt>
      <trkpt lat="44.37957" lon="7.46523">
        <ele>591.5</ele>
        <time>2022-10-01T14:06:09.000Z</time>
      </trkpt>
      <trkpt lat="44.37968" lon="7.46518">
        <ele>591.5</ele>
        <time>2022-10-01T14:06:11.000Z</time>
      </trkpt>
      <trkpt lat="44.37977" lon="7.46512">
        <ele>591.5</ele>
        <time>2022-10-01T14:06:13.000Z</time>
      </trkpt>
      <trkpt lat="44.37986" lon="7.46506">
        <ele>591.5</ele>
        <time>2022-10-01T14:06:15.000Z</time>
      </trkpt>
      <trkpt lat="44.37997" lon="7.46501">
        <ele>591.5</ele>
        <time>2022-10-01T14:06:17.000Z</time>
      </trkpt>
      <trkpt lat="44.38008" lon="7.46501">
        <ele>591.5</ele>
        <time>2022-10-01T14:06:19.000Z</time>
      </trkpt>
      <trkpt lat="44.3802" lon="7.46503">
        <ele>591.5</ele>
        <time>2022-10-01T14:06:21.000Z</time>
      </trkpt>
      <trkpt lat="44.38031" lon="7.46507">
        <ele>591.5</ele>
        <time>2022-10-01T14:06:23.000Z</time>
      </trkpt>
      <trkpt lat="44.38042" lon="7.46515">
        <ele>591.5</ele>
        <time>2022-10-01T14:06:25.000Z</time>
      </trkpt>
      <trkpt lat="44.38053" lon="7.46525">
        <ele>591.5</ele>
        <time>2022-10-01T14:06:27.000Z</time>
      </trkpt>
      <trkpt lat="44.38062" lon="7.46536">
        <ele>591.5</ele>
        <time>2022-10-01T14:06:29.000Z</time>
      </trkpt>
      <trkpt lat="44.38071" lon="7.4655">
        <ele>580.3</ele>
        <time>2022-10-01T14:06:31.000Z</time>
      </trkpt>
      <trkpt lat="44.3808" lon="7.46561">
        <ele>578.7</ele>
        <time>2022-10-01T14:06:33.000Z</time>
      </trkpt>
      <trkpt lat="44.3809" lon="7.4657">
        <ele>579.5</ele>
        <time>2022-10-01T14:06:35.000Z</time>
      </trkpt>
      <trkpt lat="44.38101" lon="7.46579">
        <ele>578.6</ele>
        <time>2022-10-01T14:06:37.000Z</time>
      </trkpt>
      <trkpt lat="44.38112" lon="7.46588">
        <ele>577.8</ele>
        <time>2022-10-01T14:06:39.000Z</time>
      </trkpt>
      <trkpt lat="44.38123" lon="7.46598">
        <ele>577.6</ele>
        <time>2022-10-01T14:06:41.000Z</time>
      </trkpt>
      <trkpt lat="44.38133" lon="7.46607">
        <ele>576.6</ele>
        <time>2022-10-01T14:06:43.000Z</time>
      </trkpt>
      <trkpt lat="44.38141" lon="7.46619">
        <ele>576.5</ele>
        <time>2022-10-01T14:06:45.000Z</time>
      </trkpt>
      <trkpt lat="44.38146" lon="7.46635">
        <ele>576.5</ele>
        <time>2022-10-01T14:06:47.000Z</time>
      </trkpt>
      <trkpt lat="44.38152" lon="7.46647">
        <ele>576.5</ele>
        <time>2022-10-01T14:06:49.000Z</time>
      </trkpt>
      <trkpt lat="44.38162" lon="7.46647">
        <ele>576.5</ele>
        <time>2022-10-01T14:06:51.000Z</time>
      </trkpt>
      <trkpt lat="44.38174" lon="7.46642">
        <ele>576.5</ele>
        <time>2022-10-01T14:06:53.000Z</time>
      </trkpt>
      <trkpt lat="44.38184" lon="7.46638">
        <ele>576.7</ele>
        <time>2022-10-01T14:06:55.000Z</time>
      </trkpt>
      <trkpt lat="44.38195" lon="7.46636">
        <ele>576.6</ele>
        <time>2022-10-01T14:06:57.000Z</time>
      </trkpt>
      <trkpt lat="44.38207" lon="7.46635">
        <ele>573.9</ele>
        <time>2022-10-01T14:06:59.000Z</time>
      </trkpt>
      <trkpt lat="44.38218" lon="7.46638">
        <ele>573.6</ele>
        <time>2022-10-01T14:07:01.000Z</time>
      </trkpt>
      <trkpt lat="44.38228" lon="7.46639">
        <ele>572.6</ele>
        <time>2022-10-01T14:07:03.000Z</time>
      </trkpt>
      <trkpt lat="44.3824" lon="7.46638">
        <ele>571.8</ele>
        <time>2022-10-01T14:07:05.000Z</time>
      </trkpt>
      <trkpt lat="44.38252" lon="7.46637">
        <ele>572.5</ele>
        <time>2022-10-01T14:07:07.000Z</time>
      </trkpt>
      <trkpt lat="44.38263" lon="7.46636">
        <ele>571.6</ele>
        <time>2022-10-01T14:07:09.000Z</time>
      </trkpt>
      <trkpt lat="44.38272" lon="7.46635">
        <ele>571.5</ele>
        <time>2022-10-01T14:07:11.000Z</time>
      </trkpt>
      <trkpt lat="44.3828" lon="7.46629">
        <ele>570.6</ele>
        <time>2022-10-01T14:07:15.000Z</time>
      </trkpt>
      <trkpt lat="44.38279" lon="7.4662">
        <ele>578.8</ele>
        <time>2022-10-01T14:07:16.000Z</time>
      </trkpt>
      <trkpt lat="44.38281" lon="7.4662">
        <ele>580.6</ele>
        <time>2022-10-01T14:07:17.000Z</time>
      </trkpt>
      <trkpt lat="44.3828" lon="7.46604">
        <ele>581.2</ele>
        <time>2022-10-01T14:07:19.000Z</time>
      </trkpt>
      <trkpt lat="44.3828" lon="7.46606">
        <ele>581.2</ele>
        <time>2022-10-01T14:07:20.000Z</time>
      </trkpt>
      <trkpt lat="44.3828" lon="7.46601">
        <ele>581.2</ele>
        <time>2022-10-01T14:07:20.000Z</time>
      </trkpt>
      <trkpt lat="44.38284" lon="7.46589">
        <ele>581.2</ele>
        <time>2022-10-01T14:07:23.000Z</time>
      </trkpt>
      <trkpt lat="44.38297" lon="7.46587">
        <ele>581.2</ele>
        <time>2022-10-01T14:07:26.000Z</time>
      </trkpt>
      <trkpt lat="44.3831" lon="7.46586">
        <ele>581.2</ele>
        <time>2022-10-01T14:07:29.000Z</time>
      </trkpt>
      <trkpt lat="44.38321" lon="7.46583">
        <ele>581.2</ele>
        <time>2022-10-01T14:07:31.000Z</time>
      </trkpt>
      <trkpt lat="44.38333" lon="7.46583">
        <ele>581.2</ele>
        <time>2022-10-01T14:07:33.000Z</time>
      </trkpt>
      <trkpt lat="44.38344" lon="7.46582">
        <ele>581.2</ele>
        <time>2022-10-01T14:07:35.000Z</time>
      </trkpt>
      <trkpt lat="44.38354" lon="7.46579">
        <ele>581.2</ele>
        <time>2022-10-01T14:07:37.000Z</time>
      </trkpt>
      <trkpt lat="44.38364" lon="7.4657">
        <ele>581.2</ele>
        <time>2022-10-01T14:07:39.000Z</time>
      </trkpt>
      <trkpt lat="44.38372" lon="7.46558">
        <ele>581.2</ele>
        <time>2022-10-01T14:07:41.000Z</time>
      </trkpt>
      <trkpt lat="44.38381" lon="7.46548">
        <ele>581.2</ele>
        <time>2022-10-01T14:07:43.000Z</time>
      </trkpt>
      <trkpt lat="44.38391" lon="7.46538">
        <ele>581.2</ele>
        <time>2022-10-01T14:07:45.000Z</time>
      </trkpt>
      <trkpt lat="44.384" lon="7.46529">
        <ele>581.2</ele>
        <time>2022-10-01T14:07:47.000Z</time>
      </trkpt>
      <trkpt lat="44.3841" lon="7.46519">
        <ele>581.2</ele>
        <time>2022-10-01T14:07:49.000Z</time>
      </trkpt>
      <trkpt lat="44.38418" lon="7.46508">
        <ele>581.2</ele>
        <time>2022-10-01T14:07:51.000Z</time>
      </trkpt>
      <trkpt lat="44.38427" lon="7.46497">
        <ele>581.2</ele>
        <time>2022-10-01T14:07:53.000Z</time>
      </trkpt>
      <trkpt lat="44.38436" lon="7.46487">
        <ele>581.2</ele>
        <time>2022-10-01T14:07:55.000Z</time>
      </trkpt>
      <trkpt lat="44.38444" lon="7.46476">
        <ele>581.2</ele>
        <time>2022-10-01T14:07:57.000Z</time>
      </trkpt>
      <trkpt lat="44.38453" lon="7.46465">
        <ele>581.2</ele>
        <time>2022-10-01T14:07:59.000Z</time>
      </trkpt>
      <trkpt lat="44.38461" lon="7.46454">
        <ele>581.2</ele>
        <time>2022-10-01T14:08:01.000Z</time>
      </trkpt>
      <trkpt lat="44.38473" lon="7.46451">
        <ele>581.2</ele>
        <time>2022-10-01T14:08:04.000Z</time>
      </trkpt>
      <trkpt lat="44.3848" lon="7.46466">
        <ele>581.2</ele>
        <time>2022-10-01T14:08:07.000Z</time>
      </trkpt>
      <trkpt lat="44.38487" lon="7.46481">
        <ele>581.2</ele>
        <time>2022-10-01T14:08:09.000Z</time>
      </trkpt>
      <trkpt lat="44.38494" lon="7.46493">
        <ele>581.2</ele>
        <time>2022-10-01T14:08:11.000Z</time>
      </trkpt>
      <trkpt lat="44.38498" lon="7.46507">
        <ele>581.2</ele>
        <time>2022-10-01T14:08:13.000Z</time>
      </trkpt>
      <trkpt lat="44.38502" lon="7.46519">
        <ele>581.2</ele>
        <time>2022-10-01T14:08:15.000Z</time>
      </trkpt>
      <trkpt lat="44.38508" lon="7.4653">
        <ele>581.2</ele>
        <time>2022-10-01T14:08:17.000Z</time>
      </trkpt>
      <trkpt lat="44.38517" lon="7.46536">
        <ele>581.2</ele>
        <time>2022-10-01T14:08:19.000Z</time>
      </trkpt>
      <trkpt lat="44.38527" lon="7.46523">
        <ele>581.2</ele>
        <time>2022-10-01T14:08:22.000Z</time>
      </trkpt>
      <trkpt lat="44.38534" lon="7.46504">
        <ele>581.2</ele>
        <time>2022-10-01T14:08:24.000Z</time>
      </trkpt>
      <trkpt lat="44.38539" lon="7.46488">
        <ele>581.2</ele>
        <time>2022-10-01T14:08:26.000Z</time>
      </trkpt>
      <trkpt lat="44.38545" lon="7.46474">
        <ele>581.2</ele>
        <time>2022-10-01T14:08:28.000Z</time>
      </trkpt>
      <trkpt lat="44.38551" lon="7.4646">
        <ele>581.2</ele>
        <time>2022-10-01T14:08:30.000Z</time>
      </trkpt>
      <trkpt lat="44.38557" lon="7.46447">
        <ele>581.2</ele>
        <time>2022-10-01T14:08:32.000Z</time>
      </trkpt>
      <trkpt lat="44.38564" lon="7.46434">
        <ele>581.2</ele>
        <time>2022-10-01T14:08:34.000Z</time>
      </trkpt>
      <trkpt lat="44.38571" lon="7.46422">
        <ele>581.2</ele>
        <time>2022-10-01T14:08:36.000Z</time>
      </trkpt>
      <trkpt lat="44.38574" lon="7.46408">
        <ele>581.2</ele>
        <time>2022-10-01T14:08:38.000Z</time>
      </trkpt>
      <trkpt lat="44.3857" lon="7.46396">
        <ele>581.2</ele>
        <time>2022-10-01T14:08:40.000Z</time>
      </trkpt>
      <trkpt lat="44.38562" lon="7.46387">
        <ele>581.2</ele>
        <time>2022-10-01T14:08:42.000Z</time>
      </trkpt>
      <trkpt lat="44.38553" lon="7.46378">
        <ele>581.2</ele>
        <time>2022-10-01T14:08:44.000Z</time>
      </trkpt>
      <trkpt lat="44.38545" lon="7.46367">
        <ele>581.2</ele>
        <time>2022-10-01T14:08:46.000Z</time>
      </trkpt>
      <trkpt lat="44.3854" lon="7.46357">
        <ele>569.3</ele>
        <time>2022-10-01T14:08:48.000Z</time>
      </trkpt>
      <trkpt lat="44.38535" lon="7.46347">
        <ele>567.7</ele>
        <time>2022-10-01T14:08:50.000Z</time>
      </trkpt>
      <trkpt lat="44.38526" lon="7.46333">
        <ele>568.5</ele>
        <time>2022-10-01T14:08:53.000Z</time>
      </trkpt>
      <trkpt lat="44.3852" lon="7.46321">
        <ele>569.3</ele>
        <time>2022-10-01T14:08:55.000Z</time>
      </trkpt>
      <trkpt lat="44.38514" lon="7.46307">
        <ele>569.5</ele>
        <time>2022-10-01T14:08:57.000Z</time>
      </trkpt>
      <trkpt lat="44.38509" lon="7.46293">
        <ele>569.4</ele>
        <time>2022-10-01T14:08:59.000Z</time>
      </trkpt>
      <trkpt lat="44.38505" lon="7.4628">
        <ele>569.5</ele>
        <time>2022-10-01T14:09:01.000Z</time>
      </trkpt>
      <trkpt lat="44.385" lon="7.46264">
        <ele>569.5</ele>
        <time>2022-10-01T14:09:03.000Z</time>
      </trkpt>
      <trkpt lat="44.38495" lon="7.4625">
        <ele>568.6</ele>
        <time>2022-10-01T14:09:05.000Z</time>
      </trkpt>
      <trkpt lat="44.3849" lon="7.46236">
        <ele>569.5</ele>
        <time>2022-10-01T14:09:07.000Z</time>
      </trkpt>
      <trkpt lat="44.38485" lon="7.46222">
        <ele>569.5</ele>
        <time>2022-10-01T14:09:09.000Z</time>
      </trkpt>
      <trkpt lat="44.38481" lon="7.46208">
        <ele>570.3</ele>
        <time>2022-10-01T14:09:11.000Z</time>
      </trkpt>
      <trkpt lat="44.38477" lon="7.46193">
        <ele>569.8</ele>
        <time>2022-10-01T14:09:13.000Z</time>
      </trkpt>
      <trkpt lat="44.38474" lon="7.46178">
        <ele>570.5</ele>
        <time>2022-10-01T14:09:15.000Z</time>
      </trkpt>
      <trkpt lat="44.3847" lon="7.46163">
        <ele>570.5</ele>
        <time>2022-10-01T14:09:17.000Z</time>
      </trkpt>
      <trkpt lat="44.38468" lon="7.46149">
        <ele>570.5</ele>
        <time>2022-10-01T14:09:19.000Z</time>
      </trkpt>
      <trkpt lat="44.38466" lon="7.46135">
        <ele>570.5</ele>
        <time>2022-10-01T14:09:21.000Z</time>
      </trkpt>
      <trkpt lat="44.38464" lon="7.46121">
        <ele>570.5</ele>
        <time>2022-10-01T14:09:23.000Z</time>
      </trkpt>
      <trkpt lat="44.38462" lon="7.46107">
        <ele>570.5</ele>
        <time>2022-10-01T14:09:25.000Z</time>
      </trkpt>
      <trkpt lat="44.3846" lon="7.46093">
        <ele>570.5</ele>
        <time>2022-10-01T14:09:27.000Z</time>
      </trkpt>
      <trkpt lat="44.38458" lon="7.46081">
        <ele>570.5</ele>
        <time>2022-10-01T14:09:29.000Z</time>
      </trkpt>
      <trkpt lat="44.38458" lon="7.46061">
        <ele>569.6</ele>
        <time>2022-10-01T14:09:32.000Z</time>
      </trkpt>
      <trkpt lat="44.38457" lon="7.46046">
        <ele>567.9</ele>
        <time>2022-10-01T14:09:34.000Z</time>
      </trkpt>
      <trkpt lat="44.38456" lon="7.46032">
        <ele>568.5</ele>
        <time>2022-10-01T14:09:36.000Z</time>
      </trkpt>
      <trkpt lat="44.38457" lon="7.46018">
        <ele>568.5</ele>
        <time>2022-10-01T14:09:38.000Z</time>
      </trkpt>
      <trkpt lat="44.38458" lon="7.46004">
        <ele>569.5</ele>
        <time>2022-10-01T14:09:40.000Z</time>
      </trkpt>
      <trkpt lat="44.3846" lon="7.45991">
        <ele>569.5</ele>
        <time>2022-10-01T14:09:42.000Z</time>
      </trkpt>
      <trkpt lat="44.38462" lon="7.45978">
        <ele>569.5</ele>
        <time>2022-10-01T14:09:44.000Z</time>
      </trkpt>
      <trkpt lat="44.38467" lon="7.45965">
        <ele>568.6</ele>
        <time>2022-10-01T14:09:46.000Z</time>
      </trkpt>
      <trkpt lat="44.38473" lon="7.45952">
        <ele>568.5</ele>
        <time>2022-10-01T14:09:48.000Z</time>
      </trkpt>
      <trkpt lat="44.38478" lon="7.45938">
        <ele>568.5</ele>
        <time>2022-10-01T14:09:50.000Z</time>
      </trkpt>
      <trkpt lat="44.38484" lon="7.45923">
        <ele>568.5</ele>
        <time>2022-10-01T14:09:52.000Z</time>
      </trkpt>
      <trkpt lat="44.3849" lon="7.45908">
        <ele>568.5</ele>
        <time>2022-10-01T14:09:54.000Z</time>
      </trkpt>
      <trkpt lat="44.38497" lon="7.45894">
        <ele>569.5</ele>
        <time>2022-10-01T14:09:56.000Z</time>
      </trkpt>
      <trkpt lat="44.38506" lon="7.4588">
        <ele>569.5</ele>
        <time>2022-10-01T14:09:58.000Z</time>
      </trkpt>
      <trkpt lat="44.38515" lon="7.45867">
        <ele>569.5</ele>
        <time>2022-10-01T14:10:00.000Z</time>
      </trkpt>
      <trkpt lat="44.38525" lon="7.45853">
        <ele>569.5</ele>
        <time>2022-10-01T14:10:02.000Z</time>
      </trkpt>
      <trkpt lat="44.38536" lon="7.45841">
        <ele>568.6</ele>
        <time>2022-10-01T14:10:04.000Z</time>
      </trkpt>
      <trkpt lat="44.38547" lon="7.45829">
        <ele>568.5</ele>
        <time>2022-10-01T14:10:06.000Z</time>
      </trkpt>
      <trkpt lat="44.38557" lon="7.45816">
        <ele>569.5</ele>
        <time>2022-10-01T14:10:08.000Z</time>
      </trkpt>
      <trkpt lat="44.38564" lon="7.45801">
        <ele>570.3</ele>
        <time>2022-10-01T14:10:10.000Z</time>
      </trkpt>
      <trkpt lat="44.38568" lon="7.45782">
        <ele>570.5</ele>
        <time>2022-10-01T14:10:12.000Z</time>
      </trkpt>
      <trkpt lat="44.38572" lon="7.45765">
        <ele>569.6</ele>
        <time>2022-10-01T14:10:14.000Z</time>
      </trkpt>
      <trkpt lat="44.38575" lon="7.45744">
        <ele>568.6</ele>
        <time>2022-10-01T14:10:16.000Z</time>
      </trkpt>
      <trkpt lat="44.38578" lon="7.45723">
        <ele>568.5</ele>
        <time>2022-10-01T14:10:18.000Z</time>
      </trkpt>
      <trkpt lat="44.38582" lon="7.45702">
        <ele>567.6</ele>
        <time>2022-10-01T14:10:20.000Z</time>
      </trkpt>
      <trkpt lat="44.38586" lon="7.45682">
        <ele>566.8</ele>
        <time>2022-10-01T14:10:22.000Z</time>
      </trkpt>
      <trkpt lat="44.38592" lon="7.45662">
        <ele>566.6</ele>
        <time>2022-10-01T14:10:24.000Z</time>
      </trkpt>
      <trkpt lat="44.38598" lon="7.45642">
        <ele>565.8</ele>
        <time>2022-10-01T14:10:26.000Z</time>
      </trkpt>
      <trkpt lat="44.38603" lon="7.45623">
        <ele>565.6</ele>
        <time>2022-10-01T14:10:28.000Z</time>
      </trkpt>
      <trkpt lat="44.38609" lon="7.45604">
        <ele>565.5</ele>
        <time>2022-10-01T14:10:30.000Z</time>
      </trkpt>
      <trkpt lat="44.38613" lon="7.45585">
        <ele>564.6</ele>
        <time>2022-10-01T14:10:32.000Z</time>
      </trkpt>
      <trkpt lat="44.38618" lon="7.45566">
        <ele>564.5</ele>
        <time>2022-10-01T14:10:34.000Z</time>
      </trkpt>
      <trkpt lat="44.38622" lon="7.45548">
        <ele>564.5</ele>
        <time>2022-10-01T14:10:36.000Z</time>
      </trkpt>
      <trkpt lat="44.38626" lon="7.4553">
        <ele>564.5</ele>
        <time>2022-10-01T14:10:38.000Z</time>
      </trkpt>
      <trkpt lat="44.38631" lon="7.45513">
        <ele>564.5</ele>
        <time>2022-10-01T14:10:40.000Z</time>
      </trkpt>
      <trkpt lat="44.38636" lon="7.45496">
        <ele>564.5</ele>
        <time>2022-10-01T14:10:42.000Z</time>
      </trkpt>
      <trkpt lat="44.3864" lon="7.45482">
        <ele>564.5</ele>
        <time>2022-10-01T14:10:44.000Z</time>
      </trkpt>
      <trkpt lat="44.38644" lon="7.45467">
        <ele>566.4</ele>
        <time>2022-10-01T14:10:46.000Z</time>
      </trkpt>
      <trkpt lat="44.38648" lon="7.45454">
        <ele>567.3</ele>
        <time>2022-10-01T14:10:48.000Z</time>
      </trkpt>
      <trkpt lat="44.3865" lon="7.45439">
        <ele>566.8</ele>
        <time>2022-10-01T14:10:50.000Z</time>
      </trkpt>
      <trkpt lat="44.38651" lon="7.45425">
        <ele>566.6</ele>
        <time>2022-10-01T14:10:52.000Z</time>
      </trkpt>
      <trkpt lat="44.38652" lon="7.45409">
        <ele>566.5</ele>
        <time>2022-10-01T14:10:54.000Z</time>
      </trkpt>
      <trkpt lat="44.38656" lon="7.45395">
        <ele>566.5</ele>
        <time>2022-10-01T14:10:56.000Z</time>
      </trkpt>
      <trkpt lat="44.38662" lon="7.45381">
        <ele>564.9</ele>
        <time>2022-10-01T14:10:58.000Z</time>
      </trkpt>
      <trkpt lat="44.38669" lon="7.45367">
        <ele>564.6</ele>
        <time>2022-10-01T14:11:00.000Z</time>
      </trkpt>
      <trkpt lat="44.38676" lon="7.45352">
        <ele>564.5</ele>
        <time>2022-10-01T14:11:02.000Z</time>
      </trkpt>
      <trkpt lat="44.38682" lon="7.45337">
        <ele>564.5</ele>
        <time>2022-10-01T14:11:04.000Z</time>
      </trkpt>
      <trkpt lat="44.38688" lon="7.45323">
        <ele>564.5</ele>
        <time>2022-10-01T14:11:06.000Z</time>
      </trkpt>
      <trkpt lat="44.38694" lon="7.45309">
        <ele>564.5</ele>
        <time>2022-10-01T14:11:08.000Z</time>
      </trkpt>
      <trkpt lat="44.38698" lon="7.45295">
        <ele>565.3</ele>
        <time>2022-10-01T14:11:10.000Z</time>
      </trkpt>
      <trkpt lat="44.38705" lon="7.45283">
        <ele>564.8</ele>
        <time>2022-10-01T14:11:12.000Z</time>
      </trkpt>
      <trkpt lat="44.38711" lon="7.45272">
        <ele>564.6</ele>
        <time>2022-10-01T14:11:14.000Z</time>
      </trkpt>
      <trkpt lat="44.38716" lon="7.45259">
        <ele>564.8</ele>
        <time>2022-10-01T14:11:18.000Z</time>
      </trkpt>
      <trkpt lat="44.38721" lon="7.45245">
        <ele>564.5</ele>
        <time>2022-10-01T14:11:21.000Z</time>
      </trkpt>
      <trkpt lat="44.38724" lon="7.4523">
        <ele>565.5</ele>
        <time>2022-10-01T14:11:24.000Z</time>
      </trkpt>
      <trkpt lat="44.38729" lon="7.45217">
        <ele>565.5</ele>
        <time>2022-10-01T14:11:28.000Z</time>
      </trkpt>
      <trkpt lat="44.38735" lon="7.45204">
        <ele>566.5</ele>
        <time>2022-10-01T14:11:32.000Z</time>
      </trkpt>
      <trkpt lat="44.38739" lon="7.4519">
        <ele>566.5</ele>
        <time>2022-10-01T14:11:35.000Z</time>
      </trkpt>
      <trkpt lat="44.38744" lon="7.45175">
        <ele>566.3</ele>
        <time>2022-10-01T14:11:38.000Z</time>
      </trkpt>
      <trkpt lat="44.38752" lon="7.45163">
        <ele>566.5</ele>
        <time>2022-10-01T14:11:40.000Z</time>
      </trkpt>
      <trkpt lat="44.38762" lon="7.45153">
        <ele>566.5</ele>
        <time>2022-10-01T14:11:42.000Z</time>
      </trkpt>
      <trkpt lat="44.38774" lon="7.45142">
        <ele>565.6</ele>
        <time>2022-10-01T14:11:44.000Z</time>
      </trkpt>
      <trkpt lat="44.38785" lon="7.4513">
        <ele>565.5</ele>
        <time>2022-10-01T14:11:46.000Z</time>
      </trkpt>
      <trkpt lat="44.38796" lon="7.45117">
        <ele>564.8</ele>
        <time>2022-10-01T14:11:48.000Z</time>
      </trkpt>
      <trkpt lat="44.38807" lon="7.45105">
        <ele>564.6</ele>
        <time>2022-10-01T14:11:50.000Z</time>
      </trkpt>
      <trkpt lat="44.38815" lon="7.45092">
        <ele>565.3</ele>
        <time>2022-10-01T14:11:52.000Z</time>
      </trkpt>
      <trkpt lat="44.38822" lon="7.45081">
        <ele>564.6</ele>
        <time>2022-10-01T14:11:54.000Z</time>
      </trkpt>
      <trkpt lat="44.38829" lon="7.45069">
        <ele>563.8</ele>
        <time>2022-10-01T14:11:56.000Z</time>
      </trkpt>
      <trkpt lat="44.38837" lon="7.45058">
        <ele>563.6</ele>
        <time>2022-10-01T14:11:58.000Z</time>
      </trkpt>
      <trkpt lat="44.38846" lon="7.45044">
        <ele>563.5</ele>
        <time>2022-10-01T14:12:00.000Z</time>
      </trkpt>
      <trkpt lat="44.38853" lon="7.45028">
        <ele>563.5</ele>
        <time>2022-10-01T14:12:02.000Z</time>
      </trkpt>
      <trkpt lat="44.38861" lon="7.45012">
        <ele>564.5</ele>
        <time>2022-10-01T14:12:04.000Z</time>
      </trkpt>
      <trkpt lat="44.3887" lon="7.44999">
        <ele>563.6</ele>
        <time>2022-10-01T14:12:06.000Z</time>
      </trkpt>
      <trkpt lat="44.3888" lon="7.4499">
        <ele>563.5</ele>
        <time>2022-10-01T14:12:08.000Z</time>
      </trkpt>
      <trkpt lat="44.38891" lon="7.44981">
        <ele>562.6</ele>
        <time>2022-10-01T14:12:10.000Z</time>
      </trkpt>
      <trkpt lat="44.38902" lon="7.44973">
        <ele>563.3</ele>
        <time>2022-10-01T14:12:12.000Z</time>
      </trkpt>
      <trkpt lat="44.38913" lon="7.44966">
        <ele>563.5</ele>
        <time>2022-10-01T14:12:14.000Z</time>
      </trkpt>
      <trkpt lat="44.38924" lon="7.44958">
        <ele>563.5</ele>
        <time>2022-10-01T14:12:16.000Z</time>
      </trkpt>
      <trkpt lat="44.38936" lon="7.44951">
        <ele>564.3</ele>
        <time>2022-10-01T14:12:18.000Z</time>
      </trkpt>
      <trkpt lat="44.38946" lon="7.44945">
        <ele>563.8</ele>
        <time>2022-10-01T14:12:20.000Z</time>
      </trkpt>
      <trkpt lat="44.38956" lon="7.4494">
        <ele>563.7</ele>
        <time>2022-10-01T14:12:22.000Z</time>
      </trkpt>
      <trkpt lat="44.38965" lon="7.44934">
        <ele>563.7</ele>
        <time>2022-10-01T14:12:24.000Z</time>
      </trkpt>
      <trkpt lat="44.38974" lon="7.44928">
        <ele>563.6</ele>
        <time>2022-10-01T14:12:26.000Z</time>
      </trkpt>
      <trkpt lat="44.38982" lon="7.44921">
        <ele>560.9</ele>
        <time>2022-10-01T14:12:28.000Z</time>
      </trkpt>
      <trkpt lat="44.38989" lon="7.44913">
        <ele>560.5</ele>
        <time>2022-10-01T14:12:33.000Z</time>
      </trkpt>
      <trkpt lat="44.38989" lon="7.44908">
        <ele>560.5</ele>
        <time>2022-10-01T14:12:33.000Z</time>
      </trkpt>
      <trkpt lat="44.38988" lon="7.44905">
        <ele>560.5</ele>
        <time>2022-10-01T14:12:36.000Z</time>
      </trkpt>
      <trkpt lat="44.38982" lon="7.44895">
        <ele>561.5</ele>
        <time>2022-10-01T14:12:38.000Z</time>
      </trkpt>
      <trkpt lat="44.38978" lon="7.44883">
        <ele>561.5</ele>
        <time>2022-10-01T14:12:40.000Z</time>
      </trkpt>
      <trkpt lat="44.38972" lon="7.44867">
        <ele>562.5</ele>
        <time>2022-10-01T14:12:43.000Z</time>
      </trkpt>
      <trkpt lat="44.38967" lon="7.44855">
        <ele>562.5</ele>
        <time>2022-10-01T14:12:45.000Z</time>
      </trkpt>
      <trkpt lat="44.38962" lon="7.44844">
        <ele>561.8</ele>
        <time>2022-10-01T14:12:47.000Z</time>
      </trkpt>
      <trkpt lat="44.38957" lon="7.44832">
        <ele>561.4</ele>
        <time>2022-10-01T14:12:49.000Z</time>
      </trkpt>
      <trkpt lat="44.38952" lon="7.4482">
        <ele>561.5</ele>
        <time>2022-10-01T14:12:51.000Z</time>
      </trkpt>
      <trkpt lat="44.38947" lon="7.44809">
        <ele>562.5</ele>
        <time>2022-10-01T14:12:53.000Z</time>
      </trkpt>
      <trkpt lat="44.38942" lon="7.44797">
        <ele>562.5</ele>
        <time>2022-10-01T14:12:55.000Z</time>
      </trkpt>
      <trkpt lat="44.38938" lon="7.44785">
        <ele>562.7</ele>
        <time>2022-10-01T14:12:57.000Z</time>
      </trkpt>
      <trkpt lat="44.38933" lon="7.44772">
        <ele>561.6</ele>
        <time>2022-10-01T14:12:59.000Z</time>
      </trkpt>
      <trkpt lat="44.38928" lon="7.44761">
        <ele>561.5</ele>
        <time>2022-10-01T14:13:01.000Z</time>
      </trkpt>
      <trkpt lat="44.38923" lon="7.44749">
        <ele>562.5</ele>
        <time>2022-10-01T14:13:03.000Z</time>
      </trkpt>
      <trkpt lat="44.38917" lon="7.44733">
        <ele>562.5</ele>
        <time>2022-10-01T14:13:06.000Z</time>
      </trkpt>
      <trkpt lat="44.38911" lon="7.44722">
        <ele>563.5</ele>
        <time>2022-10-01T14:13:08.000Z</time>
      </trkpt>
      <trkpt lat="44.38905" lon="7.44709">
        <ele>564.5</ele>
        <time>2022-10-01T14:13:10.000Z</time>
      </trkpt>
      <trkpt lat="44.389" lon="7.44697">
        <ele>563.8</ele>
        <time>2022-10-01T14:13:12.000Z</time>
      </trkpt>
      <trkpt lat="44.38894" lon="7.44687">
        <ele>564.5</ele>
        <time>2022-10-01T14:13:14.000Z</time>
      </trkpt>
      <trkpt lat="44.38888" lon="7.44675">
        <ele>564.5</ele>
        <time>2022-10-01T14:13:16.000Z</time>
      </trkpt>
      <trkpt lat="44.38883" lon="7.44663">
        <ele>563.6</ele>
        <time>2022-10-01T14:13:18.000Z</time>
      </trkpt>
      <trkpt lat="44.38877" lon="7.44652">
        <ele>564.5</ele>
        <time>2022-10-01T14:13:20.000Z</time>
      </trkpt>
      <trkpt lat="44.38872" lon="7.44641">
        <ele>564.5</ele>
        <time>2022-10-01T14:13:22.000Z</time>
      </trkpt>
      <trkpt lat="44.38866" lon="7.4463">
        <ele>564.5</ele>
        <time>2022-10-01T14:13:24.000Z</time>
      </trkpt>
      <trkpt lat="44.38861" lon="7.44619">
        <ele>564.5</ele>
        <time>2022-10-01T14:13:26.000Z</time>
      </trkpt>
      <trkpt lat="44.38855" lon="7.44608">
        <ele>564.5</ele>
        <time>2022-10-01T14:13:28.000Z</time>
      </trkpt>
      <trkpt lat="44.3885" lon="7.44597">
        <ele>565.5</ele>
        <time>2022-10-01T14:13:30.000Z</time>
      </trkpt>
      <trkpt lat="44.38844" lon="7.44585">
        <ele>565.5</ele>
        <time>2022-10-01T14:13:32.000Z</time>
      </trkpt>
      <trkpt lat="44.38838" lon="7.44574">
        <ele>565.5</ele>
        <time>2022-10-01T14:13:34.000Z</time>
      </trkpt>
      <trkpt lat="44.38833" lon="7.44563">
        <ele>565.5</ele>
        <time>2022-10-01T14:13:36.000Z</time>
      </trkpt>
      <trkpt lat="44.38827" lon="7.44552">
        <ele>564.8</ele>
        <time>2022-10-01T14:13:38.000Z</time>
      </trkpt>
      <trkpt lat="44.38821" lon="7.44541">
        <ele>564.4</ele>
        <time>2022-10-01T14:13:40.000Z</time>
      </trkpt>
      <trkpt lat="44.38816" lon="7.44529">
        <ele>564.5</ele>
        <time>2022-10-01T14:13:42.000Z</time>
      </trkpt>
      <trkpt lat="44.3881" lon="7.44517">
        <ele>564.5</ele>
        <time>2022-10-01T14:13:44.000Z</time>
      </trkpt>
      <trkpt lat="44.38804" lon="7.44506">
        <ele>565.5</ele>
        <time>2022-10-01T14:13:46.000Z</time>
      </trkpt>
      <trkpt lat="44.38798" lon="7.44495">
        <ele>566.3</ele>
        <time>2022-10-01T14:13:48.000Z</time>
      </trkpt>
      <trkpt lat="44.38791" lon="7.44483">
        <ele>566.5</ele>
        <time>2022-10-01T14:13:50.000Z</time>
      </trkpt>
      <trkpt lat="44.38786" lon="7.44471">
        <ele>566.5</ele>
        <time>2022-10-01T14:13:52.000Z</time>
      </trkpt>
      <trkpt lat="44.3878" lon="7.4446">
        <ele>565.8</ele>
        <time>2022-10-01T14:13:54.000Z</time>
      </trkpt>
      <trkpt lat="44.38773" lon="7.44448">
        <ele>566.5</ele>
        <time>2022-10-01T14:13:56.000Z</time>
      </trkpt>
      <trkpt lat="44.38768" lon="7.44437">
        <ele>566.7</ele>
        <time>2022-10-01T14:13:58.000Z</time>
      </trkpt>
      <trkpt lat="44.38762" lon="7.44426">
        <ele>565.6</ele>
        <time>2022-10-01T14:14:00.000Z</time>
      </trkpt>
      <trkpt lat="44.38756" lon="7.44413">
        <ele>566.5</ele>
        <time>2022-10-01T14:14:02.000Z</time>
      </trkpt>
      <trkpt lat="44.3875" lon="7.44401">
        <ele>566.5</ele>
        <time>2022-10-01T14:14:04.000Z</time>
      </trkpt>
      <trkpt lat="44.38744" lon="7.4439">
        <ele>567.3</ele>
        <time>2022-10-01T14:14:06.000Z</time>
      </trkpt>
      <trkpt lat="44.38739" lon="7.44379">
        <ele>567.5</ele>
        <time>2022-10-01T14:14:08.000Z</time>
      </trkpt>
      <trkpt lat="44.38733" lon="7.44369">
        <ele>567.5</ele>
        <time>2022-10-01T14:14:10.000Z</time>
      </trkpt>
      <trkpt lat="44.38724" lon="7.44355">
        <ele>568.5</ele>
        <time>2022-10-01T14:14:13.000Z</time>
      </trkpt>
      <trkpt lat="44.38717" lon="7.44346">
        <ele>568.5</ele>
        <time>2022-10-01T14:14:15.000Z</time>
      </trkpt>
      <trkpt lat="44.3871" lon="7.44337">
        <ele>568.5</ele>
        <time>2022-10-01T14:14:17.000Z</time>
      </trkpt>
      <trkpt lat="44.38703" lon="7.44329">
        <ele>568.5</ele>
        <time>2022-10-01T14:14:19.000Z</time>
      </trkpt>
      <trkpt lat="44.38695" lon="7.4432">
        <ele>568.5</ele>
        <time>2022-10-01T14:14:21.000Z</time>
      </trkpt>
      <trkpt lat="44.38688" lon="7.44312">
        <ele>569.5</ele>
        <time>2022-10-01T14:14:23.000Z</time>
      </trkpt>
      <trkpt lat="44.38681" lon="7.44304">
        <ele>568.6</ele>
        <time>2022-10-01T14:14:25.000Z</time>
      </trkpt>
      <trkpt lat="44.38673" lon="7.44296">
        <ele>568.5</ele>
        <time>2022-10-01T14:14:27.000Z</time>
      </trkpt>
      <trkpt lat="44.38666" lon="7.44288">
        <ele>568.5</ele>
        <time>2022-10-01T14:14:29.000Z</time>
      </trkpt>
      <trkpt lat="44.38659" lon="7.44279">
        <ele>569.3</ele>
        <time>2022-10-01T14:14:31.000Z</time>
      </trkpt>
      <trkpt lat="44.38651" lon="7.44271">
        <ele>569.5</ele>
        <time>2022-10-01T14:14:33.000Z</time>
      </trkpt>
      <trkpt lat="44.38644" lon="7.44262">
        <ele>569.5</ele>
        <time>2022-10-01T14:14:35.000Z</time>
      </trkpt>
      <trkpt lat="44.38637" lon="7.44253">
        <ele>569.5</ele>
        <time>2022-10-01T14:14:37.000Z</time>
      </trkpt>
      <trkpt lat="44.3863" lon="7.44244">
        <ele>569.5</ele>
        <time>2022-10-01T14:14:39.000Z</time>
      </trkpt>
      <trkpt lat="44.38624" lon="7.44235">
        <ele>569.5</ele>
        <time>2022-10-01T14:14:41.000Z</time>
      </trkpt>
      <trkpt lat="44.38618" lon="7.44225">
        <ele>569.5</ele>
        <time>2022-10-01T14:14:43.000Z</time>
      </trkpt>
      <trkpt lat="44.38612" lon="7.44215">
        <ele>570.5</ele>
        <time>2022-10-01T14:14:45.000Z</time>
      </trkpt>
      <trkpt lat="44.38606" lon="7.44205">
        <ele>570.5</ele>
        <time>2022-10-01T14:14:47.000Z</time>
      </trkpt>
      <trkpt lat="44.386" lon="7.44194">
        <ele>570.5</ele>
        <time>2022-10-01T14:14:49.000Z</time>
      </trkpt>
      <trkpt lat="44.38594" lon="7.44179">
        <ele>568.9</ele>
        <time>2022-10-01T14:14:52.000Z</time>
      </trkpt>
      <trkpt lat="44.38586" lon="7.44164">
        <ele>569.5</ele>
        <time>2022-10-01T14:14:55.000Z</time>
      </trkpt>
      <trkpt lat="44.3858" lon="7.44156">
        <ele>575.6</ele>
        <time>2022-10-01T14:14:56.000Z</time>
      </trkpt>
      <trkpt lat="44.3858" lon="7.44154">
        <ele>570.3</ele>
        <time>2022-10-01T14:14:57.000Z</time>
      </trkpt>
      <trkpt lat="44.38577" lon="7.44159">
        <ele>576.9</ele>
        <time>2022-10-01T14:14:57.000Z</time>
      </trkpt>
      <trkpt lat="44.38574" lon="7.44144">
        <ele>577.2</ele>
        <time>2022-10-01T14:14:59.000Z</time>
      </trkpt>
      <trkpt lat="44.38568" lon="7.44133">
        <ele>577.3</ele>
        <time>2022-10-01T14:15:01.000Z</time>
      </trkpt>
      <trkpt lat="44.3856" lon="7.44118">
        <ele>577.3</ele>
        <time>2022-10-01T14:15:04.000Z</time>
      </trkpt>
      <trkpt lat="44.38552" lon="7.44102">
        <ele>577.3</ele>
        <time>2022-10-01T14:15:07.000Z</time>
      </trkpt>
      <trkpt lat="44.38546" lon="7.44091">
        <ele>577.3</ele>
        <time>2022-10-01T14:15:09.000Z</time>
      </trkpt>
      <trkpt lat="44.38539" lon="7.44078">
        <ele>577.3</ele>
        <time>2022-10-01T14:15:12.000Z</time>
      </trkpt>
      <trkpt lat="44.38534" lon="7.44067">
        <ele>577.3</ele>
        <time>2022-10-01T14:15:14.000Z</time>
      </trkpt>
      <trkpt lat="44.38532" lon="7.44061">
        <ele>577.3</ele>
        <time>2022-10-01T14:15:14.000Z</time>
      </trkpt>
      <trkpt lat="44.3853" lon="7.44057">
        <ele>577.3</ele>
        <time>2022-10-01T14:15:15.000Z</time>
      </trkpt>
      <trkpt lat="44.38524" lon="7.44046">
        <ele>577.3</ele>
        <time>2022-10-01T14:15:18.000Z</time>
      </trkpt>
      <trkpt lat="44.38518" lon="7.44034">
        <ele>577.3</ele>
        <time>2022-10-01T14:15:19.000Z</time>
      </trkpt>
      <trkpt lat="44.38514" lon="7.44022">
        <ele>577.3</ele>
        <time>2022-10-01T14:15:22.000Z</time>
      </trkpt>
      <trkpt lat="44.38512" lon="7.4401">
        <ele>577.3</ele>
        <time>2022-10-01T14:15:23.000Z</time>
      </trkpt>
      <trkpt lat="44.3851" lon="7.44007">
        <ele>577.3</ele>
        <time>2022-10-01T14:15:25.000Z</time>
      </trkpt>
      <trkpt lat="44.38502" lon="7.43997">
        <ele>577.3</ele>
        <time>2022-10-01T14:15:27.000Z</time>
      </trkpt>
      <trkpt lat="44.38497" lon="7.43988">
        <ele>577.3</ele>
        <time>2022-10-01T14:15:28.000Z</time>
      </trkpt>
      <trkpt lat="44.38495" lon="7.43984">
        <ele>577.3</ele>
        <time>2022-10-01T14:15:29.000Z</time>
      </trkpt>
      <trkpt lat="44.38486" lon="7.43965">
        <ele>577.3</ele>
        <time>2022-10-01T14:15:32.000Z</time>
      </trkpt>
      <trkpt lat="44.3848" lon="7.43947">
        <ele>577.3</ele>
        <time>2022-10-01T14:15:36.000Z</time>
      </trkpt>
      <trkpt lat="44.38477" lon="7.43935">
        <ele>577.3</ele>
        <time>2022-10-01T14:15:38.000Z</time>
      </trkpt>
      <trkpt lat="44.38474" lon="7.43923">
        <ele>577.3</ele>
        <time>2022-10-01T14:15:41.000Z</time>
      </trkpt>
      <trkpt lat="44.38469" lon="7.43907">
        <ele>577.3</ele>
        <time>2022-10-01T14:15:43.000Z</time>
      </trkpt>
      <trkpt lat="44.38467" lon="7.43896">
        <ele>577.3</ele>
        <time>2022-10-01T14:15:44.000Z</time>
      </trkpt>
      <trkpt lat="44.38465" lon="7.43893">
        <ele>577.3</ele>
        <time>2022-10-01T14:15:45.000Z</time>
      </trkpt>
      <trkpt lat="44.38455" lon="7.43897">
        <ele>577.3</ele>
        <time>2022-10-01T14:15:48.000Z</time>
      </trkpt>
      <trkpt lat="44.38444" lon="7.43895">
        <ele>577.3</ele>
        <time>2022-10-01T14:15:51.000Z</time>
      </trkpt>
      <trkpt lat="44.38435" lon="7.43893">
        <ele>577.3</ele>
        <time>2022-10-01T14:15:53.000Z</time>
      </trkpt>
      <trkpt lat="44.3842" lon="7.43889">
        <ele>577.3</ele>
        <time>2022-10-01T14:15:57.000Z</time>
      </trkpt>
      <trkpt lat="44.38411" lon="7.43887">
        <ele>577.3</ele>
        <time>2022-10-01T14:15:59.000Z</time>
      </trkpt>
      <trkpt lat="44.384" lon="7.43885">
        <ele>577.3</ele>
        <time>2022-10-01T14:16:02.000Z</time>
      </trkpt>
      <trkpt lat="44.3839" lon="7.43882">
        <ele>577.3</ele>
        <time>2022-10-01T14:16:04.000Z</time>
      </trkpt>
      <trkpt lat="44.38381" lon="7.43879">
        <ele>577.3</ele>
        <time>2022-10-01T14:16:06.000Z</time>
      </trkpt>
      <trkpt lat="44.3837" lon="7.43871">
        <ele>577.3</ele>
        <time>2022-10-01T14:16:09.000Z</time>
      </trkpt>
      <trkpt lat="44.38363" lon="7.43861">
        <ele>577.3</ele>
        <time>2022-10-01T14:16:11.000Z</time>
      </trkpt>
      <trkpt lat="44.38354" lon="7.43847">
        <ele>577.3</ele>
        <time>2022-10-01T14:16:14.000Z</time>
      </trkpt>
      <trkpt lat="44.38348" lon="7.43838">
        <ele>577.3</ele>
        <time>2022-10-01T14:16:16.000Z</time>
      </trkpt>
      <trkpt lat="44.38342" lon="7.43824">
        <ele>577.3</ele>
        <time>2022-10-01T14:16:19.000Z</time>
      </trkpt>
      <trkpt lat="44.38333" lon="7.43817">
        <ele>577.3</ele>
        <time>2022-10-01T14:16:22.000Z</time>
      </trkpt>
      <trkpt lat="44.38323" lon="7.43811">
        <ele>577.3</ele>
        <time>2022-10-01T14:16:25.000Z</time>
      </trkpt>
      <trkpt lat="44.38314" lon="7.43801">
        <ele>574.5</ele>
        <time>2022-10-01T14:16:27.000Z</time>
      </trkpt>
      <trkpt lat="44.3831" lon="7.43785">
        <ele>574.5</ele>
        <time>2022-10-01T14:16:30.000Z</time>
      </trkpt>
      <trkpt lat="44.38308" lon="7.43776">
        <ele>574.5</ele>
        <time>2022-10-01T14:16:31.000Z</time>
      </trkpt>
      <trkpt lat="44.38307" lon="7.4377">
        <ele>575.5</ele>
        <time>2022-10-01T14:16:32.000Z</time>
      </trkpt>
      <trkpt lat="44.38308" lon="7.43772">
        <ele>575.3</ele>
        <time>2022-10-01T14:16:33.000Z</time>
      </trkpt>
      <trkpt lat="44.38307" lon="7.43767">
        <ele>575.5</ele>
        <time>2022-10-01T14:16:33.000Z</time>
      </trkpt>
      <trkpt lat="44.38305" lon="7.43759">
        <ele>575.5</ele>
        <time>2022-10-01T14:16:34.000Z</time>
      </trkpt>
      <trkpt lat="44.38303" lon="7.43755">
        <ele>576.3</ele>
        <time>2022-10-01T14:16:36.000Z</time>
      </trkpt>
      <trkpt lat="44.38299" lon="7.43738">
        <ele>576.5</ele>
        <time>2022-10-01T14:16:38.000Z</time>
      </trkpt>
      <trkpt lat="44.38299" lon="7.4374">
        <ele>576.5</ele>
        <time>2022-10-01T14:16:39.000Z</time>
      </trkpt>
      <trkpt lat="44.38298" lon="7.43735">
        <ele>576.5</ele>
        <time>2022-10-01T14:16:39.000Z</time>
      </trkpt>
      <trkpt lat="44.38293" lon="7.43715">
        <ele>575.8</ele>
        <time>2022-10-01T14:16:43.000Z</time>
      </trkpt>
      <trkpt lat="44.38294" lon="7.43702">
        <ele>575.5</ele>
        <time>2022-10-01T14:16:45.000Z</time>
      </trkpt>
      <trkpt lat="44.38297" lon="7.43684">
        <ele>576.3</ele>
        <time>2022-10-01T14:16:49.000Z</time>
      </trkpt>
      <trkpt lat="44.38298" lon="7.4368">
        <ele>576.5</ele>
        <time>2022-10-01T14:16:49.000Z</time>
      </trkpt>
      <trkpt lat="44.38299" lon="7.43674">
        <ele>576.5</ele>
        <time>2022-10-01T14:16:50.000Z</time>
      </trkpt>
      <trkpt lat="44.38298" lon="7.43676">
        <ele>576.5</ele>
        <time>2022-10-01T14:16:51.000Z</time>
      </trkpt>
      <trkpt lat="44.383" lon="7.43671">
        <ele>575.8</ele>
        <time>2022-10-01T14:16:52.000Z</time>
      </trkpt>
      <trkpt lat="44.38306" lon="7.43662">
        <ele>575.5</ele>
        <time>2022-10-01T14:16:54.000Z</time>
      </trkpt>
      <trkpt lat="44.38309" lon="7.43657">
        <ele>575.5</ele>
        <time>2022-10-01T14:16:54.000Z</time>
      </trkpt>
      <trkpt lat="44.3831" lon="7.43653">
        <ele>574.6</ele>
        <time>2022-10-01T14:16:55.000Z</time>
      </trkpt>
      <trkpt lat="44.38311" lon="7.43648">
        <ele>574.5</ele>
        <time>2022-10-01T14:16:56.000Z</time>
      </trkpt>
      <trkpt lat="44.3831" lon="7.43654">
        <ele>574.8</ele>
        <time>2022-10-01T14:16:56.000Z</time>
      </trkpt>
      <trkpt lat="44.38311" lon="7.4365">
        <ele>574.6</ele>
        <time>2022-10-01T14:16:57.000Z</time>
      </trkpt>
      <trkpt lat="44.38311" lon="7.43645">
        <ele>574.5</ele>
        <time>2022-10-01T14:16:57.000Z</time>
      </trkpt>
      <trkpt lat="44.38312" lon="7.43632">
        <ele>574.5</ele>
        <time>2022-10-01T14:17:01.000Z</time>
      </trkpt>
      <trkpt lat="44.38311" lon="7.43616">
        <ele>574.5</ele>
        <time>2022-10-01T14:17:05.000Z</time>
      </trkpt>
      <trkpt lat="44.38302" lon="7.43605">
        <ele>575.5</ele>
        <time>2022-10-01T14:17:08.000Z</time>
      </trkpt>
      <trkpt lat="44.38293" lon="7.43594">
        <ele>574.6</ele>
        <time>2022-10-01T14:17:11.000Z</time>
      </trkpt>
      <trkpt lat="44.38285" lon="7.43584">
        <ele>575.5</ele>
        <time>2022-10-01T14:17:14.000Z</time>
      </trkpt>
      <trkpt lat="44.38277" lon="7.43577">
        <ele>575.5</ele>
        <time>2022-10-01T14:17:16.000Z</time>
      </trkpt>
      <trkpt lat="44.38273" lon="7.43574">
        <ele>575.5</ele>
        <time>2022-10-01T14:17:17.000Z</time>
      </trkpt>
      <trkpt lat="44.3827" lon="7.43572">
        <ele>575.5</ele>
        <time>2022-10-01T14:17:19.000Z</time>
      </trkpt>
      <trkpt lat="44.3826" lon="7.43566">
        <ele>575.5</ele>
        <time>2022-10-01T14:17:22.000Z</time>
      </trkpt>
      <trkpt lat="44.3825" lon="7.43559">
        <ele>574.5</ele>
        <time>2022-10-01T14:17:25.000Z</time>
      </trkpt>
      <trkpt lat="44.38241" lon="7.43552">
        <ele>575.3</ele>
        <time>2022-10-01T14:17:27.000Z</time>
      </trkpt>
      <trkpt lat="44.38231" lon="7.43545">
        <ele>576.5</ele>
        <time>2022-10-01T14:17:31.000Z</time>
      </trkpt>
      <trkpt lat="44.38221" lon="7.4354">
        <ele>576.5</ele>
        <time>2022-10-01T14:17:34.000Z</time>
      </trkpt>
      <trkpt lat="44.38209" lon="7.43533">
        <ele>577.5</ele>
        <time>2022-10-01T14:17:36.000Z</time>
      </trkpt>
      <trkpt lat="44.3821" lon="7.43534">
        <ele>577.5</ele>
        <time>2022-10-01T14:17:37.000Z</time>
      </trkpt>
      <trkpt lat="44.38207" lon="7.43532">
        <ele>577.5</ele>
        <time>2022-10-01T14:17:37.000Z</time>
      </trkpt>
      <trkpt lat="44.38197" lon="7.43524">
        <ele>577.5</ele>
        <time>2022-10-01T14:17:41.000Z</time>
      </trkpt>
      <trkpt lat="44.38188" lon="7.4352">
        <ele>578.3</ele>
        <time>2022-10-01T14:17:43.000Z</time>
      </trkpt>
      <trkpt lat="44.38179" lon="7.43514">
        <ele>579.3</ele>
        <time>2022-10-01T14:17:46.000Z</time>
      </trkpt>
      <trkpt lat="44.38175" lon="7.43513">
        <ele>579.5</ele>
        <time>2022-10-01T14:17:46.000Z</time>
      </trkpt>
      <trkpt lat="44.38173" lon="7.43512">
        <ele>579.5</ele>
        <time>2022-10-01T14:17:47.000Z</time>
      </trkpt>
      <trkpt lat="44.38163" lon="7.43504">
        <ele>579.5</ele>
        <time>2022-10-01T14:17:51.000Z</time>
      </trkpt>
      <trkpt lat="44.38155" lon="7.43497">
        <ele>579.5</ele>
        <time>2022-10-01T14:17:54.000Z</time>
      </trkpt>
      <trkpt lat="44.38147" lon="7.43487">
        <ele>580.5</ele>
        <time>2022-10-01T14:17:56.000Z</time>
      </trkpt>
      <trkpt lat="44.38148" lon="7.43488">
        <ele>580.5</ele>
        <time>2022-10-01T14:17:57.000Z</time>
      </trkpt>
      <trkpt lat="44.38145" lon="7.43485">
        <ele>580.5</ele>
        <time>2022-10-01T14:17:57.000Z</time>
      </trkpt>
      <trkpt lat="44.38141" lon="7.4348">
        <ele>580.5</ele>
        <time>2022-10-01T14:17:58.000Z</time>
      </trkpt>
      <trkpt lat="44.38139" lon="7.43479">
        <ele>580.5</ele>
        <time>2022-10-01T14:18:00.000Z</time>
      </trkpt>
      <trkpt lat="44.3813" lon="7.43467">
        <ele>580.5</ele>
        <time>2022-10-01T14:18:04.000Z</time>
      </trkpt>
      <trkpt lat="44.38123" lon="7.43456">
        <ele>580.5</ele>
        <time>2022-10-01T14:18:06.000Z</time>
      </trkpt>
      <trkpt lat="44.38123" lon="7.43457">
        <ele>580.5</ele>
        <time>2022-10-01T14:18:07.000Z</time>
      </trkpt>
      <trkpt lat="44.38121" lon="7.43453">
        <ele>580.5</ele>
        <time>2022-10-01T14:18:07.000Z</time>
      </trkpt>
      <trkpt lat="44.38114" lon="7.4344">
        <ele>581.5</ele>
        <time>2022-10-01T14:18:10.000Z</time>
      </trkpt>
      <trkpt lat="44.38108" lon="7.4343">
        <ele>580.6</ele>
        <time>2022-10-01T14:18:14.000Z</time>
      </trkpt>
      <trkpt lat="44.38095" lon="7.43421">
        <ele>580.5</ele>
        <time>2022-10-01T14:18:18.000Z</time>
      </trkpt>
      <trkpt lat="44.38086" lon="7.43414">
        <ele>581.3</ele>
        <time>2022-10-01T14:18:22.000Z</time>
      </trkpt>
      <trkpt lat="44.38076" lon="7.43402">
        <ele>582.5</ele>
        <time>2022-10-01T14:18:25.000Z</time>
      </trkpt>
      <trkpt lat="44.38068" lon="7.43396">
        <ele>579.6</ele>
        <time>2022-10-01T14:18:28.000Z</time>
      </trkpt>
      <trkpt lat="44.38057" lon="7.43385">
        <ele>580.5</ele>
        <time>2022-10-01T14:18:31.000Z</time>
      </trkpt>
      <trkpt lat="44.38045" lon="7.43381">
        <ele>580.5</ele>
        <time>2022-10-01T14:18:33.000Z</time>
      </trkpt>
      <trkpt lat="44.38046" lon="7.43381">
        <ele>580.5</ele>
        <time>2022-10-01T14:18:34.000Z</time>
      </trkpt>
      <trkpt lat="44.38042" lon="7.4338">
        <ele>581.3</ele>
        <time>2022-10-01T14:18:35.000Z</time>
      </trkpt>
      <trkpt lat="44.38037" lon="7.43378">
        <ele>581.5</ele>
        <time>2022-10-01T14:18:35.000Z</time>
      </trkpt>
      <trkpt lat="44.38035" lon="7.43377">
        <ele>581.5</ele>
        <time>2022-10-01T14:18:37.000Z</time>
      </trkpt>
      <trkpt lat="44.38024" lon="7.4337">
        <ele>581.5</ele>
        <time>2022-10-01T14:18:39.000Z</time>
      </trkpt>
      <trkpt lat="44.3802" lon="7.43367">
        <ele>582.5</ele>
        <time>2022-10-01T14:18:40.000Z</time>
      </trkpt>
      <trkpt lat="44.38026" lon="7.43371">
        <ele>581.5</ele>
        <time>2022-10-01T14:18:40.000Z</time>
      </trkpt>
      <trkpt lat="44.38022" lon="7.43368">
        <ele>582.3</ele>
        <time>2022-10-01T14:18:41.000Z</time>
      </trkpt>
      <trkpt lat="44.38017" lon="7.43365">
        <ele>582.5</ele>
        <time>2022-10-01T14:18:42.000Z</time>
      </trkpt>
      <trkpt lat="44.38014" lon="7.43363">
        <ele>581.6</ele>
        <time>2022-10-01T14:18:42.000Z</time>
      </trkpt>
      <trkpt lat="44.38011" lon="7.43361">
        <ele>581.6</ele>
        <time>2022-10-01T14:18:43.000Z</time>
      </trkpt>
      <trkpt lat="44.38003" lon="7.43353">
        <ele>582.5</ele>
        <time>2022-10-01T14:18:45.000Z</time>
      </trkpt>
      <trkpt lat="44.38001" lon="7.43351">
        <ele>582.5</ele>
        <time>2022-10-01T14:18:47.000Z</time>
      </trkpt>
      <trkpt lat="44.37992" lon="7.43341">
        <ele>581.6</ele>
        <time>2022-10-01T14:18:50.000Z</time>
      </trkpt>
      <trkpt lat="44.37983" lon="7.43333">
        <ele>581.5</ele>
        <time>2022-10-01T14:18:53.000Z</time>
      </trkpt>
      <trkpt lat="44.37968" lon="7.43325">
        <ele>583.3</ele>
        <time>2022-10-01T14:18:59.000Z</time>
      </trkpt>
      <trkpt lat="44.37956" lon="7.43324">
        <ele>584.3</ele>
        <time>2022-10-01T14:19:02.000Z</time>
      </trkpt>
      <trkpt lat="44.37946" lon="7.43322">
        <ele>583.8</ele>
        <time>2022-10-01T14:19:04.000Z</time>
      </trkpt>
      <trkpt lat="44.3794" lon="7.43315">
        <ele>584.5</ele>
        <time>2022-10-01T14:19:05.000Z</time>
      </trkpt>
      <trkpt lat="44.37938" lon="7.43312">
        <ele>584.5</ele>
        <time>2022-10-01T14:19:07.000Z</time>
      </trkpt>
      <trkpt lat="44.37928" lon="7.43292">
        <ele>585.5</ele>
        <time>2022-10-01T14:19:11.000Z</time>
      </trkpt>
      <trkpt lat="44.37923" lon="7.4328">
        <ele>586.5</ele>
        <time>2022-10-01T14:19:13.000Z</time>
      </trkpt>
      <trkpt lat="44.37919" lon="7.43269">
        <ele>583.9</ele>
        <time>2022-10-01T14:19:16.000Z</time>
      </trkpt>
      <trkpt lat="44.37913" lon="7.43255">
        <ele>586.3</ele>
        <time>2022-10-01T14:19:21.000Z</time>
      </trkpt>
      <trkpt lat="44.37911" lon="7.43249">
        <ele>586.5</ele>
        <time>2022-10-01T14:19:22.000Z</time>
      </trkpt>
      <trkpt lat="44.3791" lon="7.43248">
        <ele>586.5</ele>
        <time>2022-10-01T14:19:23.000Z</time>
      </trkpt>
      <trkpt lat="44.37902" lon="7.43242">
        <ele>586.5</ele>
        <time>2022-10-01T14:19:27.000Z</time>
      </trkpt>
      <trkpt lat="44.37899" lon="7.4324">
        <ele>586.5</ele>
        <time>2022-10-01T14:19:27.000Z</time>
      </trkpt>
      <trkpt lat="44.37896" lon="7.4324">
        <ele>586.5</ele>
        <time>2022-10-01T14:19:28.000Z</time>
      </trkpt>
      <trkpt lat="44.37896" lon="7.4324">
        <ele>586.5</ele>
        <time>2022-10-01T14:19:29.000Z</time>
      </trkpt>
      <trkpt lat="44.37895" lon="7.4324">
        <ele>586.5</ele>
        <time>2022-10-01T14:19:29.000Z</time>
      </trkpt>
      <trkpt lat="44.37887" lon="7.43249">
        <ele>585.5</ele>
        <time>2022-10-01T14:19:33.000Z</time>
      </trkpt>
      <trkpt lat="44.37887" lon="7.43248">
        <ele>585.5</ele>
        <time>2022-10-01T14:19:34.000Z</time>
      </trkpt>
      <trkpt lat="44.37885" lon="7.4325">
        <ele>585.5</ele>
        <time>2022-10-01T14:19:35.000Z</time>
      </trkpt>
      <trkpt lat="44.37876" lon="7.4326">
        <ele>584.6</ele>
        <time>2022-10-01T14:19:38.000Z</time>
      </trkpt>
      <trkpt lat="44.37867" lon="7.43267">
        <ele>582.6</ele>
        <time>2022-10-01T14:19:40.000Z</time>
      </trkpt>
      <trkpt lat="44.37865" lon="7.43269">
        <ele>583.3</ele>
        <time>2022-10-01T14:19:42.000Z</time>
      </trkpt>
      <trkpt lat="44.37853" lon="7.4327">
        <ele>583.5</ele>
        <time>2022-10-01T14:19:45.000Z</time>
      </trkpt>
      <trkpt lat="44.37845" lon="7.43257">
        <ele>585.3</ele>
        <time>2022-10-01T14:19:49.000Z</time>
      </trkpt>
      <trkpt lat="44.37836" lon="7.43241">
        <ele>589</ele>
        <time>2022-10-01T14:19:53.000Z</time>
      </trkpt>
      <trkpt lat="44.37834" lon="7.43228">
        <ele>590.5</ele>
        <time>2022-10-01T14:19:56.000Z</time>
      </trkpt>
      <trkpt lat="44.37834" lon="7.43223">
        <ele>590.5</ele>
        <time>2022-10-01T14:19:57.000Z</time>
      </trkpt>
      <trkpt lat="44.37831" lon="7.43206">
        <ele>593.3</ele>
        <time>2022-10-01T14:20:00.000Z</time>
      </trkpt>
      <trkpt lat="44.37826" lon="7.43192">
        <ele>593.5</ele>
        <time>2022-10-01T14:20:03.000Z</time>
      </trkpt>
      <trkpt lat="44.37822" lon="7.43177">
        <ele>593.5</ele>
        <time>2022-10-01T14:20:06.000Z</time>
      </trkpt>
      <trkpt lat="44.37817" lon="7.43166">
        <ele>593.5</ele>
        <time>2022-10-01T14:20:07.000Z</time>
      </trkpt>
      <trkpt lat="44.37816" lon="7.43163">
        <ele>593.5</ele>
        <time>2022-10-01T14:20:09.000Z</time>
      </trkpt>
      <trkpt lat="44.37812" lon="7.4315">
        <ele>593.5</ele>
        <time>2022-10-01T14:20:12.000Z</time>
      </trkpt>
      <trkpt lat="44.37807" lon="7.43135">
        <ele>593.5</ele>
        <time>2022-10-01T14:20:15.000Z</time>
      </trkpt>
      <trkpt lat="44.37804" lon="7.43123">
        <ele>592.8</ele>
        <time>2022-10-01T14:20:18.000Z</time>
      </trkpt>
      <trkpt lat="44.37799" lon="7.43109">
        <ele>593.5</ele>
        <time>2022-10-01T14:20:21.000Z</time>
      </trkpt>
      <trkpt lat="44.37793" lon="7.43098">
        <ele>593.5</ele>
        <time>2022-10-01T14:20:23.000Z</time>
      </trkpt>
      <trkpt lat="44.37792" lon="7.43097">
        <ele>593.5</ele>
        <time>2022-10-01T14:20:25.000Z</time>
      </trkpt>
      <trkpt lat="44.37785" lon="7.43086">
        <ele>593.5</ele>
        <time>2022-10-01T14:20:28.000Z</time>
      </trkpt>
      <trkpt lat="44.37775" lon="7.43074">
        <ele>594.5</ele>
        <time>2022-10-01T14:20:31.000Z</time>
      </trkpt>
      <trkpt lat="44.37765" lon="7.43065">
        <ele>593.6</ele>
        <time>2022-10-01T14:20:34.000Z</time>
      </trkpt>
      <trkpt lat="44.37757" lon="7.43059">
        <ele>596.2</ele>
        <time>2022-10-01T14:20:36.000Z</time>
      </trkpt>
      <trkpt lat="44.37748" lon="7.4305">
        <ele>596.7</ele>
        <time>2022-10-01T14:20:39.000Z</time>
      </trkpt>
      <trkpt lat="44.37741" lon="7.43041">
        <ele>596.5</ele>
        <time>2022-10-01T14:20:42.000Z</time>
      </trkpt>
      <trkpt lat="44.37736" lon="7.4303">
        <ele>596.5</ele>
        <time>2022-10-01T14:20:44.000Z</time>
      </trkpt>
      <trkpt lat="44.37735" lon="7.43028">
        <ele>596.5</ele>
        <time>2022-10-01T14:20:45.000Z</time>
      </trkpt>
      <trkpt lat="44.37737" lon="7.43034">
        <ele>596.5</ele>
        <time>2022-10-01T14:20:49.000Z</time>
      </trkpt>
      <trkpt lat="44.37739" lon="7.43035">
        <ele>596.5</ele>
        <time>2022-10-01T14:20:51.000Z</time>
      </trkpt>
      <trkpt lat="44.37749" lon="7.43046">
        <ele>595.5</ele>
        <time>2022-10-01T14:20:53.000Z</time>
      </trkpt>
      <trkpt lat="44.37748" lon="7.43044">
        <ele>595.6</ele>
        <time>2022-10-01T14:20:54.000Z</time>
      </trkpt>
      <trkpt lat="44.37751" lon="7.43048">
        <ele>595.5</ele>
        <time>2022-10-01T14:20:55.000Z</time>
      </trkpt>
      <trkpt lat="44.37762" lon="7.43062">
        <ele>595.5</ele>
        <time>2022-10-01T14:20:58.000Z</time>
      </trkpt>
      <trkpt lat="44.37774" lon="7.43076">
        <ele>595.5</ele>
        <time>2022-10-01T14:21:01.000Z</time>
      </trkpt>
      <trkpt lat="44.37777" lon="7.4308">
        <ele>595.5</ele>
        <time>2022-10-01T14:21:01.000Z</time>
      </trkpt>
      <trkpt lat="44.3778" lon="7.43083">
        <ele>595.5</ele>
        <time>2022-10-01T14:21:02.000Z</time>
      </trkpt>
      <trkpt lat="44.37786" lon="7.43092">
        <ele>595.5</ele>
        <time>2022-10-01T14:21:05.000Z</time>
      </trkpt>
      <trkpt lat="44.37792" lon="7.43103">
        <ele>595.5</ele>
        <time>2022-10-01T14:21:07.000Z</time>
      </trkpt>
      <trkpt lat="44.37798" lon="7.43114">
        <ele>595.5</ele>
        <time>2022-10-01T14:21:09.000Z</time>
      </trkpt>
      <trkpt lat="44.37802" lon="7.43127">
        <ele>595.5</ele>
        <time>2022-10-01T14:21:11.000Z</time>
      </trkpt>
      <trkpt lat="44.37806" lon="7.4314">
        <ele>594.6</ele>
        <time>2022-10-01T14:21:13.000Z</time>
      </trkpt>
      <trkpt lat="44.37811" lon="7.43153">
        <ele>594.5</ele>
        <time>2022-10-01T14:21:15.000Z</time>
      </trkpt>
      <trkpt lat="44.37815" lon="7.43166">
        <ele>593.8</ele>
        <time>2022-10-01T14:21:17.000Z</time>
      </trkpt>
      <trkpt lat="44.3782" lon="7.43179">
        <ele>593.6</ele>
        <time>2022-10-01T14:21:19.000Z</time>
      </trkpt>
      <trkpt lat="44.37824" lon="7.43193">
        <ele>593.5</ele>
        <time>2022-10-01T14:21:21.000Z</time>
      </trkpt>
      <trkpt lat="44.37828" lon="7.43207">
        <ele>593.5</ele>
        <time>2022-10-01T14:21:23.000Z</time>
      </trkpt>
      <trkpt lat="44.3783" lon="7.43221">
        <ele>593.5</ele>
        <time>2022-10-01T14:21:25.000Z</time>
      </trkpt>
      <trkpt lat="44.37832" lon="7.43234">
        <ele>594.5</ele>
        <time>2022-10-01T14:21:27.000Z</time>
      </trkpt>
      <trkpt lat="44.37835" lon="7.43247">
        <ele>594.5</ele>
        <time>2022-10-01T14:21:29.000Z</time>
      </trkpt>
      <trkpt lat="44.37839" lon="7.4326">
        <ele>594.5</ele>
        <time>2022-10-01T14:21:31.000Z</time>
      </trkpt>
      <trkpt lat="44.37844" lon="7.43275">
        <ele>593.6</ele>
        <time>2022-10-01T14:21:34.000Z</time>
      </trkpt>
      <trkpt lat="44.3785" lon="7.43285">
        <ele>593.5</ele>
        <time>2022-10-01T14:21:37.000Z</time>
      </trkpt>
      <trkpt lat="44.37861" lon="7.43278">
        <ele>595.2</ele>
        <time>2022-10-01T14:21:38.000Z</time>
      </trkpt>
      <trkpt lat="44.37859" lon="7.43279">
        <ele>593.5</ele>
        <time>2022-10-01T14:21:39.000Z</time>
      </trkpt>
      <trkpt lat="44.37864" lon="7.43273">
        <ele>595.6</ele>
        <time>2022-10-01T14:21:40.000Z</time>
      </trkpt>
      <trkpt lat="44.37875" lon="7.43259">
        <ele>595.7</ele>
        <time>2022-10-01T14:21:43.000Z</time>
      </trkpt>
      <trkpt lat="44.37882" lon="7.43251">
        <ele>595.7</ele>
        <time>2022-10-01T14:21:45.000Z</time>
      </trkpt>
      <trkpt lat="44.37893" lon="7.4324">
        <ele>595.7</ele>
        <time>2022-10-01T14:21:48.000Z</time>
      </trkpt>
      <trkpt lat="44.37901" lon="7.43233">
        <ele>595.7</ele>
        <time>2022-10-01T14:21:52.000Z</time>
      </trkpt>
      <trkpt lat="44.37908" lon="7.43241">
        <ele>595.7</ele>
        <time>2022-10-01T14:21:54.000Z</time>
      </trkpt>
      <trkpt lat="44.37916" lon="7.4326">
        <ele>595.7</ele>
        <time>2022-10-01T14:21:56.000Z</time>
      </trkpt>
      <trkpt lat="44.37924" lon="7.4328">
        <ele>595.7</ele>
        <time>2022-10-01T14:21:58.000Z</time>
      </trkpt>
      <trkpt lat="44.37932" lon="7.43297">
        <ele>595.7</ele>
        <time>2022-10-01T14:22:00.000Z</time>
      </trkpt>
      <trkpt lat="44.3794" lon="7.43309">
        <ele>595.7</ele>
        <time>2022-10-01T14:22:02.000Z</time>
      </trkpt>
      <trkpt lat="44.37954" lon="7.43322">
        <ele>595.7</ele>
        <time>2022-10-01T14:22:05.000Z</time>
      </trkpt>
      <trkpt lat="44.37968" lon="7.43327">
        <ele>595.7</ele>
        <time>2022-10-01T14:22:07.000Z</time>
      </trkpt>
      <trkpt lat="44.37977" lon="7.43331">
        <ele>595.7</ele>
        <time>2022-10-01T14:22:09.000Z</time>
      </trkpt>
      <trkpt lat="44.37987" lon="7.4334">
        <ele>595.7</ele>
        <time>2022-10-01T14:22:13.000Z</time>
      </trkpt>
      <trkpt lat="44.3799" lon="7.43329">
        <ele>595.7</ele>
        <time>2022-10-01T14:22:21.000Z</time>
      </trkpt>
      <trkpt lat="44.3799" lon="7.43316">
        <ele>595.7</ele>
        <time>2022-10-01T14:22:24.000Z</time>
      </trkpt>
      <trkpt lat="44.37989" lon="7.43298">
        <ele>595.7</ele>
        <time>2022-10-01T14:22:28.000Z</time>
      </trkpt>
      <trkpt lat="44.37987" lon="7.43285">
        <ele>595.7</ele>
        <time>2022-10-01T14:22:31.000Z</time>
      </trkpt>
      <trkpt lat="44.37984" lon="7.43272">
        <ele>595.7</ele>
        <time>2022-10-01T14:22:34.000Z</time>
      </trkpt>
      <trkpt lat="44.37978" lon="7.43256">
        <ele>595.7</ele>
        <time>2022-10-01T14:22:37.000Z</time>
      </trkpt>
      <trkpt lat="44.37975" lon="7.4325">
        <ele>595.7</ele>
        <time>2022-10-01T14:22:38.000Z</time>
      </trkpt>
      <trkpt lat="44.37974" lon="7.43248">
        <ele>595.7</ele>
        <time>2022-10-01T14:22:39.000Z</time>
      </trkpt>
      <trkpt lat="44.37968" lon="7.43234">
        <ele>595.7</ele>
        <time>2022-10-01T14:22:44.000Z</time>
      </trkpt>
      <trkpt lat="44.37967" lon="7.43228">
        <ele>595.7</ele>
        <time>2022-10-01T14:22:44.000Z</time>
      </trkpt>
      <trkpt lat="44.37966" lon="7.43226">
        <ele>595.7</ele>
        <time>2022-10-01T14:22:45.000Z</time>
      </trkpt>
      <trkpt lat="44.37965" lon="7.43218">
        <ele>595.7</ele>
        <time>2022-10-01T14:22:47.000Z</time>
      </trkpt>
      <trkpt lat="44.37965" lon="7.43213">
        <ele>595.7</ele>
        <time>2022-10-01T14:22:49.000Z</time>
      </trkpt>
      <trkpt lat="44.37962" lon="7.432">
        <ele>595.7</ele>
        <time>2022-10-01T14:22:55.000Z</time>
      </trkpt>
      <trkpt lat="44.37952" lon="7.43188">
        <ele>595.7</ele>
        <time>2022-10-01T14:23:00.000Z</time>
      </trkpt>
      <trkpt lat="44.37948" lon="7.43175">
        <ele>595.7</ele>
        <time>2022-10-01T14:23:05.000Z</time>
      </trkpt>
      <trkpt lat="44.37948" lon="7.43175">
        <ele>595.7</ele>
        <time>2022-10-01T14:23:06.000Z</time>
      </trkpt>
      <trkpt lat="44.37948" lon="7.43173">
        <ele>595.7</ele>
        <time>2022-10-01T14:23:07.000Z</time>
      </trkpt>
      <trkpt lat="44.37939" lon="7.43165">
        <ele>584.3</ele>
        <time>2022-10-01T14:23:12.000Z</time>
      </trkpt>
      <trkpt lat="44.37934" lon="7.43154">
        <ele>585.5</ele>
        <time>2022-10-01T14:23:17.000Z</time>
      </trkpt>
      <trkpt lat="44.37929" lon="7.43141">
        <ele>587.5</ele>
        <time>2022-10-01T14:23:24.000Z</time>
      </trkpt>
      <trkpt lat="44.3792" lon="7.43133">
        <ele>589.3</ele>
        <time>2022-10-01T14:23:28.000Z</time>
      </trkpt>
      <trkpt lat="44.37914" lon="7.43124">
        <ele>591.5</ele>
        <time>2022-10-01T14:23:33.000Z</time>
      </trkpt>
      <trkpt lat="44.37912" lon="7.43116">
        <ele>592.5</ele>
        <time>2022-10-01T14:23:36.000Z</time>
      </trkpt>
      <trkpt lat="44.37912" lon="7.43113">
        <ele>592.5</ele>
        <time>2022-10-01T14:23:37.000Z</time>
      </trkpt>
      <trkpt lat="44.37912" lon="7.43114">
        <ele>592.5</ele>
        <time>2022-10-01T14:23:38.000Z</time>
      </trkpt>
      <trkpt lat="44.37911" lon="7.43112">
        <ele>592.5</ele>
        <time>2022-10-01T14:23:38.000Z</time>
      </trkpt>
      <trkpt lat="44.37909" lon="7.43098">
        <ele>595.3</ele>
        <time>2022-10-01T14:23:44.000Z</time>
      </trkpt>
      <trkpt lat="44.37909" lon="7.43093">
        <ele>595.5</ele>
        <time>2022-10-01T14:23:45.000Z</time>
      </trkpt>
      <trkpt lat="44.37909" lon="7.43091">
        <ele>595.5</ele>
        <time>2022-10-01T14:23:47.000Z</time>
      </trkpt>
      <trkpt lat="44.37908" lon="7.43076">
        <ele>595.5</ele>
        <time>2022-10-01T14:23:52.000Z</time>
      </trkpt>
      <trkpt lat="44.37904" lon="7.43059">
        <ele>594.6</ele>
        <time>2022-10-01T14:23:58.000Z</time>
      </trkpt>
      <trkpt lat="44.37902" lon="7.43046">
        <ele>594.5</ele>
        <time>2022-10-01T14:24:04.000Z</time>
      </trkpt>
      <trkpt lat="44.37902" lon="7.43032">
        <ele>596.5</ele>
        <time>2022-10-01T14:24:12.000Z</time>
      </trkpt>
      <trkpt lat="44.37899" lon="7.43016">
        <ele>598.5</ele>
        <time>2022-10-01T14:24:18.000Z</time>
      </trkpt>
      <trkpt lat="44.37895" lon="7.43003">
        <ele>599.5</ele>
        <time>2022-10-01T14:24:24.000Z</time>
      </trkpt>
      <trkpt lat="44.3789" lon="7.4299">
        <ele>598.5</ele>
        <time>2022-10-01T14:24:30.000Z</time>
      </trkpt>
      <trkpt lat="44.37891" lon="7.42977">
        <ele>598.6</ele>
        <time>2022-10-01T14:24:35.000Z</time>
      </trkpt>
      <trkpt lat="44.37887" lon="7.42961">
        <ele>600.5</ele>
        <time>2022-10-01T14:24:41.000Z</time>
      </trkpt>
      <trkpt lat="44.37883" lon="7.42949">
        <ele>598.3</ele>
        <time>2022-10-01T14:24:46.000Z</time>
      </trkpt>
      <trkpt lat="44.37884" lon="7.42941">
        <ele>600.5</ele>
        <time>2022-10-01T14:24:50.000Z</time>
      </trkpt>
      <trkpt lat="44.37883" lon="7.42939">
        <ele>600.5</ele>
        <time>2022-10-01T14:24:51.000Z</time>
      </trkpt>
      <trkpt lat="44.37883" lon="7.42937">
        <ele>601.5</ele>
        <time>2022-10-01T14:24:52.000Z</time>
      </trkpt>
      <trkpt lat="44.37883" lon="7.4294">
        <ele>600.5</ele>
        <time>2022-10-01T14:24:52.000Z</time>
      </trkpt>
      <trkpt lat="44.37884" lon="7.42938">
        <ele>601.3</ele>
        <time>2022-10-01T14:24:53.000Z</time>
      </trkpt>
      <trkpt lat="44.37883" lon="7.42936">
        <ele>601.5</ele>
        <time>2022-10-01T14:24:53.000Z</time>
      </trkpt>
      <trkpt lat="44.3788" lon="7.42922">
        <ele>603.5</ele>
        <time>2022-10-01T14:24:58.000Z</time>
      </trkpt>
      <trkpt lat="44.37881" lon="7.42923">
        <ele>603.5</ele>
        <time>2022-10-01T14:24:59.000Z</time>
      </trkpt>
      <trkpt lat="44.3788" lon="7.42919">
        <ele>603.5</ele>
        <time>2022-10-01T14:24:59.000Z</time>
      </trkpt>
      <trkpt lat="44.37877" lon="7.42907">
        <ele>604.5</ele>
        <time>2022-10-01T14:25:03.000Z</time>
      </trkpt>
      <trkpt lat="44.37872" lon="7.4289">
        <ele>605.5</ele>
        <time>2022-10-01T14:25:07.000Z</time>
      </trkpt>
      <trkpt lat="44.37872" lon="7.42888">
        <ele>606.5</ele>
        <time>2022-10-01T14:25:08.000Z</time>
      </trkpt>
      <trkpt lat="44.37871" lon="7.42886">
        <ele>606.5</ele>
        <time>2022-10-01T14:25:09.000Z</time>
      </trkpt>
      <trkpt lat="44.37863" lon="7.42874">
        <ele>604.6</ele>
        <time>2022-10-01T14:25:13.000Z</time>
      </trkpt>
      <trkpt lat="44.37864" lon="7.42875">
        <ele>604.8</ele>
        <time>2022-10-01T14:25:14.000Z</time>
      </trkpt>
      <trkpt lat="44.37862" lon="7.42872">
        <ele>604.6</ele>
        <time>2022-10-01T14:25:15.000Z</time>
      </trkpt>
      <trkpt lat="44.37857" lon="7.42864">
        <ele>605.5</ele>
        <time>2022-10-01T14:25:17.000Z</time>
      </trkpt>
      <trkpt lat="44.37856" lon="7.42863">
        <ele>605.5</ele>
        <time>2022-10-01T14:25:18.000Z</time>
      </trkpt>
      <trkpt lat="44.37845" lon="7.42856">
        <ele>605.8</ele>
        <time>2022-10-01T14:25:24.000Z</time>
      </trkpt>
      <trkpt lat="44.37834" lon="7.4285">
        <ele>605.5</ele>
        <time>2022-10-01T14:25:27.000Z</time>
      </trkpt>
      <trkpt lat="44.37829" lon="7.42846">
        <ele>607.5</ele>
        <time>2022-10-01T14:25:30.000Z</time>
      </trkpt>
      <trkpt lat="44.37828" lon="7.42845">
        <ele>607.5</ele>
        <time>2022-10-01T14:25:31.000Z</time>
      </trkpt>
      <trkpt lat="44.37825" lon="7.42843">
        <ele>607.5</ele>
        <time>2022-10-01T14:25:33.000Z</time>
      </trkpt>
      <trkpt lat="44.37824" lon="7.42842">
        <ele>607.5</ele>
        <time>2022-10-01T14:25:34.000Z</time>
      </trkpt>
      <trkpt lat="44.37818" lon="7.42829">
        <ele>606.6</ele>
        <time>2022-10-01T14:25:40.000Z</time>
      </trkpt>
      <trkpt lat="44.37814" lon="7.42816">
        <ele>608.5</ele>
        <time>2022-10-01T14:25:46.000Z</time>
      </trkpt>
      <trkpt lat="44.37812" lon="7.428">
        <ele>608.5</ele>
        <time>2022-10-01T14:25:52.000Z</time>
      </trkpt>
      <trkpt lat="44.37822" lon="7.42793">
        <ele>608.5</ele>
        <time>2022-10-01T14:25:57.000Z</time>
      </trkpt>
      <trkpt lat="44.37823" lon="7.42793">
        <ele>608.5</ele>
        <time>2022-10-01T14:25:57.000Z</time>
      </trkpt>
      <trkpt lat="44.37824" lon="7.42791">
        <ele>608.5</ele>
        <time>2022-10-01T14:25:59.000Z</time>
      </trkpt>
      <trkpt lat="44.37826" lon="7.4279">
        <ele>609.5</ele>
        <time>2022-10-01T14:25:59.000Z</time>
      </trkpt>
      <trkpt lat="44.37827" lon="7.4279">
        <ele>609.5</ele>
        <time>2022-10-01T14:26:01.000Z</time>
      </trkpt>
      <trkpt lat="44.37836" lon="7.42789">
        <ele>611.3</ele>
        <time>2022-10-01T14:26:07.000Z</time>
      </trkpt>
      <trkpt lat="44.37846" lon="7.42794">
        <ele>612.5</ele>
        <time>2022-10-01T14:26:12.000Z</time>
      </trkpt>
      <trkpt lat="44.37853" lon="7.42799">
        <ele>613.5</ele>
        <time>2022-10-01T14:26:15.000Z</time>
      </trkpt>
      <trkpt lat="44.37855" lon="7.428">
        <ele>613.5</ele>
        <time>2022-10-01T14:26:17.000Z</time>
      </trkpt>
      <trkpt lat="44.37864" lon="7.42809">
        <ele>614.5</ele>
        <time>2022-10-01T14:26:21.000Z</time>
      </trkpt>
      <trkpt lat="44.37866" lon="7.42811">
        <ele>614.5</ele>
        <time>2022-10-01T14:26:21.000Z</time>
      </trkpt>
      <trkpt lat="44.37867" lon="7.42813">
        <ele>614.5</ele>
        <time>2022-10-01T14:26:22.000Z</time>
      </trkpt>
      <trkpt lat="44.37877" lon="7.42825">
        <ele>613.8</ele>
        <time>2022-10-01T14:26:28.000Z</time>
      </trkpt>
      <trkpt lat="44.37886" lon="7.4283">
        <ele>613.5</ele>
        <time>2022-10-01T14:26:31.000Z</time>
      </trkpt>
      <trkpt lat="44.37894" lon="7.42841">
        <ele>615.5</ele>
        <time>2022-10-01T14:26:35.000Z</time>
      </trkpt>
      <trkpt lat="44.37896" lon="7.42844">
        <ele>615.5</ele>
        <time>2022-10-01T14:26:35.000Z</time>
      </trkpt>
      <trkpt lat="44.37897" lon="7.42845">
        <ele>615.5</ele>
        <time>2022-10-01T14:26:36.000Z</time>
      </trkpt>
      <trkpt lat="44.379" lon="7.42848">
        <ele>615.5</ele>
        <time>2022-10-01T14:26:37.000Z</time>
      </trkpt>
      <trkpt lat="44.37901" lon="7.4285">
        <ele>615.5</ele>
        <time>2022-10-01T14:26:38.000Z</time>
      </trkpt>
      <trkpt lat="44.37908" lon="7.42859">
        <ele>616.3</ele>
        <time>2022-10-01T14:26:43.000Z</time>
      </trkpt>
      <trkpt lat="44.37915" lon="7.42869">
        <ele>616.5</ele>
        <time>2022-10-01T14:26:49.000Z</time>
      </trkpt>
      <trkpt lat="44.37921" lon="7.42881">
        <ele>616.5</ele>
        <time>2022-10-01T14:26:53.000Z</time>
      </trkpt>
      <trkpt lat="44.37929" lon="7.42888">
        <ele>617.5</ele>
        <time>2022-10-01T14:26:57.000Z</time>
      </trkpt>
      <trkpt lat="44.37932" lon="7.42875">
        <ele>616.5</ele>
        <time>2022-10-01T14:27:04.000Z</time>
      </trkpt>
      <trkpt lat="44.37926" lon="7.42865">
        <ele>618.3</ele>
        <time>2022-10-01T14:27:07.000Z</time>
      </trkpt>
      <trkpt lat="44.37916" lon="7.42856">
        <ele>619.3</ele>
        <time>2022-10-01T14:27:11.000Z</time>
      </trkpt>
      <trkpt lat="44.37913" lon="7.42849">
        <ele>619.5</ele>
        <time>2022-10-01T14:27:13.000Z</time>
      </trkpt>
      <trkpt lat="44.37911" lon="7.42847">
        <ele>619.5</ele>
        <time>2022-10-01T14:27:14.000Z</time>
      </trkpt>
      <trkpt lat="44.37911" lon="7.42842">
        <ele>621.5</ele>
        <time>2022-10-01T14:27:15.000Z</time>
      </trkpt>
      <trkpt lat="44.37911" lon="7.42841">
        <ele>622.3</ele>
        <time>2022-10-01T14:27:17.000Z</time>
      </trkpt>
      <trkpt lat="44.3791" lon="7.42835">
        <ele>622.5</ele>
        <time>2022-10-01T14:27:18.000Z</time>
      </trkpt>
      <trkpt lat="44.3791" lon="7.42833">
        <ele>622.5</ele>
        <time>2022-10-01T14:27:19.000Z</time>
      </trkpt>
      <trkpt lat="44.37908" lon="7.42827">
        <ele>623.5</ele>
        <time>2022-10-01T14:27:21.000Z</time>
      </trkpt>
      <trkpt lat="44.37907" lon="7.42825">
        <ele>623.5</ele>
        <time>2022-10-01T14:27:23.000Z</time>
      </trkpt>
      <trkpt lat="44.37904" lon="7.4281">
        <ele>624.5</ele>
        <time>2022-10-01T14:27:28.000Z</time>
      </trkpt>
      <trkpt lat="44.379" lon="7.42798">
        <ele>624.5</ele>
        <time>2022-10-01T14:27:32.000Z</time>
      </trkpt>
      <trkpt lat="44.37898" lon="7.42792">
        <ele>625.5</ele>
        <time>2022-10-01T14:27:34.000Z</time>
      </trkpt>
      <trkpt lat="44.37898" lon="7.4279">
        <ele>625.5</ele>
        <time>2022-10-01T14:27:35.000Z</time>
      </trkpt>
      <trkpt lat="44.37894" lon="7.42776">
        <ele>626.3</ele>
        <time>2022-10-01T14:27:41.000Z</time>
      </trkpt>
      <trkpt lat="44.37892" lon="7.4277">
        <ele>626.5</ele>
        <time>2022-10-01T14:27:43.000Z</time>
      </trkpt>
      <trkpt lat="44.37891" lon="7.42768">
        <ele>626.5</ele>
        <time>2022-10-01T14:27:44.000Z</time>
      </trkpt>
      <trkpt lat="44.37886" lon="7.42757">
        <ele>627.5</ele>
        <time>2022-10-01T14:27:50.000Z</time>
      </trkpt>
      <trkpt lat="44.37882" lon="7.42743">
        <ele>627.5</ele>
        <time>2022-10-01T14:27:55.000Z</time>
      </trkpt>
      <trkpt lat="44.37875" lon="7.42734">
        <ele>628.3</ele>
        <time>2022-10-01T14:28:00.000Z</time>
      </trkpt>
      <trkpt lat="44.37866" lon="7.42731">
        <ele>629.3</ele>
        <time>2022-10-01T14:28:01.000Z</time>
      </trkpt>
      <trkpt lat="44.37859" lon="7.4272">
        <ele>629.5</ele>
        <time>2022-10-01T14:28:06.000Z</time>
      </trkpt>
      <trkpt lat="44.37849" lon="7.42713">
        <ele>630.5</ele>
        <time>2022-10-01T14:28:12.000Z</time>
      </trkpt>
      <trkpt lat="44.37841" lon="7.42706">
        <ele>631.5</ele>
        <time>2022-10-01T14:28:16.000Z</time>
      </trkpt>
      <trkpt lat="44.37833" lon="7.42696">
        <ele>632.5</ele>
        <time>2022-10-01T14:28:23.000Z</time>
      </trkpt>
      <trkpt lat="44.37828" lon="7.4269">
        <ele>632.5</ele>
        <time>2022-10-01T14:28:27.000Z</time>
      </trkpt>
      <trkpt lat="44.37827" lon="7.42689">
        <ele>632.5</ele>
        <time>2022-10-01T14:28:28.000Z</time>
      </trkpt>
      <trkpt lat="44.3782" lon="7.42676">
        <ele>633.5</ele>
        <time>2022-10-01T14:28:35.000Z</time>
      </trkpt>
      <trkpt lat="44.37813" lon="7.42665">
        <ele>633.8</ele>
        <time>2022-10-01T14:28:42.000Z</time>
      </trkpt>
      <trkpt lat="44.37812" lon="7.42659">
        <ele>634.5</ele>
        <time>2022-10-01T14:28:43.000Z</time>
      </trkpt>
      <trkpt lat="44.37811" lon="7.42658">
        <ele>634.5</ele>
        <time>2022-10-01T14:28:44.000Z</time>
      </trkpt>
      <trkpt lat="44.37806" lon="7.42649">
        <ele>632.6</ele>
        <time>2022-10-01T14:28:48.000Z</time>
      </trkpt>
      <trkpt lat="44.37805" lon="7.42648">
        <ele>632.6</ele>
        <time>2022-10-01T14:28:49.000Z</time>
      </trkpt>
      <trkpt lat="44.37806" lon="7.42635">
        <ele>631.8</ele>
        <time>2022-10-01T14:28:55.000Z</time>
      </trkpt>
      <trkpt lat="44.37806" lon="7.42622">
        <ele>631.5</ele>
        <time>2022-10-01T14:28:57.000Z</time>
      </trkpt>
      <trkpt lat="44.37806" lon="7.42619">
        <ele>631.5</ele>
        <time>2022-10-01T14:28:58.000Z</time>
      </trkpt>
      <trkpt lat="44.37807" lon="7.426">
        <ele>631.5</ele>
        <time>2022-10-01T14:29:03.000Z</time>
      </trkpt>
      <trkpt lat="44.37809" lon="7.42586">
        <ele>630.8</ele>
        <time>2022-10-01T14:29:06.000Z</time>
      </trkpt>
      <trkpt lat="44.37814" lon="7.42573">
        <ele>630.5</ele>
        <time>2022-10-01T14:29:09.000Z</time>
      </trkpt>
      <trkpt lat="44.3782" lon="7.42563">
        <ele>630.5</ele>
        <time>2022-10-01T14:29:12.000Z</time>
      </trkpt>
      <trkpt lat="44.37826" lon="7.4255">
        <ele>630.5</ele>
        <time>2022-10-01T14:29:16.000Z</time>
      </trkpt>
      <trkpt lat="44.37829" lon="7.42538">
        <ele>629.8</ele>
        <time>2022-10-01T14:29:18.000Z</time>
      </trkpt>
      <trkpt lat="44.37827" lon="7.42531">
        <ele>629.5</ele>
        <time>2022-10-01T14:29:19.000Z</time>
      </trkpt>
      <trkpt lat="44.37827" lon="7.42528">
        <ele>629.5</ele>
        <time>2022-10-01T14:29:21.000Z</time>
      </trkpt>
      <trkpt lat="44.37816" lon="7.42521">
        <ele>629.5</ele>
        <time>2022-10-01T14:29:24.000Z</time>
      </trkpt>
      <trkpt lat="44.37808" lon="7.42525">
        <ele>628.5</ele>
        <time>2022-10-01T14:29:27.000Z</time>
      </trkpt>
      <trkpt lat="44.37806" lon="7.42526">
        <ele>628.5</ele>
        <time>2022-10-01T14:29:28.000Z</time>
      </trkpt>
      <trkpt lat="44.37795" lon="7.42526">
        <ele>627.5</ele>
        <time>2022-10-01T14:29:32.000Z</time>
      </trkpt>
      <trkpt lat="44.37786" lon="7.42525">
        <ele>627.5</ele>
        <time>2022-10-01T14:29:34.000Z</time>
      </trkpt>
      <trkpt lat="44.37784" lon="7.42525">
        <ele>627.5</ele>
        <time>2022-10-01T14:29:35.000Z</time>
      </trkpt>
      <trkpt lat="44.3777" lon="7.42527">
        <ele>627.5</ele>
        <time>2022-10-01T14:29:39.000Z</time>
      </trkpt>
      <trkpt lat="44.37761" lon="7.42526">
        <ele>627.5</ele>
        <time>2022-10-01T14:29:43.000Z</time>
      </trkpt>
      <trkpt lat="44.37751" lon="7.42522">
        <ele>628.5</ele>
        <time>2022-10-01T14:29:46.000Z</time>
      </trkpt>
      <trkpt lat="44.37742" lon="7.42514">
        <ele>629.5</ele>
        <time>2022-10-01T14:29:50.000Z</time>
      </trkpt>
      <trkpt lat="44.37734" lon="7.42506">
        <ele>631.3</ele>
        <time>2022-10-01T14:29:54.000Z</time>
      </trkpt>
      <trkpt lat="44.37726" lon="7.42497">
        <ele>630.2</ele>
        <time>2022-10-01T14:29:58.000Z</time>
      </trkpt>
      <trkpt lat="44.37717" lon="7.4249">
        <ele>630.2</ele>
        <time>2022-10-01T14:30:01.000Z</time>
      </trkpt>
      <trkpt lat="44.37712" lon="7.42479">
        <ele>629.4</ele>
        <time>2022-10-01T14:30:05.000Z</time>
      </trkpt>
      <trkpt lat="44.37706" lon="7.42469">
        <ele>632.2</ele>
        <time>2022-10-01T14:30:09.000Z</time>
      </trkpt>
      <trkpt lat="44.37698" lon="7.42456">
        <ele>630.9</ele>
        <time>2022-10-01T14:30:13.000Z</time>
      </trkpt>
      <trkpt lat="44.37692" lon="7.42446">
        <ele>633.5</ele>
        <time>2022-10-01T14:30:17.000Z</time>
      </trkpt>
      <trkpt lat="44.37686" lon="7.42434">
        <ele>634.5</ele>
        <time>2022-10-01T14:30:21.000Z</time>
      </trkpt>
      <trkpt lat="44.3768" lon="7.42422">
        <ele>635.5</ele>
        <time>2022-10-01T14:30:25.000Z</time>
      </trkpt>
      <trkpt lat="44.37674" lon="7.42413">
        <ele>636.5</ele>
        <time>2022-10-01T14:30:28.000Z</time>
      </trkpt>
      <trkpt lat="44.37666" lon="7.42402">
        <ele>635.5</ele>
        <time>2022-10-01T14:30:31.000Z</time>
      </trkpt>
      <trkpt lat="44.37659" lon="7.42392">
        <ele>635.5</ele>
        <time>2022-10-01T14:30:34.000Z</time>
      </trkpt>
      <trkpt lat="44.37649" lon="7.42382">
        <ele>637.3</ele>
        <time>2022-10-01T14:30:37.000Z</time>
      </trkpt>
      <trkpt lat="44.37642" lon="7.42373">
        <ele>638.5</ele>
        <time>2022-10-01T14:30:39.000Z</time>
      </trkpt>
      <trkpt lat="44.37635" lon="7.42363">
        <ele>639.5</ele>
        <time>2022-10-01T14:30:42.000Z</time>
      </trkpt>
      <trkpt lat="44.37627" lon="7.42351">
        <ele>640.5</ele>
        <time>2022-10-01T14:30:45.000Z</time>
      </trkpt>
      <trkpt lat="44.37616" lon="7.42335">
        <ele>642.5</ele>
        <time>2022-10-01T14:30:48.000Z</time>
      </trkpt>
      <trkpt lat="44.37607" lon="7.42321">
        <ele>642.5</ele>
        <time>2022-10-01T14:30:52.000Z</time>
      </trkpt>
      <trkpt lat="44.37599" lon="7.4231">
        <ele>642.5</ele>
        <time>2022-10-01T14:30:54.000Z</time>
      </trkpt>
      <trkpt lat="44.37589" lon="7.42293">
        <ele>643.3</ele>
        <time>2022-10-01T14:30:59.000Z</time>
      </trkpt>
      <trkpt lat="44.37581" lon="7.42276">
        <ele>643.5</ele>
        <time>2022-10-01T14:31:02.000Z</time>
      </trkpt>
      <trkpt lat="44.37576" lon="7.42261">
        <ele>644.5</ele>
        <time>2022-10-01T14:31:06.000Z</time>
      </trkpt>
      <trkpt lat="44.37571" lon="7.42246">
        <ele>643.6</ele>
        <time>2022-10-01T14:31:08.000Z</time>
      </trkpt>
      <trkpt lat="44.37572" lon="7.42249">
        <ele>643.8</ele>
        <time>2022-10-01T14:31:09.000Z</time>
      </trkpt>
      <trkpt lat="44.3757" lon="7.42243">
        <ele>642.8</ele>
        <time>2022-10-01T14:31:10.000Z</time>
      </trkpt>
      <trkpt lat="44.37564" lon="7.42228">
        <ele>642.5</ele>
        <time>2022-10-01T14:31:12.000Z</time>
      </trkpt>
      <trkpt lat="44.37563" lon="7.42224">
        <ele>642.5</ele>
        <time>2022-10-01T14:31:13.000Z</time>
      </trkpt>
      <trkpt lat="44.37564" lon="7.4223">
        <ele>642.5</ele>
        <time>2022-10-01T14:31:13.000Z</time>
      </trkpt>
      <trkpt lat="44.37563" lon="7.42226">
        <ele>642.5</ele>
        <time>2022-10-01T14:31:14.000Z</time>
      </trkpt>
      <trkpt lat="44.37563" lon="7.42221">
        <ele>642.5</ele>
        <time>2022-10-01T14:31:14.000Z</time>
      </trkpt>
      <trkpt lat="44.3756" lon="7.42208">
        <ele>641.5</ele>
        <time>2022-10-01T14:31:18.000Z</time>
      </trkpt>
      <trkpt lat="44.37556" lon="7.42196">
        <ele>641.5</ele>
        <time>2022-10-01T14:31:20.000Z</time>
      </trkpt>
      <trkpt lat="44.37555" lon="7.42182">
        <ele>641.5</ele>
        <time>2022-10-01T14:31:23.000Z</time>
      </trkpt>
      <trkpt lat="44.37555" lon="7.4218">
        <ele>641.5</ele>
        <time>2022-10-01T14:31:23.000Z</time>
      </trkpt>
      <trkpt lat="44.37555" lon="7.42176">
        <ele>641.5</ele>
        <time>2022-10-01T14:31:25.000Z</time>
      </trkpt>
      <trkpt lat="44.37553" lon="7.42162">
        <ele>641.5</ele>
        <time>2022-10-01T14:31:28.000Z</time>
      </trkpt>
      <trkpt lat="44.37552" lon="7.42149">
        <ele>640.6</ele>
        <time>2022-10-01T14:31:30.000Z</time>
      </trkpt>
      <trkpt lat="44.37552" lon="7.42131">
        <ele>640.5</ele>
        <time>2022-10-01T14:31:33.000Z</time>
      </trkpt>
      <trkpt lat="44.37554" lon="7.42118">
        <ele>641.5</ele>
        <time>2022-10-01T14:31:35.000Z</time>
      </trkpt>
      <trkpt lat="44.37556" lon="7.42102">
        <ele>641.5</ele>
        <time>2022-10-01T14:31:38.000Z</time>
      </trkpt>
      <trkpt lat="44.3756" lon="7.42086">
        <ele>641.5</ele>
        <time>2022-10-01T14:31:41.000Z</time>
      </trkpt>
      <trkpt lat="44.37564" lon="7.42072">
        <ele>641.5</ele>
        <time>2022-10-01T14:31:44.000Z</time>
      </trkpt>
      <trkpt lat="44.37562" lon="7.42057">
        <ele>641.5</ele>
        <time>2022-10-01T14:31:47.000Z</time>
      </trkpt>
      <trkpt lat="44.37559" lon="7.42042">
        <ele>640.4</ele>
        <time>2022-10-01T14:31:50.000Z</time>
      </trkpt>
      <trkpt lat="44.3755" lon="7.42039">
        <ele>640.5</ele>
        <time>2022-10-01T14:31:53.000Z</time>
      </trkpt>
      <trkpt lat="44.37538" lon="7.42043">
        <ele>639.6</ele>
        <time>2022-10-01T14:31:57.000Z</time>
      </trkpt>
      <trkpt lat="44.37529" lon="7.42047">
        <ele>639.5</ele>
        <time>2022-10-01T14:32:00.000Z</time>
      </trkpt>
      <trkpt lat="44.37517" lon="7.42044">
        <ele>639.5</ele>
        <time>2022-10-01T14:32:04.000Z</time>
      </trkpt>
      <trkpt lat="44.37509" lon="7.42036">
        <ele>640.5</ele>
        <time>2022-10-01T14:32:08.000Z</time>
      </trkpt>
      <trkpt lat="44.37499" lon="7.42026">
        <ele>643.2</ele>
        <time>2022-10-01T14:32:12.000Z</time>
      </trkpt>
      <trkpt lat="44.37493" lon="7.42015">
        <ele>642.6</ele>
        <time>2022-10-01T14:32:15.000Z</time>
      </trkpt>
      <trkpt lat="44.37485" lon="7.42005">
        <ele>642.4</ele>
        <time>2022-10-01T14:32:20.000Z</time>
      </trkpt>
      <trkpt lat="44.37476" lon="7.42003">
        <ele>643.5</ele>
        <time>2022-10-01T14:32:25.000Z</time>
      </trkpt>
      <trkpt lat="44.37468" lon="7.41996">
        <ele>643.5</ele>
        <time>2022-10-01T14:32:30.000Z</time>
      </trkpt>
      <trkpt lat="44.3746" lon="7.41986">
        <ele>645.3</ele>
        <time>2022-10-01T14:32:36.000Z</time>
      </trkpt>
      <trkpt lat="44.37452" lon="7.41977">
        <ele>644.8</ele>
        <time>2022-10-01T14:32:41.000Z</time>
      </trkpt>
      <trkpt lat="44.37446" lon="7.41967">
        <ele>644.5</ele>
        <time>2022-10-01T14:32:46.000Z</time>
      </trkpt>
      <trkpt lat="44.37441" lon="7.41955">
        <ele>643.5</ele>
        <time>2022-10-01T14:32:51.000Z</time>
      </trkpt>
      <trkpt lat="44.37434" lon="7.41946">
        <ele>645.5</ele>
        <time>2022-10-01T14:32:57.000Z</time>
      </trkpt>
      <trkpt lat="44.37427" lon="7.41936">
        <ele>645.5</ele>
        <time>2022-10-01T14:33:02.000Z</time>
      </trkpt>
      <trkpt lat="44.3742" lon="7.41924">
        <ele>646.3</ele>
        <time>2022-10-01T14:33:07.000Z</time>
      </trkpt>
      <trkpt lat="44.37414" lon="7.41914">
        <ele>646.5</ele>
        <time>2022-10-01T14:33:10.000Z</time>
      </trkpt>
      <trkpt lat="44.37409" lon="7.41901">
        <ele>646.5</ele>
        <time>2022-10-01T14:33:15.000Z</time>
      </trkpt>
      <trkpt lat="44.37406" lon="7.41897">
        <ele>647.5</ele>
        <time>2022-10-01T14:33:16.000Z</time>
      </trkpt>
      <trkpt lat="44.37405" lon="7.41895">
        <ele>647.5</ele>
        <time>2022-10-01T14:33:17.000Z</time>
      </trkpt>
      <trkpt lat="44.37396" lon="7.41885">
        <ele>645.8</ele>
        <time>2022-10-01T14:33:23.000Z</time>
      </trkpt>
      <trkpt lat="44.37391" lon="7.41881">
        <ele>646.5</ele>
        <time>2022-10-01T14:33:24.000Z</time>
      </trkpt>
      <trkpt lat="44.37392" lon="7.41883">
        <ele>646.5</ele>
        <time>2022-10-01T14:33:25.000Z</time>
      </trkpt>
      <trkpt lat="44.37388" lon="7.41876">
        <ele>648.5</ele>
        <time>2022-10-01T14:33:26.000Z</time>
      </trkpt>
      <trkpt lat="44.37387" lon="7.41874">
        <ele>648.5</ele>
        <time>2022-10-01T14:33:27.000Z</time>
      </trkpt>
      <trkpt lat="44.37381" lon="7.41862">
        <ele>648.8</ele>
        <time>2022-10-01T14:33:33.000Z</time>
      </trkpt>
      <trkpt lat="44.37379" lon="7.41854">
        <ele>649.5</ele>
        <time>2022-10-01T14:33:36.000Z</time>
      </trkpt>
      <trkpt lat="44.37378" lon="7.41853">
        <ele>649.5</ele>
        <time>2022-10-01T14:33:37.000Z</time>
      </trkpt>
      <trkpt lat="44.37374" lon="7.41842">
        <ele>650.5</ele>
        <time>2022-10-01T14:33:42.000Z</time>
      </trkpt>
      <trkpt lat="44.37372" lon="7.41828">
        <ele>650.5</ele>
        <time>2022-10-01T14:33:47.000Z</time>
      </trkpt>
      <trkpt lat="44.37372" lon="7.41813">
        <ele>651.5</ele>
        <time>2022-10-01T14:33:52.000Z</time>
      </trkpt>
      <trkpt lat="44.37372" lon="7.4181">
        <ele>651.5</ele>
        <time>2022-10-01T14:33:53.000Z</time>
      </trkpt>
      <trkpt lat="44.37372" lon="7.41809">
        <ele>651.5</ele>
        <time>2022-10-01T14:33:54.000Z</time>
      </trkpt>
      <trkpt lat="44.37374" lon="7.418">
        <ele>651.6</ele>
        <time>2022-10-01T14:33:57.000Z</time>
      </trkpt>
      <trkpt lat="44.37374" lon="7.41799">
        <ele>651.5</ele>
        <time>2022-10-01T14:33:58.000Z</time>
      </trkpt>
      <trkpt lat="44.37377" lon="7.41786">
        <ele>649.8</ele>
        <time>2022-10-01T14:34:04.000Z</time>
      </trkpt>
      <trkpt lat="44.37377" lon="7.41784">
        <ele>649.5</ele>
        <time>2022-10-01T14:34:05.000Z</time>
      </trkpt>
      <trkpt lat="44.37377" lon="7.41783">
        <ele>649.5</ele>
        <time>2022-10-01T14:34:06.000Z</time>
      </trkpt>
      <trkpt lat="44.37377" lon="7.41768">
        <ele>649.5</ele>
        <time>2022-10-01T14:34:11.000Z</time>
      </trkpt>
      <trkpt lat="44.37376" lon="7.41749">
        <ele>650.5</ele>
        <time>2022-10-01T14:34:16.000Z</time>
      </trkpt>
      <trkpt lat="44.37376" lon="7.41736">
        <ele>650.5</ele>
        <time>2022-10-01T14:34:20.000Z</time>
      </trkpt>
      <trkpt lat="44.37377" lon="7.41734">
        <ele>651.5</ele>
        <time>2022-10-01T14:34:20.000Z</time>
      </trkpt>
      <trkpt lat="44.37377" lon="7.41729">
        <ele>651.5</ele>
        <time>2022-10-01T14:34:21.000Z</time>
      </trkpt>
      <trkpt lat="44.37377" lon="7.41731">
        <ele>651.5</ele>
        <time>2022-10-01T14:34:22.000Z</time>
      </trkpt>
      <trkpt lat="44.37378" lon="7.41727">
        <ele>651.5</ele>
        <time>2022-10-01T14:34:23.000Z</time>
      </trkpt>
      <trkpt lat="44.37376" lon="7.41709">
        <ele>652.5</ele>
        <time>2022-10-01T14:34:27.000Z</time>
      </trkpt>
      <trkpt lat="44.37368" lon="7.41696">
        <ele>653.5</ele>
        <time>2022-10-01T14:34:32.000Z</time>
      </trkpt>
      <trkpt lat="44.37359" lon="7.41689">
        <ele>653.5</ele>
        <time>2022-10-01T14:34:34.000Z</time>
      </trkpt>
      <trkpt lat="44.37359" lon="7.41689">
        <ele>653.5</ele>
        <time>2022-10-01T14:34:35.000Z</time>
      </trkpt>
      <trkpt lat="44.37357" lon="7.41689">
        <ele>653.5</ele>
        <time>2022-10-01T14:34:35.000Z</time>
      </trkpt>
      <trkpt lat="44.37347" lon="7.41683">
        <ele>654.8</ele>
        <time>2022-10-01T14:34:40.000Z</time>
      </trkpt>
      <trkpt lat="44.37339" lon="7.41672">
        <ele>655.5</ele>
        <time>2022-10-01T14:34:43.000Z</time>
      </trkpt>
      <trkpt lat="44.3733" lon="7.41663">
        <ele>656.5</ele>
        <time>2022-10-01T14:34:46.000Z</time>
      </trkpt>
      <trkpt lat="44.37325" lon="7.41654">
        <ele>657.5</ele>
        <time>2022-10-01T14:34:51.000Z</time>
      </trkpt>
      <trkpt lat="44.37324" lon="7.41652">
        <ele>657.5</ele>
        <time>2022-10-01T14:34:52.000Z</time>
      </trkpt>
      <trkpt lat="44.37317" lon="7.41644">
        <ele>658.5</ele>
        <time>2022-10-01T14:34:56.000Z</time>
      </trkpt>
      <trkpt lat="44.37306" lon="7.41636">
        <ele>660.5</ele>
        <time>2022-10-01T14:35:01.000Z</time>
      </trkpt>
      <trkpt lat="44.373" lon="7.41627">
        <ele>664.5</ele>
        <time>2022-10-01T14:35:06.000Z</time>
      </trkpt>
      <trkpt lat="44.37298" lon="7.41624">
        <ele>664.5</ele>
        <time>2022-10-01T14:35:07.000Z</time>
      </trkpt>
      <trkpt lat="44.37295" lon="7.41609">
        <ele>663.5</ele>
        <time>2022-10-01T14:35:16.000Z</time>
      </trkpt>
      <trkpt lat="44.37292" lon="7.41597">
        <ele>664.3</ele>
        <time>2022-10-01T14:35:19.000Z</time>
      </trkpt>
      <trkpt lat="44.37289" lon="7.41585">
        <ele>664.5</ele>
        <time>2022-10-01T14:35:24.000Z</time>
      </trkpt>
      <trkpt lat="44.37287" lon="7.41579">
        <ele>664.5</ele>
        <time>2022-10-01T14:35:25.000Z</time>
      </trkpt>
      <trkpt lat="44.37286" lon="7.41578">
        <ele>664.5</ele>
        <time>2022-10-01T14:35:27.000Z</time>
      </trkpt>
      <trkpt lat="44.37284" lon="7.41576">
        <ele>664.5</ele>
        <time>2022-10-01T14:35:27.000Z</time>
      </trkpt>
      <trkpt lat="44.37284" lon="7.41576">
        <ele>664.5</ele>
        <time>2022-10-01T14:35:27.000Z</time>
      </trkpt>
      <trkpt lat="44.37283" lon="7.41575">
        <ele>664.5</ele>
        <time>2022-10-01T14:35:28.000Z</time>
      </trkpt>
      <trkpt lat="44.37276" lon="7.4157">
        <ele>664.5</ele>
        <time>2022-10-01T14:35:31.000Z</time>
      </trkpt>
      <trkpt lat="44.37275" lon="7.41569">
        <ele>664.5</ele>
        <time>2022-10-01T14:35:33.000Z</time>
      </trkpt>
      <trkpt lat="44.37274" lon="7.41566">
        <ele>664.5</ele>
        <time>2022-10-01T14:35:33.000Z</time>
      </trkpt>
      <trkpt lat="44.37273" lon="7.41563">
        <ele>664.5</ele>
        <time>2022-10-01T14:35:34.000Z</time>
      </trkpt>
      <trkpt lat="44.37269" lon="7.41556">
        <ele>662.5</ele>
        <time>2022-10-01T14:35:36.000Z</time>
      </trkpt>
      <trkpt lat="44.37269" lon="7.41553">
        <ele>662.5</ele>
        <time>2022-10-01T14:35:37.000Z</time>
      </trkpt>
      <trkpt lat="44.37259" lon="7.41548">
        <ele>660.5</ele>
        <time>2022-10-01T14:35:43.000Z</time>
      </trkpt>
      <trkpt lat="44.37253" lon="7.41556">
        <ele>660.5</ele>
        <time>2022-10-01T14:35:45.000Z</time>
      </trkpt>
      <trkpt lat="44.37251" lon="7.41556">
        <ele>660.5</ele>
        <time>2022-10-01T14:35:46.000Z</time>
      </trkpt>
      <trkpt lat="44.3724" lon="7.41554">
        <ele>663.5</ele>
        <time>2022-10-01T14:35:51.000Z</time>
      </trkpt>
      <trkpt lat="44.37233" lon="7.41545">
        <ele>664.5</ele>
        <time>2022-10-01T14:35:56.000Z</time>
      </trkpt>
      <trkpt lat="44.37224" lon="7.41535">
        <ele>665.5</ele>
        <time>2022-10-01T14:36:03.000Z</time>
      </trkpt>
      <trkpt lat="44.37217" lon="7.41524">
        <ele>665.5</ele>
        <time>2022-10-01T14:36:08.000Z</time>
      </trkpt>
      <trkpt lat="44.3721" lon="7.41515">
        <ele>665.5</ele>
        <time>2022-10-01T14:36:13.000Z</time>
      </trkpt>
      <trkpt lat="44.37203" lon="7.41502">
        <ele>665.5</ele>
        <time>2022-10-01T14:36:20.000Z</time>
      </trkpt>
      <trkpt lat="44.37194" lon="7.4149">
        <ele>666.5</ele>
        <time>2022-10-01T14:36:25.000Z</time>
      </trkpt>
      <trkpt lat="44.37194" lon="7.41491">
        <ele>666.5</ele>
        <time>2022-10-01T14:36:26.000Z</time>
      </trkpt>
      <trkpt lat="44.37192" lon="7.41488">
        <ele>666.5</ele>
        <time>2022-10-01T14:36:26.000Z</time>
      </trkpt>
      <trkpt lat="44.37186" lon="7.41474">
        <ele>668.5</ele>
        <time>2022-10-01T14:36:32.000Z</time>
      </trkpt>
      <trkpt lat="44.37181" lon="7.41462">
        <ele>669.5</ele>
        <time>2022-10-01T14:36:37.000Z</time>
      </trkpt>
      <trkpt lat="44.37179" lon="7.41456">
        <ele>669.5</ele>
        <time>2022-10-01T14:36:39.000Z</time>
      </trkpt>
      <trkpt lat="44.37179" lon="7.41455">
        <ele>669.5</ele>
        <time>2022-10-01T14:36:40.000Z</time>
      </trkpt>
      <trkpt lat="44.37174" lon="7.41442">
        <ele>670.5</ele>
        <time>2022-10-01T14:36:44.000Z</time>
      </trkpt>
      <trkpt lat="44.37175" lon="7.41443">
        <ele>670.3</ele>
        <time>2022-10-01T14:36:45.000Z</time>
      </trkpt>
      <trkpt lat="44.37174" lon="7.41441">
        <ele>670.5</ele>
        <time>2022-10-01T14:36:45.000Z</time>
      </trkpt>
      <trkpt lat="44.37169" lon="7.41429">
        <ele>670.5</ele>
        <time>2022-10-01T14:36:50.000Z</time>
      </trkpt>
      <trkpt lat="44.37166" lon="7.41416">
        <ele>670.5</ele>
        <time>2022-10-01T14:36:56.000Z</time>
      </trkpt>
      <trkpt lat="44.37164" lon="7.41407">
        <ele>671.5</ele>
        <time>2022-10-01T14:36:58.000Z</time>
      </trkpt>
      <trkpt lat="44.37164" lon="7.41405">
        <ele>671.5</ele>
        <time>2022-10-01T14:36:59.000Z</time>
      </trkpt>
      <trkpt lat="44.37161" lon="7.41391">
        <ele>673.5</ele>
        <time>2022-10-01T14:37:05.000Z</time>
      </trkpt>
      <trkpt lat="44.37158" lon="7.41378">
        <ele>675.2</ele>
        <time>2022-10-01T14:37:10.000Z</time>
      </trkpt>
      <trkpt lat="44.37154" lon="7.41369">
        <ele>677.5</ele>
        <time>2022-10-01T14:37:12.000Z</time>
      </trkpt>
      <trkpt lat="44.37152" lon="7.41366">
        <ele>677.5</ele>
        <time>2022-10-01T14:37:14.000Z</time>
      </trkpt>
      <trkpt lat="44.37142" lon="7.41354">
        <ele>677.6</ele>
        <time>2022-10-01T14:37:18.000Z</time>
      </trkpt>
      <trkpt lat="44.37143" lon="7.41355">
        <ele>677.7</ele>
        <time>2022-10-01T14:37:19.000Z</time>
      </trkpt>
      <trkpt lat="44.37142" lon="7.41353">
        <ele>677.5</ele>
        <time>2022-10-01T14:37:19.000Z</time>
      </trkpt>
      <trkpt lat="44.37135" lon="7.41344">
        <ele>678.5</ele>
        <time>2022-10-01T14:37:26.000Z</time>
      </trkpt>
      <trkpt lat="44.37141" lon="7.41354">
        <ele>678.5</ele>
        <time>2022-10-01T14:37:30.000Z</time>
      </trkpt>
      <trkpt lat="44.37145" lon="7.41363">
        <ele>678.5</ele>
        <time>2022-10-01T14:37:32.000Z</time>
      </trkpt>
      <trkpt lat="44.37146" lon="7.41365">
        <ele>678.5</ele>
        <time>2022-10-01T14:37:34.000Z</time>
      </trkpt>
      <trkpt lat="44.37155" lon="7.4137">
        <ele>679.3</ele>
        <time>2022-10-01T14:37:37.000Z</time>
      </trkpt>
      <trkpt lat="44.37164" lon="7.4136">
        <ele>680.5</ele>
        <time>2022-10-01T14:37:41.000Z</time>
      </trkpt>
      <trkpt lat="44.37171" lon="7.41352">
        <ele>681.5</ele>
        <time>2022-10-01T14:37:46.000Z</time>
      </trkpt>
      <trkpt lat="44.37167" lon="7.41337">
        <ele>681.5</ele>
        <time>2022-10-01T14:37:51.000Z</time>
      </trkpt>
      <trkpt lat="44.37167" lon="7.41338">
        <ele>681.5</ele>
        <time>2022-10-01T14:37:52.000Z</time>
      </trkpt>
      <trkpt lat="44.37166" lon="7.41335">
        <ele>681.5</ele>
        <time>2022-10-01T14:37:52.000Z</time>
      </trkpt>
      <trkpt lat="44.37162" lon="7.41324">
        <ele>683.5</ele>
        <time>2022-10-01T14:37:57.000Z</time>
      </trkpt>
      <trkpt lat="44.37157" lon="7.41311">
        <ele>683.5</ele>
        <time>2022-10-01T14:38:02.000Z</time>
      </trkpt>
      <trkpt lat="44.37151" lon="7.41302">
        <ele>682.6</ele>
        <time>2022-10-01T14:38:06.000Z</time>
      </trkpt>
      <trkpt lat="44.37146" lon="7.41289">
        <ele>681.5</ele>
        <time>2022-10-01T14:38:12.000Z</time>
      </trkpt>
      <trkpt lat="44.37141" lon="7.41278">
        <ele>681.5</ele>
        <time>2022-10-01T14:38:16.000Z</time>
      </trkpt>
      <trkpt lat="44.37131" lon="7.41268">
        <ele>681.5</ele>
        <time>2022-10-01T14:38:20.000Z</time>
      </trkpt>
      <trkpt lat="44.37123" lon="7.4126">
        <ele>682.3</ele>
        <time>2022-10-01T14:38:22.000Z</time>
      </trkpt>
      <trkpt lat="44.37114" lon="7.41249">
        <ele>682.5</ele>
        <time>2022-10-01T14:38:24.000Z</time>
      </trkpt>
      <trkpt lat="44.37106" lon="7.41237">
        <ele>682.5</ele>
        <time>2022-10-01T14:38:26.000Z</time>
      </trkpt>
      <trkpt lat="44.37099" lon="7.41225">
        <ele>681.6</ele>
        <time>2022-10-01T14:38:28.000Z</time>
      </trkpt>
      <trkpt lat="44.37094" lon="7.41214">
        <ele>681.5</ele>
        <time>2022-10-01T14:38:30.000Z</time>
      </trkpt>
      <trkpt lat="44.3709" lon="7.41199">
        <ele>681.5</ele>
        <time>2022-10-01T14:38:33.000Z</time>
      </trkpt>
      <trkpt lat="44.37087" lon="7.41187">
        <ele>680.6</ele>
        <time>2022-10-01T14:38:36.000Z</time>
      </trkpt>
      <trkpt lat="44.37084" lon="7.41171">
        <ele>680.5</ele>
        <time>2022-10-01T14:38:40.000Z</time>
      </trkpt>
      <trkpt lat="44.3708" lon="7.41158">
        <ele>680.5</ele>
        <time>2022-10-01T14:38:44.000Z</time>
      </trkpt>
      <trkpt lat="44.37073" lon="7.41144">
        <ele>680.5</ele>
        <time>2022-10-01T14:38:48.000Z</time>
      </trkpt>
      <trkpt lat="44.37067" lon="7.41133">
        <ele>679.8</ele>
        <time>2022-10-01T14:38:51.000Z</time>
      </trkpt>
      <trkpt lat="44.37061" lon="7.41124">
        <ele>678.8</ele>
        <time>2022-10-01T14:38:53.000Z</time>
      </trkpt>
      <trkpt lat="44.37052" lon="7.41112">
        <ele>679.5</ele>
        <time>2022-10-01T14:38:56.000Z</time>
      </trkpt>
      <trkpt lat="44.37047" lon="7.41097">
        <ele>679.5</ele>
        <time>2022-10-01T14:38:59.000Z</time>
      </trkpt>
      <trkpt lat="44.37042" lon="7.41086">
        <ele>679.5</ele>
        <time>2022-10-01T14:39:02.000Z</time>
      </trkpt>
      <trkpt lat="44.37031" lon="7.41077">
        <ele>679.5</ele>
        <time>2022-10-01T14:39:05.000Z</time>
      </trkpt>
      <trkpt lat="44.3702" lon="7.41072">
        <ele>678.8</ele>
        <time>2022-10-01T14:39:08.000Z</time>
      </trkpt>
      <trkpt lat="44.37011" lon="7.41066">
        <ele>678.5</ele>
        <time>2022-10-01T14:39:11.000Z</time>
      </trkpt>
      <trkpt lat="44.37" lon="7.41056">
        <ele>677.5</ele>
        <time>2022-10-01T14:39:14.000Z</time>
      </trkpt>
      <trkpt lat="44.36995" lon="7.41044">
        <ele>677.5</ele>
        <time>2022-10-01T14:39:17.000Z</time>
      </trkpt>
      <trkpt lat="44.36994" lon="7.4103">
        <ele>677.5</ele>
        <time>2022-10-01T14:39:21.000Z</time>
      </trkpt>
      <trkpt lat="44.36992" lon="7.41017">
        <ele>675.6</ele>
        <time>2022-10-01T14:39:25.000Z</time>
      </trkpt>
      <trkpt lat="44.36987" lon="7.41004">
        <ele>676.5</ele>
        <time>2022-10-01T14:39:31.000Z</time>
      </trkpt>
      <trkpt lat="44.36984" lon="7.40989">
        <ele>677.5</ele>
        <time>2022-10-01T14:39:37.000Z</time>
      </trkpt>
      <trkpt lat="44.36985" lon="7.40975">
        <ele>678.5</ele>
        <time>2022-10-01T14:39:43.000Z</time>
      </trkpt>
      <trkpt lat="44.36986" lon="7.4096">
        <ele>679.5</ele>
        <time>2022-10-01T14:39:50.000Z</time>
      </trkpt>
      <trkpt lat="44.36987" lon="7.40946">
        <ele>680.5</ele>
        <time>2022-10-01T14:39:57.000Z</time>
      </trkpt>
      <trkpt lat="44.36986" lon="7.40933">
        <ele>681.5</ele>
        <time>2022-10-01T14:40:02.000Z</time>
      </trkpt>
      <trkpt lat="44.3698" lon="7.40922">
        <ele>681.5</ele>
        <time>2022-10-01T14:40:08.000Z</time>
      </trkpt>
      <trkpt lat="44.36974" lon="7.40911">
        <ele>680.3</ele>
        <time>2022-10-01T14:40:14.000Z</time>
      </trkpt>
      <trkpt lat="44.36972" lon="7.40899">
        <ele>681.3</ele>
        <time>2022-10-01T14:40:18.000Z</time>
      </trkpt>
      <trkpt lat="44.36969" lon="7.40886">
        <ele>682.5</ele>
        <time>2022-10-01T14:40:23.000Z</time>
      </trkpt>
      <trkpt lat="44.36966" lon="7.40874">
        <ele>682.5</ele>
        <time>2022-10-01T14:40:28.000Z</time>
      </trkpt>
      <trkpt lat="44.36963" lon="7.40864">
        <ele>682.5</ele>
        <time>2022-10-01T14:40:31.000Z</time>
      </trkpt>
      <trkpt lat="44.36963" lon="7.40862">
        <ele>682.5</ele>
        <time>2022-10-01T14:40:32.000Z</time>
      </trkpt>
      <trkpt lat="44.36962" lon="7.40856">
        <ele>683.5</ele>
        <time>2022-10-01T14:40:34.000Z</time>
      </trkpt>
      <trkpt lat="44.36962" lon="7.40854">
        <ele>683.5</ele>
        <time>2022-10-01T14:40:35.000Z</time>
      </trkpt>
      <trkpt lat="44.36963" lon="7.40847">
        <ele>683.5</ele>
        <time>2022-10-01T14:40:38.000Z</time>
      </trkpt>
      <trkpt lat="44.36963" lon="7.40846">
        <ele>683.5</ele>
        <time>2022-10-01T14:40:40.000Z</time>
      </trkpt>
      <trkpt lat="44.36964" lon="7.40838">
        <ele>684.5</ele>
        <time>2022-10-01T14:40:43.000Z</time>
      </trkpt>
      <trkpt lat="44.36964" lon="7.40837">
        <ele>685.3</ele>
        <time>2022-10-01T14:40:47.000Z</time>
      </trkpt>
      <trkpt lat="44.36967" lon="7.40824">
        <ele>685.5</ele>
        <time>2022-10-01T14:40:54.000Z</time>
      </trkpt>
      <trkpt lat="44.36967" lon="7.40808">
        <ele>686.3</ele>
        <time>2022-10-01T14:41:01.000Z</time>
      </trkpt>
      <trkpt lat="44.36965" lon="7.40794">
        <ele>688.5</ele>
        <time>2022-10-01T14:41:05.000Z</time>
      </trkpt>
      <trkpt lat="44.36965" lon="7.40795">
        <ele>688.3</ele>
        <time>2022-10-01T14:41:06.000Z</time>
      </trkpt>
      <trkpt lat="44.36964" lon="7.40792">
        <ele>688.5</ele>
        <time>2022-10-01T14:41:06.000Z</time>
      </trkpt>
      <trkpt lat="44.36963" lon="7.40787">
        <ele>688.5</ele>
        <time>2022-10-01T14:41:08.000Z</time>
      </trkpt>
      <trkpt lat="44.36963" lon="7.40786">
        <ele>688.5</ele>
        <time>2022-10-01T14:41:09.000Z</time>
      </trkpt>
      <trkpt lat="44.36962" lon="7.40772">
        <ele>688.5</ele>
        <time>2022-10-01T14:41:17.000Z</time>
      </trkpt>
      <trkpt lat="44.36961" lon="7.40765">
        <ele>689.5</ele>
        <time>2022-10-01T14:41:23.000Z</time>
      </trkpt>
      <trkpt lat="44.36961" lon="7.40763">
        <ele>689.5</ele>
        <time>2022-10-01T14:41:25.000Z</time>
      </trkpt>
      <trkpt lat="44.36959" lon="7.4075">
        <ele>695.5</ele>
        <time>2022-10-01T14:41:33.000Z</time>
      </trkpt>
      <trkpt lat="44.36957" lon="7.40736">
        <ele>693.5</ele>
        <time>2022-10-01T14:41:43.000Z</time>
      </trkpt>
      <trkpt lat="44.36957" lon="7.40734">
        <ele>693.5</ele>
        <time>2022-10-01T14:41:43.000Z</time>
      </trkpt>
      <trkpt lat="44.36957" lon="7.40734">
        <ele>693.5</ele>
        <time>2022-10-01T14:41:44.000Z</time>
      </trkpt>
      <trkpt lat="44.36955" lon="7.40724">
        <ele>694.5</ele>
        <time>2022-10-01T14:41:51.000Z</time>
      </trkpt>
      <trkpt lat="44.36956" lon="7.40723">
        <ele>694.5</ele>
        <time>2022-10-01T14:41:52.000Z</time>
      </trkpt>
      <trkpt lat="44.36956" lon="7.40721">
        <ele>694.5</ele>
        <time>2022-10-01T14:41:52.000Z</time>
      </trkpt>
      <trkpt lat="44.36955" lon="7.40704">
        <ele>695.3</ele>
        <time>2022-10-01T14:42:01.000Z</time>
      </trkpt>
      <trkpt lat="44.36955" lon="7.40703">
        <ele>696.5</ele>
        <time>2022-10-01T14:42:05.000Z</time>
      </trkpt>
      <trkpt lat="44.36954" lon="7.40701">
        <ele>696.5</ele>
        <time>2022-10-01T14:42:06.000Z</time>
      </trkpt>
      <trkpt lat="44.36953" lon="7.40687">
        <ele>697.5</ele>
        <time>2022-10-01T14:42:14.000Z</time>
      </trkpt>
      <trkpt lat="44.36953" lon="7.40685">
        <ele>697.5</ele>
        <time>2022-10-01T14:42:14.000Z</time>
      </trkpt>
      <trkpt lat="44.36953" lon="7.40684">
        <ele>697.5</ele>
        <time>2022-10-01T14:42:15.000Z</time>
      </trkpt>
      <trkpt lat="44.36954" lon="7.40681">
        <ele>697.5</ele>
        <time>2022-10-01T14:42:16.000Z</time>
      </trkpt>
      <trkpt lat="44.36954" lon="7.40681">
        <ele>697.5</ele>
        <time>2022-10-01T14:42:18.000Z</time>
      </trkpt>
      <trkpt lat="44.36954" lon="7.4068">
        <ele>697.5</ele>
        <time>2022-10-01T14:42:20.000Z</time>
      </trkpt>
      <trkpt lat="44.36954" lon="7.40676">
        <ele>697.5</ele>
        <time>2022-10-01T14:42:21.000Z</time>
      </trkpt>
      <trkpt lat="44.36954" lon="7.40662">
        <ele>698.5</ele>
        <time>2022-10-01T14:42:28.000Z</time>
      </trkpt>
      <trkpt lat="44.36953" lon="7.40659">
        <ele>698.5</ele>
        <time>2022-10-01T14:42:29.000Z</time>
      </trkpt>
      <trkpt lat="44.36953" lon="7.40658">
        <ele>698.5</ele>
        <time>2022-10-01T14:42:31.000Z</time>
      </trkpt>
      <trkpt lat="44.36953" lon="7.40653">
        <ele>699.5</ele>
        <time>2022-10-01T14:42:36.000Z</time>
      </trkpt>
      <trkpt lat="44.36952" lon="7.4065">
        <ele>699.8</ele>
        <time>2022-10-01T14:42:38.000Z</time>
      </trkpt>
      <trkpt lat="44.36948" lon="7.40639">
        <ele>701.5</ele>
        <time>2022-10-01T14:42:44.000Z</time>
      </trkpt>
      <trkpt lat="44.36946" lon="7.40631">
        <ele>702.5</ele>
        <time>2022-10-01T14:42:48.000Z</time>
      </trkpt>
      <trkpt lat="44.36946" lon="7.40629">
        <ele>702.5</ele>
        <time>2022-10-01T14:42:49.000Z</time>
      </trkpt>
      <trkpt lat="44.36946" lon="7.4063">
        <ele>702.5</ele>
        <time>2022-10-01T14:42:50.000Z</time>
      </trkpt>
      <trkpt lat="44.36945" lon="7.40629">
        <ele>702.5</ele>
        <time>2022-10-01T14:42:51.000Z</time>
      </trkpt>
      <trkpt lat="44.36942" lon="7.40616">
        <ele>704.3</ele>
        <time>2022-10-01T14:42:58.000Z</time>
      </trkpt>
      <trkpt lat="44.36944" lon="7.40607">
        <ele>704.5</ele>
        <time>2022-10-01T14:43:03.000Z</time>
      </trkpt>
      <trkpt lat="44.36944" lon="7.40606">
        <ele>705.3</ele>
        <time>2022-10-01T14:43:05.000Z</time>
      </trkpt>
      <trkpt lat="44.36942" lon="7.40604">
        <ele>705.5</ele>
        <time>2022-10-01T14:43:06.000Z</time>
      </trkpt>
      <trkpt lat="44.36942" lon="7.40603">
        <ele>705.5</ele>
        <time>2022-10-01T14:43:07.000Z</time>
      </trkpt>
      <trkpt lat="44.36939" lon="7.406">
        <ele>706.5</ele>
        <time>2022-10-01T14:43:10.000Z</time>
      </trkpt>
      <trkpt lat="44.36939" lon="7.406">
        <ele>706.5</ele>
        <time>2022-10-01T14:43:12.000Z</time>
      </trkpt>
      <trkpt lat="44.36938" lon="7.406">
        <ele>706.5</ele>
        <time>2022-10-01T14:43:13.000Z</time>
      </trkpt>
      <trkpt lat="44.36938" lon="7.40599">
        <ele>706.5</ele>
        <time>2022-10-01T14:43:14.000Z</time>
      </trkpt>
      <trkpt lat="44.36933" lon="7.40587">
        <ele>708.5</ele>
        <time>2022-10-01T14:43:23.000Z</time>
      </trkpt>
      <trkpt lat="44.36928" lon="7.40579">
        <ele>709.5</ele>
        <time>2022-10-01T14:43:32.000Z</time>
      </trkpt>
      <trkpt lat="44.36927" lon="7.40575">
        <ele>709.5</ele>
        <time>2022-10-01T14:43:33.000Z</time>
      </trkpt>
      <trkpt lat="44.36924" lon="7.40569">
        <ele>709.5</ele>
        <time>2022-10-01T14:43:35.000Z</time>
      </trkpt>
      <trkpt lat="44.36924" lon="7.40568">
        <ele>709.5</ele>
        <time>2022-10-01T14:43:36.000Z</time>
      </trkpt>
      <trkpt lat="44.36921" lon="7.40559">
        <ele>710.5</ele>
        <time>2022-10-01T14:43:40.000Z</time>
      </trkpt>
      <trkpt lat="44.3692" lon="7.40558">
        <ele>710.5</ele>
        <time>2022-10-01T14:43:41.000Z</time>
      </trkpt>
      <trkpt lat="44.36917" lon="7.40546">
        <ele>713.5</ele>
        <time>2022-10-01T14:43:51.000Z</time>
      </trkpt>
      <trkpt lat="44.36915" lon="7.40533">
        <ele>715.5</ele>
        <time>2022-10-01T14:43:59.000Z</time>
      </trkpt>
      <trkpt lat="44.36915" lon="7.4053">
        <ele>715.5</ele>
        <time>2022-10-01T14:44:01.000Z</time>
      </trkpt>
      <trkpt lat="44.36915" lon="7.4053">
        <ele>715.5</ele>
        <time>2022-10-01T14:44:02.000Z</time>
      </trkpt>
      <trkpt lat="44.36914" lon="7.40525">
        <ele>715.5</ele>
        <time>2022-10-01T14:44:04.000Z</time>
      </trkpt>
      <trkpt lat="44.36914" lon="7.40524">
        <ele>715.5</ele>
        <time>2022-10-01T14:44:06.000Z</time>
      </trkpt>
      <trkpt lat="44.36911" lon="7.40509">
        <ele>716.5</ele>
        <time>2022-10-01T14:44:12.000Z</time>
      </trkpt>
      <trkpt lat="44.36908" lon="7.40493">
        <ele>717.5</ele>
        <time>2022-10-01T14:44:18.000Z</time>
      </trkpt>
      <trkpt lat="44.36908" lon="7.40489">
        <ele>719.5</ele>
        <time>2022-10-01T14:44:20.000Z</time>
      </trkpt>
      <trkpt lat="44.36907" lon="7.40486">
        <ele>719.5</ele>
        <time>2022-10-01T14:44:21.000Z</time>
      </trkpt>
      <trkpt lat="44.36907" lon="7.40487">
        <ele>719.5</ele>
        <time>2022-10-01T14:44:22.000Z</time>
      </trkpt>
      <trkpt lat="44.36907" lon="7.40485">
        <ele>719.5</ele>
        <time>2022-10-01T14:44:23.000Z</time>
      </trkpt>
      <trkpt lat="44.36905" lon="7.40469">
        <ele>719.7</ele>
        <time>2022-10-01T14:44:27.000Z</time>
      </trkpt>
      <trkpt lat="44.36909" lon="7.40458">
        <ele>719.6</ele>
        <time>2022-10-01T14:44:31.000Z</time>
      </trkpt>
      <trkpt lat="44.3691" lon="7.40456">
        <ele>719.5</ele>
        <time>2022-10-01T14:44:32.000Z</time>
      </trkpt>
      <trkpt lat="44.3691" lon="7.40457">
        <ele>719.5</ele>
        <time>2022-10-01T14:44:33.000Z</time>
      </trkpt>
      <trkpt lat="44.36911" lon="7.40455">
        <ele>719.5</ele>
        <time>2022-10-01T14:44:34.000Z</time>
      </trkpt>
      <trkpt lat="44.36913" lon="7.40451">
        <ele>718.6</ele>
        <time>2022-10-01T14:44:34.000Z</time>
      </trkpt>
      <trkpt lat="44.36913" lon="7.4045">
        <ele>718.5</ele>
        <time>2022-10-01T14:44:35.000Z</time>
      </trkpt>
      <trkpt lat="44.36911" lon="7.40437">
        <ele>715.6</ele>
        <time>2022-10-01T14:44:39.000Z</time>
      </trkpt>
      <trkpt lat="44.36907" lon="7.40424">
        <ele>715.5</ele>
        <time>2022-10-01T14:44:45.000Z</time>
      </trkpt>
      <trkpt lat="44.36905" lon="7.4042">
        <ele>715.5</ele>
        <time>2022-10-01T14:44:48.000Z</time>
      </trkpt>
      <trkpt lat="44.36904" lon="7.40419">
        <ele>716.3</ele>
        <time>2022-10-01T14:44:50.000Z</time>
      </trkpt>
      <trkpt lat="44.36902" lon="7.40405">
        <ele>715.8</ele>
        <time>2022-10-01T14:44:59.000Z</time>
      </trkpt>
      <trkpt lat="44.36898" lon="7.40393">
        <ele>713.5</ele>
        <time>2022-10-01T14:45:07.000Z</time>
      </trkpt>
      <trkpt lat="44.36893" lon="7.40381">
        <ele>711.5</ele>
        <time>2022-10-01T14:45:15.000Z</time>
      </trkpt>
      <trkpt lat="44.3689" lon="7.40367">
        <ele>711.6</ele>
        <time>2022-10-01T14:45:25.000Z</time>
      </trkpt>
      <trkpt lat="44.3689" lon="7.40362">
        <ele>711.5</ele>
        <time>2022-10-01T14:45:27.000Z</time>
      </trkpt>
      <trkpt lat="44.3689" lon="7.40361">
        <ele>711.5</ele>
        <time>2022-10-01T14:45:29.000Z</time>
      </trkpt>
      <trkpt lat="44.3689" lon="7.40348">
        <ele>711.5</ele>
        <time>2022-10-01T14:45:38.000Z</time>
      </trkpt>
      <trkpt lat="44.36885" lon="7.40336">
        <ele>713.5</ele>
        <time>2022-10-01T14:45:44.000Z</time>
      </trkpt>
      <trkpt lat="44.36885" lon="7.40335">
        <ele>714.3</ele>
        <time>2022-10-01T14:45:46.000Z</time>
      </trkpt>
      <trkpt lat="44.36881" lon="7.40322">
        <ele>715.5</ele>
        <time>2022-10-01T14:45:52.000Z</time>
      </trkpt>
      <trkpt lat="44.36883" lon="7.40315">
        <ele>717.5</ele>
        <time>2022-10-01T14:45:54.000Z</time>
      </trkpt>
      <trkpt lat="44.36883" lon="7.40313">
        <ele>717.5</ele>
        <time>2022-10-01T14:45:55.000Z</time>
      </trkpt>
      <trkpt lat="44.36883" lon="7.40314">
        <ele>717.5</ele>
        <time>2022-10-01T14:45:56.000Z</time>
      </trkpt>
      <trkpt lat="44.36884" lon="7.40312">
        <ele>717.5</ele>
        <time>2022-10-01T14:45:56.000Z</time>
      </trkpt>
      <trkpt lat="44.36885" lon="7.40306">
        <ele>720.4</ele>
        <time>2022-10-01T14:45:59.000Z</time>
      </trkpt>
      <trkpt lat="44.36885" lon="7.40305">
        <ele>720.5</ele>
        <time>2022-10-01T14:46:00.000Z</time>
      </trkpt>
      <trkpt lat="44.36885" lon="7.40293">
        <ele>722.5</ele>
        <time>2022-10-01T14:46:08.000Z</time>
      </trkpt>
      <trkpt lat="44.36886" lon="7.40292">
        <ele>722.5</ele>
        <time>2022-10-01T14:46:10.000Z</time>
      </trkpt>
      <trkpt lat="44.3689" lon="7.40279">
        <ele>724.5</ele>
        <time>2022-10-01T14:46:19.000Z</time>
      </trkpt>
      <trkpt lat="44.36889" lon="7.40265">
        <ele>726.5</ele>
        <time>2022-10-01T14:46:28.000Z</time>
      </trkpt>
      <trkpt lat="44.36889" lon="7.40261">
        <ele>726.5</ele>
        <time>2022-10-01T14:46:30.000Z</time>
      </trkpt>
      <trkpt lat="44.36889" lon="7.40259">
        <ele>726.5</ele>
        <time>2022-10-01T14:46:32.000Z</time>
      </trkpt>
      <trkpt lat="44.3689" lon="7.40251">
        <ele>727.5</ele>
        <time>2022-10-01T14:46:36.000Z</time>
      </trkpt>
      <trkpt lat="44.36891" lon="7.4025">
        <ele>727.5</ele>
        <time>2022-10-01T14:46:37.000Z</time>
      </trkpt>
      <trkpt lat="44.36892" lon="7.40242">
        <ele>728.5</ele>
        <time>2022-10-01T14:46:41.000Z</time>
      </trkpt>
      <trkpt lat="44.36892" lon="7.40241">
        <ele>729.3</ele>
        <time>2022-10-01T14:46:43.000Z</time>
      </trkpt>
      <trkpt lat="44.36895" lon="7.40229">
        <ele>731.3</ele>
        <time>2022-10-01T14:46:49.000Z</time>
      </trkpt>
      <trkpt lat="44.369" lon="7.4022">
        <ele>732.5</ele>
        <time>2022-10-01T14:46:54.000Z</time>
      </trkpt>
      <trkpt lat="44.369" lon="7.4022">
        <ele>732.5</ele>
        <time>2022-10-01T14:46:55.000Z</time>
      </trkpt>
      <trkpt lat="44.36904" lon="7.40207">
        <ele>734.5</ele>
        <time>2022-10-01T14:47:02.000Z</time>
      </trkpt>
      <trkpt lat="44.36906" lon="7.40202">
        <ele>734.5</ele>
        <time>2022-10-01T14:47:04.000Z</time>
      </trkpt>
      <trkpt lat="44.36907" lon="7.40201">
        <ele>734.5</ele>
        <time>2022-10-01T14:47:06.000Z</time>
      </trkpt>
      <trkpt lat="44.36913" lon="7.40189">
        <ele>736.5</ele>
        <time>2022-10-01T14:47:12.000Z</time>
      </trkpt>
      <trkpt lat="44.36918" lon="7.40178">
        <ele>736.5</ele>
        <time>2022-10-01T14:47:16.000Z</time>
      </trkpt>
      <trkpt lat="44.36916" lon="7.40167">
        <ele>737.5</ele>
        <time>2022-10-01T14:47:19.000Z</time>
      </trkpt>
      <trkpt lat="44.36915" lon="7.40165">
        <ele>737.5</ele>
        <time>2022-10-01T14:47:20.000Z</time>
      </trkpt>
      <trkpt lat="44.36907" lon="7.40156">
        <ele>739.5</ele>
        <time>2022-10-01T14:47:26.000Z</time>
      </trkpt>
      <trkpt lat="44.36898" lon="7.40153">
        <ele>739.5</ele>
        <time>2022-10-01T14:47:36.000Z</time>
      </trkpt>
      <trkpt lat="44.36889" lon="7.40154">
        <ele>738.3</ele>
        <time>2022-10-01T14:47:46.000Z</time>
      </trkpt>
      <trkpt lat="44.36879" lon="7.40156">
        <ele>739.5</ele>
        <time>2022-10-01T14:47:54.000Z</time>
      </trkpt>
      <trkpt lat="44.36869" lon="7.40154">
        <ele>741.5</ele>
        <time>2022-10-01T14:48:04.000Z</time>
      </trkpt>
      <trkpt lat="44.36861" lon="7.40154">
        <ele>744.5</ele>
        <time>2022-10-01T14:48:18.000Z</time>
      </trkpt>
      <trkpt lat="44.36861" lon="7.40154">
        <ele>744.5</ele>
        <time>2022-10-01T14:48:19.000Z</time>
      </trkpt>
      <trkpt lat="44.36861" lon="7.40154">
        <ele>744.5</ele>
        <time>2022-10-01T14:48:20.000Z</time>
      </trkpt>
      <trkpt lat="44.36861" lon="7.40154">
        <ele>744.5</ele>
        <time>2022-10-01T14:48:31.000Z</time>
      </trkpt>
      <trkpt lat="44.36861" lon="7.40153">
        <ele>744.5</ele>
        <time>2022-10-01T14:48:33.000Z</time>
      </trkpt>
      <trkpt lat="44.3686" lon="7.40153">
        <ele>746</ele>
        <time>2022-10-01T14:48:45.000Z</time>
      </trkpt>
      <trkpt lat="44.36858" lon="7.40153">
        <ele>747.5</ele>
        <time>2022-10-01T14:48:46.000Z</time>
      </trkpt>
      <trkpt lat="44.36858" lon="7.40153">
        <ele>748.3</ele>
        <time>2022-10-01T14:48:48.000Z</time>
      </trkpt>
      <trkpt lat="44.36858" lon="7.40153">
        <ele>748.5</ele>
        <time>2022-10-01T14:48:49.000Z</time>
      </trkpt>
      <trkpt lat="44.36858" lon="7.40153">
        <ele>750</ele>
        <time>2022-10-01T14:48:57.000Z</time>
      </trkpt>
      <trkpt lat="44.36859" lon="7.40153">
        <ele>750.4</ele>
        <time>2022-10-01T14:48:58.000Z</time>
      </trkpt>
      <trkpt lat="44.36858" lon="7.40154">
        <ele>752</ele>
        <time>2022-10-01T14:49:05.000Z</time>
      </trkpt>
      <trkpt lat="44.36853" lon="7.40155">
        <ele>751.5</ele>
        <time>2022-10-01T14:49:11.000Z</time>
      </trkpt>
      <trkpt lat="44.36853" lon="7.40156">
        <ele>752.3</ele>
        <time>2022-10-01T14:49:12.000Z</time>
      </trkpt>
      <trkpt lat="44.36842" lon="7.40157">
        <ele>747.6</ele>
        <time>2022-10-01T14:49:19.000Z</time>
      </trkpt>
      <trkpt lat="44.36843" lon="7.40157">
        <ele>747.8</ele>
        <time>2022-10-01T14:49:20.000Z</time>
      </trkpt>
      <trkpt lat="44.36842" lon="7.40158">
        <ele>747.5</ele>
        <time>2022-10-01T14:49:21.000Z</time>
      </trkpt>
      <trkpt lat="44.36832" lon="7.40162">
        <ele>748.5</ele>
        <time>2022-10-01T14:49:28.000Z</time>
      </trkpt>
      <trkpt lat="44.36822" lon="7.40163">
        <ele>749.5</ele>
        <time>2022-10-01T14:49:36.000Z</time>
      </trkpt>
      <trkpt lat="44.36814" lon="7.40156">
        <ele>751.5</ele>
        <time>2022-10-01T14:49:50.000Z</time>
      </trkpt>
      <trkpt lat="44.36806" lon="7.40149">
        <ele>756.5</ele>
        <time>2022-10-01T14:50:00.000Z</time>
      </trkpt>
      <trkpt lat="44.36806" lon="7.40149">
        <ele>756.5</ele>
        <time>2022-10-01T14:50:01.000Z</time>
      </trkpt>
      <trkpt lat="44.36805" lon="7.40149">
        <ele>756.5</ele>
        <time>2022-10-01T14:50:02.000Z</time>
      </trkpt>
      <trkpt lat="44.36801" lon="7.40144">
        <ele>756.6</ele>
        <time>2022-10-01T14:50:08.000Z</time>
      </trkpt>
      <trkpt lat="44.368" lon="7.40143">
        <ele>756.5</ele>
        <time>2022-10-01T14:50:09.000Z</time>
      </trkpt>
      <trkpt lat="44.36795" lon="7.40133">
        <ele>757.5</ele>
        <time>2022-10-01T14:50:21.000Z</time>
      </trkpt>
      <trkpt lat="44.36795" lon="7.40132">
        <ele>758.3</ele>
        <time>2022-10-01T14:50:23.000Z</time>
      </trkpt>
      <trkpt lat="44.36787" lon="7.40124">
        <ele>759.8</ele>
        <time>2022-10-01T14:50:31.000Z</time>
      </trkpt>
      <trkpt lat="44.36784" lon="7.40115">
        <ele>759.5</ele>
        <time>2022-10-01T14:50:35.000Z</time>
      </trkpt>
      <trkpt lat="44.36783" lon="7.40114">
        <ele>759.5</ele>
        <time>2022-10-01T14:50:37.000Z</time>
      </trkpt>
      <trkpt lat="44.3678" lon="7.40101">
        <ele>760.7</ele>
        <time>2022-10-01T14:50:48.000Z</time>
      </trkpt>
      <trkpt lat="44.36772" lon="7.40095">
        <ele>761.8</ele>
        <time>2022-10-01T14:50:59.000Z</time>
      </trkpt>
      <trkpt lat="44.3677" lon="7.40093">
        <ele>762.5</ele>
        <time>2022-10-01T14:51:01.000Z</time>
      </trkpt>
      <trkpt lat="44.3677" lon="7.40093">
        <ele>762.5</ele>
        <time>2022-10-01T14:51:02.000Z</time>
      </trkpt>
      <trkpt lat="44.36766" lon="7.40088">
        <ele>760.5</ele>
        <time>2022-10-01T14:51:15.000Z</time>
      </trkpt>
      <trkpt lat="44.36766" lon="7.40088">
        <ele>760.5</ele>
        <time>2022-10-01T14:51:16.000Z</time>
      </trkpt>
      <trkpt lat="44.36766" lon="7.40088">
        <ele>760.5</ele>
        <time>2022-10-01T14:51:17.000Z</time>
      </trkpt>
      <trkpt lat="44.36766" lon="7.40088">
        <ele>760.5</ele>
        <time>2022-10-01T14:51:18.000Z</time>
      </trkpt>
      <trkpt lat="44.36761" lon="7.40086">
        <ele>761.5</ele>
        <time>2022-10-01T14:51:23.000Z</time>
      </trkpt>
      <trkpt lat="44.36761" lon="7.40085">
        <ele>761.5</ele>
        <time>2022-10-01T14:51:25.000Z</time>
      </trkpt>
      <trkpt lat="44.36759" lon="7.40084">
        <ele>761.5</ele>
        <time>2022-10-01T14:51:26.000Z</time>
      </trkpt>
      <trkpt lat="44.36758" lon="7.40083">
        <ele>761.5</ele>
        <time>2022-10-01T14:51:27.000Z</time>
      </trkpt>
      <trkpt lat="44.36753" lon="7.40079">
        <ele>763.5</ele>
        <time>2022-10-01T14:51:33.000Z</time>
      </trkpt>
      <trkpt lat="44.36753" lon="7.40079">
        <ele>763.5</ele>
        <time>2022-10-01T14:51:34.000Z</time>
      </trkpt>
      <trkpt lat="44.36745" lon="7.40069">
        <ele>768.3</ele>
        <time>2022-10-01T14:51:47.000Z</time>
      </trkpt>
      <trkpt lat="44.36744" lon="7.40068">
        <ele>769.5</ele>
        <time>2022-10-01T14:51:48.000Z</time>
      </trkpt>
      <trkpt lat="44.36743" lon="7.40067">
        <ele>769.5</ele>
        <time>2022-10-01T14:51:49.000Z</time>
      </trkpt>
      <trkpt lat="44.36742" lon="7.40066">
        <ele>771.4</ele>
        <time>2022-10-01T14:51:50.000Z</time>
      </trkpt>
      <trkpt lat="44.36741" lon="7.40065">
        <ele>771.5</ele>
        <time>2022-10-01T14:51:51.000Z</time>
      </trkpt>
      <trkpt lat="44.36737" lon="7.40053">
        <ele>774.5</ele>
        <time>2022-10-01T14:52:05.000Z</time>
      </trkpt>
      <trkpt lat="44.36737" lon="7.40053">
        <ele>774.5</ele>
        <time>2022-10-01T14:52:05.000Z</time>
      </trkpt>
      <trkpt lat="44.36737" lon="7.40053">
        <ele>773.8</ele>
        <time>2022-10-01T14:52:09.000Z</time>
      </trkpt>
      <trkpt lat="44.36737" lon="7.40051">
        <ele>773.5</ele>
        <time>2022-10-01T14:52:12.000Z</time>
      </trkpt>
      <trkpt lat="44.36737" lon="7.4005">
        <ele>774.3</ele>
        <time>2022-10-01T14:52:14.000Z</time>
      </trkpt>
      <trkpt lat="44.36735" lon="7.40044">
        <ele>774.5</ele>
        <time>2022-10-01T14:52:17.000Z</time>
      </trkpt>
      <trkpt lat="44.36735" lon="7.40044">
        <ele>774.5</ele>
        <time>2022-10-01T14:52:18.000Z</time>
      </trkpt>
      <trkpt lat="44.36733" lon="7.40036">
        <ele>775.5</ele>
        <time>2022-10-01T14:52:24.000Z</time>
      </trkpt>
      <trkpt lat="44.36733" lon="7.40036">
        <ele>775.5</ele>
        <time>2022-10-01T14:52:26.000Z</time>
      </trkpt>
      <trkpt lat="44.36733" lon="7.40035">
        <ele>775.5</ele>
        <time>2022-10-01T14:52:26.000Z</time>
      </trkpt>
      <trkpt lat="44.36732" lon="7.40033">
        <ele>775.5</ele>
        <time>2022-10-01T14:52:30.000Z</time>
      </trkpt>
      <trkpt lat="44.36731" lon="7.4002">
        <ele>774.6</ele>
        <time>2022-10-01T14:52:39.000Z</time>
      </trkpt>
      <trkpt lat="44.36731" lon="7.40021">
        <ele>774.8</ele>
        <time>2022-10-01T14:52:40.000Z</time>
      </trkpt>
      <trkpt lat="44.36731" lon="7.40019">
        <ele>774.5</ele>
        <time>2022-10-01T14:52:41.000Z</time>
      </trkpt>
      <trkpt lat="44.36731" lon="7.4002">
        <ele>774.5</ele>
        <time>2022-10-01T14:52:42.000Z</time>
      </trkpt>
      <trkpt lat="44.36731" lon="7.40019">
        <ele>774.5</ele>
        <time>2022-10-01T14:52:42.000Z</time>
      </trkpt>
      <trkpt lat="44.3673" lon="7.40013">
        <ele>778.5</ele>
        <time>2022-10-01T14:52:47.000Z</time>
      </trkpt>
      <trkpt lat="44.36729" lon="7.40013">
        <ele>777.8</ele>
        <time>2022-10-01T14:52:49.000Z</time>
      </trkpt>
      <trkpt lat="44.36729" lon="7.40007">
        <ele>778.5</ele>
        <time>2022-10-01T14:52:51.000Z</time>
      </trkpt>
      <trkpt lat="44.36728" lon="7.40005">
        <ele>778.5</ele>
        <time>2022-10-01T14:52:52.000Z</time>
      </trkpt>
      <trkpt lat="44.36728" lon="7.40006">
        <ele>778.5</ele>
        <time>2022-10-01T14:52:53.000Z</time>
      </trkpt>
      <trkpt lat="44.36728" lon="7.40004">
        <ele>779.3</ele>
        <time>2022-10-01T14:52:54.000Z</time>
      </trkpt>
      <trkpt lat="44.36725" lon="7.39996">
        <ele>781.5</ele>
        <time>2022-10-01T14:53:04.000Z</time>
      </trkpt>
      <trkpt lat="44.36724" lon="7.39996">
        <ele>781.5</ele>
        <time>2022-10-01T14:53:06.000Z</time>
      </trkpt>
      <trkpt lat="44.36714" lon="7.39995">
        <ele>780.8</ele>
        <time>2022-10-01T14:53:19.000Z</time>
      </trkpt>
      <trkpt lat="44.36708" lon="7.39993">
        <ele>781.5</ele>
        <time>2022-10-01T14:53:24.000Z</time>
      </trkpt>
      <trkpt lat="44.36707" lon="7.39993">
        <ele>781.5</ele>
        <time>2022-10-01T14:53:25.000Z</time>
      </trkpt>
      <trkpt lat="44.36707" lon="7.39993">
        <ele>781.5</ele>
        <time>2022-10-01T14:53:26.000Z</time>
      </trkpt>
      <trkpt lat="44.36706" lon="7.39993">
        <ele>781.5</ele>
        <time>2022-10-01T14:53:26.000Z</time>
      </trkpt>
      <trkpt lat="44.36701" lon="7.39994">
        <ele>781.5</ele>
        <time>2022-10-01T14:53:31.000Z</time>
      </trkpt>
      <trkpt lat="44.36701" lon="7.39994">
        <ele>781.5</ele>
        <time>2022-10-01T14:53:32.000Z</time>
      </trkpt>
      <trkpt lat="44.36697" lon="7.39996">
        <ele>781.5</ele>
        <time>2022-10-01T14:53:35.000Z</time>
      </trkpt>
      <trkpt lat="44.36697" lon="7.39997">
        <ele>781.5</ele>
        <time>2022-10-01T14:53:36.000Z</time>
      </trkpt>
      <trkpt lat="44.36692" lon="7.39988">
        <ele>782.5</ele>
        <time>2022-10-01T14:53:43.000Z</time>
      </trkpt>
      <trkpt lat="44.36693" lon="7.39987">
        <ele>782.5</ele>
        <time>2022-10-01T14:53:45.000Z</time>
      </trkpt>
      <trkpt lat="44.36702" lon="7.39983">
        <ele>782.5</ele>
        <time>2022-10-01T14:53:52.000Z</time>
      </trkpt>
      <trkpt lat="44.36711" lon="7.39982">
        <ele>782.5</ele>
        <time>2022-10-01T14:53:59.000Z</time>
      </trkpt>
      <trkpt lat="44.36712" lon="7.3998">
        <ele>783.5</ele>
        <time>2022-10-01T14:54:01.000Z</time>
      </trkpt>
      <trkpt lat="44.36713" lon="7.3998">
        <ele>782.8</ele>
        <time>2022-10-01T14:54:03.000Z</time>
      </trkpt>
      <trkpt lat="44.36715" lon="7.39978">
        <ele>784.5</ele>
        <time>2022-10-01T14:54:05.000Z</time>
      </trkpt>
      <trkpt lat="44.36715" lon="7.39978">
        <ele>784.5</ele>
        <time>2022-10-01T14:54:06.000Z</time>
      </trkpt>
      <trkpt lat="44.36715" lon="7.39978">
        <ele>784.5</ele>
        <time>2022-10-01T14:54:08.000Z</time>
      </trkpt>
      <trkpt lat="44.36715" lon="7.39977">
        <ele>784.5</ele>
        <time>2022-10-01T14:54:09.000Z</time>
      </trkpt>
      <trkpt lat="44.36718" lon="7.39976">
        <ele>783.6</ele>
        <time>2022-10-01T14:54:11.000Z</time>
      </trkpt>
      <trkpt lat="44.36718" lon="7.39975">
        <ele>783.5</ele>
        <time>2022-10-01T14:54:12.000Z</time>
      </trkpt>
      <trkpt lat="44.36726" lon="7.39966">
        <ele>785.8</ele>
        <time>2022-10-01T14:54:20.000Z</time>
      </trkpt>
      <trkpt lat="44.36728" lon="7.39961">
        <ele>785.5</ele>
        <time>2022-10-01T14:54:24.000Z</time>
      </trkpt>
      <trkpt lat="44.36727" lon="7.39961">
        <ele>785.5</ele>
        <time>2022-10-01T14:54:25.000Z</time>
      </trkpt>
      <trkpt lat="44.36718" lon="7.39963">
        <ele>786.5</ele>
        <time>2022-10-01T14:54:34.000Z</time>
      </trkpt>
      <trkpt lat="44.36714" lon="7.39965">
        <ele>786.6</ele>
        <time>2022-10-01T14:54:41.000Z</time>
      </trkpt>
      <trkpt lat="44.36714" lon="7.39965">
        <ele>786.5</ele>
        <time>2022-10-01T14:54:42.000Z</time>
      </trkpt>
      <trkpt lat="44.36713" lon="7.39966">
        <ele>786.5</ele>
        <time>2022-10-01T14:54:45.000Z</time>
      </trkpt>
      <trkpt lat="44.36713" lon="7.39966">
        <ele>788.4</ele>
        <time>2022-10-01T14:54:49.000Z</time>
      </trkpt>
      <trkpt lat="44.3671" lon="7.39968">
        <ele>788.5</ele>
        <time>2022-10-01T14:54:52.000Z</time>
      </trkpt>
      <trkpt lat="44.3671" lon="7.39968">
        <ele>788.5</ele>
        <time>2022-10-01T14:54:54.000Z</time>
      </trkpt>
      <trkpt lat="44.36708" lon="7.39968">
        <ele>789.5</ele>
        <time>2022-10-01T14:54:55.000Z</time>
      </trkpt>
      <trkpt lat="44.36707" lon="7.39968">
        <ele>789.5</ele>
        <time>2022-10-01T14:54:56.000Z</time>
      </trkpt>
      <trkpt lat="44.36698" lon="7.39965">
        <ele>794.3</ele>
        <time>2022-10-01T14:55:07.000Z</time>
      </trkpt>
      <trkpt lat="44.36689" lon="7.39962">
        <ele>795.6</ele>
        <time>2022-10-01T14:55:16.000Z</time>
      </trkpt>
      <trkpt lat="44.36695" lon="7.39951">
        <ele>801.5</ele>
        <time>2022-10-01T14:55:31.000Z</time>
      </trkpt>
      <trkpt lat="44.36697" lon="7.39952">
        <ele>802.5</ele>
        <time>2022-10-01T14:55:33.000Z</time>
      </trkpt>
      <trkpt lat="44.36698" lon="7.39953">
        <ele>802.5</ele>
        <time>2022-10-01T14:55:35.000Z</time>
      </trkpt>
      <trkpt lat="44.36705" lon="7.39953">
        <ele>803.5</ele>
        <time>2022-10-01T14:55:41.000Z</time>
      </trkpt>
      <trkpt lat="44.36705" lon="7.39953">
        <ele>803.5</ele>
        <time>2022-10-01T14:55:42.000Z</time>
      </trkpt>
      <trkpt lat="44.36706" lon="7.39954">
        <ele>802.5</ele>
        <time>2022-10-01T14:55:46.000Z</time>
      </trkpt>
      <trkpt lat="44.36706" lon="7.39953">
        <ele>803.3</ele>
        <time>2022-10-01T14:55:47.000Z</time>
      </trkpt>
      <trkpt lat="44.36711" lon="7.39951">
        <ele>804.5</ele>
        <time>2022-10-01T14:55:50.000Z</time>
      </trkpt>
      <trkpt lat="44.36711" lon="7.3995">
        <ele>804.5</ele>
        <time>2022-10-01T14:55:51.000Z</time>
      </trkpt>
      <trkpt lat="44.36715" lon="7.39947">
        <ele>804.5</ele>
        <time>2022-10-01T14:55:58.000Z</time>
      </trkpt>
      <trkpt lat="44.36715" lon="7.39947">
        <ele>804.5</ele>
        <time>2022-10-01T14:55:59.000Z</time>
      </trkpt>
      <trkpt lat="44.36715" lon="7.39947">
        <ele>804.5</ele>
        <time>2022-10-01T14:56:00.000Z</time>
      </trkpt>
      <trkpt lat="44.36716" lon="7.39946">
        <ele>804.5</ele>
        <time>2022-10-01T14:56:07.000Z</time>
      </trkpt>
      <trkpt lat="44.36715" lon="7.39947">
        <ele>804.5</ele>
        <time>2022-10-01T14:56:08.000Z</time>
      </trkpt>
      <trkpt lat="44.36717" lon="7.39946">
        <ele>804.5</ele>
        <time>2022-10-01T14:56:08.000Z</time>
      </trkpt>
      <trkpt lat="44.36724" lon="7.39941">
        <ele>804.5</ele>
        <time>2022-10-01T14:56:14.000Z</time>
      </trkpt>
      <trkpt lat="44.36724" lon="7.39941">
        <ele>804.5</ele>
        <time>2022-10-01T14:56:15.000Z</time>
      </trkpt>
      <trkpt lat="44.36732" lon="7.39932">
        <ele>807.5</ele>
        <time>2022-10-01T14:56:24.000Z</time>
      </trkpt>
      <trkpt lat="44.3674" lon="7.39928">
        <ele>807.6</ele>
        <time>2022-10-01T14:56:32.000Z</time>
      </trkpt>
      <trkpt lat="44.36747" lon="7.39928">
        <ele>810.5</ele>
        <time>2022-10-01T14:56:38.000Z</time>
      </trkpt>
      <trkpt lat="44.36748" lon="7.39929">
        <ele>810.5</ele>
        <time>2022-10-01T14:56:39.000Z</time>
      </trkpt>
      <trkpt lat="44.36756" lon="7.39934">
        <ele>808.8</ele>
        <time>2022-10-01T14:56:47.000Z</time>
      </trkpt>
      <trkpt lat="44.36759" lon="7.39936">
        <ele>808.5</ele>
        <time>2022-10-01T14:56:48.000Z</time>
      </trkpt>
      <trkpt lat="44.3676" lon="7.39936">
        <ele>808.5</ele>
        <time>2022-10-01T14:56:49.000Z</time>
      </trkpt>
      <trkpt lat="44.36769" lon="7.39938">
        <ele>808.8</ele>
        <time>2022-10-01T14:56:57.000Z</time>
      </trkpt>
      <trkpt lat="44.36774" lon="7.39942">
        <ele>808.5</ele>
        <time>2022-10-01T14:57:02.000Z</time>
      </trkpt>
      <trkpt lat="44.36774" lon="7.39942">
        <ele>808.5</ele>
        <time>2022-10-01T14:57:04.000Z</time>
      </trkpt>
      <trkpt lat="44.36779" lon="7.39931">
        <ele>810.6</ele>
        <time>2022-10-01T14:57:19.000Z</time>
      </trkpt>
      <trkpt lat="44.36779" lon="7.39931">
        <ele>810.5</ele>
        <time>2022-10-01T14:57:20.000Z</time>
      </trkpt>
      <trkpt lat="44.36779" lon="7.39931">
        <ele>810.5</ele>
        <time>2022-10-01T14:57:21.000Z</time>
      </trkpt>
      <trkpt lat="44.36779" lon="7.39931">
        <ele>811.5</ele>
        <time>2022-10-01T14:57:23.000Z</time>
      </trkpt>
      <trkpt lat="44.36774" lon="7.39922">
        <ele>815.5</ele>
        <time>2022-10-01T14:57:35.000Z</time>
      </trkpt>
      <trkpt lat="44.36774" lon="7.39923">
        <ele>815.5</ele>
        <time>2022-10-01T14:57:36.000Z</time>
      </trkpt>
      <trkpt lat="44.3677" lon="7.3991">
        <ele>815.5</ele>
        <time>2022-10-01T14:57:47.000Z</time>
      </trkpt>
      <trkpt lat="44.36769" lon="7.3991">
        <ele>815.5</ele>
        <time>2022-10-01T14:57:49.000Z</time>
      </trkpt>
      <trkpt lat="44.36769" lon="7.39907">
        <ele>816.5</ele>
        <time>2022-10-01T14:57:52.000Z</time>
      </trkpt>
      <trkpt lat="44.36769" lon="7.39908">
        <ele>816.5</ele>
        <time>2022-10-01T14:57:53.000Z</time>
      </trkpt>
      <trkpt lat="44.36768" lon="7.39906">
        <ele>816.5</ele>
        <time>2022-10-01T14:57:53.000Z</time>
      </trkpt>
      <trkpt lat="44.36765" lon="7.39904">
        <ele>817.5</ele>
        <time>2022-10-01T14:58:01.000Z</time>
      </trkpt>
      <trkpt lat="44.36765" lon="7.39904">
        <ele>818.5</ele>
        <time>2022-10-01T14:58:05.000Z</time>
      </trkpt>
      <trkpt lat="44.36761" lon="7.39899">
        <ele>820.5</ele>
        <time>2022-10-01T14:58:12.000Z</time>
      </trkpt>
      <trkpt lat="44.36761" lon="7.39899">
        <ele>820.5</ele>
        <time>2022-10-01T14:58:15.000Z</time>
      </trkpt>
      <trkpt lat="44.36761" lon="7.39899">
        <ele>820.5</ele>
        <time>2022-10-01T14:58:16.000Z</time>
      </trkpt>
      <trkpt lat="44.36761" lon="7.39898">
        <ele>820.5</ele>
        <time>2022-10-01T14:58:17.000Z</time>
      </trkpt>
      <trkpt lat="44.36757" lon="7.39893">
        <ele>821.5</ele>
        <time>2022-10-01T14:58:24.000Z</time>
      </trkpt>
      <trkpt lat="44.36757" lon="7.39893">
        <ele>821.5</ele>
        <time>2022-10-01T14:58:25.000Z</time>
      </trkpt>
      <trkpt lat="44.36754" lon="7.39889">
        <ele>821.5</ele>
        <time>2022-10-01T14:58:31.000Z</time>
      </trkpt>
      <trkpt lat="44.36754" lon="7.39889">
        <ele>822.3</ele>
        <time>2022-10-01T14:58:32.000Z</time>
      </trkpt>
      <trkpt lat="44.36753" lon="7.39889">
        <ele>822.5</ele>
        <time>2022-10-01T14:58:32.000Z</time>
      </trkpt>
      <trkpt lat="44.36752" lon="7.39887">
        <ele>823.5</ele>
        <time>2022-10-01T14:58:37.000Z</time>
      </trkpt>
      <trkpt lat="44.36751" lon="7.39886">
        <ele>822.6</ele>
        <time>2022-10-01T14:58:39.000Z</time>
      </trkpt>
      <trkpt lat="44.36749" lon="7.39884">
        <ele>823.3</ele>
        <time>2022-10-01T14:58:44.000Z</time>
      </trkpt>
      <trkpt lat="44.36749" lon="7.39884">
        <ele>823.5</ele>
        <time>2022-10-01T14:58:45.000Z</time>
      </trkpt>
      <trkpt lat="44.36747" lon="7.39881">
        <ele>823.5</ele>
        <time>2022-10-01T14:58:52.000Z</time>
      </trkpt>
      <trkpt lat="44.36747" lon="7.39881">
        <ele>823.5</ele>
        <time>2022-10-01T14:58:53.000Z</time>
      </trkpt>
      <trkpt lat="44.36746" lon="7.3988">
        <ele>823.5</ele>
        <time>2022-10-01T14:58:56.000Z</time>
      </trkpt>
      <trkpt lat="44.36746" lon="7.3988">
        <ele>822.8</ele>
        <time>2022-10-01T14:58:57.000Z</time>
      </trkpt>
      <trkpt lat="44.36745" lon="7.39879">
        <ele>822.5</ele>
        <time>2022-10-01T14:58:57.000Z</time>
      </trkpt>
      <trkpt lat="44.36745" lon="7.39879">
        <ele>822.5</ele>
        <time>2022-10-01T14:58:58.000Z</time>
      </trkpt>
      <trkpt lat="44.36737" lon="7.39869">
        <ele>824.5</ele>
        <time>2022-10-01T14:59:14.000Z</time>
      </trkpt>
      <trkpt lat="44.36733" lon="7.39857">
        <ele>826.5</ele>
        <time>2022-10-01T14:59:25.000Z</time>
      </trkpt>
      <trkpt lat="44.36733" lon="7.39843">
        <ele>825.5</ele>
        <time>2022-10-01T14:59:37.000Z</time>
      </trkpt>
      <trkpt lat="44.36732" lon="7.39843">
        <ele>825.5</ele>
        <time>2022-10-01T14:59:43.000Z</time>
      </trkpt>
      <trkpt lat="44.36732" lon="7.39842">
        <ele>824.6</ele>
        <time>2022-10-01T14:59:48.000Z</time>
      </trkpt>
      <trkpt lat="44.3673" lon="7.3984">
        <ele>825.3</ele>
        <time>2022-10-01T14:59:54.000Z</time>
      </trkpt>
      <trkpt lat="44.3673" lon="7.39839">
        <ele>825.5</ele>
        <time>2022-10-01T14:59:55.000Z</time>
      </trkpt>
      <trkpt lat="44.3673" lon="7.39838">
        <ele>826.3</ele>
        <time>2022-10-01T14:59:56.000Z</time>
      </trkpt>
      <trkpt lat="44.36729" lon="7.39834">
        <ele>826.5</ele>
        <time>2022-10-01T14:59:58.000Z</time>
      </trkpt>
      <trkpt lat="44.36729" lon="7.39833">
        <ele>826.5</ele>
        <time>2022-10-01T14:59:59.000Z</time>
      </trkpt>
      <trkpt lat="44.36728" lon="7.39832">
        <ele>827.5</ele>
        <time>2022-10-01T15:00:02.000Z</time>
      </trkpt>
      <trkpt lat="44.36728" lon="7.39831">
        <ele>827.5</ele>
        <time>2022-10-01T15:00:03.000Z</time>
      </trkpt>
      <trkpt lat="44.36728" lon="7.39828">
        <ele>828.5</ele>
        <time>2022-10-01T15:00:07.000Z</time>
      </trkpt>
      <trkpt lat="44.36727" lon="7.39826">
        <ele>829.5</ele>
        <time>2022-10-01T15:00:09.000Z</time>
      </trkpt>
      <trkpt lat="44.36723" lon="7.39818">
        <ele>830.5</ele>
        <time>2022-10-01T15:00:19.000Z</time>
      </trkpt>
      <trkpt lat="44.36722" lon="7.39817">
        <ele>830.5</ele>
        <time>2022-10-01T15:00:20.000Z</time>
      </trkpt>
      <trkpt lat="44.36722" lon="7.39816">
        <ele>831.3</ele>
        <time>2022-10-01T15:00:22.000Z</time>
      </trkpt>
      <trkpt lat="44.36722" lon="7.39816">
        <ele>831.5</ele>
        <time>2022-10-01T15:00:23.000Z</time>
      </trkpt>
      <trkpt lat="44.36722" lon="7.39816">
        <ele>831.5</ele>
        <time>2022-10-01T15:00:23.000Z</time>
      </trkpt>
      <trkpt lat="44.36721" lon="7.39815">
        <ele>831.5</ele>
        <time>2022-10-01T15:00:25.000Z</time>
      </trkpt>
      <trkpt lat="44.36719" lon="7.3981">
        <ele>833.5</ele>
        <time>2022-10-01T15:00:33.000Z</time>
      </trkpt>
      <trkpt lat="44.36719" lon="7.3981">
        <ele>833.5</ele>
        <time>2022-10-01T15:00:34.000Z</time>
      </trkpt>
      <trkpt lat="44.36718" lon="7.39809">
        <ele>833.5</ele>
        <time>2022-10-01T15:00:37.000Z</time>
      </trkpt>
      <trkpt lat="44.36717" lon="7.39806">
        <ele>834.5</ele>
        <time>2022-10-01T15:00:39.000Z</time>
      </trkpt>
      <trkpt lat="44.36717" lon="7.39806">
        <ele>834.5</ele>
        <time>2022-10-01T15:00:40.000Z</time>
      </trkpt>
      <trkpt lat="44.36716" lon="7.39804">
        <ele>834.5</ele>
        <time>2022-10-01T15:00:45.000Z</time>
      </trkpt>
      <trkpt lat="44.36716" lon="7.39803">
        <ele>834.5</ele>
        <time>2022-10-01T15:00:46.000Z</time>
      </trkpt>
      <trkpt lat="44.36714" lon="7.39798">
        <ele>834.5</ele>
        <time>2022-10-01T15:00:48.000Z</time>
      </trkpt>
      <trkpt lat="44.36714" lon="7.39796">
        <ele>835.5</ele>
        <time>2022-10-01T15:00:49.000Z</time>
      </trkpt>
      <trkpt lat="44.36714" lon="7.39797">
        <ele>835.3</ele>
        <time>2022-10-01T15:00:50.000Z</time>
      </trkpt>
      <trkpt lat="44.36713" lon="7.39796">
        <ele>835.5</ele>
        <time>2022-10-01T15:00:50.000Z</time>
      </trkpt>
      <trkpt lat="44.36713" lon="7.39795">
        <ele>835.5</ele>
        <time>2022-10-01T15:00:52.000Z</time>
      </trkpt>
      <trkpt lat="44.36713" lon="7.39795">
        <ele>836.3</ele>
        <time>2022-10-01T15:00:54.000Z</time>
      </trkpt>
      <trkpt lat="44.36712" lon="7.39793">
        <ele>835.5</ele>
        <time>2022-10-01T15:00:57.000Z</time>
      </trkpt>
      <trkpt lat="44.36711" lon="7.39792">
        <ele>836.5</ele>
        <time>2022-10-01T15:00:59.000Z</time>
      </trkpt>
      <trkpt lat="44.36708" lon="7.3979">
        <ele>836.5</ele>
        <time>2022-10-01T15:01:02.000Z</time>
      </trkpt>
      <trkpt lat="44.36708" lon="7.3979">
        <ele>836.5</ele>
        <time>2022-10-01T15:01:04.000Z</time>
      </trkpt>
      <trkpt lat="44.36704" lon="7.39786">
        <ele>838.5</ele>
        <time>2022-10-01T15:01:10.000Z</time>
      </trkpt>
      <trkpt lat="44.36703" lon="7.39786">
        <ele>838.5</ele>
        <time>2022-10-01T15:01:11.000Z</time>
      </trkpt>
      <trkpt lat="44.36701" lon="7.39784">
        <ele>840.5</ele>
        <time>2022-10-01T15:01:16.000Z</time>
      </trkpt>
      <trkpt lat="44.36701" lon="7.39783">
        <ele>840.5</ele>
        <time>2022-10-01T15:01:17.000Z</time>
      </trkpt>
      <trkpt lat="44.367" lon="7.39782">
        <ele>841.5</ele>
        <time>2022-10-01T15:01:19.000Z</time>
      </trkpt>
      <trkpt lat="44.36696" lon="7.39776">
        <ele>842.5</ele>
        <time>2022-10-01T15:01:22.000Z</time>
      </trkpt>
      <trkpt lat="44.36695" lon="7.39776">
        <ele>842.5</ele>
        <time>2022-10-01T15:01:24.000Z</time>
      </trkpt>
      <trkpt lat="44.36688" lon="7.39771">
        <ele>842.5</ele>
        <time>2022-10-01T15:01:38.000Z</time>
      </trkpt>
      <trkpt lat="44.36686" lon="7.3977">
        <ele>842.5</ele>
        <time>2022-10-01T15:01:39.000Z</time>
      </trkpt>
      <trkpt lat="44.36687" lon="7.3977">
        <ele>842.5</ele>
        <time>2022-10-01T15:01:40.000Z</time>
      </trkpt>
      <trkpt lat="44.36686" lon="7.39769">
        <ele>842.5</ele>
        <time>2022-10-01T15:01:40.000Z</time>
      </trkpt>
      <trkpt lat="44.36679" lon="7.3976">
        <ele>846.5</ele>
        <time>2022-10-01T15:01:49.000Z</time>
      </trkpt>
      <trkpt lat="44.36678" lon="7.39758">
        <ele>845.5</ele>
        <time>2022-10-01T15:01:50.000Z</time>
      </trkpt>
      <trkpt lat="44.36677" lon="7.39757">
        <ele>845.5</ele>
        <time>2022-10-01T15:01:52.000Z</time>
      </trkpt>
      <trkpt lat="44.36673" lon="7.3975">
        <ele>848.5</ele>
        <time>2022-10-01T15:01:58.000Z</time>
      </trkpt>
      <trkpt lat="44.36673" lon="7.39749">
        <ele>848.5</ele>
        <time>2022-10-01T15:01:59.000Z</time>
      </trkpt>
      <trkpt lat="44.36668" lon="7.39736">
        <ele>852.5</ele>
        <time>2022-10-01T15:02:10.000Z</time>
      </trkpt>
      <trkpt lat="44.36667" lon="7.39732">
        <ele>853.5</ele>
        <time>2022-10-01T15:02:17.000Z</time>
      </trkpt>
      <trkpt lat="44.36667" lon="7.39732">
        <ele>853.5</ele>
        <time>2022-10-01T15:02:18.000Z</time>
      </trkpt>
      <trkpt lat="44.36666" lon="7.39728">
        <ele>854.5</ele>
        <time>2022-10-01T15:02:22.000Z</time>
      </trkpt>
      <trkpt lat="44.36665" lon="7.39727">
        <ele>853.8</ele>
        <time>2022-10-01T15:02:25.000Z</time>
      </trkpt>
      <trkpt lat="44.36664" lon="7.39723">
        <ele>856.3</ele>
        <time>2022-10-01T15:02:30.000Z</time>
      </trkpt>
      <trkpt lat="44.36664" lon="7.39722">
        <ele>856.5</ele>
        <time>2022-10-01T15:02:31.000Z</time>
      </trkpt>
      <trkpt lat="44.3666" lon="7.39708">
        <ele>859.5</ele>
        <time>2022-10-01T15:02:38.000Z</time>
      </trkpt>
      <trkpt lat="44.3666" lon="7.39709">
        <ele>859.5</ele>
        <time>2022-10-01T15:02:39.000Z</time>
      </trkpt>
      <trkpt lat="44.3666" lon="7.39707">
        <ele>859.5</ele>
        <time>2022-10-01T15:02:39.000Z</time>
      </trkpt>
      <trkpt lat="44.36658" lon="7.39701">
        <ele>858.6</ele>
        <time>2022-10-01T15:02:43.000Z</time>
      </trkpt>
      <trkpt lat="44.36658" lon="7.397">
        <ele>858.5</ele>
        <time>2022-10-01T15:02:44.000Z</time>
      </trkpt>
      <trkpt lat="44.36658" lon="7.39688">
        <ele>855.5</ele>
        <time>2022-10-01T15:02:53.000Z</time>
      </trkpt>
      <trkpt lat="44.36658" lon="7.39687">
        <ele>855.5</ele>
        <time>2022-10-01T15:02:54.000Z</time>
      </trkpt>
      <trkpt lat="44.36651" lon="7.39676">
        <ele>859.5</ele>
        <time>2022-10-01T15:03:04.000Z</time>
      </trkpt>
      <trkpt lat="44.36651" lon="7.39677">
        <ele>859.5</ele>
        <time>2022-10-01T15:03:05.000Z</time>
      </trkpt>
      <trkpt lat="44.3665" lon="7.39675">
        <ele>859.5</ele>
        <time>2022-10-01T15:03:05.000Z</time>
      </trkpt>
      <trkpt lat="44.36645" lon="7.39666">
        <ele>860.5</ele>
        <time>2022-10-01T15:03:13.000Z</time>
      </trkpt>
      <trkpt lat="44.36644" lon="7.39665">
        <ele>860.5</ele>
        <time>2022-10-01T15:03:14.000Z</time>
      </trkpt>
      <trkpt lat="44.36644" lon="7.39665">
        <ele>860.5</ele>
        <time>2022-10-01T15:03:15.000Z</time>
      </trkpt>
      <trkpt lat="44.36643" lon="7.39664">
        <ele>860.5</ele>
        <time>2022-10-01T15:03:16.000Z</time>
      </trkpt>
      <trkpt lat="44.36639" lon="7.39659">
        <ele>861.5</ele>
        <time>2022-10-01T15:03:21.000Z</time>
      </trkpt>
      <trkpt lat="44.36638" lon="7.39657">
        <ele>861.5</ele>
        <time>2022-10-01T15:03:22.000Z</time>
      </trkpt>
      <trkpt lat="44.36639" lon="7.39658">
        <ele>861.5</ele>
        <time>2022-10-01T15:03:23.000Z</time>
      </trkpt>
      <trkpt lat="44.36638" lon="7.39657">
        <ele>861.5</ele>
        <time>2022-10-01T15:03:24.000Z</time>
      </trkpt>
      <trkpt lat="44.36634" lon="7.39646">
        <ele>867.5</ele>
        <time>2022-10-01T15:03:36.000Z</time>
      </trkpt>
      <trkpt lat="44.36635" lon="7.39645">
        <ele>867.5</ele>
        <time>2022-10-01T15:03:38.000Z</time>
      </trkpt>
      <trkpt lat="44.36636" lon="7.39643">
        <ele>867.5</ele>
        <time>2022-10-01T15:03:43.000Z</time>
      </trkpt>
      <trkpt lat="44.36636" lon="7.39643">
        <ele>867.5</ele>
        <time>2022-10-01T15:03:45.000Z</time>
      </trkpt>
      <trkpt lat="44.36644" lon="7.39645">
        <ele>866.5</ele>
        <time>2022-10-01T15:03:56.000Z</time>
      </trkpt>
      <trkpt lat="44.36644" lon="7.39646">
        <ele>865.8</ele>
        <time>2022-10-01T15:03:58.000Z</time>
      </trkpt>
      <trkpt lat="44.36649" lon="7.3965">
        <ele>866.5</ele>
        <time>2022-10-01T15:04:01.000Z</time>
      </trkpt>
      <trkpt lat="44.3665" lon="7.3965">
        <ele>866.5</ele>
        <time>2022-10-01T15:04:02.000Z</time>
      </trkpt>
      <trkpt lat="44.36659" lon="7.39657">
        <ele>865.5</ele>
        <time>2022-10-01T15:04:11.000Z</time>
      </trkpt>
      <trkpt lat="44.3666" lon="7.39658">
        <ele>866.5</ele>
        <time>2022-10-01T15:04:11.000Z</time>
      </trkpt>
      <trkpt lat="44.3666" lon="7.39659">
        <ele>866.5</ele>
        <time>2022-10-01T15:04:13.000Z</time>
      </trkpt>
      <trkpt lat="44.36662" lon="7.3966">
        <ele>866.5</ele>
        <time>2022-10-01T15:04:13.000Z</time>
      </trkpt>
      <trkpt lat="44.36662" lon="7.3966">
        <ele>866.5</ele>
        <time>2022-10-01T15:04:14.000Z</time>
      </trkpt>
      <trkpt lat="44.36666" lon="7.39662">
        <ele>867.5</ele>
        <time>2022-10-01T15:04:16.000Z</time>
      </trkpt>
      <trkpt lat="44.36666" lon="7.39662">
        <ele>867.5</ele>
        <time>2022-10-01T15:04:17.000Z</time>
      </trkpt>
      <trkpt lat="44.36675" lon="7.39668">
        <ele>866.3</ele>
        <time>2022-10-01T15:04:25.000Z</time>
      </trkpt>
      <trkpt lat="44.36676" lon="7.39669">
        <ele>866.5</ele>
        <time>2022-10-01T15:04:25.000Z</time>
      </trkpt>
      <trkpt lat="44.36677" lon="7.3967">
        <ele>866.5</ele>
        <time>2022-10-01T15:04:27.000Z</time>
      </trkpt>
      <trkpt lat="44.36684" lon="7.39676">
        <ele>866.5</ele>
        <time>2022-10-01T15:04:33.000Z</time>
      </trkpt>
      <trkpt lat="44.36685" lon="7.39676">
        <ele>866.5</ele>
        <time>2022-10-01T15:04:35.000Z</time>
      </trkpt>
      <trkpt lat="44.36694" lon="7.39681">
        <ele>868.5</ele>
        <time>2022-10-01T15:04:44.000Z</time>
      </trkpt>
      <trkpt lat="44.36694" lon="7.39681">
        <ele>868.5</ele>
        <time>2022-10-01T15:04:46.000Z</time>
      </trkpt>
      <trkpt lat="44.36694" lon="7.39681">
        <ele>868.5</ele>
        <time>2022-10-01T15:04:47.000Z</time>
      </trkpt>
      <trkpt lat="44.36703" lon="7.39689">
        <ele>870.5</ele>
        <time>2022-10-01T15:04:54.000Z</time>
      </trkpt>
      <trkpt lat="44.36712" lon="7.39694">
        <ele>870.8</ele>
        <time>2022-10-01T15:05:01.000Z</time>
      </trkpt>
      <trkpt lat="44.36721" lon="7.397">
        <ele>869.5</ele>
        <time>2022-10-01T15:05:07.000Z</time>
      </trkpt>
      <trkpt lat="44.36723" lon="7.39703">
        <ele>870.5</ele>
        <time>2022-10-01T15:05:09.000Z</time>
      </trkpt>
      <trkpt lat="44.36723" lon="7.39704">
        <ele>870.5</ele>
        <time>2022-10-01T15:05:10.000Z</time>
      </trkpt>
      <trkpt lat="44.3673" lon="7.39712">
        <ele>869.5</ele>
        <time>2022-10-01T15:05:17.000Z</time>
      </trkpt>
      <trkpt lat="44.36731" lon="7.39713">
        <ele>869.5</ele>
        <time>2022-10-01T15:05:18.000Z</time>
      </trkpt>
      <trkpt lat="44.3674" lon="7.3972">
        <ele>869.5</ele>
        <time>2022-10-01T15:05:25.000Z</time>
      </trkpt>
      <trkpt lat="44.36742" lon="7.39721">
        <ele>870.5</ele>
        <time>2022-10-01T15:05:25.000Z</time>
      </trkpt>
      <trkpt lat="44.36743" lon="7.39722">
        <ele>870.5</ele>
        <time>2022-10-01T15:05:26.000Z</time>
      </trkpt>
      <trkpt lat="44.36747" lon="7.39725">
        <ele>874.1</ele>
        <time>2022-10-01T15:05:31.000Z</time>
      </trkpt>
      <trkpt lat="44.36747" lon="7.39725">
        <ele>874.4</ele>
        <time>2022-10-01T15:05:32.000Z</time>
      </trkpt>
      <trkpt lat="44.36747" lon="7.39725">
        <ele>874.5</ele>
        <time>2022-10-01T15:05:33.000Z</time>
      </trkpt>
      <trkpt lat="44.36747" lon="7.39725">
        <ele>876.5</ele>
        <time>2022-10-01T15:05:34.000Z</time>
      </trkpt>
      <trkpt lat="44.3675" lon="7.39728">
        <ele>876.5</ele>
        <time>2022-10-01T15:05:37.000Z</time>
      </trkpt>
      <trkpt lat="44.3675" lon="7.39728">
        <ele>876.5</ele>
        <time>2022-10-01T15:05:39.000Z</time>
      </trkpt>
      <trkpt lat="44.36751" lon="7.39728">
        <ele>875.8</ele>
        <time>2022-10-01T15:05:45.000Z</time>
      </trkpt>
      <trkpt lat="44.36751" lon="7.39728">
        <ele>874.8</ele>
        <time>2022-10-01T15:05:47.000Z</time>
      </trkpt>
      <trkpt lat="44.36751" lon="7.3973">
        <ele>872.8</ele>
        <time>2022-10-01T15:05:54.000Z</time>
      </trkpt>
      <trkpt lat="44.36751" lon="7.39729">
        <ele>871.5</ele>
        <time>2022-10-01T15:06:12.000Z</time>
      </trkpt>
      <trkpt lat="44.36751" lon="7.39729">
        <ele>869.8</ele>
        <time>2022-10-01T15:06:14.000Z</time>
      </trkpt>
      <trkpt lat="44.36752" lon="7.39728">
        <ele>868.1</ele>
        <time>2022-10-01T15:06:15.000Z</time>
      </trkpt>
      <trkpt lat="44.36752" lon="7.39727">
        <ele>851.8</ele>
        <time>2022-10-01T15:06:21.000Z</time>
      </trkpt>
      <trkpt lat="44.36752" lon="7.39727">
        <ele>850.1</ele>
        <time>2022-10-01T15:06:23.000Z</time>
      </trkpt>
      <trkpt lat="44.36754" lon="7.3973">
        <ele>848.5</ele>
        <time>2022-10-01T15:06:26.000Z</time>
      </trkpt>
      <trkpt lat="44.36754" lon="7.39729">
        <ele>848.5</ele>
        <time>2022-10-01T15:06:29.000Z</time>
      </trkpt>
      <trkpt lat="44.36757" lon="7.39722">
        <ele>853.5</ele>
        <time>2022-10-01T15:06:35.000Z</time>
      </trkpt>
      <trkpt lat="44.36757" lon="7.39722">
        <ele>853.5</ele>
        <time>2022-10-01T15:06:36.000Z</time>
      </trkpt>
      <trkpt lat="44.36757" lon="7.39721">
        <ele>853.5</ele>
        <time>2022-10-01T15:06:40.000Z</time>
      </trkpt>
      <trkpt lat="44.36756" lon="7.39721">
        <ele>853.5</ele>
        <time>2022-10-01T15:06:41.000Z</time>
      </trkpt>
      <trkpt lat="44.36756" lon="7.3972">
        <ele>855.3</ele>
        <time>2022-10-01T15:06:44.000Z</time>
      </trkpt>
      <trkpt lat="44.36756" lon="7.3972">
        <ele>855.5</ele>
        <time>2022-10-01T15:06:45.000Z</time>
      </trkpt>
      <trkpt lat="44.36755" lon="7.3972">
        <ele>855.5</ele>
        <time>2022-10-01T15:06:46.000Z</time>
      </trkpt>
      <trkpt lat="44.36755" lon="7.3972">
        <ele>853.8</ele>
        <time>2022-10-01T15:06:49.000Z</time>
      </trkpt>
      <trkpt lat="44.36753" lon="7.39722">
        <ele>854.5</ele>
        <time>2022-10-01T15:06:57.000Z</time>
      </trkpt>
      <trkpt lat="44.36753" lon="7.39722">
        <ele>854.5</ele>
        <time>2022-10-01T15:07:01.000Z</time>
      </trkpt>
      <trkpt lat="44.36752" lon="7.39722">
        <ele>854.5</ele>
        <time>2022-10-01T15:07:03.000Z</time>
      </trkpt>
      <trkpt lat="44.36752" lon="7.39722">
        <ele>852.7</ele>
        <time>2022-10-01T15:07:08.000Z</time>
      </trkpt>
      <trkpt lat="44.36751" lon="7.39722">
        <ele>852.5</ele>
        <time>2022-10-01T15:07:12.000Z</time>
      </trkpt>
      <trkpt lat="44.36751" lon="7.39722">
        <ele>852.5</ele>
        <time>2022-10-01T15:07:13.000Z</time>
      </trkpt>
      <trkpt lat="44.36751" lon="7.39722">
        <ele>852.5</ele>
        <time>2022-10-01T15:07:14.000Z</time>
      </trkpt>
      <trkpt lat="44.36751" lon="7.39722">
        <ele>852.5</ele>
        <time>2022-10-01T15:07:15.000Z</time>
      </trkpt>
      <trkpt lat="44.36751" lon="7.39722">
        <ele>852.5</ele>
        <time>2022-10-01T15:07:16.000Z</time>
      </trkpt>
      <trkpt lat="44.36751" lon="7.39722">
        <ele>852.5</ele>
        <time>2022-10-01T15:07:23.000Z</time>
      </trkpt>
      <trkpt lat="44.36751" lon="7.39722">
        <ele>852.5</ele>
        <time>2022-10-01T15:07:24.000Z</time>
      </trkpt>
      <trkpt lat="44.3675" lon="7.39723">
        <ele>853.3</ele>
        <time>2022-10-01T15:10:32.000Z</time>
      </trkpt>
      <trkpt lat="44.36747" lon="7.39723">
        <ele>854.5</ele>
        <time>2022-10-01T15:10:37.000Z</time>
      </trkpt>
      <trkpt lat="44.36746" lon="7.39723">
        <ele>856</ele>
        <time>2022-10-01T15:10:38.000Z</time>
      </trkpt>
      <trkpt lat="44.36745" lon="7.39723">
        <ele>856.5</ele>
        <time>2022-10-01T15:10:40.000Z</time>
      </trkpt>
      <trkpt lat="44.36745" lon="7.39722">
        <ele>857.3</ele>
        <time>2022-10-01T15:10:41.000Z</time>
      </trkpt>
      <trkpt lat="44.3674" lon="7.39722">
        <ele>860.5</ele>
        <time>2022-10-01T15:10:55.000Z</time>
      </trkpt>
      <trkpt lat="44.36739" lon="7.39721">
        <ele>862.8</ele>
        <time>2022-10-01T15:11:01.000Z</time>
      </trkpt>
      <trkpt lat="44.36729" lon="7.39714">
        <ele>863.5</ele>
        <time>2022-10-01T15:11:07.000Z</time>
      </trkpt>
      <trkpt lat="44.3672" lon="7.39706">
        <ele>864.5</ele>
        <time>2022-10-01T15:11:12.000Z</time>
      </trkpt>
      <trkpt lat="44.36711" lon="7.39699">
        <ele>863.5</ele>
        <time>2022-10-01T15:11:15.000Z</time>
      </trkpt>
      <trkpt lat="44.36702" lon="7.39693">
        <ele>865.5</ele>
        <time>2022-10-01T15:11:19.000Z</time>
      </trkpt>
      <trkpt lat="44.36701" lon="7.39692">
        <ele>865.5</ele>
        <time>2022-10-01T15:11:20.000Z</time>
      </trkpt>
      <trkpt lat="44.3669" lon="7.39686">
        <ele>867.5</ele>
        <time>2022-10-01T15:11:24.000Z</time>
      </trkpt>
      <trkpt lat="44.36679" lon="7.39681">
        <ele>868.5</ele>
        <time>2022-10-01T15:11:27.000Z</time>
      </trkpt>
      <trkpt lat="44.3667" lon="7.39672">
        <ele>867.6</ele>
        <time>2022-10-01T15:11:30.000Z</time>
      </trkpt>
      <trkpt lat="44.36671" lon="7.39673">
        <ele>867.8</ele>
        <time>2022-10-01T15:11:31.000Z</time>
      </trkpt>
      <trkpt lat="44.36668" lon="7.3967">
        <ele>868.3</ele>
        <time>2022-10-01T15:11:32.000Z</time>
      </trkpt>
      <trkpt lat="44.36655" lon="7.39662">
        <ele>867.5</ele>
        <time>2022-10-01T15:11:35.000Z</time>
      </trkpt>
      <trkpt lat="44.36646" lon="7.39653">
        <ele>868.5</ele>
        <time>2022-10-01T15:11:39.000Z</time>
      </trkpt>
      <trkpt lat="44.36642" lon="7.39665">
        <ele>867.6</ele>
        <time>2022-10-01T15:11:49.000Z</time>
      </trkpt>
      <trkpt lat="44.36649" lon="7.39676">
        <ele>865.6</ele>
        <time>2022-10-01T15:11:53.000Z</time>
      </trkpt>
      <trkpt lat="44.36654" lon="7.3969">
        <ele>864.8</ele>
        <time>2022-10-01T15:11:57.000Z</time>
      </trkpt>
      <trkpt lat="44.36658" lon="7.39702">
        <ele>862.8</ele>
        <time>2022-10-01T15:12:00.000Z</time>
      </trkpt>
      <trkpt lat="44.36661" lon="7.39714">
        <ele>861.5</ele>
        <time>2022-10-01T15:12:03.000Z</time>
      </trkpt>
      <trkpt lat="44.36664" lon="7.39727">
        <ele>858.8</ele>
        <time>2022-10-01T15:12:07.000Z</time>
      </trkpt>
      <trkpt lat="44.36667" lon="7.39739">
        <ele>855.8</ele>
        <time>2022-10-01T15:12:11.000Z</time>
      </trkpt>
      <trkpt lat="44.36672" lon="7.39754">
        <ele>852.9</ele>
        <time>2022-10-01T15:12:15.000Z</time>
      </trkpt>
      <trkpt lat="44.36678" lon="7.39767">
        <ele>850.8</ele>
        <time>2022-10-01T15:12:18.000Z</time>
      </trkpt>
      <trkpt lat="44.36686" lon="7.39777">
        <ele>849.8</ele>
        <time>2022-10-01T15:12:22.000Z</time>
      </trkpt>
      <trkpt lat="44.36695" lon="7.39784">
        <ele>850.5</ele>
        <time>2022-10-01T15:12:27.000Z</time>
      </trkpt>
      <trkpt lat="44.36704" lon="7.39793">
        <ele>847.8</ele>
        <time>2022-10-01T15:12:31.000Z</time>
      </trkpt>
      <trkpt lat="44.36712" lon="7.39802">
        <ele>842.9</ele>
        <time>2022-10-01T15:12:35.000Z</time>
      </trkpt>
      <trkpt lat="44.36717" lon="7.39815">
        <ele>840.5</ele>
        <time>2022-10-01T15:12:40.000Z</time>
      </trkpt>
      <trkpt lat="44.36722" lon="7.39828">
        <ele>838.6</ele>
        <time>2022-10-01T15:12:44.000Z</time>
      </trkpt>
      <trkpt lat="44.36725" lon="7.39841">
        <ele>833.2</ele>
        <time>2022-10-01T15:12:48.000Z</time>
      </trkpt>
      <trkpt lat="44.36727" lon="7.39855">
        <ele>831.6</ele>
        <time>2022-10-01T15:12:51.000Z</time>
      </trkpt>
      <trkpt lat="44.3673" lon="7.39868">
        <ele>831.5</ele>
        <time>2022-10-01T15:12:55.000Z</time>
      </trkpt>
      <trkpt lat="44.36735" lon="7.39878">
        <ele>828.9</ele>
        <time>2022-10-01T15:12:59.000Z</time>
      </trkpt>
      <trkpt lat="44.36743" lon="7.39889">
        <ele>828.5</ele>
        <time>2022-10-01T15:13:03.000Z</time>
      </trkpt>
      <trkpt lat="44.36751" lon="7.39899">
        <ele>828.5</ele>
        <time>2022-10-01T15:13:07.000Z</time>
      </trkpt>
      <trkpt lat="44.36759" lon="7.39911">
        <ele>826.6</ele>
        <time>2022-10-01T15:13:11.000Z</time>
      </trkpt>
      <trkpt lat="44.36765" lon="7.39924">
        <ele>823.9</ele>
        <time>2022-10-01T15:13:14.000Z</time>
      </trkpt>
      <trkpt lat="44.3677" lon="7.39938">
        <ele>821.8</ele>
        <time>2022-10-01T15:13:17.000Z</time>
      </trkpt>
      <trkpt lat="44.36773" lon="7.3995">
        <ele>819.6</ele>
        <time>2022-10-01T15:13:21.000Z</time>
      </trkpt>
      <trkpt lat="44.3676" lon="7.39949">
        <ele>815.1</ele>
        <time>2022-10-01T15:13:26.000Z</time>
      </trkpt>
      <trkpt lat="44.3675" lon="7.39947">
        <ele>813.6</ele>
        <time>2022-10-01T15:13:28.000Z</time>
      </trkpt>
      <trkpt lat="44.36739" lon="7.39944">
        <ele>812.6</ele>
        <time>2022-10-01T15:13:31.000Z</time>
      </trkpt>
      <trkpt lat="44.36727" lon="7.39946">
        <ele>811.6</ele>
        <time>2022-10-01T15:13:34.000Z</time>
      </trkpt>
      <trkpt lat="44.36716" lon="7.39952">
        <ele>808.9</ele>
        <time>2022-10-01T15:13:37.000Z</time>
      </trkpt>
      <trkpt lat="44.36708" lon="7.39958">
        <ele>807.6</ele>
        <time>2022-10-01T15:13:39.000Z</time>
      </trkpt>
      <trkpt lat="44.36698" lon="7.39961">
        <ele>806.8</ele>
        <time>2022-10-01T15:13:42.000Z</time>
      </trkpt>
      <trkpt lat="44.36689" lon="7.39962">
        <ele>805.6</ele>
        <time>2022-10-01T15:13:45.000Z</time>
      </trkpt>
      <trkpt lat="44.36694" lon="7.39973">
        <ele>804.5</ele>
        <time>2022-10-01T15:13:50.000Z</time>
      </trkpt>
      <trkpt lat="44.36705" lon="7.39976">
        <ele>803.5</ele>
        <time>2022-10-01T15:13:55.000Z</time>
      </trkpt>
      <trkpt lat="44.36716" lon="7.39974">
        <ele>801.5</ele>
        <time>2022-10-01T15:13:59.000Z</time>
      </trkpt>
      <trkpt lat="44.36725" lon="7.39979">
        <ele>796.1</ele>
        <time>2022-10-01T15:14:04.000Z</time>
      </trkpt>
      <trkpt lat="44.36713" lon="7.39984">
        <ele>794.1</ele>
        <time>2022-10-01T15:14:08.000Z</time>
      </trkpt>
      <trkpt lat="44.36702" lon="7.39986">
        <ele>792.6</ele>
        <time>2022-10-01T15:14:10.000Z</time>
      </trkpt>
      <trkpt lat="44.36693" lon="7.39995">
        <ele>788.9</ele>
        <time>2022-10-01T15:14:13.000Z</time>
      </trkpt>
      <trkpt lat="44.36687" lon="7.40005">
        <ele>788.5</ele>
        <time>2022-10-01T15:14:16.000Z</time>
      </trkpt>
      <trkpt lat="44.36699" lon="7.40003">
        <ele>786.8</ele>
        <time>2022-10-01T15:14:21.000Z</time>
      </trkpt>
      <trkpt lat="44.36707" lon="7.39998">
        <ele>785.6</ele>
        <time>2022-10-01T15:14:23.000Z</time>
      </trkpt>
      <trkpt lat="44.36719" lon="7.39998">
        <ele>783.6</ele>
        <time>2022-10-01T15:14:26.000Z</time>
      </trkpt>
      <trkpt lat="44.36729" lon="7.40007">
        <ele>783.5</ele>
        <time>2022-10-01T15:14:29.000Z</time>
      </trkpt>
      <trkpt lat="44.36733" lon="7.40026">
        <ele>781.6</ele>
        <time>2022-10-01T15:14:32.000Z</time>
      </trkpt>
      <trkpt lat="44.36735" lon="7.40042">
        <ele>778.9</ele>
        <time>2022-10-01T15:14:35.000Z</time>
      </trkpt>
      <trkpt lat="44.36739" lon="7.40058">
        <ele>777.6</ele>
        <time>2022-10-01T15:14:38.000Z</time>
      </trkpt>
      <trkpt lat="44.36744" lon="7.4007">
        <ele>776.6</ele>
        <time>2022-10-01T15:14:41.000Z</time>
      </trkpt>
      <trkpt lat="44.36752" lon="7.40082">
        <ele>775.8</ele>
        <time>2022-10-01T15:14:44.000Z</time>
      </trkpt>
      <trkpt lat="44.36761" lon="7.40091">
        <ele>773.6</ele>
        <time>2022-10-01T15:14:47.000Z</time>
      </trkpt>
      <trkpt lat="44.36769" lon="7.40097">
        <ele>773.6</ele>
        <time>2022-10-01T15:14:51.000Z</time>
      </trkpt>
      <trkpt lat="44.36777" lon="7.40107">
        <ele>772.6</ele>
        <time>2022-10-01T15:14:54.000Z</time>
      </trkpt>
      <trkpt lat="44.36784" lon="7.40116">
        <ele>771.8</ele>
        <time>2022-10-01T15:14:56.000Z</time>
      </trkpt>
      <trkpt lat="44.36793" lon="7.40126">
        <ele>769.9</ele>
        <time>2022-10-01T15:14:58.000Z</time>
      </trkpt>
      <trkpt lat="44.36799" lon="7.40136">
        <ele>767.9</ele>
        <time>2022-10-01T15:15:00.000Z</time>
      </trkpt>
      <trkpt lat="44.36806" lon="7.40147">
        <ele>765.9</ele>
        <time>2022-10-01T15:15:02.000Z</time>
      </trkpt>
      <trkpt lat="44.36813" lon="7.40157">
        <ele>764.8</ele>
        <time>2022-10-01T15:15:04.000Z</time>
      </trkpt>
      <trkpt lat="44.36823" lon="7.40169">
        <ele>762.6</ele>
        <time>2022-10-01T15:15:07.000Z</time>
      </trkpt>
      <trkpt lat="44.36835" lon="7.4017">
        <ele>760.8</ele>
        <time>2022-10-01T15:15:10.000Z</time>
      </trkpt>
      <trkpt lat="44.36847" lon="7.40168">
        <ele>759.8</ele>
        <time>2022-10-01T15:15:12.000Z</time>
      </trkpt>
      <trkpt lat="44.36857" lon="7.40165">
        <ele>758.8</ele>
        <time>2022-10-01T15:15:14.000Z</time>
      </trkpt>
      <trkpt lat="44.36867" lon="7.4016">
        <ele>757.5</ele>
        <time>2022-10-01T15:15:17.000Z</time>
      </trkpt>
      <trkpt lat="44.36879" lon="7.4016">
        <ele>755.6</ele>
        <time>2022-10-01T15:15:20.000Z</time>
      </trkpt>
      <trkpt lat="44.36891" lon="7.40162">
        <ele>754.6</ele>
        <time>2022-10-01T15:15:23.000Z</time>
      </trkpt>
      <trkpt lat="44.369" lon="7.4016">
        <ele>754.5</ele>
        <time>2022-10-01T15:15:26.000Z</time>
      </trkpt>
      <trkpt lat="44.36911" lon="7.40161">
        <ele>753.6</ele>
        <time>2022-10-01T15:15:29.000Z</time>
      </trkpt>
      <trkpt lat="44.36917" lon="7.40176">
        <ele>752.5</ele>
        <time>2022-10-01T15:15:32.000Z</time>
      </trkpt>
      <trkpt lat="44.36915" lon="7.40189">
        <ele>752.5</ele>
        <time>2022-10-01T15:15:36.000Z</time>
      </trkpt>
      <trkpt lat="44.3691" lon="7.40202">
        <ele>750.6</ele>
        <time>2022-10-01T15:15:41.000Z</time>
      </trkpt>
      <trkpt lat="44.36904" lon="7.40214">
        <ele>748.8</ele>
        <time>2022-10-01T15:15:44.000Z</time>
      </trkpt>
      <trkpt lat="44.36898" lon="7.40227">
        <ele>747.8</ele>
        <time>2022-10-01T15:15:46.000Z</time>
      </trkpt>
      <trkpt lat="44.36894" lon="7.40239">
        <ele>746.6</ele>
        <time>2022-10-01T15:15:48.000Z</time>
      </trkpt>
      <trkpt lat="44.3689" lon="7.40252">
        <ele>745.8</ele>
        <time>2022-10-01T15:15:50.000Z</time>
      </trkpt>
      <trkpt lat="44.36886" lon="7.40266">
        <ele>745.5</ele>
        <time>2022-10-01T15:15:52.000Z</time>
      </trkpt>
      <trkpt lat="44.36885" lon="7.40282">
        <ele>743.8</ele>
        <time>2022-10-01T15:15:55.000Z</time>
      </trkpt>
      <trkpt lat="44.3688" lon="7.40289">
        <ele>736.6</ele>
        <time>2022-10-01T15:16:03.000Z</time>
      </trkpt>
      <trkpt lat="44.3688" lon="7.4029">
        <ele>736.5</ele>
        <time>2022-10-01T15:16:05.000Z</time>
      </trkpt>
      <trkpt lat="44.36881" lon="7.40291">
        <ele>737.5</ele>
        <time>2022-10-01T15:16:09.000Z</time>
      </trkpt>
      <trkpt lat="44.36881" lon="7.40291">
        <ele>737.5</ele>
        <time>2022-10-01T15:16:16.000Z</time>
      </trkpt>
      <trkpt lat="44.36881" lon="7.40291">
        <ele>737.5</ele>
        <time>2022-10-01T15:16:17.000Z</time>
      </trkpt>
      <trkpt lat="44.36881" lon="7.40292">
        <ele>736.8</ele>
        <time>2022-10-01T15:16:18.000Z</time>
      </trkpt>
      <trkpt lat="44.36881" lon="7.40293">
        <ele>736.5</ele>
        <time>2022-10-01T15:16:18.000Z</time>
      </trkpt>
      <trkpt lat="44.36881" lon="7.40294">
        <ele>736.5</ele>
        <time>2022-10-01T15:16:20.000Z</time>
      </trkpt>
      <trkpt lat="44.36883" lon="7.40296">
        <ele>734.5</ele>
        <time>2022-10-01T15:16:23.000Z</time>
      </trkpt>
      <trkpt lat="44.36883" lon="7.40296">
        <ele>734.5</ele>
        <time>2022-10-01T15:16:27.000Z</time>
      </trkpt>
      <trkpt lat="44.36879" lon="7.40309">
        <ele>734.3</ele>
        <time>2022-10-01T15:16:31.000Z</time>
      </trkpt>
      <trkpt lat="44.36876" lon="7.40325">
        <ele>732.8</ele>
        <time>2022-10-01T15:16:34.000Z</time>
      </trkpt>
      <trkpt lat="44.36878" lon="7.40344">
        <ele>731.6</ele>
        <time>2022-10-01T15:16:37.000Z</time>
      </trkpt>
      <trkpt lat="44.36886" lon="7.4036">
        <ele>730.6</ele>
        <time>2022-10-01T15:16:40.000Z</time>
      </trkpt>
      <trkpt lat="44.36893" lon="7.40376">
        <ele>729.5</ele>
        <time>2022-10-01T15:16:43.000Z</time>
      </trkpt>
      <trkpt lat="44.36896" lon="7.40388">
        <ele>728.8</ele>
        <time>2022-10-01T15:16:46.000Z</time>
      </trkpt>
      <trkpt lat="44.369" lon="7.40403">
        <ele>726.8</ele>
        <time>2022-10-01T15:16:50.000Z</time>
      </trkpt>
      <trkpt lat="44.36907" lon="7.40419">
        <ele>724</ele>
        <time>2022-10-01T15:16:53.000Z</time>
      </trkpt>
      <trkpt lat="44.36908" lon="7.40433">
        <ele>722.6</ele>
        <time>2022-10-01T15:16:55.000Z</time>
      </trkpt>
      <trkpt lat="44.36905" lon="7.40451">
        <ele>721.8</ele>
        <time>2022-10-01T15:16:57.000Z</time>
      </trkpt>
      <trkpt lat="44.36902" lon="7.40464">
        <ele>720.8</ele>
        <time>2022-10-01T15:16:59.000Z</time>
      </trkpt>
      <trkpt lat="44.36902" lon="7.40481">
        <ele>719.8</ele>
        <time>2022-10-01T15:17:01.000Z</time>
      </trkpt>
      <trkpt lat="44.36907" lon="7.405">
        <ele>718.8</ele>
        <time>2022-10-01T15:17:04.000Z</time>
      </trkpt>
      <trkpt lat="44.3691" lon="7.40516">
        <ele>718.6</ele>
        <time>2022-10-01T15:17:07.000Z</time>
      </trkpt>
      <trkpt lat="44.36911" lon="7.40531">
        <ele>718.5</ele>
        <time>2022-10-01T15:17:10.000Z</time>
      </trkpt>
      <trkpt lat="44.36911" lon="7.40548">
        <ele>718.5</ele>
        <time>2022-10-01T15:17:12.000Z</time>
      </trkpt>
      <trkpt lat="44.36914" lon="7.40565">
        <ele>717.8</ele>
        <time>2022-10-01T15:17:14.000Z</time>
      </trkpt>
      <trkpt lat="44.36918" lon="7.40579">
        <ele>717.5</ele>
        <time>2022-10-01T15:17:16.000Z</time>
      </trkpt>
      <trkpt lat="44.36924" lon="7.40591">
        <ele>717.5</ele>
        <time>2022-10-01T15:17:18.000Z</time>
      </trkpt>
      <trkpt lat="44.36928" lon="7.40604">
        <ele>716.6</ele>
        <time>2022-10-01T15:17:21.000Z</time>
      </trkpt>
      <trkpt lat="44.36933" lon="7.40615">
        <ele>715.8</ele>
        <time>2022-10-01T15:17:23.000Z</time>
      </trkpt>
      <trkpt lat="44.3694" lon="7.40629">
        <ele>714.6</ele>
        <time>2022-10-01T15:17:25.000Z</time>
      </trkpt>
      <trkpt lat="44.36946" lon="7.40644">
        <ele>712.8</ele>
        <time>2022-10-01T15:17:27.000Z</time>
      </trkpt>
      <trkpt lat="44.36951" lon="7.40659">
        <ele>710.9</ele>
        <time>2022-10-01T15:17:29.000Z</time>
      </trkpt>
      <trkpt lat="44.36954" lon="7.40674">
        <ele>710.5</ele>
        <time>2022-10-01T15:17:31.000Z</time>
      </trkpt>
      <trkpt lat="44.36953" lon="7.4069">
        <ele>709.6</ele>
        <time>2022-10-01T15:17:33.000Z</time>
      </trkpt>
      <trkpt lat="44.36953" lon="7.40706">
        <ele>709.5</ele>
        <time>2022-10-01T15:17:35.000Z</time>
      </trkpt>
      <trkpt lat="44.36955" lon="7.40723">
        <ele>708.6</ele>
        <time>2022-10-01T15:17:37.000Z</time>
      </trkpt>
      <trkpt lat="44.36958" lon="7.4074">
        <ele>707.6</ele>
        <time>2022-10-01T15:17:39.000Z</time>
      </trkpt>
      <trkpt lat="44.3696" lon="7.40756">
        <ele>707.7</ele>
        <time>2022-10-01T15:17:41.000Z</time>
      </trkpt>
      <trkpt lat="44.3696" lon="7.40775">
        <ele>707.5</ele>
        <time>2022-10-01T15:17:43.000Z</time>
      </trkpt>
      <trkpt lat="44.36962" lon="7.40787">
        <ele>706.8</ele>
        <time>2022-10-01T15:17:44.000Z</time>
      </trkpt>
      <trkpt lat="44.36965" lon="7.408">
        <ele>705.8</ele>
        <time>2022-10-01T15:17:45.000Z</time>
      </trkpt>
      <trkpt lat="44.36965" lon="7.40813">
        <ele>705.6</ele>
        <time>2022-10-01T15:17:46.000Z</time>
      </trkpt>
      <trkpt lat="44.36965" lon="7.40826">
        <ele>704.8</ele>
        <time>2022-10-01T15:17:47.000Z</time>
      </trkpt>
      <trkpt lat="44.36964" lon="7.40841">
        <ele>703.8</ele>
        <time>2022-10-01T15:17:48.000Z</time>
      </trkpt>
      <trkpt lat="44.36964" lon="7.40854">
        <ele>703.6</ele>
        <time>2022-10-01T15:17:49.000Z</time>
      </trkpt>
      <trkpt lat="44.36965" lon="7.40878">
        <ele>702.6</ele>
        <time>2022-10-01T15:17:51.000Z</time>
      </trkpt>
      <trkpt lat="44.36969" lon="7.40898">
        <ele>700.8</ele>
        <time>2022-10-01T15:17:53.000Z</time>
      </trkpt>
      <trkpt lat="44.36975" lon="7.40917">
        <ele>700.7</ele>
        <time>2022-10-01T15:17:55.000Z</time>
      </trkpt>
      <trkpt lat="44.36982" lon="7.40937">
        <ele>698.9</ele>
        <time>2022-10-01T15:17:57.000Z</time>
      </trkpt>
      <trkpt lat="44.36987" lon="7.40956">
        <ele>696.7</ele>
        <time>2022-10-01T15:17:59.000Z</time>
      </trkpt>
      <trkpt lat="44.36988" lon="7.40977">
        <ele>696.5</ele>
        <time>2022-10-01T15:18:01.000Z</time>
      </trkpt>
      <trkpt lat="44.36984" lon="7.41001">
        <ele>694.8</ele>
        <time>2022-10-01T15:18:03.000Z</time>
      </trkpt>
      <trkpt lat="44.36983" lon="7.41014">
        <ele>693.9</ele>
        <time>2022-10-01T15:18:04.000Z</time>
      </trkpt>
      <trkpt lat="44.36984" lon="7.41037">
        <ele>690.9</ele>
        <time>2022-10-01T15:18:06.000Z</time>
      </trkpt>
      <trkpt lat="44.36989" lon="7.41057">
        <ele>689.6</ele>
        <time>2022-10-01T15:18:08.000Z</time>
      </trkpt>
      <trkpt lat="44.37" lon="7.4107">
        <ele>688.6</ele>
        <time>2022-10-01T15:18:10.000Z</time>
      </trkpt>
      <trkpt lat="44.37012" lon="7.41077">
        <ele>687.6</ele>
        <time>2022-10-01T15:18:12.000Z</time>
      </trkpt>
      <trkpt lat="44.37024" lon="7.41083">
        <ele>686.6</ele>
        <time>2022-10-01T15:18:14.000Z</time>
      </trkpt>
      <trkpt lat="44.37037" lon="7.41092">
        <ele>685.6</ele>
        <time>2022-10-01T15:18:16.000Z</time>
      </trkpt>
      <trkpt lat="44.37047" lon="7.41106">
        <ele>684.6</ele>
        <time>2022-10-01T15:18:18.000Z</time>
      </trkpt>
      <trkpt lat="44.37054" lon="7.4112">
        <ele>683.6</ele>
        <time>2022-10-01T15:18:20.000Z</time>
      </trkpt>
      <trkpt lat="44.37061" lon="7.41133">
        <ele>682.8</ele>
        <time>2022-10-01T15:18:22.000Z</time>
      </trkpt>
      <trkpt lat="44.37068" lon="7.41145">
        <ele>681.8</ele>
        <time>2022-10-01T15:18:24.000Z</time>
      </trkpt>
      <trkpt lat="44.37076" lon="7.41158">
        <ele>680.6</ele>
        <time>2022-10-01T15:18:26.000Z</time>
      </trkpt>
      <trkpt lat="44.37082" lon="7.41171">
        <ele>679.8</ele>
        <time>2022-10-01T15:18:28.000Z</time>
      </trkpt>
      <trkpt lat="44.37086" lon="7.41185">
        <ele>679.7</ele>
        <time>2022-10-01T15:18:30.000Z</time>
      </trkpt>
      <trkpt lat="44.3709" lon="7.41199">
        <ele>679.7</ele>
        <time>2022-10-01T15:18:32.000Z</time>
      </trkpt>
      <trkpt lat="44.37095" lon="7.41213">
        <ele>678.8</ele>
        <time>2022-10-01T15:18:34.000Z</time>
      </trkpt>
      <trkpt lat="44.37098" lon="7.41227">
        <ele>677.8</ele>
        <time>2022-10-01T15:18:36.000Z</time>
      </trkpt>
      <trkpt lat="44.37102" lon="7.41241">
        <ele>677.5</ele>
        <time>2022-10-01T15:18:38.000Z</time>
      </trkpt>
      <trkpt lat="44.37109" lon="7.41253">
        <ele>677.5</ele>
        <time>2022-10-01T15:18:40.000Z</time>
      </trkpt>
      <trkpt lat="44.37118" lon="7.41263">
        <ele>677.5</ele>
        <time>2022-10-01T15:18:42.000Z</time>
      </trkpt>
      <trkpt lat="44.37126" lon="7.41272">
        <ele>677.3</ele>
        <time>2022-10-01T15:18:44.000Z</time>
      </trkpt>
      <trkpt lat="44.37133" lon="7.41279">
        <ele>679.4</ele>
        <time>2022-10-01T15:18:47.000Z</time>
      </trkpt>
      <trkpt lat="44.37142" lon="7.41289">
        <ele>680.5</ele>
        <time>2022-10-01T15:18:51.000Z</time>
      </trkpt>
      <trkpt lat="44.37144" lon="7.41293">
        <ele>688</ele>
        <time>2022-10-01T15:18:52.000Z</time>
      </trkpt>
      <trkpt lat="44.37148" lon="7.41306">
        <ele>688.5</ele>
        <time>2022-10-01T15:18:55.000Z</time>
      </trkpt>
      <trkpt lat="44.37157" lon="7.41319">
        <ele>688.5</ele>
        <time>2022-10-01T15:18:58.000Z</time>
      </trkpt>
      <trkpt lat="44.37166" lon="7.41333">
        <ele>688.5</ele>
        <time>2022-10-01T15:19:01.000Z</time>
      </trkpt>
      <trkpt lat="44.37168" lon="7.4135">
        <ele>688.5</ele>
        <time>2022-10-01T15:19:04.000Z</time>
      </trkpt>
      <trkpt lat="44.37161" lon="7.41359">
        <ele>688.5</ele>
        <time>2022-10-01T15:19:06.000Z</time>
      </trkpt>
      <trkpt lat="44.37156" lon="7.41374">
        <ele>688.5</ele>
        <time>2022-10-01T15:19:09.000Z</time>
      </trkpt>
      <trkpt lat="44.37158" lon="7.41393">
        <ele>688.5</ele>
        <time>2022-10-01T15:19:11.000Z</time>
      </trkpt>
      <trkpt lat="44.3716" lon="7.41408">
        <ele>688.5</ele>
        <time>2022-10-01T15:19:13.000Z</time>
      </trkpt>
      <trkpt lat="44.37165" lon="7.41422">
        <ele>688.5</ele>
        <time>2022-10-01T15:19:15.000Z</time>
      </trkpt>
      <trkpt lat="44.37171" lon="7.41439">
        <ele>688.5</ele>
        <time>2022-10-01T15:19:17.000Z</time>
      </trkpt>
      <trkpt lat="44.37174" lon="7.41458">
        <ele>688.5</ele>
        <time>2022-10-01T15:19:19.000Z</time>
      </trkpt>
      <trkpt lat="44.3718" lon="7.41477">
        <ele>688.5</ele>
        <time>2022-10-01T15:19:21.000Z</time>
      </trkpt>
      <trkpt lat="44.37188" lon="7.41494">
        <ele>688.5</ele>
        <time>2022-10-01T15:19:23.000Z</time>
      </trkpt>
      <trkpt lat="44.37197" lon="7.41511">
        <ele>688.5</ele>
        <time>2022-10-01T15:19:25.000Z</time>
      </trkpt>
      <trkpt lat="44.37209" lon="7.41529">
        <ele>688.5</ele>
        <time>2022-10-01T15:19:27.000Z</time>
      </trkpt>
      <trkpt lat="44.37221" lon="7.41547">
        <ele>688.5</ele>
        <time>2022-10-01T15:19:29.000Z</time>
      </trkpt>
      <trkpt lat="44.37229" lon="7.41556">
        <ele>688.5</ele>
        <time>2022-10-01T15:19:30.000Z</time>
      </trkpt>
      <trkpt lat="44.37236" lon="7.41564">
        <ele>688.5</ele>
        <time>2022-10-01T15:19:31.000Z</time>
      </trkpt>
      <trkpt lat="44.37249" lon="7.41577">
        <ele>688.5</ele>
        <time>2022-10-01T15:19:33.000Z</time>
      </trkpt>
      <trkpt lat="44.37262" lon="7.41581">
        <ele>688.5</ele>
        <time>2022-10-01T15:19:35.000Z</time>
      </trkpt>
      <trkpt lat="44.37278" lon="7.4158">
        <ele>688.5</ele>
        <time>2022-10-01T15:19:37.000Z</time>
      </trkpt>
      <trkpt lat="44.37287" lon="7.41597">
        <ele>688.5</ele>
        <time>2022-10-01T15:19:39.000Z</time>
      </trkpt>
      <trkpt lat="44.3729" lon="7.41618">
        <ele>688.5</ele>
        <time>2022-10-01T15:19:41.000Z</time>
      </trkpt>
      <trkpt lat="44.37297" lon="7.41633">
        <ele>688.5</ele>
        <time>2022-10-01T15:19:43.000Z</time>
      </trkpt>
      <trkpt lat="44.37308" lon="7.41645">
        <ele>688.5</ele>
        <time>2022-10-01T15:19:45.000Z</time>
      </trkpt>
      <trkpt lat="44.3732" lon="7.41656">
        <ele>688.5</ele>
        <time>2022-10-01T15:19:47.000Z</time>
      </trkpt>
      <trkpt lat="44.37332" lon="7.41668">
        <ele>688.5</ele>
        <time>2022-10-01T15:19:49.000Z</time>
      </trkpt>
      <trkpt lat="44.37346" lon="7.4168">
        <ele>688.5</ele>
        <time>2022-10-01T15:19:51.000Z</time>
      </trkpt>
      <trkpt lat="44.3736" lon="7.4169">
        <ele>688.5</ele>
        <time>2022-10-01T15:19:53.000Z</time>
      </trkpt>
      <trkpt lat="44.37372" lon="7.41699">
        <ele>688.5</ele>
        <time>2022-10-01T15:19:55.000Z</time>
      </trkpt>
      <trkpt lat="44.37378" lon="7.41716">
        <ele>688.5</ele>
        <time>2022-10-01T15:19:57.000Z</time>
      </trkpt>
      <trkpt lat="44.37378" lon="7.41735">
        <ele>688.5</ele>
        <time>2022-10-01T15:19:59.000Z</time>
      </trkpt>
      <trkpt lat="44.37377" lon="7.41753">
        <ele>688.5</ele>
        <time>2022-10-01T15:20:01.000Z</time>
      </trkpt>
      <trkpt lat="44.37377" lon="7.4177">
        <ele>688.5</ele>
        <time>2022-10-01T15:20:03.000Z</time>
      </trkpt>
      <trkpt lat="44.37376" lon="7.41789">
        <ele>688.5</ele>
        <time>2022-10-01T15:20:05.000Z</time>
      </trkpt>
      <trkpt lat="44.37372" lon="7.41808">
        <ele>688.5</ele>
        <time>2022-10-01T15:20:07.000Z</time>
      </trkpt>
      <trkpt lat="44.37369" lon="7.41828">
        <ele>688.5</ele>
        <time>2022-10-01T15:20:09.000Z</time>
      </trkpt>
      <trkpt lat="44.37372" lon="7.4185">
        <ele>688.5</ele>
        <time>2022-10-01T15:20:11.000Z</time>
      </trkpt>
      <trkpt lat="44.3738" lon="7.41869">
        <ele>688.5</ele>
        <time>2022-10-01T15:20:13.000Z</time>
      </trkpt>
      <trkpt lat="44.37393" lon="7.41885">
        <ele>688.5</ele>
        <time>2022-10-01T15:20:15.000Z</time>
      </trkpt>
      <trkpt lat="44.37407" lon="7.41901">
        <ele>688.5</ele>
        <time>2022-10-01T15:20:17.000Z</time>
      </trkpt>
      <trkpt lat="44.37413" lon="7.4191">
        <ele>688.5</ele>
        <time>2022-10-01T15:20:18.000Z</time>
      </trkpt>
      <trkpt lat="44.37424" lon="7.4193">
        <ele>688.5</ele>
        <time>2022-10-01T15:20:20.000Z</time>
      </trkpt>
      <trkpt lat="44.3743" lon="7.41941">
        <ele>661.5</ele>
        <time>2022-10-01T15:20:21.000Z</time>
      </trkpt>
      <trkpt lat="44.37435" lon="7.41952">
        <ele>654</ele>
        <time>2022-10-01T15:20:22.000Z</time>
      </trkpt>
      <trkpt lat="44.3744" lon="7.41963">
        <ele>651.4</ele>
        <time>2022-10-01T15:20:23.000Z</time>
      </trkpt>
      <trkpt lat="44.37444" lon="7.41974">
        <ele>650.8</ele>
        <time>2022-10-01T15:20:24.000Z</time>
      </trkpt>
      <trkpt lat="44.3745" lon="7.41985">
        <ele>650.6</ele>
        <time>2022-10-01T15:20:25.000Z</time>
      </trkpt>
      <trkpt lat="44.37464" lon="7.42001">
        <ele>648.8</ele>
        <time>2022-10-01T15:20:27.000Z</time>
      </trkpt>
      <trkpt lat="44.37473" lon="7.42008">
        <ele>648.6</ele>
        <time>2022-10-01T15:20:28.000Z</time>
      </trkpt>
      <trkpt lat="44.37482" lon="7.42013">
        <ele>647.8</ele>
        <time>2022-10-01T15:20:29.000Z</time>
      </trkpt>
      <trkpt lat="44.3749" lon="7.42019">
        <ele>646.8</ele>
        <time>2022-10-01T15:20:30.000Z</time>
      </trkpt>
      <trkpt lat="44.37502" lon="7.42035">
        <ele>645.8</ele>
        <time>2022-10-01T15:20:32.000Z</time>
      </trkpt>
      <trkpt lat="44.37511" lon="7.42048">
        <ele>645.5</ele>
        <time>2022-10-01T15:20:34.000Z</time>
      </trkpt>
      <trkpt lat="44.37525" lon="7.42053">
        <ele>644.6</ele>
        <time>2022-10-01T15:20:36.000Z</time>
      </trkpt>
      <trkpt lat="44.3754" lon="7.42051">
        <ele>644.5</ele>
        <time>2022-10-01T15:20:38.000Z</time>
      </trkpt>
      <trkpt lat="44.37554" lon="7.42054">
        <ele>643.6</ele>
        <time>2022-10-01T15:20:40.000Z</time>
      </trkpt>
      <trkpt lat="44.37557" lon="7.42072">
        <ele>642.6</ele>
        <time>2022-10-01T15:20:42.000Z</time>
      </trkpt>
      <trkpt lat="44.37557" lon="7.42089">
        <ele>642.5</ele>
        <time>2022-10-01T15:20:44.000Z</time>
      </trkpt>
      <trkpt lat="44.37556" lon="7.42107">
        <ele>641.6</ele>
        <time>2022-10-01T15:20:46.000Z</time>
      </trkpt>
      <trkpt lat="44.37554" lon="7.42124">
        <ele>640.6</ele>
        <time>2022-10-01T15:20:48.000Z</time>
      </trkpt>
      <trkpt lat="44.37553" lon="7.42142">
        <ele>641.5</ele>
        <time>2022-10-01T15:20:50.000Z</time>
      </trkpt>
      <trkpt lat="44.37553" lon="7.42158">
        <ele>640.8</ele>
        <time>2022-10-01T15:20:52.000Z</time>
      </trkpt>
      <trkpt lat="44.37555" lon="7.42174">
        <ele>640.5</ele>
        <time>2022-10-01T15:20:54.000Z</time>
      </trkpt>
      <trkpt lat="44.37557" lon="7.4219">
        <ele>639.8</ele>
        <time>2022-10-01T15:20:56.000Z</time>
      </trkpt>
      <trkpt lat="44.3756" lon="7.42206">
        <ele>640.5</ele>
        <time>2022-10-01T15:20:58.000Z</time>
      </trkpt>
      <trkpt lat="44.37564" lon="7.42222">
        <ele>640.5</ele>
        <time>2022-10-01T15:21:00.000Z</time>
      </trkpt>
      <trkpt lat="44.37567" lon="7.42238">
        <ele>639.6</ele>
        <time>2022-10-01T15:21:02.000Z</time>
      </trkpt>
      <trkpt lat="44.3757" lon="7.42255">
        <ele>639.5</ele>
        <time>2022-10-01T15:21:04.000Z</time>
      </trkpt>
      <trkpt lat="44.37574" lon="7.42271">
        <ele>639.5</ele>
        <time>2022-10-01T15:21:06.000Z</time>
      </trkpt>
      <trkpt lat="44.37579" lon="7.42286">
        <ele>639.5</ele>
        <time>2022-10-01T15:21:08.000Z</time>
      </trkpt>
      <trkpt lat="44.37587" lon="7.423">
        <ele>639.5</ele>
        <time>2022-10-01T15:21:10.000Z</time>
      </trkpt>
      <trkpt lat="44.37597" lon="7.42312">
        <ele>639.5</ele>
        <time>2022-10-01T15:21:12.000Z</time>
      </trkpt>
      <trkpt lat="44.37606" lon="7.42324">
        <ele>640.5</ele>
        <time>2022-10-01T15:21:14.000Z</time>
      </trkpt>
      <trkpt lat="44.37614" lon="7.42336">
        <ele>640.5</ele>
        <time>2022-10-01T15:21:16.000Z</time>
      </trkpt>
      <trkpt lat="44.37622" lon="7.42348">
        <ele>641.3</ele>
        <time>2022-10-01T15:21:18.000Z</time>
      </trkpt>
      <trkpt lat="44.3763" lon="7.42359">
        <ele>641.5</ele>
        <time>2022-10-01T15:21:20.000Z</time>
      </trkpt>
      <trkpt lat="44.37637" lon="7.4237">
        <ele>641.5</ele>
        <time>2022-10-01T15:21:22.000Z</time>
      </trkpt>
      <trkpt lat="44.37645" lon="7.42381">
        <ele>642.5</ele>
        <time>2022-10-01T15:21:24.000Z</time>
      </trkpt>
      <trkpt lat="44.37652" lon="7.42392">
        <ele>642.5</ele>
        <time>2022-10-01T15:21:26.000Z</time>
      </trkpt>
      <trkpt lat="44.3766" lon="7.42401">
        <ele>642.7</ele>
        <time>2022-10-01T15:21:28.000Z</time>
      </trkpt>
      <trkpt lat="44.37668" lon="7.4241">
        <ele>642.5</ele>
        <time>2022-10-01T15:21:30.000Z</time>
      </trkpt>
      <trkpt lat="44.37676" lon="7.42419">
        <ele>642.5</ele>
        <time>2022-10-01T15:21:32.000Z</time>
      </trkpt>
      <trkpt lat="44.37684" lon="7.42428">
        <ele>641.8</ele>
        <time>2022-10-01T15:21:34.000Z</time>
      </trkpt>
      <trkpt lat="44.3769" lon="7.42438">
        <ele>640.8</ele>
        <time>2022-10-01T15:21:36.000Z</time>
      </trkpt>
      <trkpt lat="44.37697" lon="7.42449">
        <ele>640.6</ele>
        <time>2022-10-01T15:21:38.000Z</time>
      </trkpt>
      <trkpt lat="44.37702" lon="7.42461">
        <ele>639.6</ele>
        <time>2022-10-01T15:21:40.000Z</time>
      </trkpt>
      <trkpt lat="44.37708" lon="7.42473">
        <ele>639.5</ele>
        <time>2022-10-01T15:21:42.000Z</time>
      </trkpt>
      <trkpt lat="44.37716" lon="7.42486">
        <ele>638.8</ele>
        <time>2022-10-01T15:21:44.000Z</time>
      </trkpt>
      <trkpt lat="44.37725" lon="7.42498">
        <ele>638.5</ele>
        <time>2022-10-01T15:21:46.000Z</time>
      </trkpt>
      <trkpt lat="44.37734" lon="7.42507">
        <ele>637.6</ele>
        <time>2022-10-01T15:21:48.000Z</time>
      </trkpt>
      <trkpt lat="44.37743" lon="7.42515">
        <ele>637.5</ele>
        <time>2022-10-01T15:21:50.000Z</time>
      </trkpt>
      <trkpt lat="44.37751" lon="7.42522">
        <ele>637.5</ele>
        <time>2022-10-01T15:21:52.000Z</time>
      </trkpt>
      <trkpt lat="44.3776" lon="7.42526">
        <ele>637.5</ele>
        <time>2022-10-01T15:21:54.000Z</time>
      </trkpt>
      <trkpt lat="44.37769" lon="7.42529">
        <ele>637.5</ele>
        <time>2022-10-01T15:21:56.000Z</time>
      </trkpt>
      <trkpt lat="44.37779" lon="7.4253">
        <ele>636.8</ele>
        <time>2022-10-01T15:21:58.000Z</time>
      </trkpt>
      <trkpt lat="44.3779" lon="7.42531">
        <ele>636.5</ele>
        <time>2022-10-01T15:22:00.000Z</time>
      </trkpt>
      <trkpt lat="44.37801" lon="7.42531">
        <ele>636.5</ele>
        <time>2022-10-01T15:22:02.000Z</time>
      </trkpt>
      <trkpt lat="44.37812" lon="7.42529">
        <ele>636.5</ele>
        <time>2022-10-01T15:22:04.000Z</time>
      </trkpt>
      <trkpt lat="44.37822" lon="7.42532">
        <ele>635.6</ele>
        <time>2022-10-01T15:22:06.000Z</time>
      </trkpt>
      <trkpt lat="44.37825" lon="7.4255">
        <ele>634.6</ele>
        <time>2022-10-01T15:22:09.000Z</time>
      </trkpt>
      <trkpt lat="44.37819" lon="7.42564">
        <ele>633.8</ele>
        <time>2022-10-01T15:22:12.000Z</time>
      </trkpt>
      <trkpt lat="44.37813" lon="7.42577">
        <ele>633.5</ele>
        <time>2022-10-01T15:22:15.000Z</time>
      </trkpt>
      <trkpt lat="44.37809" lon="7.42592">
        <ele>633.7</ele>
        <time>2022-10-01T15:22:17.000Z</time>
      </trkpt>
      <trkpt lat="44.37806" lon="7.42606">
        <ele>632.8</ele>
        <time>2022-10-01T15:22:19.000Z</time>
      </trkpt>
      <trkpt lat="44.37805" lon="7.42619">
        <ele>632.6</ele>
        <time>2022-10-01T15:22:21.000Z</time>
      </trkpt>
      <trkpt lat="44.37806" lon="7.42634">
        <ele>633.5</ele>
        <time>2022-10-01T15:22:24.000Z</time>
      </trkpt>
      <trkpt lat="44.37807" lon="7.42651">
        <ele>633.5</ele>
        <time>2022-10-01T15:22:27.000Z</time>
      </trkpt>
      <trkpt lat="44.37811" lon="7.42664">
        <ele>633.5</ele>
        <time>2022-10-01T15:22:29.000Z</time>
      </trkpt>
      <trkpt lat="44.37818" lon="7.42674">
        <ele>633.5</ele>
        <time>2022-10-01T15:22:31.000Z</time>
      </trkpt>
      <trkpt lat="44.37827" lon="7.42686">
        <ele>633.5</ele>
        <time>2022-10-01T15:22:33.000Z</time>
      </trkpt>
      <trkpt lat="44.37838" lon="7.42697">
        <ele>632.8</ele>
        <time>2022-10-01T15:22:35.000Z</time>
      </trkpt>
      <trkpt lat="44.3785" lon="7.4271">
        <ele>631.8</ele>
        <time>2022-10-01T15:22:37.000Z</time>
      </trkpt>
      <trkpt lat="44.37862" lon="7.42722">
        <ele>630.8</ele>
        <time>2022-10-01T15:22:39.000Z</time>
      </trkpt>
      <trkpt lat="44.37873" lon="7.42735">
        <ele>629.8</ele>
        <time>2022-10-01T15:22:41.000Z</time>
      </trkpt>
      <trkpt lat="44.37882" lon="7.42753">
        <ele>628.8</ele>
        <time>2022-10-01T15:22:43.000Z</time>
      </trkpt>
      <trkpt lat="44.37887" lon="7.42774">
        <ele>628.6</ele>
        <time>2022-10-01T15:22:45.000Z</time>
      </trkpt>
      <trkpt lat="44.37894" lon="7.42795">
        <ele>627.6</ele>
        <time>2022-10-01T15:22:47.000Z</time>
      </trkpt>
      <trkpt lat="44.37902" lon="7.42815">
        <ele>627.5</ele>
        <time>2022-10-01T15:22:49.000Z</time>
      </trkpt>
      <trkpt lat="44.37913" lon="7.42836">
        <ele>626.6</ele>
        <time>2022-10-01T15:22:51.000Z</time>
      </trkpt>
      <trkpt lat="44.37922" lon="7.42852">
        <ele>625.8</ele>
        <time>2022-10-01T15:22:53.000Z</time>
      </trkpt>
      <trkpt lat="44.3793" lon="7.42864">
        <ele>624.6</ele>
        <time>2022-10-01T15:22:55.000Z</time>
      </trkpt>
      <trkpt lat="44.37931" lon="7.42877">
        <ele>623.8</ele>
        <time>2022-10-01T15:22:58.000Z</time>
      </trkpt>
      <trkpt lat="44.37919" lon="7.42871">
        <ele>623.5</ele>
        <time>2022-10-01T15:23:01.000Z</time>
      </trkpt>
      <trkpt lat="44.37916" lon="7.42866">
        <ele>612.5</ele>
        <time>2022-10-01T15:23:01.000Z</time>
      </trkpt>
      <trkpt lat="44.37916" lon="7.42866">
        <ele>609.9</ele>
        <time>2022-10-01T15:23:02.000Z</time>
      </trkpt>
      <trkpt lat="44.37906" lon="7.42853">
        <ele>609.1</ele>
        <time>2022-10-01T15:23:05.000Z</time>
      </trkpt>
      <trkpt lat="44.37898" lon="7.42842">
        <ele>609</ele>
        <time>2022-10-01T15:23:07.000Z</time>
      </trkpt>
      <trkpt lat="44.37888" lon="7.4283">
        <ele>609</ele>
        <time>2022-10-01T15:23:09.000Z</time>
      </trkpt>
      <trkpt lat="44.37877" lon="7.42818">
        <ele>609</ele>
        <time>2022-10-01T15:23:11.000Z</time>
      </trkpt>
      <trkpt lat="44.37866" lon="7.42805">
        <ele>609</ele>
        <time>2022-10-01T15:23:13.000Z</time>
      </trkpt>
      <trkpt lat="44.37854" lon="7.42794">
        <ele>609</ele>
        <time>2022-10-01T15:23:15.000Z</time>
      </trkpt>
      <trkpt lat="44.37841" lon="7.42786">
        <ele>609</ele>
        <time>2022-10-01T15:23:17.000Z</time>
      </trkpt>
      <trkpt lat="44.3783" lon="7.42783">
        <ele>609</ele>
        <time>2022-10-01T15:23:19.000Z</time>
      </trkpt>
      <trkpt lat="44.3782" lon="7.42786">
        <ele>609</ele>
        <time>2022-10-01T15:23:21.000Z</time>
      </trkpt>
      <trkpt lat="44.37813" lon="7.42801">
        <ele>609</ele>
        <time>2022-10-01T15:23:23.000Z</time>
      </trkpt>
      <trkpt lat="44.37813" lon="7.42819">
        <ele>609</ele>
        <time>2022-10-01T15:23:25.000Z</time>
      </trkpt>
      <trkpt lat="44.37819" lon="7.42837">
        <ele>609</ele>
        <time>2022-10-01T15:23:27.000Z</time>
      </trkpt>
      <trkpt lat="44.37831" lon="7.42849">
        <ele>609</ele>
        <time>2022-10-01T15:23:29.000Z</time>
      </trkpt>
      <trkpt lat="44.37845" lon="7.4286">
        <ele>609</ele>
        <time>2022-10-01T15:23:31.000Z</time>
      </trkpt>
      <trkpt lat="44.37859" lon="7.42873">
        <ele>609</ele>
        <time>2022-10-01T15:23:33.000Z</time>
      </trkpt>
      <trkpt lat="44.3787" lon="7.42889">
        <ele>609</ele>
        <time>2022-10-01T15:23:35.000Z</time>
      </trkpt>
      <trkpt lat="44.37878" lon="7.42908">
        <ele>609</ele>
        <time>2022-10-01T15:23:37.000Z</time>
      </trkpt>
      <trkpt lat="44.37882" lon="7.42925">
        <ele>609</ele>
        <time>2022-10-01T15:23:39.000Z</time>
      </trkpt>
      <trkpt lat="44.37883" lon="7.42942">
        <ele>609</ele>
        <time>2022-10-01T15:23:41.000Z</time>
      </trkpt>
      <trkpt lat="44.37883" lon="7.42959">
        <ele>609</ele>
        <time>2022-10-01T15:23:43.000Z</time>
      </trkpt>
      <trkpt lat="44.37885" lon="7.42978">
        <ele>609</ele>
        <time>2022-10-01T15:23:45.000Z</time>
      </trkpt>
      <trkpt lat="44.37891" lon="7.42996">
        <ele>609</ele>
        <time>2022-10-01T15:23:47.000Z</time>
      </trkpt>
      <trkpt lat="44.37899" lon="7.43015">
        <ele>609</ele>
        <time>2022-10-01T15:23:49.000Z</time>
      </trkpt>
      <trkpt lat="44.37904" lon="7.43034">
        <ele>609</ele>
        <time>2022-10-01T15:23:51.000Z</time>
      </trkpt>
      <trkpt lat="44.37907" lon="7.43051">
        <ele>609</ele>
        <time>2022-10-01T15:23:53.000Z</time>
      </trkpt>
      <trkpt lat="44.37909" lon="7.43068">
        <ele>609</ele>
        <time>2022-10-01T15:23:55.000Z</time>
      </trkpt>
      <trkpt lat="44.37909" lon="7.43086">
        <ele>609</ele>
        <time>2022-10-01T15:23:57.000Z</time>
      </trkpt>
      <trkpt lat="44.37911" lon="7.43107">
        <ele>609</ele>
        <time>2022-10-01T15:23:59.000Z</time>
      </trkpt>
      <trkpt lat="44.37918" lon="7.43126">
        <ele>609</ele>
        <time>2022-10-01T15:24:01.000Z</time>
      </trkpt>
      <trkpt lat="44.37927" lon="7.43144">
        <ele>609</ele>
        <time>2022-10-01T15:24:03.000Z</time>
      </trkpt>
      <trkpt lat="44.37939" lon="7.43163">
        <ele>609</ele>
        <time>2022-10-01T15:24:05.000Z</time>
      </trkpt>
      <trkpt lat="44.37945" lon="7.43173">
        <ele>609</ele>
        <time>2022-10-01T15:24:06.000Z</time>
      </trkpt>
      <trkpt lat="44.37953" lon="7.43193">
        <ele>609</ele>
        <time>2022-10-01T15:24:08.000Z</time>
      </trkpt>
      <trkpt lat="44.37958" lon="7.43212">
        <ele>609</ele>
        <time>2022-10-01T15:24:10.000Z</time>
      </trkpt>
      <trkpt lat="44.37964" lon="7.4323">
        <ele>609</ele>
        <time>2022-10-01T15:24:12.000Z</time>
      </trkpt>
      <trkpt lat="44.37972" lon="7.4325">
        <ele>609</ele>
        <time>2022-10-01T15:24:14.000Z</time>
      </trkpt>
      <trkpt lat="44.3798" lon="7.43272">
        <ele>609</ele>
        <time>2022-10-01T15:24:16.000Z</time>
      </trkpt>
      <trkpt lat="44.37985" lon="7.43294">
        <ele>609</ele>
        <time>2022-10-01T15:24:18.000Z</time>
      </trkpt>
      <trkpt lat="44.37987" lon="7.43312">
        <ele>609</ele>
        <time>2022-10-01T15:24:20.000Z</time>
      </trkpt>
      <trkpt lat="44.37988" lon="7.43328">
        <ele>609</ele>
        <time>2022-10-01T15:24:22.000Z</time>
      </trkpt>
      <trkpt lat="44.37991" lon="7.4334">
        <ele>609</ele>
        <time>2022-10-01T15:24:25.000Z</time>
      </trkpt>
      <trkpt lat="44.38001" lon="7.4335">
        <ele>598.4</ele>
        <time>2022-10-01T15:24:27.000Z</time>
      </trkpt>
      <trkpt lat="44.37999" lon="7.4335">
        <ele>609</ele>
        <time>2022-10-01T15:24:28.000Z</time>
      </trkpt>
      <trkpt lat="44.38004" lon="7.43353">
        <ele>595.7</ele>
        <time>2022-10-01T15:24:29.000Z</time>
      </trkpt>
      <trkpt lat="44.38013" lon="7.4336">
        <ele>594.9</ele>
        <time>2022-10-01T15:24:31.000Z</time>
      </trkpt>
      <trkpt lat="44.38024" lon="7.43368">
        <ele>594.8</ele>
        <time>2022-10-01T15:24:33.000Z</time>
      </trkpt>
      <trkpt lat="44.38035" lon="7.43377">
        <ele>594.8</ele>
        <time>2022-10-01T15:24:35.000Z</time>
      </trkpt>
      <trkpt lat="44.38046" lon="7.43384">
        <ele>594.8</ele>
        <time>2022-10-01T15:24:37.000Z</time>
      </trkpt>
      <trkpt lat="44.38057" lon="7.43389">
        <ele>594.8</ele>
        <time>2022-10-01T15:24:39.000Z</time>
      </trkpt>
      <trkpt lat="44.38067" lon="7.43394">
        <ele>594.8</ele>
        <time>2022-10-01T15:24:41.000Z</time>
      </trkpt>
      <trkpt lat="44.38077" lon="7.43403">
        <ele>594.8</ele>
        <time>2022-10-01T15:24:43.000Z</time>
      </trkpt>
      <trkpt lat="44.38086" lon="7.43412">
        <ele>594.8</ele>
        <time>2022-10-01T15:24:45.000Z</time>
      </trkpt>
      <trkpt lat="44.38095" lon="7.43423">
        <ele>594.8</ele>
        <time>2022-10-01T15:24:47.000Z</time>
      </trkpt>
      <trkpt lat="44.38106" lon="7.43432">
        <ele>594.8</ele>
        <time>2022-10-01T15:24:50.000Z</time>
      </trkpt>
      <trkpt lat="44.38115" lon="7.43446">
        <ele>594.8</ele>
        <time>2022-10-01T15:24:53.000Z</time>
      </trkpt>
      <trkpt lat="44.38121" lon="7.43458">
        <ele>594.8</ele>
        <time>2022-10-01T15:24:55.000Z</time>
      </trkpt>
      <trkpt lat="44.38129" lon="7.43467">
        <ele>594.8</ele>
        <time>2022-10-01T15:24:57.000Z</time>
      </trkpt>
      <trkpt lat="44.38139" lon="7.43476">
        <ele>594.8</ele>
        <time>2022-10-01T15:24:59.000Z</time>
      </trkpt>
      <trkpt lat="44.38148" lon="7.43485">
        <ele>594.8</ele>
        <time>2022-10-01T15:25:01.000Z</time>
      </trkpt>
      <trkpt lat="44.38157" lon="7.43497">
        <ele>594.8</ele>
        <time>2022-10-01T15:25:04.000Z</time>
      </trkpt>
      <trkpt lat="44.38167" lon="7.43506">
        <ele>594.8</ele>
        <time>2022-10-01T15:25:06.000Z</time>
      </trkpt>
      <trkpt lat="44.38176" lon="7.43513">
        <ele>594.8</ele>
        <time>2022-10-01T15:25:08.000Z</time>
      </trkpt>
      <trkpt lat="44.38186" lon="7.4352">
        <ele>594.8</ele>
        <time>2022-10-01T15:25:10.000Z</time>
      </trkpt>
      <trkpt lat="44.38197" lon="7.43527">
        <ele>594.8</ele>
        <time>2022-10-01T15:25:12.000Z</time>
      </trkpt>
      <trkpt lat="44.38207" lon="7.43534">
        <ele>594.8</ele>
        <time>2022-10-01T15:25:14.000Z</time>
      </trkpt>
      <trkpt lat="44.38217" lon="7.43541">
        <ele>594.8</ele>
        <time>2022-10-01T15:25:16.000Z</time>
      </trkpt>
      <trkpt lat="44.38227" lon="7.43547">
        <ele>594.8</ele>
        <time>2022-10-01T15:25:18.000Z</time>
      </trkpt>
      <trkpt lat="44.38236" lon="7.43554">
        <ele>594.8</ele>
        <time>2022-10-01T15:25:20.000Z</time>
      </trkpt>
      <trkpt lat="44.38245" lon="7.43561">
        <ele>594.8</ele>
        <time>2022-10-01T15:25:22.000Z</time>
      </trkpt>
      <trkpt lat="44.38254" lon="7.43568">
        <ele>594.8</ele>
        <time>2022-10-01T15:25:24.000Z</time>
      </trkpt>
      <trkpt lat="44.38263" lon="7.43575">
        <ele>594.8</ele>
        <time>2022-10-01T15:25:26.000Z</time>
      </trkpt>
      <trkpt lat="44.38272" lon="7.43582">
        <ele>594.8</ele>
        <time>2022-10-01T15:25:28.000Z</time>
      </trkpt>
      <trkpt lat="44.3828" lon="7.4359">
        <ele>594.8</ele>
        <time>2022-10-01T15:25:30.000Z</time>
      </trkpt>
      <trkpt lat="44.38284" lon="7.43602">
        <ele>594.8</ele>
        <time>2022-10-01T15:25:34.000Z</time>
      </trkpt>
      <trkpt lat="44.38278" lon="7.43607">
        <ele>588.1</ele>
        <time>2022-10-01T15:25:35.000Z</time>
      </trkpt>
      <trkpt lat="44.38275" lon="7.43608">
        <ele>586.4</ele>
        <time>2022-10-01T15:25:37.000Z</time>
      </trkpt>
      <trkpt lat="44.38265" lon="7.43613">
        <ele>585.8</ele>
        <time>2022-10-01T15:25:40.000Z</time>
      </trkpt>
      <trkpt lat="44.38256" lon="7.43616">
        <ele>585.8</ele>
        <time>2022-10-01T15:25:42.000Z</time>
      </trkpt>
      <trkpt lat="44.38246" lon="7.43621">
        <ele>585.8</ele>
        <time>2022-10-01T15:25:45.000Z</time>
      </trkpt>
      <trkpt lat="44.38235" lon="7.43633">
        <ele>585.8</ele>
        <time>2022-10-01T15:25:48.000Z</time>
      </trkpt>
      <trkpt lat="44.38227" lon="7.43644">
        <ele>585.8</ele>
        <time>2022-10-01T15:25:51.000Z</time>
      </trkpt>
      <trkpt lat="44.3822" lon="7.43654">
        <ele>585.8</ele>
        <time>2022-10-01T15:25:53.000Z</time>
      </trkpt>
      <trkpt lat="44.38213" lon="7.43663">
        <ele>585.8</ele>
        <time>2022-10-01T15:25:56.000Z</time>
      </trkpt>
      <trkpt lat="44.38203" lon="7.43675">
        <ele>585.8</ele>
        <time>2022-10-01T15:25:59.000Z</time>
      </trkpt>
      <trkpt lat="44.38195" lon="7.43686">
        <ele>585.8</ele>
        <time>2022-10-01T15:26:02.000Z</time>
      </trkpt>
      <trkpt lat="44.38184" lon="7.43697">
        <ele>585.8</ele>
        <time>2022-10-01T15:26:05.000Z</time>
      </trkpt>
      <trkpt lat="44.38176" lon="7.43706">
        <ele>585.8</ele>
        <time>2022-10-01T15:26:08.000Z</time>
      </trkpt>
      <trkpt lat="44.38184" lon="7.43701">
        <ele>585.8</ele>
        <time>2022-10-01T15:26:18.000Z</time>
      </trkpt>
      <trkpt lat="44.38194" lon="7.4369">
        <ele>585.8</ele>
        <time>2022-10-01T15:26:21.000Z</time>
      </trkpt>
      <trkpt lat="44.38203" lon="7.43677">
        <ele>585.8</ele>
        <time>2022-10-01T15:26:24.000Z</time>
      </trkpt>
      <trkpt lat="44.38208" lon="7.43666">
        <ele>585.8</ele>
        <time>2022-10-01T15:26:26.000Z</time>
      </trkpt>
      <trkpt lat="44.38217" lon="7.43655">
        <ele>585.8</ele>
        <time>2022-10-01T15:26:29.000Z</time>
      </trkpt>
      <trkpt lat="44.38227" lon="7.43645">
        <ele>585.8</ele>
        <time>2022-10-01T15:26:32.000Z</time>
      </trkpt>
      <trkpt lat="44.38234" lon="7.43633">
        <ele>585.8</ele>
        <time>2022-10-01T15:26:34.000Z</time>
      </trkpt>
      <trkpt lat="44.38242" lon="7.43622">
        <ele>585.8</ele>
        <time>2022-10-01T15:26:37.000Z</time>
      </trkpt>
      <trkpt lat="44.38253" lon="7.43611">
        <ele>585.8</ele>
        <time>2022-10-01T15:26:40.000Z</time>
      </trkpt>
      <trkpt lat="44.38264" lon="7.43607">
        <ele>585.8</ele>
        <time>2022-10-01T15:26:43.000Z</time>
      </trkpt>
      <trkpt lat="44.38275" lon="7.43603">
        <ele>585.8</ele>
        <time>2022-10-01T15:26:46.000Z</time>
      </trkpt>
      <trkpt lat="44.38284" lon="7.43603">
        <ele>585.8</ele>
        <time>2022-10-01T15:26:48.000Z</time>
      </trkpt>
      <trkpt lat="44.38296" lon="7.43609">
        <ele>585.8</ele>
        <time>2022-10-01T15:26:51.000Z</time>
      </trkpt>
      <trkpt lat="44.38308" lon="7.43617">
        <ele>585.8</ele>
        <time>2022-10-01T15:26:54.000Z</time>
      </trkpt>
      <trkpt lat="44.38318" lon="7.43615">
        <ele>585.8</ele>
        <time>2022-10-01T15:26:56.000Z</time>
      </trkpt>
      <trkpt lat="44.38331" lon="7.43616">
        <ele>585.8</ele>
        <time>2022-10-01T15:26:59.000Z</time>
      </trkpt>
      <trkpt lat="44.38343" lon="7.43615">
        <ele>585.8</ele>
        <time>2022-10-01T15:27:01.000Z</time>
      </trkpt>
      <trkpt lat="44.38354" lon="7.43616">
        <ele>585.8</ele>
        <time>2022-10-01T15:27:03.000Z</time>
      </trkpt>
      <trkpt lat="44.38365" lon="7.43615">
        <ele>585.8</ele>
        <time>2022-10-01T15:27:05.000Z</time>
      </trkpt>
      <trkpt lat="44.38377" lon="7.43614">
        <ele>578.8</ele>
        <time>2022-10-01T15:27:07.000Z</time>
      </trkpt>
      <trkpt lat="44.38389" lon="7.43613">
        <ele>577.8</ele>
        <time>2022-10-01T15:27:09.000Z</time>
      </trkpt>
      <trkpt lat="44.38401" lon="7.43612">
        <ele>577.6</ele>
        <time>2022-10-01T15:27:11.000Z</time>
      </trkpt>
      <trkpt lat="44.38412" lon="7.43612">
        <ele>577.5</ele>
        <time>2022-10-01T15:27:13.000Z</time>
      </trkpt>
      <trkpt lat="44.38423" lon="7.43613">
        <ele>576.6</ele>
        <time>2022-10-01T15:27:15.000Z</time>
      </trkpt>
      <trkpt lat="44.38433" lon="7.43614">
        <ele>577.5</ele>
        <time>2022-10-01T15:27:17.000Z</time>
      </trkpt>
      <trkpt lat="44.38442" lon="7.43616">
        <ele>577.5</ele>
        <time>2022-10-01T15:27:19.000Z</time>
      </trkpt>
      <trkpt lat="44.38454" lon="7.43616">
        <ele>577.5</ele>
        <time>2022-10-01T15:27:21.000Z</time>
      </trkpt>
      <trkpt lat="44.38464" lon="7.43617">
        <ele>576.6</ele>
        <time>2022-10-01T15:27:24.000Z</time>
      </trkpt>
      <trkpt lat="44.3847" lon="7.43629">
        <ele>577.3</ele>
        <time>2022-10-01T15:27:28.000Z</time>
      </trkpt>
      <trkpt lat="44.38469" lon="7.43648">
        <ele>576.6</ele>
        <time>2022-10-01T15:27:31.000Z</time>
      </trkpt>
      <trkpt lat="44.38469" lon="7.43663">
        <ele>576.5</ele>
        <time>2022-10-01T15:27:33.000Z</time>
      </trkpt>
      <trkpt lat="44.38471" lon="7.4368">
        <ele>575.8</ele>
        <time>2022-10-01T15:27:36.000Z</time>
      </trkpt>
      <trkpt lat="44.38473" lon="7.43695">
        <ele>575.6</ele>
        <time>2022-10-01T15:27:38.000Z</time>
      </trkpt>
      <trkpt lat="44.38479" lon="7.43714">
        <ele>574.8</ele>
        <time>2022-10-01T15:27:41.000Z</time>
      </trkpt>
      <trkpt lat="44.3848" lon="7.4373">
        <ele>574.6</ele>
        <time>2022-10-01T15:27:43.000Z</time>
      </trkpt>
      <trkpt lat="44.38479" lon="7.43745">
        <ele>574.5</ele>
        <time>2022-10-01T15:27:45.000Z</time>
      </trkpt>
      <trkpt lat="44.38479" lon="7.43761">
        <ele>574.5</ele>
        <time>2022-10-01T15:27:47.000Z</time>
      </trkpt>
      <trkpt lat="44.38478" lon="7.43777">
        <ele>574.5</ele>
        <time>2022-10-01T15:27:49.000Z</time>
      </trkpt>
      <trkpt lat="44.38478" lon="7.43793">
        <ele>574.5</ele>
        <time>2022-10-01T15:27:51.000Z</time>
      </trkpt>
      <trkpt lat="44.38477" lon="7.4381">
        <ele>574.5</ele>
        <time>2022-10-01T15:27:53.000Z</time>
      </trkpt>
      <trkpt lat="44.38475" lon="7.43827">
        <ele>575.5</ele>
        <time>2022-10-01T15:27:55.000Z</time>
      </trkpt>
      <trkpt lat="44.38474" lon="7.43843">
        <ele>574.8</ele>
        <time>2022-10-01T15:27:57.000Z</time>
      </trkpt>
      <trkpt lat="44.38474" lon="7.43859">
        <ele>575.5</ele>
        <time>2022-10-01T15:27:59.000Z</time>
      </trkpt>
      <trkpt lat="44.38474" lon="7.43875">
        <ele>574.6</ele>
        <time>2022-10-01T15:28:01.000Z</time>
      </trkpt>
      <trkpt lat="44.38473" lon="7.4389">
        <ele>574.5</ele>
        <time>2022-10-01T15:28:03.000Z</time>
      </trkpt>
      <trkpt lat="44.38471" lon="7.43906">
        <ele>574.5</ele>
        <time>2022-10-01T15:28:05.000Z</time>
      </trkpt>
      <trkpt lat="44.38472" lon="7.43922">
        <ele>574.5</ele>
        <time>2022-10-01T15:28:07.000Z</time>
      </trkpt>
      <trkpt lat="44.38474" lon="7.43936">
        <ele>574.7</ele>
        <time>2022-10-01T15:28:09.000Z</time>
      </trkpt>
      <trkpt lat="44.38478" lon="7.43951">
        <ele>574.5</ele>
        <time>2022-10-01T15:28:11.000Z</time>
      </trkpt>
      <trkpt lat="44.38483" lon="7.43966">
        <ele>574.5</ele>
        <time>2022-10-01T15:28:13.000Z</time>
      </trkpt>
      <trkpt lat="44.38489" lon="7.43981">
        <ele>574.5</ele>
        <time>2022-10-01T15:28:15.000Z</time>
      </trkpt>
      <trkpt lat="44.38496" lon="7.43994">
        <ele>573.8</ele>
        <time>2022-10-01T15:28:17.000Z</time>
      </trkpt>
      <trkpt lat="44.38502" lon="7.44008">
        <ele>573.6</ele>
        <time>2022-10-01T15:28:19.000Z</time>
      </trkpt>
      <trkpt lat="44.38509" lon="7.44022">
        <ele>573.5</ele>
        <time>2022-10-01T15:28:21.000Z</time>
      </trkpt>
      <trkpt lat="44.38515" lon="7.44035">
        <ele>573.5</ele>
        <time>2022-10-01T15:28:23.000Z</time>
      </trkpt>
      <trkpt lat="44.3852" lon="7.44048">
        <ele>573.5</ele>
        <time>2022-10-01T15:28:25.000Z</time>
      </trkpt>
      <trkpt lat="44.38526" lon="7.44062">
        <ele>572.6</ele>
        <time>2022-10-01T15:28:27.000Z</time>
      </trkpt>
      <trkpt lat="44.38533" lon="7.44075">
        <ele>571.8</ele>
        <time>2022-10-01T15:28:29.000Z</time>
      </trkpt>
      <trkpt lat="44.3854" lon="7.44089">
        <ele>571.6</ele>
        <time>2022-10-01T15:28:31.000Z</time>
      </trkpt>
      <trkpt lat="44.38547" lon="7.44102">
        <ele>571.5</ele>
        <time>2022-10-01T15:28:33.000Z</time>
      </trkpt>
      <trkpt lat="44.38553" lon="7.44116">
        <ele>571.5</ele>
        <time>2022-10-01T15:28:35.000Z</time>
      </trkpt>
      <trkpt lat="44.3856" lon="7.4413">
        <ele>571.5</ele>
        <time>2022-10-01T15:28:37.000Z</time>
      </trkpt>
      <trkpt lat="44.38567" lon="7.44144">
        <ele>571.5</ele>
        <time>2022-10-01T15:28:39.000Z</time>
      </trkpt>
      <trkpt lat="44.38574" lon="7.44157">
        <ele>571.5</ele>
        <time>2022-10-01T15:28:41.000Z</time>
      </trkpt>
      <trkpt lat="44.38581" lon="7.44171">
        <ele>571.5</ele>
        <time>2022-10-01T15:28:43.000Z</time>
      </trkpt>
      <trkpt lat="44.38588" lon="7.44185">
        <ele>571.5</ele>
        <time>2022-10-01T15:28:45.000Z</time>
      </trkpt>
      <trkpt lat="44.38596" lon="7.44199">
        <ele>571.5</ele>
        <time>2022-10-01T15:28:47.000Z</time>
      </trkpt>
      <trkpt lat="44.38604" lon="7.44213">
        <ele>571.5</ele>
        <time>2022-10-01T15:28:49.000Z</time>
      </trkpt>
      <trkpt lat="44.38611" lon="7.44226">
        <ele>571.5</ele>
        <time>2022-10-01T15:28:51.000Z</time>
      </trkpt>
      <trkpt lat="44.38619" lon="7.44239">
        <ele>571.5</ele>
        <time>2022-10-01T15:28:53.000Z</time>
      </trkpt>
      <trkpt lat="44.38627" lon="7.44252">
        <ele>570.6</ele>
        <time>2022-10-01T15:28:55.000Z</time>
      </trkpt>
      <trkpt lat="44.38636" lon="7.44264">
        <ele>569.8</ele>
        <time>2022-10-01T15:28:57.000Z</time>
      </trkpt>
      <trkpt lat="44.38646" lon="7.44275">
        <ele>569.6</ele>
        <time>2022-10-01T15:28:59.000Z</time>
      </trkpt>
      <trkpt lat="44.38656" lon="7.44286">
        <ele>569.4</ele>
        <time>2022-10-01T15:29:01.000Z</time>
      </trkpt>
      <trkpt lat="44.38665" lon="7.44297">
        <ele>568.8</ele>
        <time>2022-10-01T15:29:03.000Z</time>
      </trkpt>
      <trkpt lat="44.38675" lon="7.44308">
        <ele>568.6</ele>
        <time>2022-10-01T15:29:05.000Z</time>
      </trkpt>
      <trkpt lat="44.38685" lon="7.44319">
        <ele>568.5</ele>
        <time>2022-10-01T15:29:07.000Z</time>
      </trkpt>
      <trkpt lat="44.38694" lon="7.44329">
        <ele>567.8</ele>
        <time>2022-10-01T15:29:09.000Z</time>
      </trkpt>
      <trkpt lat="44.38704" lon="7.4434">
        <ele>567.6</ele>
        <time>2022-10-01T15:29:11.000Z</time>
      </trkpt>
      <trkpt lat="44.38713" lon="7.44351">
        <ele>567.5</ele>
        <time>2022-10-01T15:29:13.000Z</time>
      </trkpt>
      <trkpt lat="44.38721" lon="7.44362">
        <ele>567.5</ele>
        <time>2022-10-01T15:29:15.000Z</time>
      </trkpt>
      <trkpt lat="44.3873" lon="7.44373">
        <ele>567.5</ele>
        <time>2022-10-01T15:29:17.000Z</time>
      </trkpt>
      <trkpt lat="44.38737" lon="7.44385">
        <ele>567.5</ele>
        <time>2022-10-01T15:29:19.000Z</time>
      </trkpt>
      <trkpt lat="44.38744" lon="7.44399">
        <ele>567.5</ele>
        <time>2022-10-01T15:29:21.000Z</time>
      </trkpt>
      <trkpt lat="44.38751" lon="7.44413">
        <ele>566.8</ele>
        <time>2022-10-01T15:29:23.000Z</time>
      </trkpt>
      <trkpt lat="44.38757" lon="7.44426">
        <ele>567.3</ele>
        <time>2022-10-01T15:29:25.000Z</time>
      </trkpt>
      <trkpt lat="44.38764" lon="7.4444">
        <ele>566.6</ele>
        <time>2022-10-01T15:29:27.000Z</time>
      </trkpt>
      <trkpt lat="44.3877" lon="7.44454">
        <ele>566.5</ele>
        <time>2022-10-01T15:29:29.000Z</time>
      </trkpt>
      <trkpt lat="44.38777" lon="7.44468">
        <ele>565.8</ele>
        <time>2022-10-01T15:29:31.000Z</time>
      </trkpt>
      <trkpt lat="44.38783" lon="7.44481">
        <ele>564.8</ele>
        <time>2022-10-01T15:29:33.000Z</time>
      </trkpt>
      <trkpt lat="44.3879" lon="7.44495">
        <ele>564.6</ele>
        <time>2022-10-01T15:29:35.000Z</time>
      </trkpt>
      <trkpt lat="44.38797" lon="7.44509">
        <ele>563.6</ele>
        <time>2022-10-01T15:29:37.000Z</time>
      </trkpt>
      <trkpt lat="44.38804" lon="7.44523">
        <ele>563.5</ele>
        <time>2022-10-01T15:29:39.000Z</time>
      </trkpt>
      <trkpt lat="44.38811" lon="7.44536">
        <ele>563.5</ele>
        <time>2022-10-01T15:29:41.000Z</time>
      </trkpt>
      <trkpt lat="44.38817" lon="7.4455">
        <ele>563.5</ele>
        <time>2022-10-01T15:29:43.000Z</time>
      </trkpt>
      <trkpt lat="44.38824" lon="7.44563">
        <ele>563.5</ele>
        <time>2022-10-01T15:29:45.000Z</time>
      </trkpt>
      <trkpt lat="44.38831" lon="7.44576">
        <ele>564.3</ele>
        <time>2022-10-01T15:29:47.000Z</time>
      </trkpt>
      <trkpt lat="44.38838" lon="7.44589">
        <ele>564.5</ele>
        <time>2022-10-01T15:29:49.000Z</time>
      </trkpt>
      <trkpt lat="44.38844" lon="7.44603">
        <ele>563.8</ele>
        <time>2022-10-01T15:29:51.000Z</time>
      </trkpt>
      <trkpt lat="44.38851" lon="7.44616">
        <ele>563.6</ele>
        <time>2022-10-01T15:29:53.000Z</time>
      </trkpt>
      <trkpt lat="44.38858" lon="7.4463">
        <ele>563.5</ele>
        <time>2022-10-01T15:29:55.000Z</time>
      </trkpt>
      <trkpt lat="44.38865" lon="7.44644">
        <ele>563.5</ele>
        <time>2022-10-01T15:29:57.000Z</time>
      </trkpt>
      <trkpt lat="44.38873" lon="7.44658">
        <ele>563.5</ele>
        <time>2022-10-01T15:29:59.000Z</time>
      </trkpt>
      <trkpt lat="44.3888" lon="7.44671">
        <ele>563.5</ele>
        <time>2022-10-01T15:30:01.000Z</time>
      </trkpt>
      <trkpt lat="44.38886" lon="7.44685">
        <ele>562.8</ele>
        <time>2022-10-01T15:30:03.000Z</time>
      </trkpt>
      <trkpt lat="44.38893" lon="7.44698">
        <ele>562.6</ele>
        <time>2022-10-01T15:30:05.000Z</time>
      </trkpt>
      <trkpt lat="44.389" lon="7.44713">
        <ele>562.5</ele>
        <time>2022-10-01T15:30:07.000Z</time>
      </trkpt>
      <trkpt lat="44.38906" lon="7.44727">
        <ele>562.5</ele>
        <time>2022-10-01T15:30:09.000Z</time>
      </trkpt>
      <trkpt lat="44.38912" lon="7.44741">
        <ele>562.5</ele>
        <time>2022-10-01T15:30:11.000Z</time>
      </trkpt>
      <trkpt lat="44.38917" lon="7.44754">
        <ele>561.8</ele>
        <time>2022-10-01T15:30:13.000Z</time>
      </trkpt>
      <trkpt lat="44.38923" lon="7.44768">
        <ele>561.6</ele>
        <time>2022-10-01T15:30:15.000Z</time>
      </trkpt>
      <trkpt lat="44.38929" lon="7.44782">
        <ele>561.5</ele>
        <time>2022-10-01T15:30:17.000Z</time>
      </trkpt>
      <trkpt lat="44.38935" lon="7.44796">
        <ele>561.5</ele>
        <time>2022-10-01T15:30:19.000Z</time>
      </trkpt>
      <trkpt lat="44.38941" lon="7.4481">
        <ele>561.5</ele>
        <time>2022-10-01T15:30:21.000Z</time>
      </trkpt>
      <trkpt lat="44.38947" lon="7.44824">
        <ele>561.5</ele>
        <time>2022-10-01T15:30:23.000Z</time>
      </trkpt>
      <trkpt lat="44.38952" lon="7.44837">
        <ele>561.5</ele>
        <time>2022-10-01T15:30:25.000Z</time>
      </trkpt>
      <trkpt lat="44.38958" lon="7.44851">
        <ele>561.5</ele>
        <time>2022-10-01T15:30:27.000Z</time>
      </trkpt>
      <trkpt lat="44.38964" lon="7.44865">
        <ele>561.5</ele>
        <time>2022-10-01T15:30:29.000Z</time>
      </trkpt>
      <trkpt lat="44.3897" lon="7.44878">
        <ele>561.5</ele>
        <time>2022-10-01T15:30:31.000Z</time>
      </trkpt>
      <trkpt lat="44.38975" lon="7.44892">
        <ele>561.5</ele>
        <time>2022-10-01T15:30:33.000Z</time>
      </trkpt>
      <trkpt lat="44.38981" lon="7.44904">
        <ele>561.5</ele>
        <time>2022-10-01T15:30:35.000Z</time>
      </trkpt>
      <trkpt lat="44.38986" lon="7.44916">
        <ele>560.6</ele>
        <time>2022-10-01T15:30:38.000Z</time>
      </trkpt>
      <trkpt lat="44.3898" lon="7.44922">
        <ele>560.5</ele>
        <time>2022-10-01T15:30:40.000Z</time>
      </trkpt>
      <trkpt lat="44.38978" lon="7.44923">
        <ele>560.5</ele>
        <time>2022-10-01T15:30:42.000Z</time>
      </trkpt>
      <trkpt lat="44.38976" lon="7.44924">
        <ele>560.5</ele>
        <time>2022-10-01T15:30:45.000Z</time>
      </trkpt>
      <trkpt lat="44.38976" lon="7.44923">
        <ele>560.5</ele>
        <time>2022-10-01T15:30:46.000Z</time>
      </trkpt>
      <trkpt lat="44.38976" lon="7.44922">
        <ele>559.6</ele>
        <time>2022-10-01T15:30:49.000Z</time>
      </trkpt>
      <trkpt lat="44.38976" lon="7.44922">
        <ele>559.5</ele>
        <time>2022-10-01T15:31:56.000Z</time>
      </trkpt>
      <trkpt lat="44.38968" lon="7.44929">
        <ele>560.5</ele>
        <time>2022-10-01T15:32:01.000Z</time>
      </trkpt>
      <trkpt lat="44.38966" lon="7.44929">
        <ele>560.5</ele>
        <time>2022-10-01T15:32:03.000Z</time>
      </trkpt>
      <trkpt lat="44.38955" lon="7.44936">
        <ele>561.3</ele>
        <time>2022-10-01T15:32:06.000Z</time>
      </trkpt>
      <trkpt lat="44.38942" lon="7.44942">
        <ele>561.5</ele>
        <time>2022-10-01T15:32:09.000Z</time>
      </trkpt>
      <trkpt lat="44.38934" lon="7.44948">
        <ele>561.5</ele>
        <time>2022-10-01T15:32:11.000Z</time>
      </trkpt>
      <trkpt lat="44.38923" lon="7.44958">
        <ele>562.3</ele>
        <time>2022-10-01T15:32:14.000Z</time>
      </trkpt>
      <trkpt lat="44.38912" lon="7.44967">
        <ele>562.5</ele>
        <time>2022-10-01T15:32:17.000Z</time>
      </trkpt>
      <trkpt lat="44.38902" lon="7.44976">
        <ele>562.5</ele>
        <time>2022-10-01T15:32:20.000Z</time>
      </trkpt>
      <trkpt lat="44.38892" lon="7.44986">
        <ele>562.5</ele>
        <time>2022-10-01T15:32:23.000Z</time>
      </trkpt>
      <trkpt lat="44.38883" lon="7.44994">
        <ele>562.5</ele>
        <time>2022-10-01T15:32:26.000Z</time>
      </trkpt>
      <trkpt lat="44.38872" lon="7.45003">
        <ele>563.5</ele>
        <time>2022-10-01T15:32:29.000Z</time>
      </trkpt>
      <trkpt lat="44.38863" lon="7.45012">
        <ele>563.5</ele>
        <time>2022-10-01T15:32:32.000Z</time>
      </trkpt>
      <trkpt lat="44.38855" lon="7.4502">
        <ele>563.5</ele>
        <time>2022-10-01T15:32:35.000Z</time>
      </trkpt>
      <trkpt lat="44.38847" lon="7.45033">
        <ele>564.3</ele>
        <time>2022-10-01T15:32:38.000Z</time>
      </trkpt>
      <trkpt lat="44.3884" lon="7.45045">
        <ele>564.5</ele>
        <time>2022-10-01T15:32:41.000Z</time>
      </trkpt>
      <trkpt lat="44.38833" lon="7.45058">
        <ele>564.5</ele>
        <time>2022-10-01T15:32:44.000Z</time>
      </trkpt>
      <trkpt lat="44.38826" lon="7.4507">
        <ele>564.5</ele>
        <time>2022-10-01T15:32:48.000Z</time>
      </trkpt>
      <trkpt lat="44.38818" lon="7.45082">
        <ele>564.5</ele>
        <time>2022-10-01T15:32:52.000Z</time>
      </trkpt>
      <trkpt lat="44.38812" lon="7.45091">
        <ele>565.5</ele>
        <time>2022-10-01T15:32:55.000Z</time>
      </trkpt>
      <trkpt lat="44.38804" lon="7.45102">
        <ele>565.5</ele>
        <time>2022-10-01T15:32:58.000Z</time>
      </trkpt>
      <trkpt lat="44.38797" lon="7.45115">
        <ele>564.6</ele>
        <time>2022-10-01T15:33:01.000Z</time>
      </trkpt>
      <trkpt lat="44.38791" lon="7.45127">
        <ele>565.5</ele>
        <time>2022-10-01T15:33:04.000Z</time>
      </trkpt>
      <trkpt lat="44.38783" lon="7.45136">
        <ele>564.6</ele>
        <time>2022-10-01T15:33:07.000Z</time>
      </trkpt>
      <trkpt lat="44.38773" lon="7.45144">
        <ele>564.5</ele>
        <time>2022-10-01T15:33:10.000Z</time>
      </trkpt>
      <trkpt lat="44.38764" lon="7.45151">
        <ele>564.5</ele>
        <time>2022-10-01T15:33:13.000Z</time>
      </trkpt>
      <trkpt lat="44.38755" lon="7.45157">
        <ele>564.5</ele>
        <time>2022-10-01T15:33:17.000Z</time>
      </trkpt>
      <trkpt lat="44.38747" lon="7.45164">
        <ele>565.5</ele>
        <time>2022-10-01T15:33:21.000Z</time>
      </trkpt>
      <trkpt lat="44.38741" lon="7.45173">
        <ele>565.5</ele>
        <time>2022-10-01T15:33:25.000Z</time>
      </trkpt>
      <trkpt lat="44.38737" lon="7.45185">
        <ele>564.8</ele>
        <time>2022-10-01T15:33:29.000Z</time>
      </trkpt>
      <trkpt lat="44.38732" lon="7.45198">
        <ele>565.5</ele>
        <time>2022-10-01T15:33:35.000Z</time>
      </trkpt>
      <trkpt lat="44.38727" lon="7.45211">
        <ele>565.5</ele>
        <time>2022-10-01T15:33:40.000Z</time>
      </trkpt>
      <trkpt lat="44.38724" lon="7.45225">
        <ele>565.5</ele>
        <time>2022-10-01T15:33:43.000Z</time>
      </trkpt>
      <trkpt lat="44.3872" lon="7.45238">
        <ele>565.5</ele>
        <time>2022-10-01T15:33:45.000Z</time>
      </trkpt>
      <trkpt lat="44.38715" lon="7.45253">
        <ele>565.5</ele>
        <time>2022-10-01T15:33:47.000Z</time>
      </trkpt>
      <trkpt lat="44.3871" lon="7.45267">
        <ele>564.8</ele>
        <time>2022-10-01T15:33:49.000Z</time>
      </trkpt>
      <trkpt lat="44.38702" lon="7.45283">
        <ele>565.3</ele>
        <time>2022-10-01T15:33:51.000Z</time>
      </trkpt>
      <trkpt lat="44.38695" lon="7.453">
        <ele>565.5</ele>
        <time>2022-10-01T15:33:53.000Z</time>
      </trkpt>
      <trkpt lat="44.38688" lon="7.45318">
        <ele>565.5</ele>
        <time>2022-10-01T15:33:55.000Z</time>
      </trkpt>
      <trkpt lat="44.38681" lon="7.45337">
        <ele>565.4</ele>
        <time>2022-10-01T15:33:57.000Z</time>
      </trkpt>
      <trkpt lat="44.38674" lon="7.45355">
        <ele>565.5</ele>
        <time>2022-10-01T15:33:59.000Z</time>
      </trkpt>
      <trkpt lat="44.38667" lon="7.4537">
        <ele>565.5</ele>
        <time>2022-10-01T15:34:01.000Z</time>
      </trkpt>
      <trkpt lat="44.3866" lon="7.45385">
        <ele>564.6</ele>
        <time>2022-10-01T15:34:03.000Z</time>
      </trkpt>
      <trkpt lat="44.38655" lon="7.45398">
        <ele>565.3</ele>
        <time>2022-10-01T15:34:05.000Z</time>
      </trkpt>
      <trkpt lat="44.38649" lon="7.4541">
        <ele>565.5</ele>
        <time>2022-10-01T15:34:07.000Z</time>
      </trkpt>
      <trkpt lat="44.38647" lon="7.45422">
        <ele>565.5</ele>
        <time>2022-10-01T15:34:09.000Z</time>
      </trkpt>
      <trkpt lat="44.38646" lon="7.45435">
        <ele>564.8</ele>
        <time>2022-10-01T15:34:11.000Z</time>
      </trkpt>
      <trkpt lat="44.38644" lon="7.45452">
        <ele>565.3</ele>
        <time>2022-10-01T15:34:14.000Z</time>
      </trkpt>
      <trkpt lat="44.38639" lon="7.45468">
        <ele>565.5</ele>
        <time>2022-10-01T15:34:17.000Z</time>
      </trkpt>
      <trkpt lat="44.38636" lon="7.45483">
        <ele>565.5</ele>
        <time>2022-10-01T15:34:19.000Z</time>
      </trkpt>
      <trkpt lat="44.38633" lon="7.45496">
        <ele>564.8</ele>
        <time>2022-10-01T15:34:21.000Z</time>
      </trkpt>
      <trkpt lat="44.3863" lon="7.45511">
        <ele>564.6</ele>
        <time>2022-10-01T15:34:23.000Z</time>
      </trkpt>
      <trkpt lat="44.38627" lon="7.45525">
        <ele>564.5</ele>
        <time>2022-10-01T15:34:25.000Z</time>
      </trkpt>
      <trkpt lat="44.38622" lon="7.45539">
        <ele>565.5</ele>
        <time>2022-10-01T15:34:27.000Z</time>
      </trkpt>
      <trkpt lat="44.38619" lon="7.45552">
        <ele>565.5</ele>
        <time>2022-10-01T15:34:29.000Z</time>
      </trkpt>
      <trkpt lat="44.38616" lon="7.45565">
        <ele>564.6</ele>
        <time>2022-10-01T15:34:31.000Z</time>
      </trkpt>
      <trkpt lat="44.38613" lon="7.45579">
        <ele>564.5</ele>
        <time>2022-10-01T15:34:33.000Z</time>
      </trkpt>
      <trkpt lat="44.3861" lon="7.45591">
        <ele>564.5</ele>
        <time>2022-10-01T15:34:35.000Z</time>
      </trkpt>
      <trkpt lat="44.38608" lon="7.45604">
        <ele>563.6</ele>
        <time>2022-10-01T15:34:37.000Z</time>
      </trkpt>
      <trkpt lat="44.38603" lon="7.45622">
        <ele>564.5</ele>
        <time>2022-10-01T15:34:40.000Z</time>
      </trkpt>
      <trkpt lat="44.38598" lon="7.45638">
        <ele>564.5</ele>
        <time>2022-10-01T15:34:43.000Z</time>
      </trkpt>
      <trkpt lat="44.38594" lon="7.4565">
        <ele>564.5</ele>
        <time>2022-10-01T15:34:45.000Z</time>
      </trkpt>
      <trkpt lat="44.38589" lon="7.45665">
        <ele>564.5</ele>
        <time>2022-10-01T15:34:48.000Z</time>
      </trkpt>
      <trkpt lat="44.38584" lon="7.45679">
        <ele>564.6</ele>
        <time>2022-10-01T15:34:51.000Z</time>
      </trkpt>
      <trkpt lat="44.3858" lon="7.45692">
        <ele>565.5</ele>
        <time>2022-10-01T15:34:54.000Z</time>
      </trkpt>
      <trkpt lat="44.38576" lon="7.45707">
        <ele>566.3</ele>
        <time>2022-10-01T15:34:57.000Z</time>
      </trkpt>
      <trkpt lat="44.38574" lon="7.45722">
        <ele>566.5</ele>
        <time>2022-10-01T15:35:00.000Z</time>
      </trkpt>
      <trkpt lat="44.38572" lon="7.45736">
        <ele>566.5</ele>
        <time>2022-10-01T15:35:03.000Z</time>
      </trkpt>
      <trkpt lat="44.38569" lon="7.4575">
        <ele>567.3</ele>
        <time>2022-10-01T15:35:06.000Z</time>
      </trkpt>
      <trkpt lat="44.38567" lon="7.45763">
        <ele>567.5</ele>
        <time>2022-10-01T15:35:09.000Z</time>
      </trkpt>
      <trkpt lat="44.38565" lon="7.45776">
        <ele>567.5</ele>
        <time>2022-10-01T15:35:12.000Z</time>
      </trkpt>
      <trkpt lat="44.38562" lon="7.45789">
        <ele>567.5</ele>
        <time>2022-10-01T15:35:15.000Z</time>
      </trkpt>
      <trkpt lat="44.38557" lon="7.45807">
        <ele>567.5</ele>
        <time>2022-10-01T15:35:19.000Z</time>
      </trkpt>
      <trkpt lat="44.38552" lon="7.45819">
        <ele>567.5</ele>
        <time>2022-10-01T15:35:21.000Z</time>
      </trkpt>
      <trkpt lat="44.38545" lon="7.4583">
        <ele>566.8</ele>
        <time>2022-10-01T15:35:25.000Z</time>
      </trkpt>
      <trkpt lat="44.38537" lon="7.45841">
        <ele>567.5</ele>
        <time>2022-10-01T15:35:27.000Z</time>
      </trkpt>
      <trkpt lat="44.38537" lon="7.4584">
        <ele>567.5</ele>
        <time>2022-10-01T15:35:28.000Z</time>
      </trkpt>
      <trkpt lat="44.38535" lon="7.45843">
        <ele>567.5</ele>
        <time>2022-10-01T15:35:28.000Z</time>
      </trkpt>
      <trkpt lat="44.38525" lon="7.45852">
        <ele>568.3</ele>
        <time>2022-10-01T15:35:32.000Z</time>
      </trkpt>
      <trkpt lat="44.38519" lon="7.45859">
        <ele>569.5</ele>
        <time>2022-10-01T15:35:33.000Z</time>
      </trkpt>
      <trkpt lat="44.38516" lon="7.45862">
        <ele>569.5</ele>
        <time>2022-10-01T15:35:34.000Z</time>
      </trkpt>
      <trkpt lat="44.38517" lon="7.45861">
        <ele>569.5</ele>
        <time>2022-10-01T15:35:35.000Z</time>
      </trkpt>
      <trkpt lat="44.38514" lon="7.45865">
        <ele>569.5</ele>
        <time>2022-10-01T15:35:36.000Z</time>
      </trkpt>
      <trkpt lat="44.38503" lon="7.4588">
        <ele>569.6</ele>
        <time>2022-10-01T15:35:39.000Z</time>
      </trkpt>
      <trkpt lat="44.38504" lon="7.45879">
        <ele>569.8</ele>
        <time>2022-10-01T15:35:40.000Z</time>
      </trkpt>
      <trkpt lat="44.38502" lon="7.45883">
        <ele>569.6</ele>
        <time>2022-10-01T15:35:40.000Z</time>
      </trkpt>
      <trkpt lat="44.38498" lon="7.45889">
        <ele>570.5</ele>
        <time>2022-10-01T15:35:41.000Z</time>
      </trkpt>
      <trkpt lat="44.38496" lon="7.45891">
        <ele>570.5</ele>
        <time>2022-10-01T15:35:43.000Z</time>
      </trkpt>
      <trkpt lat="44.38494" lon="7.45895">
        <ele>570.5</ele>
        <time>2022-10-01T15:35:43.000Z</time>
      </trkpt>
      <trkpt lat="44.38492" lon="7.45897">
        <ele>570.5</ele>
        <time>2022-10-01T15:35:44.000Z</time>
      </trkpt>
      <trkpt lat="44.38489" lon="7.45903">
        <ele>570.5</ele>
        <time>2022-10-01T15:35:45.000Z</time>
      </trkpt>
      <trkpt lat="44.38488" lon="7.45906">
        <ele>570.5</ele>
        <time>2022-10-01T15:35:46.000Z</time>
      </trkpt>
      <trkpt lat="44.38481" lon="7.4592">
        <ele>571.3</ele>
        <time>2022-10-01T15:35:50.000Z</time>
      </trkpt>
      <trkpt lat="44.38476" lon="7.45933">
        <ele>571.5</ele>
        <time>2022-10-01T15:35:53.000Z</time>
      </trkpt>
      <trkpt lat="44.38471" lon="7.45948">
        <ele>571.5</ele>
        <time>2022-10-01T15:35:55.000Z</time>
      </trkpt>
      <trkpt lat="44.3847" lon="7.45952">
        <ele>571.5</ele>
        <time>2022-10-01T15:35:56.000Z</time>
      </trkpt>
      <trkpt lat="44.38471" lon="7.45947">
        <ele>571.5</ele>
        <time>2022-10-01T15:35:56.000Z</time>
      </trkpt>
      <trkpt lat="44.38469" lon="7.45955">
        <ele>571.5</ele>
        <time>2022-10-01T15:35:57.000Z</time>
      </trkpt>
      <trkpt lat="44.3847" lon="7.4595">
        <ele>571.5</ele>
        <time>2022-10-01T15:35:57.000Z</time>
      </trkpt>
      <trkpt lat="44.38469" lon="7.45954">
        <ele>571.5</ele>
        <time>2022-10-01T15:35:58.000Z</time>
      </trkpt>
      <trkpt lat="44.38468" lon="7.45958">
        <ele>571.5</ele>
        <time>2022-10-01T15:35:59.000Z</time>
      </trkpt>
      <trkpt lat="44.38463" lon="7.45973">
        <ele>571.5</ele>
        <time>2022-10-01T15:36:02.000Z</time>
      </trkpt>
      <trkpt lat="44.38458" lon="7.45992">
        <ele>571.5</ele>
        <time>2022-10-01T15:36:06.000Z</time>
      </trkpt>
      <trkpt lat="44.38458" lon="7.45991">
        <ele>571.5</ele>
        <time>2022-10-01T15:36:07.000Z</time>
      </trkpt>
      <trkpt lat="44.38458" lon="7.45994">
        <ele>571.5</ele>
        <time>2022-10-01T15:36:07.000Z</time>
      </trkpt>
      <trkpt lat="44.38455" lon="7.46011">
        <ele>571.5</ele>
        <time>2022-10-01T15:36:11.000Z</time>
      </trkpt>
      <trkpt lat="44.38454" lon="7.46026">
        <ele>572.5</ele>
        <time>2022-10-01T15:36:14.000Z</time>
      </trkpt>
      <trkpt lat="44.38454" lon="7.46039">
        <ele>572.5</ele>
        <time>2022-10-01T15:36:16.000Z</time>
      </trkpt>
      <trkpt lat="44.38454" lon="7.4605">
        <ele>573.5</ele>
        <time>2022-10-01T15:36:17.000Z</time>
      </trkpt>
      <trkpt lat="44.38454" lon="7.46054">
        <ele>573.5</ele>
        <time>2022-10-01T15:36:19.000Z</time>
      </trkpt>
      <trkpt lat="44.38455" lon="7.46072">
        <ele>573.5</ele>
        <time>2022-10-01T15:36:22.000Z</time>
      </trkpt>
      <trkpt lat="44.38457" lon="7.46086">
        <ele>573.5</ele>
        <time>2022-10-01T15:36:24.000Z</time>
      </trkpt>
      <trkpt lat="44.38458" lon="7.461">
        <ele>573.5</ele>
        <time>2022-10-01T15:36:26.000Z</time>
      </trkpt>
      <trkpt lat="44.3846" lon="7.46114">
        <ele>573.5</ele>
        <time>2022-10-01T15:36:28.000Z</time>
      </trkpt>
      <trkpt lat="44.38463" lon="7.46128">
        <ele>572.6</ele>
        <time>2022-10-01T15:36:30.000Z</time>
      </trkpt>
      <trkpt lat="44.38465" lon="7.46143">
        <ele>572.5</ele>
        <time>2022-10-01T15:36:32.000Z</time>
      </trkpt>
      <trkpt lat="44.38468" lon="7.46158">
        <ele>572.5</ele>
        <time>2022-10-01T15:36:34.000Z</time>
      </trkpt>
      <trkpt lat="44.38471" lon="7.46174">
        <ele>572.5</ele>
        <time>2022-10-01T15:36:36.000Z</time>
      </trkpt>
      <trkpt lat="44.38474" lon="7.46189">
        <ele>572.5</ele>
        <time>2022-10-01T15:36:38.000Z</time>
      </trkpt>
      <trkpt lat="44.38479" lon="7.46205">
        <ele>571.6</ele>
        <time>2022-10-01T15:36:40.000Z</time>
      </trkpt>
      <trkpt lat="44.38484" lon="7.4622">
        <ele>571.5</ele>
        <time>2022-10-01T15:36:42.000Z</time>
      </trkpt>
      <trkpt lat="44.38489" lon="7.46235">
        <ele>570.8</ele>
        <time>2022-10-01T15:36:44.000Z</time>
      </trkpt>
      <trkpt lat="44.38494" lon="7.4625">
        <ele>570.6</ele>
        <time>2022-10-01T15:36:46.000Z</time>
      </trkpt>
      <trkpt lat="44.38498" lon="7.46264">
        <ele>570.5</ele>
        <time>2022-10-01T15:36:48.000Z</time>
      </trkpt>
      <trkpt lat="44.38502" lon="7.46277">
        <ele>570.5</ele>
        <time>2022-10-01T15:36:50.000Z</time>
      </trkpt>
      <trkpt lat="44.38507" lon="7.4629">
        <ele>570.5</ele>
        <time>2022-10-01T15:36:52.000Z</time>
      </trkpt>
      <trkpt lat="44.38511" lon="7.46301">
        <ele>570.5</ele>
        <time>2022-10-01T15:36:54.000Z</time>
      </trkpt>
      <trkpt lat="44.38518" lon="7.46316">
        <ele>570.5</ele>
        <time>2022-10-01T15:36:57.000Z</time>
      </trkpt>
      <trkpt lat="44.38523" lon="7.46329">
        <ele>575.4</ele>
        <time>2022-10-01T15:36:59.000Z</time>
      </trkpt>
      <trkpt lat="44.38524" lon="7.46328">
        <ele>570.5</ele>
        <time>2022-10-01T15:37:00.000Z</time>
      </trkpt>
      <trkpt lat="44.38524" lon="7.46332">
        <ele>576.6</ele>
        <time>2022-10-01T15:37:00.000Z</time>
      </trkpt>
      <trkpt lat="44.38513" lon="7.46336">
        <ele>577</ele>
        <time>2022-10-01T15:37:04.000Z</time>
      </trkpt>
      <trkpt lat="44.38499" lon="7.4634">
        <ele>577</ele>
        <time>2022-10-01T15:37:08.000Z</time>
      </trkpt>
      <trkpt lat="44.38495" lon="7.46342">
        <ele>577</ele>
        <time>2022-10-01T15:37:09.000Z</time>
      </trkpt>
      <trkpt lat="44.38492" lon="7.46343">
        <ele>577</ele>
        <time>2022-10-01T15:37:11.000Z</time>
      </trkpt>
      <trkpt lat="44.38483" lon="7.46346">
        <ele>577</ele>
        <time>2022-10-01T15:37:13.000Z</time>
      </trkpt>
      <trkpt lat="44.38473" lon="7.46348">
        <ele>577</ele>
        <time>2022-10-01T15:37:16.000Z</time>
      </trkpt>
      <trkpt lat="44.3846" lon="7.46351">
        <ele>577</ele>
        <time>2022-10-01T15:37:19.000Z</time>
      </trkpt>
      <trkpt lat="44.3845" lon="7.46355">
        <ele>577</ele>
        <time>2022-10-01T15:37:23.000Z</time>
      </trkpt>
      <trkpt lat="44.38444" lon="7.4636">
        <ele>577</ele>
        <time>2022-10-01T15:37:24.000Z</time>
      </trkpt>
      <trkpt lat="44.38442" lon="7.46361">
        <ele>577</ele>
        <time>2022-10-01T15:37:25.000Z</time>
      </trkpt>
      <trkpt lat="44.38432" lon="7.46368">
        <ele>577</ele>
        <time>2022-10-01T15:37:29.000Z</time>
      </trkpt>
      <trkpt lat="44.38423" lon="7.46375">
        <ele>577</ele>
        <time>2022-10-01T15:37:32.000Z</time>
      </trkpt>
      <trkpt lat="44.38419" lon="7.46379">
        <ele>577</ele>
        <time>2022-10-01T15:37:32.000Z</time>
      </trkpt>
      <trkpt lat="44.38417" lon="7.46381">
        <ele>577</ele>
        <time>2022-10-01T15:37:33.000Z</time>
      </trkpt>
      <trkpt lat="44.38411" lon="7.46402">
        <ele>577</ele>
        <time>2022-10-01T15:37:39.000Z</time>
      </trkpt>
      <trkpt lat="44.38408" lon="7.46416">
        <ele>577</ele>
        <time>2022-10-01T15:37:41.000Z</time>
      </trkpt>
      <trkpt lat="44.38401" lon="7.46431">
        <ele>577</ele>
        <time>2022-10-01T15:37:44.000Z</time>
      </trkpt>
      <trkpt lat="44.38399" lon="7.46446">
        <ele>577</ele>
        <time>2022-10-01T15:37:47.000Z</time>
      </trkpt>
      <trkpt lat="44.38401" lon="7.46465">
        <ele>577</ele>
        <time>2022-10-01T15:37:51.000Z</time>
      </trkpt>
      <trkpt lat="44.38411" lon="7.46483">
        <ele>577</ele>
        <time>2022-10-01T15:37:55.000Z</time>
      </trkpt>
      <trkpt lat="44.38417" lon="7.46493">
        <ele>577</ele>
        <time>2022-10-01T15:37:57.000Z</time>
      </trkpt>
      <trkpt lat="44.38414" lon="7.46508">
        <ele>577</ele>
        <time>2022-10-01T15:38:00.000Z</time>
      </trkpt>
      <trkpt lat="44.38404" lon="7.46515">
        <ele>577</ele>
        <time>2022-10-01T15:38:03.000Z</time>
      </trkpt>
      <trkpt lat="44.38395" lon="7.46528">
        <ele>577</ele>
        <time>2022-10-01T15:38:05.000Z</time>
      </trkpt>
      <trkpt lat="44.38388" lon="7.46539">
        <ele>577</ele>
        <time>2022-10-01T15:38:08.000Z</time>
      </trkpt>
      <trkpt lat="44.38378" lon="7.46548">
        <ele>577</ele>
        <time>2022-10-01T15:38:10.000Z</time>
      </trkpt>
      <trkpt lat="44.38369" lon="7.46557">
        <ele>577</ele>
        <time>2022-10-01T15:38:12.000Z</time>
      </trkpt>
      <trkpt lat="44.38363" lon="7.46565">
        <ele>577</ele>
        <time>2022-10-01T15:38:14.000Z</time>
      </trkpt>
      <trkpt lat="44.38361" lon="7.46567">
        <ele>577</ele>
        <time>2022-10-01T15:38:15.000Z</time>
      </trkpt>
      <trkpt lat="44.38354" lon="7.46576">
        <ele>577</ele>
        <time>2022-10-01T15:38:18.000Z</time>
      </trkpt>
      <trkpt lat="44.38342" lon="7.4658">
        <ele>577</ele>
        <time>2022-10-01T15:38:20.000Z</time>
      </trkpt>
      <trkpt lat="44.38328" lon="7.4658">
        <ele>577</ele>
        <time>2022-10-01T15:38:23.000Z</time>
      </trkpt>
      <trkpt lat="44.38317" lon="7.46581">
        <ele>577</ele>
        <time>2022-10-01T15:38:26.000Z</time>
      </trkpt>
      <trkpt lat="44.38302" lon="7.46584">
        <ele>576.7</ele>
        <time>2022-10-01T15:38:30.000Z</time>
      </trkpt>
      <trkpt lat="44.38294" lon="7.46585">
        <ele>576.5</ele>
        <time>2022-10-01T15:38:32.000Z</time>
      </trkpt>
      <trkpt lat="44.38292" lon="7.46584">
        <ele>576.5</ele>
        <time>2022-10-01T15:38:33.000Z</time>
      </trkpt>
      <trkpt lat="44.38282" lon="7.46586">
        <ele>576.5</ele>
        <time>2022-10-01T15:38:38.000Z</time>
      </trkpt>
      <trkpt lat="44.38274" lon="7.46599">
        <ele>576.5</ele>
        <time>2022-10-01T15:38:42.000Z</time>
      </trkpt>
      <trkpt lat="44.38274" lon="7.46603">
        <ele>576.5</ele>
        <time>2022-10-01T15:38:42.000Z</time>
      </trkpt>
      <trkpt lat="44.38274" lon="7.46607">
        <ele>576.5</ele>
        <time>2022-10-01T15:38:44.000Z</time>
      </trkpt>
      <trkpt lat="44.38273" lon="7.46621">
        <ele>575.6</ele>
        <time>2022-10-01T15:38:46.000Z</time>
      </trkpt>
      <trkpt lat="44.38271" lon="7.46638">
        <ele>575.5</ele>
        <time>2022-10-01T15:38:48.000Z</time>
      </trkpt>
      <trkpt lat="44.38273" lon="7.46637">
        <ele>575.3</ele>
        <time>2022-10-01T15:38:49.000Z</time>
      </trkpt>
      <trkpt lat="44.38269" lon="7.4664">
        <ele>574.8</ele>
        <time>2022-10-01T15:38:50.000Z</time>
      </trkpt>
      <trkpt lat="44.3826" lon="7.46634">
        <ele>574.5</ele>
        <time>2022-10-01T15:38:51.000Z</time>
      </trkpt>
      <trkpt lat="44.38258" lon="7.46633">
        <ele>574.5</ele>
        <time>2022-10-01T15:38:53.000Z</time>
      </trkpt>
      <trkpt lat="44.38252" lon="7.46632">
        <ele>575.5</ele>
        <time>2022-10-01T15:38:53.000Z</time>
      </trkpt>
      <trkpt lat="44.3825" lon="7.46632">
        <ele>575.5</ele>
        <time>2022-10-01T15:38:55.000Z</time>
      </trkpt>
      <trkpt lat="44.3824" lon="7.46632">
        <ele>575.5</ele>
        <time>2022-10-01T15:38:58.000Z</time>
      </trkpt>
      <trkpt lat="44.38225" lon="7.46635">
        <ele>575.5</ele>
        <time>2022-10-01T15:39:01.000Z</time>
      </trkpt>
      <trkpt lat="44.3822" lon="7.46635">
        <ele>575.5</ele>
        <time>2022-10-01T15:39:02.000Z</time>
      </trkpt>
      <trkpt lat="44.38226" lon="7.46635">
        <ele>575.5</ele>
        <time>2022-10-01T15:39:02.000Z</time>
      </trkpt>
      <trkpt lat="44.38222" lon="7.46635">
        <ele>575.5</ele>
        <time>2022-10-01T15:39:03.000Z</time>
      </trkpt>
      <trkpt lat="44.38218" lon="7.46635">
        <ele>575.5</ele>
        <time>2022-10-01T15:39:04.000Z</time>
      </trkpt>
      <trkpt lat="44.38203" lon="7.46635">
        <ele>574.5</ele>
        <time>2022-10-01T15:39:07.000Z</time>
      </trkpt>
      <trkpt lat="44.38192" lon="7.46635">
        <ele>574.5</ele>
        <time>2022-10-01T15:39:11.000Z</time>
      </trkpt>
      <trkpt lat="44.38183" lon="7.46638">
        <ele>574.5</ele>
        <time>2022-10-01T15:39:13.000Z</time>
      </trkpt>
      <trkpt lat="44.38172" lon="7.4664">
        <ele>574.5</ele>
        <time>2022-10-01T15:39:16.000Z</time>
      </trkpt>
      <trkpt lat="44.38173" lon="7.4664">
        <ele>574.5</ele>
        <time>2022-10-01T15:39:17.000Z</time>
      </trkpt>
      <trkpt lat="44.3817" lon="7.46641">
        <ele>574.5</ele>
        <time>2022-10-01T15:39:17.000Z</time>
      </trkpt>
      <trkpt lat="44.38159" lon="7.46646">
        <ele>574.5</ele>
        <time>2022-10-01T15:39:21.000Z</time>
      </trkpt>
      <trkpt lat="44.38149" lon="7.46647">
        <ele>574.5</ele>
        <time>2022-10-01T15:39:25.000Z</time>
      </trkpt>
      <trkpt lat="44.38144" lon="7.46632">
        <ele>574.5</ele>
        <time>2022-10-01T15:39:28.000Z</time>
      </trkpt>
      <trkpt lat="44.3814" lon="7.46616">
        <ele>574.5</ele>
        <time>2022-10-01T15:39:31.000Z</time>
      </trkpt>
      <trkpt lat="44.38141" lon="7.46617">
        <ele>574.5</ele>
        <time>2022-10-01T15:39:32.000Z</time>
      </trkpt>
      <trkpt lat="44.38139" lon="7.46613">
        <ele>574.5</ele>
        <time>2022-10-01T15:39:32.000Z</time>
      </trkpt>
      <trkpt lat="44.38134" lon="7.46603">
        <ele>575.5</ele>
        <time>2022-10-01T15:39:34.000Z</time>
      </trkpt>
      <trkpt lat="44.38132" lon="7.46601">
        <ele>576.3</ele>
        <time>2022-10-01T15:39:36.000Z</time>
      </trkpt>
      <trkpt lat="44.3812" lon="7.46593">
        <ele>576.5</ele>
        <time>2022-10-01T15:39:39.000Z</time>
      </trkpt>
      <trkpt lat="44.3811" lon="7.46584">
        <ele>576.5</ele>
        <time>2022-10-01T15:39:43.000Z</time>
      </trkpt>
      <trkpt lat="44.38099" lon="7.46575">
        <ele>576.5</ele>
        <time>2022-10-01T15:39:47.000Z</time>
      </trkpt>
      <trkpt lat="44.38095" lon="7.46572">
        <ele>576.5</ele>
        <time>2022-10-01T15:39:48.000Z</time>
      </trkpt>
      <trkpt lat="44.38093" lon="7.4657">
        <ele>576.5</ele>
        <time>2022-10-01T15:39:49.000Z</time>
      </trkpt>
      <trkpt lat="44.3809" lon="7.46567">
        <ele>576.5</ele>
        <time>2022-10-01T15:39:50.000Z</time>
      </trkpt>
      <trkpt lat="44.38088" lon="7.46566">
        <ele>576.5</ele>
        <time>2022-10-01T15:39:51.000Z</time>
      </trkpt>
      <trkpt lat="44.38078" lon="7.46557">
        <ele>575.5</ele>
        <time>2022-10-01T15:39:55.000Z</time>
      </trkpt>
      <trkpt lat="44.38074" lon="7.46553">
        <ele>575.5</ele>
        <time>2022-10-01T15:39:56.000Z</time>
      </trkpt>
      <trkpt lat="44.38072" lon="7.46551">
        <ele>575.5</ele>
        <time>2022-10-01T15:39:57.000Z</time>
      </trkpt>
      <trkpt lat="44.38065" lon="7.46542">
        <ele>576.5</ele>
        <time>2022-10-01T15:40:00.000Z</time>
      </trkpt>
      <trkpt lat="44.38057" lon="7.46531">
        <ele>576.5</ele>
        <time>2022-10-01T15:40:03.000Z</time>
      </trkpt>
      <trkpt lat="44.38048" lon="7.46521">
        <ele>576.5</ele>
        <time>2022-10-01T15:40:07.000Z</time>
      </trkpt>
      <trkpt lat="44.38039" lon="7.46514">
        <ele>576.5</ele>
        <time>2022-10-01T15:40:11.000Z</time>
      </trkpt>
      <trkpt lat="44.38031" lon="7.46507">
        <ele>575.8</ele>
        <time>2022-10-01T15:40:14.000Z</time>
      </trkpt>
      <trkpt lat="44.38023" lon="7.46502">
        <ele>576.5</ele>
        <time>2022-10-01T15:40:17.000Z</time>
      </trkpt>
      <trkpt lat="44.38011" lon="7.46498">
        <ele>575.6</ele>
        <time>2022-10-01T15:40:21.000Z</time>
      </trkpt>
      <trkpt lat="44.38001" lon="7.46498">
        <ele>575.5</ele>
        <time>2022-10-01T15:40:24.000Z</time>
      </trkpt>
      <trkpt lat="44.37992" lon="7.46499">
        <ele>575.7</ele>
        <time>2022-10-01T15:40:27.000Z</time>
      </trkpt>
      <trkpt lat="44.37982" lon="7.46503">
        <ele>575.5</ele>
        <time>2022-10-01T15:40:30.000Z</time>
      </trkpt>
      <trkpt lat="44.37973" lon="7.46511">
        <ele>577.2</ele>
        <time>2022-10-01T15:40:33.000Z</time>
      </trkpt>
      <trkpt lat="44.37964" lon="7.46521">
        <ele>579.3</ele>
        <time>2022-10-01T15:40:37.000Z</time>
      </trkpt>
      <trkpt lat="44.37953" lon="7.46526">
        <ele>579.5</ele>
        <time>2022-10-01T15:40:41.000Z</time>
      </trkpt>
      <trkpt lat="44.37942" lon="7.46527">
        <ele>579.5</ele>
        <time>2022-10-01T15:40:44.000Z</time>
      </trkpt>
      <trkpt lat="44.37933" lon="7.46527">
        <ele>580.5</ele>
        <time>2022-10-01T15:40:47.000Z</time>
      </trkpt>
      <trkpt lat="44.37923" lon="7.46525">
        <ele>580.5</ele>
        <time>2022-10-01T15:40:50.000Z</time>
      </trkpt>
      <trkpt lat="44.37914" lon="7.46522">
        <ele>580.6</ele>
        <time>2022-10-01T15:40:54.000Z</time>
      </trkpt>
      <trkpt lat="44.37905" lon="7.46526">
        <ele>580.5</ele>
        <time>2022-10-01T15:41:00.000Z</time>
      </trkpt>
      <trkpt lat="44.37907" lon="7.4654">
        <ele>579.8</ele>
        <time>2022-10-01T15:41:03.000Z</time>
      </trkpt>
      <trkpt lat="44.37911" lon="7.46555">
        <ele>579.3</ele>
        <time>2022-10-01T15:41:06.000Z</time>
      </trkpt>
      <trkpt lat="44.37912" lon="7.46571">
        <ele>580.3</ele>
        <time>2022-10-01T15:41:09.000Z</time>
      </trkpt>
      <trkpt lat="44.3791" lon="7.46584">
        <ele>580.7</ele>
        <time>2022-10-01T15:41:11.000Z</time>
      </trkpt>
      <trkpt lat="44.3791" lon="7.466">
        <ele>581.5</ele>
        <time>2022-10-01T15:41:14.000Z</time>
      </trkpt>
      <trkpt lat="44.37909" lon="7.46614">
        <ele>579.9</ele>
        <time>2022-10-01T15:41:16.000Z</time>
      </trkpt>
      <trkpt lat="44.37909" lon="7.46629">
        <ele>579.5</ele>
        <time>2022-10-01T15:41:19.000Z</time>
      </trkpt>
      <trkpt lat="44.37908" lon="7.46647">
        <ele>580.5</ele>
        <time>2022-10-01T15:41:22.000Z</time>
      </trkpt>
      <trkpt lat="44.37909" lon="7.46659">
        <ele>579.8</ele>
        <time>2022-10-01T15:41:24.000Z</time>
      </trkpt>
      <trkpt lat="44.37911" lon="7.46673">
        <ele>578.6</ele>
        <time>2022-10-01T15:41:26.000Z</time>
      </trkpt>
      <trkpt lat="44.37912" lon="7.4669">
        <ele>579.3</ele>
        <time>2022-10-01T15:41:29.000Z</time>
      </trkpt>
      <trkpt lat="44.37912" lon="7.46708">
        <ele>579.5</ele>
        <time>2022-10-01T15:41:32.000Z</time>
      </trkpt>
      <trkpt lat="44.37909" lon="7.46721">
        <ele>577.9</ele>
        <time>2022-10-01T15:41:34.000Z</time>
      </trkpt>
      <trkpt lat="44.37901" lon="7.46731">
        <ele>578.3</ele>
        <time>2022-10-01T15:41:37.000Z</time>
      </trkpt>
      <trkpt lat="44.37887" lon="7.46731">
        <ele>577</ele>
        <time>2022-10-01T15:41:40.000Z</time>
      </trkpt>
      <trkpt lat="44.37877" lon="7.4673">
        <ele>575.6</ele>
        <time>2022-10-01T15:41:42.000Z</time>
      </trkpt>
      <trkpt lat="44.37867" lon="7.46729">
        <ele>576.5</ele>
        <time>2022-10-01T15:41:44.000Z</time>
      </trkpt>
      <trkpt lat="44.37855" lon="7.46729">
        <ele>577.5</ele>
        <time>2022-10-01T15:41:47.000Z</time>
      </trkpt>
      <trkpt lat="44.37845" lon="7.4673">
        <ele>577.5</ele>
        <time>2022-10-01T15:41:50.000Z</time>
      </trkpt>
      <trkpt lat="44.37833" lon="7.4673">
        <ele>578.5</ele>
        <time>2022-10-01T15:41:53.000Z</time>
      </trkpt>
      <trkpt lat="44.37821" lon="7.4673">
        <ele>578.5</ele>
        <time>2022-10-01T15:41:56.000Z</time>
      </trkpt>
      <trkpt lat="44.37809" lon="7.4673">
        <ele>579.5</ele>
        <time>2022-10-01T15:41:59.000Z</time>
      </trkpt>
      <trkpt lat="44.37799" lon="7.46729">
        <ele>579.5</ele>
        <time>2022-10-01T15:42:02.000Z</time>
      </trkpt>
      <trkpt lat="44.37789" lon="7.46731">
        <ele>579.5</ele>
        <time>2022-10-01T15:42:06.000Z</time>
      </trkpt>
      <trkpt lat="44.37778" lon="7.46731">
        <ele>577.9</ele>
        <time>2022-10-01T15:42:11.000Z</time>
      </trkpt>
      <trkpt lat="44.37776" lon="7.46747">
        <ele>577.6</ele>
        <time>2022-10-01T15:42:17.000Z</time>
      </trkpt>
      <trkpt lat="44.37785" lon="7.46761">
        <ele>576.6</ele>
        <time>2022-10-01T15:42:20.000Z</time>
      </trkpt>
      <trkpt lat="44.37793" lon="7.46772">
        <ele>577.5</ele>
        <time>2022-10-01T15:42:22.000Z</time>
      </trkpt>
      <trkpt lat="44.37803" lon="7.46786">
        <ele>577.5</ele>
        <time>2022-10-01T15:42:25.000Z</time>
      </trkpt>
      <trkpt lat="44.37811" lon="7.46798">
        <ele>578.5</ele>
        <time>2022-10-01T15:42:28.000Z</time>
      </trkpt>
      <trkpt lat="44.37818" lon="7.46813">
        <ele>580.3</ele>
        <time>2022-10-01T15:42:31.000Z</time>
      </trkpt>
      <trkpt lat="44.37827" lon="7.46826">
        <ele>581.5</ele>
        <time>2022-10-01T15:42:34.000Z</time>
      </trkpt>
      <trkpt lat="44.37834" lon="7.46835">
        <ele>581.5</ele>
        <time>2022-10-01T15:42:36.000Z</time>
      </trkpt>
      <trkpt lat="44.37842" lon="7.46843">
        <ele>581.5</ele>
        <time>2022-10-01T15:42:38.000Z</time>
      </trkpt>
      <trkpt lat="44.3785" lon="7.46852">
        <ele>581.4</ele>
        <time>2022-10-01T15:42:40.000Z</time>
      </trkpt>
      <trkpt lat="44.37857" lon="7.46861">
        <ele>583.2</ele>
        <time>2022-10-01T15:42:42.000Z</time>
      </trkpt>
      <trkpt lat="44.37865" lon="7.46875">
        <ele>582.6</ele>
        <time>2022-10-01T15:42:45.000Z</time>
      </trkpt>
      <trkpt lat="44.37873" lon="7.46886">
        <ele>582.5</ele>
        <time>2022-10-01T15:42:48.000Z</time>
      </trkpt>
      <trkpt lat="44.37881" lon="7.46897">
        <ele>580.6</ele>
        <time>2022-10-01T15:42:51.000Z</time>
      </trkpt>
      <trkpt lat="44.3789" lon="7.46912">
        <ele>582.3</ele>
        <time>2022-10-01T15:42:54.000Z</time>
      </trkpt>
      <trkpt lat="44.37898" lon="7.46924">
        <ele>582.5</ele>
        <time>2022-10-01T15:42:56.000Z</time>
      </trkpt>
      <trkpt lat="44.37905" lon="7.46937">
        <ele>581.8</ele>
        <time>2022-10-01T15:42:59.000Z</time>
      </trkpt>
      <trkpt lat="44.37911" lon="7.46949">
        <ele>582.5</ele>
        <time>2022-10-01T15:43:01.000Z</time>
      </trkpt>
      <trkpt lat="44.37915" lon="7.46962">
        <ele>583.3</ele>
        <time>2022-10-01T15:43:04.000Z</time>
      </trkpt>
      <trkpt lat="44.37921" lon="7.46976">
        <ele>582.6</ele>
        <time>2022-10-01T15:43:06.000Z</time>
      </trkpt>
      <trkpt lat="44.37927" lon="7.46988">
        <ele>582.5</ele>
        <time>2022-10-01T15:43:08.000Z</time>
      </trkpt>
      <trkpt lat="44.37931" lon="7.47">
        <ele>582.5</ele>
        <time>2022-10-01T15:43:10.000Z</time>
      </trkpt>
      <trkpt lat="44.37934" lon="7.47013">
        <ele>582.5</ele>
        <time>2022-10-01T15:43:12.000Z</time>
      </trkpt>
      <trkpt lat="44.37936" lon="7.47026">
        <ele>582.5</ele>
        <time>2022-10-01T15:43:14.000Z</time>
      </trkpt>
      <trkpt lat="44.37939" lon="7.47039">
        <ele>582.5</ele>
        <time>2022-10-01T15:43:16.000Z</time>
      </trkpt>
      <trkpt lat="44.37942" lon="7.47056">
        <ele>582.5</ele>
        <time>2022-10-01T15:43:19.000Z</time>
      </trkpt>
      <trkpt lat="44.37944" lon="7.47069">
        <ele>582.5</ele>
        <time>2022-10-01T15:43:21.000Z</time>
      </trkpt>
      <trkpt lat="44.37947" lon="7.4708">
        <ele>585.8</ele>
        <time>2022-10-01T15:43:22.000Z</time>
      </trkpt>
      <trkpt lat="44.37948" lon="7.47085">
        <ele>586.4</ele>
        <time>2022-10-01T15:43:24.000Z</time>
      </trkpt>
      <trkpt lat="44.37951" lon="7.471">
        <ele>586.5</ele>
        <time>2022-10-01T15:43:27.000Z</time>
      </trkpt>
      <trkpt lat="44.37954" lon="7.47113">
        <ele>586.5</ele>
        <time>2022-10-01T15:43:30.000Z</time>
      </trkpt>
      <trkpt lat="44.37947" lon="7.47124">
        <ele>586.5</ele>
        <time>2022-10-01T15:43:36.000Z</time>
      </trkpt>
      <trkpt lat="44.37935" lon="7.47135">
        <ele>586.5</ele>
        <time>2022-10-01T15:43:40.000Z</time>
      </trkpt>
      <trkpt lat="44.37927" lon="7.47142">
        <ele>586.5</ele>
        <time>2022-10-01T15:43:44.000Z</time>
      </trkpt>
      <trkpt lat="44.37918" lon="7.47151">
        <ele>586.5</ele>
        <time>2022-10-01T15:43:48.000Z</time>
      </trkpt>
      <trkpt lat="44.37911" lon="7.47159">
        <ele>586.5</ele>
        <time>2022-10-01T15:43:51.000Z</time>
      </trkpt>
      <trkpt lat="44.37904" lon="7.47168">
        <ele>586.5</ele>
        <time>2022-10-01T15:43:54.000Z</time>
      </trkpt>
      <trkpt lat="44.37897" lon="7.47178">
        <ele>586.5</ele>
        <time>2022-10-01T15:43:57.000Z</time>
      </trkpt>
      <trkpt lat="44.37889" lon="7.47188">
        <ele>586.5</ele>
        <time>2022-10-01T15:44:00.000Z</time>
      </trkpt>
      <trkpt lat="44.37881" lon="7.47198">
        <ele>586.5</ele>
        <time>2022-10-01T15:44:03.000Z</time>
      </trkpt>
      <trkpt lat="44.37873" lon="7.47208">
        <ele>586.5</ele>
        <time>2022-10-01T15:44:06.000Z</time>
      </trkpt>
      <trkpt lat="44.37865" lon="7.47215">
        <ele>586.5</ele>
        <time>2022-10-01T15:44:09.000Z</time>
      </trkpt>
      <trkpt lat="44.37855" lon="7.47226">
        <ele>586.5</ele>
        <time>2022-10-01T15:44:12.000Z</time>
      </trkpt>
      <trkpt lat="44.37847" lon="7.47234">
        <ele>586.5</ele>
        <time>2022-10-01T15:44:15.000Z</time>
      </trkpt>
      <trkpt lat="44.3784" lon="7.47243">
        <ele>586.5</ele>
        <time>2022-10-01T15:44:18.000Z</time>
      </trkpt>
      <trkpt lat="44.37832" lon="7.47254">
        <ele>586.5</ele>
        <time>2022-10-01T15:44:21.000Z</time>
      </trkpt>
      <trkpt lat="44.37822" lon="7.47264">
        <ele>586.5</ele>
        <time>2022-10-01T15:44:24.000Z</time>
      </trkpt>
      <trkpt lat="44.37814" lon="7.47273">
        <ele>586.5</ele>
        <time>2022-10-01T15:44:27.000Z</time>
      </trkpt>
      <trkpt lat="44.37806" lon="7.47282">
        <ele>586.5</ele>
        <time>2022-10-01T15:44:30.000Z</time>
      </trkpt>
      <trkpt lat="44.37797" lon="7.47293">
        <ele>586.5</ele>
        <time>2022-10-01T15:44:33.000Z</time>
      </trkpt>
      <trkpt lat="44.37789" lon="7.47302">
        <ele>586.5</ele>
        <time>2022-10-01T15:44:36.000Z</time>
      </trkpt>
      <trkpt lat="44.37782" lon="7.47312">
        <ele>586.5</ele>
        <time>2022-10-01T15:44:39.000Z</time>
      </trkpt>
      <trkpt lat="44.37774" lon="7.47322">
        <ele>586.5</ele>
        <time>2022-10-01T15:44:42.000Z</time>
      </trkpt>
      <trkpt lat="44.37767" lon="7.47332">
        <ele>586.5</ele>
        <time>2022-10-01T15:44:45.000Z</time>
      </trkpt>
      <trkpt lat="44.37758" lon="7.47342">
        <ele>586.5</ele>
        <time>2022-10-01T15:44:48.000Z</time>
      </trkpt>
      <trkpt lat="44.37749" lon="7.47353">
        <ele>586.5</ele>
        <time>2022-10-01T15:44:51.000Z</time>
      </trkpt>
      <trkpt lat="44.37741" lon="7.47363">
        <ele>587.5</ele>
        <time>2022-10-01T15:44:54.000Z</time>
      </trkpt>
      <trkpt lat="44.37732" lon="7.47372">
        <ele>587.5</ele>
        <time>2022-10-01T15:44:57.000Z</time>
      </trkpt>
      <trkpt lat="44.37723" lon="7.47381">
        <ele>587.5</ele>
        <time>2022-10-01T15:45:00.000Z</time>
      </trkpt>
      <trkpt lat="44.37716" lon="7.4739">
        <ele>587.5</ele>
        <time>2022-10-01T15:45:03.000Z</time>
      </trkpt>
      <trkpt lat="44.37708" lon="7.47397">
        <ele>587.5</ele>
        <time>2022-10-01T15:45:06.000Z</time>
      </trkpt>
      <trkpt lat="44.37699" lon="7.47405">
        <ele>587.5</ele>
        <time>2022-10-01T15:45:09.000Z</time>
      </trkpt>
      <trkpt lat="44.37691" lon="7.47414">
        <ele>587.5</ele>
        <time>2022-10-01T15:45:12.000Z</time>
      </trkpt>
      <trkpt lat="44.37682" lon="7.47424">
        <ele>587.5</ele>
        <time>2022-10-01T15:45:15.000Z</time>
      </trkpt>
      <trkpt lat="44.37675" lon="7.47432">
        <ele>586.6</ele>
        <time>2022-10-01T15:45:17.000Z</time>
      </trkpt>
      <trkpt lat="44.37666" lon="7.47437">
        <ele>586.5</ele>
        <time>2022-10-01T15:45:20.000Z</time>
      </trkpt>
      <trkpt lat="44.37657" lon="7.47445">
        <ele>586.5</ele>
        <time>2022-10-01T15:45:23.000Z</time>
      </trkpt>
      <trkpt lat="44.37648" lon="7.47453">
        <ele>587.3</ele>
        <time>2022-10-01T15:45:26.000Z</time>
      </trkpt>
      <trkpt lat="44.3764" lon="7.47459">
        <ele>587.5</ele>
        <time>2022-10-01T15:45:29.000Z</time>
      </trkpt>
      <trkpt lat="44.37632" lon="7.47467">
        <ele>588.3</ele>
        <time>2022-10-01T15:45:32.000Z</time>
      </trkpt>
      <trkpt lat="44.37623" lon="7.47475">
        <ele>588.5</ele>
        <time>2022-10-01T15:45:35.000Z</time>
      </trkpt>
      <trkpt lat="44.37614" lon="7.47484">
        <ele>589.3</ele>
        <time>2022-10-01T15:45:38.000Z</time>
      </trkpt>
      <trkpt lat="44.37605" lon="7.47492">
        <ele>589.5</ele>
        <time>2022-10-01T15:45:41.000Z</time>
      </trkpt>
      <trkpt lat="44.37595" lon="7.475">
        <ele>590.5</ele>
        <time>2022-10-01T15:45:44.000Z</time>
      </trkpt>
      <trkpt lat="44.37585" lon="7.4751">
        <ele>589.6</ele>
        <time>2022-10-01T15:45:47.000Z</time>
      </trkpt>
      <trkpt lat="44.37577" lon="7.47517">
        <ele>590.5</ele>
        <time>2022-10-01T15:45:50.000Z</time>
      </trkpt>
      <trkpt lat="44.37567" lon="7.47525">
        <ele>590.5</ele>
        <time>2022-10-01T15:45:53.000Z</time>
      </trkpt>
      <trkpt lat="44.37557" lon="7.47532">
        <ele>590.5</ele>
        <time>2022-10-01T15:45:56.000Z</time>
      </trkpt>
      <trkpt lat="44.37548" lon="7.47543">
        <ele>591.5</ele>
        <time>2022-10-01T15:45:59.000Z</time>
      </trkpt>
      <trkpt lat="44.37538" lon="7.47552">
        <ele>591.5</ele>
        <time>2022-10-01T15:46:02.000Z</time>
      </trkpt>
      <trkpt lat="44.37528" lon="7.47559">
        <ele>590.8</ele>
        <time>2022-10-01T15:46:05.000Z</time>
      </trkpt>
      <trkpt lat="44.37518" lon="7.47566">
        <ele>589.6</ele>
        <time>2022-10-01T15:46:07.000Z</time>
      </trkpt>
      <trkpt lat="44.37508" lon="7.47572">
        <ele>589.5</ele>
        <time>2022-10-01T15:46:10.000Z</time>
      </trkpt>
      <trkpt lat="44.375" lon="7.47577">
        <ele>590.5</ele>
        <time>2022-10-01T15:46:13.000Z</time>
      </trkpt>
      <trkpt lat="44.37489" lon="7.47582">
        <ele>589.8</ele>
        <time>2022-10-01T15:46:16.000Z</time>
      </trkpt>
      <trkpt lat="44.37478" lon="7.47585">
        <ele>590.5</ele>
        <time>2022-10-01T15:46:19.000Z</time>
      </trkpt>
      <trkpt lat="44.37467" lon="7.47587">
        <ele>591.5</ele>
        <time>2022-10-01T15:46:22.000Z</time>
      </trkpt>
      <trkpt lat="44.37455" lon="7.47589">
        <ele>591.5</ele>
        <time>2022-10-01T15:46:25.000Z</time>
      </trkpt>
      <trkpt lat="44.37444" lon="7.4759">
        <ele>591.5</ele>
        <time>2022-10-01T15:46:28.000Z</time>
      </trkpt>
      <trkpt lat="44.37433" lon="7.47589">
        <ele>591.5</ele>
        <time>2022-10-01T15:46:31.000Z</time>
      </trkpt>
      <trkpt lat="44.37423" lon="7.47586">
        <ele>590.7</ele>
        <time>2022-10-01T15:46:34.000Z</time>
      </trkpt>
      <trkpt lat="44.37414" lon="7.47583">
        <ele>591.5</ele>
        <time>2022-10-01T15:46:36.000Z</time>
      </trkpt>
      <trkpt lat="44.37405" lon="7.47581">
        <ele>592.5</ele>
        <time>2022-10-01T15:46:39.000Z</time>
      </trkpt>
      <trkpt lat="44.37394" lon="7.47581">
        <ele>591.5</ele>
        <time>2022-10-01T15:46:43.000Z</time>
      </trkpt>
      <trkpt lat="44.37384" lon="7.47574">
        <ele>589.6</ele>
        <time>2022-10-01T15:46:46.000Z</time>
      </trkpt>
      <trkpt lat="44.37374" lon="7.47567">
        <ele>588.8</ele>
        <time>2022-10-01T15:46:50.000Z</time>
      </trkpt>
      <trkpt lat="44.37363" lon="7.47562">
        <ele>588.5</ele>
        <time>2022-10-01T15:46:53.000Z</time>
      </trkpt>
      <trkpt lat="44.37351" lon="7.47556">
        <ele>589.5</ele>
        <time>2022-10-01T15:46:57.000Z</time>
      </trkpt>
      <trkpt lat="44.37338" lon="7.47552">
        <ele>588.3</ele>
        <time>2022-10-01T15:47:00.000Z</time>
      </trkpt>
      <trkpt lat="44.37327" lon="7.47548">
        <ele>589.5</ele>
        <time>2022-10-01T15:47:03.000Z</time>
      </trkpt>
      <trkpt lat="44.37317" lon="7.47541">
        <ele>590.3</ele>
        <time>2022-10-01T15:47:06.000Z</time>
      </trkpt>
      <trkpt lat="44.37308" lon="7.47533">
        <ele>590.5</ele>
        <time>2022-10-01T15:47:09.000Z</time>
      </trkpt>
      <trkpt lat="44.37299" lon="7.47527">
        <ele>592.3</ele>
        <time>2022-10-01T15:47:12.000Z</time>
      </trkpt>
      <trkpt lat="44.37288" lon="7.47522">
        <ele>592.5</ele>
        <time>2022-10-01T15:47:15.000Z</time>
      </trkpt>
      <trkpt lat="44.37275" lon="7.47515">
        <ele>593.5</ele>
        <time>2022-10-01T15:47:18.000Z</time>
      </trkpt>
      <trkpt lat="44.37266" lon="7.47511">
        <ele>594.3</ele>
        <time>2022-10-01T15:47:21.000Z</time>
      </trkpt>
      <trkpt lat="44.37257" lon="7.47506">
        <ele>594.5</ele>
        <time>2022-10-01T15:47:24.000Z</time>
      </trkpt>
      <trkpt lat="44.37246" lon="7.475">
        <ele>594.5</ele>
        <time>2022-10-01T15:47:27.000Z</time>
      </trkpt>
      <trkpt lat="44.37237" lon="7.47494">
        <ele>594.5</ele>
        <time>2022-10-01T15:47:30.000Z</time>
      </trkpt>
      <trkpt lat="44.37226" lon="7.47487">
        <ele>594.5</ele>
        <time>2022-10-01T15:47:33.000Z</time>
      </trkpt>
      <trkpt lat="44.37216" lon="7.47482">
        <ele>594.5</ele>
        <time>2022-10-01T15:47:36.000Z</time>
      </trkpt>
      <trkpt lat="44.37205" lon="7.47476">
        <ele>595.5</ele>
        <time>2022-10-01T15:47:39.000Z</time>
      </trkpt>
      <trkpt lat="44.37195" lon="7.4747">
        <ele>595.4</ele>
        <time>2022-10-01T15:47:42.000Z</time>
      </trkpt>
      <trkpt lat="44.37185" lon="7.47468">
        <ele>595.5</ele>
        <time>2022-10-01T15:47:45.000Z</time>
      </trkpt>
      <trkpt lat="44.37174" lon="7.47464">
        <ele>595.5</ele>
        <time>2022-10-01T15:47:48.000Z</time>
      </trkpt>
      <trkpt lat="44.37161" lon="7.4746">
        <ele>596.5</ele>
        <time>2022-10-01T15:47:51.000Z</time>
      </trkpt>
      <trkpt lat="44.37151" lon="7.47457">
        <ele>595.8</ele>
        <time>2022-10-01T15:47:54.000Z</time>
      </trkpt>
      <trkpt lat="44.37141" lon="7.47454">
        <ele>597.3</ele>
        <time>2022-10-01T15:47:57.000Z</time>
      </trkpt>
      <trkpt lat="44.37129" lon="7.47452">
        <ele>597.5</ele>
        <time>2022-10-01T15:48:00.000Z</time>
      </trkpt>
      <trkpt lat="44.37118" lon="7.4745">
        <ele>597.5</ele>
        <time>2022-10-01T15:48:03.000Z</time>
      </trkpt>
      <trkpt lat="44.37105" lon="7.47449">
        <ele>598.5</ele>
        <time>2022-10-01T15:48:06.000Z</time>
      </trkpt>
      <trkpt lat="44.37094" lon="7.47446">
        <ele>598.5</ele>
        <time>2022-10-01T15:48:09.000Z</time>
      </trkpt>
      <trkpt lat="44.37078" lon="7.47445">
        <ele>598.5</ele>
        <time>2022-10-01T15:48:13.000Z</time>
      </trkpt>
      <trkpt lat="44.3707" lon="7.47446">
        <ele>597.6</ele>
        <time>2022-10-01T15:48:14.000Z</time>
      </trkpt>
      <trkpt lat="44.37067" lon="7.47446">
        <ele>597.6</ele>
        <time>2022-10-01T15:48:15.000Z</time>
      </trkpt>
      <trkpt lat="44.37051" lon="7.47445">
        <ele>597.5</ele>
        <time>2022-10-01T15:48:19.000Z</time>
      </trkpt>
      <trkpt lat="44.37039" lon="7.47442">
        <ele>595.5</ele>
        <time>2022-10-01T15:48:23.000Z</time>
      </trkpt>
      <trkpt lat="44.37035" lon="7.47441">
        <ele>596.5</ele>
        <time>2022-10-01T15:48:23.000Z</time>
      </trkpt>
      <trkpt lat="44.37033" lon="7.47441">
        <ele>597.3</ele>
        <time>2022-10-01T15:48:25.000Z</time>
      </trkpt>
      <trkpt lat="44.3702" lon="7.47441">
        <ele>598.5</ele>
        <time>2022-10-01T15:48:27.000Z</time>
      </trkpt>
      <trkpt lat="44.37021" lon="7.47441">
        <ele>598.3</ele>
        <time>2022-10-01T15:48:28.000Z</time>
      </trkpt>
      <trkpt lat="44.37017" lon="7.4744">
        <ele>598.5</ele>
        <time>2022-10-01T15:48:29.000Z</time>
      </trkpt>
      <trkpt lat="44.37004" lon="7.4744">
        <ele>598.5</ele>
        <time>2022-10-01T15:48:31.000Z</time>
      </trkpt>
      <trkpt lat="44.36995" lon="7.4744">
        <ele>598.8</ele>
        <time>2022-10-01T15:48:34.000Z</time>
      </trkpt>
      <trkpt lat="44.36983" lon="7.47442">
        <ele>597.5</ele>
        <time>2022-10-01T15:48:38.000Z</time>
      </trkpt>
      <trkpt lat="44.36976" lon="7.4744">
        <ele>597.5</ele>
        <time>2022-10-01T15:48:39.000Z</time>
      </trkpt>
      <trkpt lat="44.36974" lon="7.4744">
        <ele>597.5</ele>
        <time>2022-10-01T15:48:40.000Z</time>
      </trkpt>
      <trkpt lat="44.36963" lon="7.47437">
        <ele>598.5</ele>
        <time>2022-10-01T15:48:43.000Z</time>
      </trkpt>
      <trkpt lat="44.36954" lon="7.47435">
        <ele>599.5</ele>
        <time>2022-10-01T15:48:45.000Z</time>
      </trkpt>
      <trkpt lat="44.36951" lon="7.47435">
        <ele>599.5</ele>
        <time>2022-10-01T15:48:46.000Z</time>
      </trkpt>
      <trkpt lat="44.36939" lon="7.47436">
        <ele>599.5</ele>
        <time>2022-10-01T15:48:50.000Z</time>
      </trkpt>
      <trkpt lat="44.36931" lon="7.47436">
        <ele>599.5</ele>
        <time>2022-10-01T15:48:51.000Z</time>
      </trkpt>
      <trkpt lat="44.36928" lon="7.47435">
        <ele>599.5</ele>
        <time>2022-10-01T15:48:52.000Z</time>
      </trkpt>
      <trkpt lat="44.36914" lon="7.47432">
        <ele>599.5</ele>
        <time>2022-10-01T15:48:56.000Z</time>
      </trkpt>
      <trkpt lat="44.36902" lon="7.47429">
        <ele>600.5</ele>
        <time>2022-10-01T15:48:59.000Z</time>
      </trkpt>
      <trkpt lat="44.36891" lon="7.47425">
        <ele>601.3</ele>
        <time>2022-10-01T15:49:02.000Z</time>
      </trkpt>
      <trkpt lat="44.3688" lon="7.47425">
        <ele>601.5</ele>
        <time>2022-10-01T15:49:05.000Z</time>
      </trkpt>
      <trkpt lat="44.36876" lon="7.47425">
        <ele>601.5</ele>
        <time>2022-10-01T15:49:06.000Z</time>
      </trkpt>
      <trkpt lat="44.36872" lon="7.47424">
        <ele>601.5</ele>
        <time>2022-10-01T15:49:07.000Z</time>
      </trkpt>
      <trkpt lat="44.36861" lon="7.47419">
        <ele>602.5</ele>
        <time>2022-10-01T15:49:11.000Z</time>
      </trkpt>
      <trkpt lat="44.3685" lon="7.47416">
        <ele>602.5</ele>
        <time>2022-10-01T15:49:14.000Z</time>
      </trkpt>
      <trkpt lat="44.36851" lon="7.47417">
        <ele>602.5</ele>
        <time>2022-10-01T15:49:15.000Z</time>
      </trkpt>
      <trkpt lat="44.36847" lon="7.47416">
        <ele>602.5</ele>
        <time>2022-10-01T15:49:15.000Z</time>
      </trkpt>
      <trkpt lat="44.36837" lon="7.47413">
        <ele>603.5</ele>
        <time>2022-10-01T15:49:19.000Z</time>
      </trkpt>
      <trkpt lat="44.36826" lon="7.4741">
        <ele>602.8</ele>
        <time>2022-10-01T15:49:23.000Z</time>
      </trkpt>
      <trkpt lat="44.36815" lon="7.47406">
        <ele>602.5</ele>
        <time>2022-10-01T15:49:26.000Z</time>
      </trkpt>
      <trkpt lat="44.36808" lon="7.47403">
        <ele>603.5</ele>
        <time>2022-10-01T15:49:27.000Z</time>
      </trkpt>
      <trkpt lat="44.36806" lon="7.47402">
        <ele>603.5</ele>
        <time>2022-10-01T15:49:28.000Z</time>
      </trkpt>
      <trkpt lat="44.36797" lon="7.474">
        <ele>603.5</ele>
        <time>2022-10-01T15:49:30.000Z</time>
      </trkpt>
      <trkpt lat="44.36794" lon="7.47399">
        <ele>603.5</ele>
        <time>2022-10-01T15:49:31.000Z</time>
      </trkpt>
      <trkpt lat="44.36784" lon="7.47398">
        <ele>604.3</ele>
        <time>2022-10-01T15:49:34.000Z</time>
      </trkpt>
      <trkpt lat="44.36772" lon="7.47396">
        <ele>603.8</ele>
        <time>2022-10-01T15:49:38.000Z</time>
      </trkpt>
      <trkpt lat="44.36763" lon="7.47394">
        <ele>603.5</ele>
        <time>2022-10-01T15:49:41.000Z</time>
      </trkpt>
      <trkpt lat="44.36752" lon="7.47392">
        <ele>603.5</ele>
        <time>2022-10-01T15:49:43.000Z</time>
      </trkpt>
      <trkpt lat="44.36744" lon="7.47389">
        <ele>603.5</ele>
        <time>2022-10-01T15:49:45.000Z</time>
      </trkpt>
      <trkpt lat="44.36742" lon="7.47389">
        <ele>603.5</ele>
        <time>2022-10-01T15:49:46.000Z</time>
      </trkpt>
      <trkpt lat="44.36733" lon="7.47386">
        <ele>604.5</ele>
        <time>2022-10-01T15:49:49.000Z</time>
      </trkpt>
      <trkpt lat="44.36719" lon="7.47382">
        <ele>604.5</ele>
        <time>2022-10-01T15:49:54.000Z</time>
      </trkpt>
      <trkpt lat="44.3671" lon="7.47381">
        <ele>604.5</ele>
        <time>2022-10-01T15:49:56.000Z</time>
      </trkpt>
      <trkpt lat="44.367" lon="7.47378">
        <ele>604.5</ele>
        <time>2022-10-01T15:50:00.000Z</time>
      </trkpt>
      <trkpt lat="44.3669" lon="7.47377">
        <ele>604.5</ele>
        <time>2022-10-01T15:50:03.000Z</time>
      </trkpt>
      <trkpt lat="44.36681" lon="7.47377">
        <ele>604.5</ele>
        <time>2022-10-01T15:50:07.000Z</time>
      </trkpt>
      <trkpt lat="44.36671" lon="7.47376">
        <ele>604.5</ele>
        <time>2022-10-01T15:50:09.000Z</time>
      </trkpt>
      <trkpt lat="44.36658" lon="7.47374">
        <ele>604.5</ele>
        <time>2022-10-01T15:50:13.000Z</time>
      </trkpt>
      <trkpt lat="44.36648" lon="7.47374">
        <ele>604.5</ele>
        <time>2022-10-01T15:50:17.000Z</time>
      </trkpt>
      <trkpt lat="44.36638" lon="7.47373">
        <ele>605.3</ele>
        <time>2022-10-01T15:50:19.000Z</time>
      </trkpt>
      <trkpt lat="44.36626" lon="7.4737">
        <ele>605.5</ele>
        <time>2022-10-01T15:50:24.000Z</time>
      </trkpt>
      <trkpt lat="44.36613" lon="7.47372">
        <ele>606.3</ele>
        <time>2022-10-01T15:50:27.000Z</time>
      </trkpt>
      <trkpt lat="44.36603" lon="7.47375">
        <ele>607.3</ele>
        <time>2022-10-01T15:50:30.000Z</time>
      </trkpt>
      <trkpt lat="44.36589" lon="7.47378">
        <ele>607.5</ele>
        <time>2022-10-01T15:50:34.000Z</time>
      </trkpt>
      <trkpt lat="44.36576" lon="7.47381">
        <ele>607.5</ele>
        <time>2022-10-01T15:50:38.000Z</time>
      </trkpt>
      <trkpt lat="44.36566" lon="7.47384">
        <ele>608.5</ele>
        <time>2022-10-01T15:50:42.000Z</time>
      </trkpt>
      <trkpt lat="44.36555" lon="7.47386">
        <ele>608.5</ele>
        <time>2022-10-01T15:50:45.000Z</time>
      </trkpt>
      <trkpt lat="44.36545" lon="7.47389">
        <ele>608.5</ele>
        <time>2022-10-01T15:50:47.000Z</time>
      </trkpt>
      <trkpt lat="44.36535" lon="7.47394">
        <ele>608.5</ele>
        <time>2022-10-01T15:50:50.000Z</time>
      </trkpt>
      <trkpt lat="44.36523" lon="7.474">
        <ele>609.5</ele>
        <time>2022-10-01T15:50:54.000Z</time>
      </trkpt>
      <trkpt lat="44.36508" lon="7.47407">
        <ele>609.5</ele>
        <time>2022-10-01T15:50:58.000Z</time>
      </trkpt>
      <trkpt lat="44.36497" lon="7.47413">
        <ele>609.5</ele>
        <time>2022-10-01T15:51:02.000Z</time>
      </trkpt>
      <trkpt lat="44.36488" lon="7.47417">
        <ele>609.4</ele>
        <time>2022-10-01T15:51:04.000Z</time>
      </trkpt>
      <trkpt lat="44.36476" lon="7.47423">
        <ele>609.5</ele>
        <time>2022-10-01T15:51:08.000Z</time>
      </trkpt>
      <trkpt lat="44.36474" lon="7.47424">
        <ele>609.5</ele>
        <time>2022-10-01T15:51:08.000Z</time>
      </trkpt>
      <trkpt lat="44.36472" lon="7.47425">
        <ele>609.5</ele>
        <time>2022-10-01T15:51:09.000Z</time>
      </trkpt>
      <trkpt lat="44.36461" lon="7.4743">
        <ele>610.5</ele>
        <time>2022-10-01T15:51:15.000Z</time>
      </trkpt>
      <trkpt lat="44.36452" lon="7.47422">
        <ele>622.9</ele>
        <time>2022-10-01T15:51:23.000Z</time>
      </trkpt>
      <trkpt lat="44.36446" lon="7.47409">
        <ele>623.1</ele>
        <time>2022-10-01T15:51:27.000Z</time>
      </trkpt>
      <trkpt lat="44.36444" lon="7.47407">
        <ele>623.1</ele>
        <time>2022-10-01T15:51:27.000Z</time>
      </trkpt>
      <trkpt lat="44.36442" lon="7.47405">
        <ele>623.1</ele>
        <time>2022-10-01T15:51:28.000Z</time>
      </trkpt>
      <trkpt lat="44.36438" lon="7.474">
        <ele>623.1</ele>
        <time>2022-10-01T15:51:30.000Z</time>
      </trkpt>
      <trkpt lat="44.36437" lon="7.47399">
        <ele>623.1</ele>
        <time>2022-10-01T15:51:32.000Z</time>
      </trkpt>
      <trkpt lat="44.3643" lon="7.47391">
        <ele>623.1</ele>
        <time>2022-10-01T15:51:36.000Z</time>
      </trkpt>
      <trkpt lat="44.36423" lon="7.47388">
        <ele>623.1</ele>
        <time>2022-10-01T15:51:37.000Z</time>
      </trkpt>
      <trkpt lat="44.36421" lon="7.47388">
        <ele>623.1</ele>
        <time>2022-10-01T15:51:38.000Z</time>
      </trkpt>
      <trkpt lat="44.36422" lon="7.47388">
        <ele>623.1</ele>
        <time>2022-10-01T15:51:39.000Z</time>
      </trkpt>
      <trkpt lat="44.36419" lon="7.47387">
        <ele>623.1</ele>
        <time>2022-10-01T15:51:40.000Z</time>
      </trkpt>
      <trkpt lat="44.36408" lon="7.47384">
        <ele>623.1</ele>
        <time>2022-10-01T15:51:43.000Z</time>
      </trkpt>
      <trkpt lat="44.36396" lon="7.47381">
        <ele>623.1</ele>
        <time>2022-10-01T15:51:48.000Z</time>
      </trkpt>
      <trkpt lat="44.3639" lon="7.47379">
        <ele>623.1</ele>
        <time>2022-10-01T15:51:49.000Z</time>
      </trkpt>
      <trkpt lat="44.36388" lon="7.47378">
        <ele>623.1</ele>
        <time>2022-10-01T15:51:50.000Z</time>
      </trkpt>
      <trkpt lat="44.36377" lon="7.47377">
        <ele>623.1</ele>
        <time>2022-10-01T15:51:55.000Z</time>
      </trkpt>
      <trkpt lat="44.36371" lon="7.47375">
        <ele>623.1</ele>
        <time>2022-10-01T15:51:56.000Z</time>
      </trkpt>
      <trkpt lat="44.36367" lon="7.47374">
        <ele>623.1</ele>
        <time>2022-10-01T15:51:57.000Z</time>
      </trkpt>
      <trkpt lat="44.36359" lon="7.47374">
        <ele>623.1</ele>
        <time>2022-10-01T15:51:59.000Z</time>
      </trkpt>
      <trkpt lat="44.36357" lon="7.47374">
        <ele>623.1</ele>
        <time>2022-10-01T15:52:00.000Z</time>
      </trkpt>
      <trkpt lat="44.36347" lon="7.4737">
        <ele>623.1</ele>
        <time>2022-10-01T15:52:03.000Z</time>
      </trkpt>
      <trkpt lat="44.36336" lon="7.47365">
        <ele>623.1</ele>
        <time>2022-10-01T15:52:07.000Z</time>
      </trkpt>
      <trkpt lat="44.36326" lon="7.47361">
        <ele>623.1</ele>
        <time>2022-10-01T15:52:11.000Z</time>
      </trkpt>
      <trkpt lat="44.36315" lon="7.47355">
        <ele>623.1</ele>
        <time>2022-10-01T15:52:15.000Z</time>
      </trkpt>
      <trkpt lat="44.36311" lon="7.47353">
        <ele>623.1</ele>
        <time>2022-10-01T15:52:16.000Z</time>
      </trkpt>
      <trkpt lat="44.36309" lon="7.47353">
        <ele>623.1</ele>
        <time>2022-10-01T15:52:17.000Z</time>
      </trkpt>
      <trkpt lat="44.36302" lon="7.4735">
        <ele>623.1</ele>
        <time>2022-10-01T15:52:20.000Z</time>
      </trkpt>
      <trkpt lat="44.36301" lon="7.4735">
        <ele>623.1</ele>
        <time>2022-10-01T15:52:21.000Z</time>
      </trkpt>
      <trkpt lat="44.36292" lon="7.47346">
        <ele>623.1</ele>
        <time>2022-10-01T15:52:26.000Z</time>
      </trkpt>
      <trkpt lat="44.36281" lon="7.47343">
        <ele>623.1</ele>
        <time>2022-10-01T15:52:36.000Z</time>
      </trkpt>
      <trkpt lat="44.36281" lon="7.47343">
        <ele>623.1</ele>
        <time>2022-10-01T15:52:38.000Z</time>
      </trkpt>
      <trkpt lat="44.36282" lon="7.47343">
        <ele>625.7</ele>
        <time>2022-10-01T15:52:39.000Z</time>
      </trkpt>
      <trkpt lat="44.36282" lon="7.47341">
        <ele>626.9</ele>
        <time>2022-10-01T15:52:46.000Z</time>
      </trkpt>
      <trkpt lat="44.36282" lon="7.47339">
        <ele>626.9</ele>
        <time>2022-10-01T15:53:02.000Z</time>
      </trkpt>
      <trkpt lat="44.36282" lon="7.47335">
        <ele>626.9</ele>
        <time>2022-10-01T15:53:13.000Z</time>
      </trkpt>
      <trkpt lat="44.36281" lon="7.47334">
        <ele>626.9</ele>
        <time>2022-10-01T15:53:22.000Z</time>
      </trkpt>
      <trkpt lat="44.36281" lon="7.47335">
        <ele>626.9</ele>
        <time>2022-10-01T15:53:23.000Z</time>
      </trkpt>
      <trkpt lat="44.36282" lon="7.47334">
        <ele>626.9</ele>
        <time>2022-10-01T15:53:26.000Z</time>
      </trkpt>
      <trkpt lat="44.36282" lon="7.47331">
        <ele>626.9</ele>
        <time>2022-10-01T15:53:29.000Z</time>
      </trkpt>
      <trkpt lat="44.36282" lon="7.4733">
        <ele>626.9</ele>
        <time>2022-10-01T15:53:33.000Z</time>
      </trkpt>
      <trkpt lat="44.36281" lon="7.47328">
        <ele>626.9</ele>
        <time>2022-10-01T15:53:37.000Z</time>
      </trkpt>
      <trkpt lat="44.36281" lon="7.47327">
        <ele>626.9</ele>
        <time>2022-10-01T15:53:41.000Z</time>
      </trkpt>
      <trkpt lat="44.36275" lon="7.47315">
        <ele>626.9</ele>
        <time>2022-10-01T15:53:50.000Z</time>
      </trkpt>
      <trkpt lat="44.36271" lon="7.47317">
        <ele>626.9</ele>
        <time>2022-10-01T15:54:00.000Z</time>
      </trkpt>
      <trkpt lat="44.36271" lon="7.47317">
        <ele>626.9</ele>
        <time>2022-10-01T15:54:03.000Z</time>
      </trkpt>
      <trkpt lat="44.3627" lon="7.47318">
        <ele>626.9</ele>
        <time>2022-10-01T15:54:03.000Z</time>
      </trkpt>
      <trkpt lat="44.36268" lon="7.47319">
        <ele>626.9</ele>
        <time>2022-10-01T15:54:05.000Z</time>
      </trkpt>
      <trkpt lat="44.3626" lon="7.47326">
        <ele>626.9</ele>
        <time>2022-10-01T15:54:10.000Z</time>
      </trkpt>
      <trkpt lat="44.36248" lon="7.47335">
        <ele>626.9</ele>
        <time>2022-10-01T15:54:15.000Z</time>
      </trkpt>
      <trkpt lat="44.36241" lon="7.4734">
        <ele>626.9</ele>
        <time>2022-10-01T15:54:27.000Z</time>
      </trkpt>
      <trkpt lat="44.36241" lon="7.47339">
        <ele>626.9</ele>
        <time>2022-10-01T15:54:30.000Z</time>
      </trkpt>
      <trkpt lat="44.3625" lon="7.4733">
        <ele>626.9</ele>
        <time>2022-10-01T15:54:35.000Z</time>
      </trkpt>
      <trkpt lat="44.36259" lon="7.47323">
        <ele>626.9</ele>
        <time>2022-10-01T15:54:41.000Z</time>
      </trkpt>
      <trkpt lat="44.36263" lon="7.47319">
        <ele>626.9</ele>
        <time>2022-10-01T15:54:43.000Z</time>
      </trkpt>
      <trkpt lat="44.36264" lon="7.47318">
        <ele>626.9</ele>
        <time>2022-10-01T15:54:45.000Z</time>
      </trkpt>
      <trkpt lat="44.36268" lon="7.47316">
        <ele>626.9</ele>
        <time>2022-10-01T15:54:49.000Z</time>
      </trkpt>
      <trkpt lat="44.36268" lon="7.47316">
        <ele>626.9</ele>
        <time>2022-10-01T15:54:52.000Z</time>
      </trkpt>
      <trkpt lat="44.36275" lon="7.47317">
        <ele>626.9</ele>
        <time>2022-10-01T15:55:03.000Z</time>
      </trkpt>
      <trkpt lat="44.36275" lon="7.47316">
        <ele>626.9</ele>
        <time>2022-10-01T15:55:05.000Z</time>
      </trkpt>
      <trkpt lat="44.36276" lon="7.47314">
        <ele>626.9</ele>
        <time>2022-10-01T15:55:08.000Z</time>
      </trkpt>
      <trkpt lat="44.36276" lon="7.47314">
        <ele>626.9</ele>
        <time>2022-10-01T15:55:09.000Z</time>
      </trkpt>
      <trkpt lat="44.36277" lon="7.47315">
        <ele>626.9</ele>
        <time>2022-10-01T15:55:13.000Z</time>
      </trkpt>
      <trkpt lat="44.36278" lon="7.47314">
        <ele>626.9</ele>
        <time>2022-10-01T15:55:23.000Z</time>
      </trkpt>
      <trkpt lat="44.36278" lon="7.47312">
        <ele>626.9</ele>
        <time>2022-10-01T15:55:23.000Z</time>
      </trkpt>
      <trkpt lat="44.36279" lon="7.47311">
        <ele>626.9</ele>
        <time>2022-10-01T15:55:25.000Z</time>
      </trkpt>
      <trkpt lat="44.3628" lon="7.47308">
        <ele>626.9</ele>
        <time>2022-10-01T15:55:28.000Z</time>
      </trkpt>
      <trkpt lat="44.36279" lon="7.47309">
        <ele>626.9</ele>
        <time>2022-10-01T15:55:39.000Z</time>
      </trkpt>
      <trkpt lat="44.36279" lon="7.47309">
        <ele>626.9</ele>
        <time>2022-10-01T15:55:40.000Z</time>
      </trkpt>
      <trkpt lat="44.36279" lon="7.4731">
        <ele>626.9</ele>
        <time>2022-10-01T15:55:41.000Z</time>
      </trkpt>
      <trkpt lat="44.36279" lon="7.4731">
        <ele>626.9</ele>
        <time>2022-10-01T15:55:44.000Z</time>
      </trkpt>
      <trkpt lat="44.36279" lon="7.4731">
        <ele>626.9</ele>
        <time>2022-10-01T15:55:46.000Z</time>
      </trkpt>
      <trkpt lat="44.36279" lon="7.4731">
        <ele>626.9</ele>
        <time>2022-10-01T15:55:47.000Z</time>
      </trkpt>
      <trkpt lat="44.36279" lon="7.47309">
        <ele>626.9</ele>
        <time>2022-10-01T15:55:48.000Z</time>
      </trkpt>
      <trkpt lat="44.3628" lon="7.47308">
        <ele>626.9</ele>
        <time>2022-10-01T15:55:53.000Z</time>
      </trkpt>
      <trkpt lat="44.3628" lon="7.47309">
        <ele>626.9</ele>
        <time>2022-10-01T15:55:58.000Z</time>
      </trkpt>
      <trkpt lat="44.36279" lon="7.4731">
        <ele>626.9</ele>
        <time>2022-10-01T15:55:59.000Z</time>
      </trkpt>
      <trkpt lat="44.36279" lon="7.47309">
        <ele>626.9</ele>
        <time>2022-10-01T15:56:02.000Z</time>
      </trkpt>
      <trkpt lat="44.36279" lon="7.47308">
        <ele>626.9</ele>
        <time>2022-10-01T15:56:05.000Z</time>
      </trkpt>
      <trkpt lat="44.3628" lon="7.47308">
        <ele>626.9</ele>
        <time>2022-10-01T15:56:06.000Z</time>
      </trkpt>
      <trkpt lat="44.3628" lon="7.47305">
        <ele>626.9</ele>
        <time>2022-10-01T15:56:24.000Z</time>
      </trkpt>
      <trkpt lat="44.3628" lon="7.47305">
        <ele>626.9</ele>
        <time>2022-10-01T15:56:27.000Z</time>
      </trkpt>
      <trkpt lat="44.3628" lon="7.47305">
        <ele>626.9</ele>
        <time>2022-10-01T15:56:29.000Z</time>
      </trkpt>
      <trkpt lat="44.36279" lon="7.47305">
        <ele>626.9</ele>
        <time>2022-10-01T15:56:30.000Z</time>
      </trkpt>
      <trkpt lat="44.36279" lon="7.47304">
        <ele>626.9</ele>
        <time>2022-10-01T15:56:30.000Z</time>
      </trkpt>
      <trkpt lat="44.36278" lon="7.47304">
        <ele>626.9</ele>
        <time>2022-10-01T15:56:33.000Z</time>
      </trkpt>
      <trkpt lat="44.36278" lon="7.47304">
        <ele>626.9</ele>
        <time>2022-10-01T15:56:36.000Z</time>
      </trkpt>
      <trkpt lat="44.36277" lon="7.47303">
        <ele>626.9</ele>
        <time>2022-10-01T15:56:39.000Z</time>
      </trkpt>
      <trkpt lat="44.36278" lon="7.47303">
        <ele>626.9</ele>
        <time>2022-10-01T15:56:44.000Z</time>
      </trkpt>
      <trkpt lat="44.36277" lon="7.47303">
        <ele>626.9</ele>
        <time>2022-10-01T15:56:50.000Z</time>
      </trkpt>
      <trkpt lat="44.36277" lon="7.47303">
        <ele>626.9</ele>
        <time>2022-10-01T15:56:51.000Z</time>
      </trkpt>
      <trkpt lat="44.36277" lon="7.47303">
        <ele>626.9</ele>
        <time>2022-10-01T15:56:52.000Z</time>
      </trkpt>
      <trkpt lat="44.36278" lon="7.47303">
        <ele>626.9</ele>
        <time>2022-10-01T15:56:58.000Z</time>
      </trkpt>
      <trkpt lat="44.36276" lon="7.47316">
        <ele>626.9</ele>
        <time>2022-10-01T15:57:10.000Z</time>
      </trkpt>
      <trkpt lat="44.36273" lon="7.4733">
        <ele>626.9</ele>
        <time>2022-10-01T15:57:20.000Z</time>
      </trkpt>
      <trkpt lat="44.36273" lon="7.4733">
        <ele>626.9</ele>
        <time>2022-10-01T15:57:30.000Z</time>
      </trkpt>
      <trkpt lat="44.36284" lon="7.47277">
        <ele>626.9</ele>
        <time>2022-10-01T15:57:46.000Z</time>
      </trkpt>
      <trkpt lat="44.36291" lon="7.47241">
        <ele>626.9</ele>
        <time>2022-10-01T15:57:47.000Z</time>
      </trkpt>
      <trkpt lat="44.36297" lon="7.47217">
        <ele>626.9</ele>
        <time>2022-10-01T15:57:48.000Z</time>
      </trkpt>
      <trkpt lat="44.36301" lon="7.47199">
        <ele>626.9</ele>
        <time>2022-10-01T15:57:49.000Z</time>
      </trkpt>
      <trkpt lat="44.36292" lon="7.47189">
        <ele>626.9</ele>
        <time>2022-10-01T15:57:59.000Z</time>
      </trkpt>
      <trkpt lat="44.36283" lon="7.47193">
        <ele>626.9</ele>
        <time>2022-10-01T15:58:02.000Z</time>
      </trkpt>
      <trkpt lat="44.36278" lon="7.47204">
        <ele>626.9</ele>
        <time>2022-10-01T15:58:05.000Z</time>
      </trkpt>
      <trkpt lat="44.36278" lon="7.47204">
        <ele>626.9</ele>
        <time>2022-10-01T15:58:05.000Z</time>
      </trkpt>
      <trkpt lat="44.36278" lon="7.47204">
        <ele>626.9</ele>
        <time>2022-10-01T15:58:05.000Z</time>
      </trkpt>
      <trkpt lat="44.36278" lon="7.47204">
        <ele>626.9</ele>
        <time>2022-10-01T15:58:05.000Z</time>
      </trkpt>
    </trkseg>
  </trk>
</gpx>